# Wetter Temperatur Luftdruck Luftfeuchtigkeit Sichtweite Windgeschwindigkeit Windrichtung Zeit
1 Clear 21 1016 49 10000 2.1 180 09:22 14.07.2020
2 Clear 20 1016 55 10000 2.6 160 08:58 14.07.2020
3 Clear 18 1016 59 10000 2.6 170 08:38 14.07.2020
4 Clear 19 1016 59 10000 2.6 170 08:20 14.07.2020
5 Clear 17 1016 59 10000 1.5 150 07:44 14.07.2020
6 Clear 16 1016 67 10000 1.5 120 07:19 14.07.2020
7 Clear 15 1016 72 10000 0.5 0 06:57 14.07.2020
8 Clear 14 1017 82 10000 1 0 06:26 14.07.2020
9 Clear 14 1017 82 10000 0.5 0 05:50 14.07.2020
10 Clear 14 1017 76 10000 1.5 60 04:52 14.07.2020
11 Clear 14 1017 76 10000 1.5 60 04:33 14.07.2020
12 Clear 15 1018 76 10000 1 0 03:31 14.07.2020
13 Clouds 15 1018 76 10000 0.5 0 02:29 14.07.2020
14 Clouds 15 1018 76 10000 0.5 50 01:45 14.07.2020
15 Clouds 16 1018 72 10000 1 70 01:23 14.07.2020
16 Clouds 17 1019 67 10000 1 70 00:43 14.07.2020
17 Clouds 17 1019 63 10000 1 0 00:25 14.07.2020
18 Clouds 17 1019 59 10000 1.5 60 23:39 13.07.2020
19 Clouds 17 1019 59 10000 1.5 60 23:20 13.07.2020
20 Clouds 18 1019 55 10000 1 70 22:58 13.07.2020
21 Clouds 18 1019 55 10000 1 70 22:39 13.07.2020
22 Clouds 19 1019 49 10000 1 0 22:20 13.07.2020
23 Clouds 20 1019 46 10000 1.5 20 21:55 13.07.2020
24 Clear 21 1019 46 10000 1.5 20 21:37 13.07.2020
25 Clouds 22 1019 43 10000 1.5 360 21:19 13.07.2020
26 Clear 22 1019 40 10000 1.5 20 20:56 13.07.2020
27 Clear 22 1019 40 10000 1.5 20 20:37 13.07.2020
28 Clouds 23 1019 40 10000 1.5 0 20:19 13.07.2020
29 Clouds 23 1020 38 10000 1.5 0 19:43 13.07.2020
30 Clouds 23 1020 38 10000 2.1 240 19:25 13.07.2020
31 Clouds 24 1020 36 10000 2.1 0 18:57 13.07.2020
32 Clouds 24 1020 36 10000 1.5 0 18:39 13.07.2020
33 Clouds 24 1020 36 10000 1.5 0 18:20 13.07.2020
34 Clouds 24 1021 38 10000 2.6 280 17:56 13.07.2020
35 Clouds 24 1021 38 10000 2.6 280 17:37 13.07.2020
36 Clouds 24 1021 38 10000 3.1 300 17:18 13.07.2020
37 Clouds 24 1021 38 10000 2.6 0 16:55 13.07.2020
38 Clouds 24 1021 38 10000 2.6 0 16:36 13.07.2020
39 Clouds 24 1022 38 10000 3.1 0 16:18 13.07.2020
40 Clouds 24 1022 38 10000 3.1 320 15:41 13.07.2020
41 Clouds 24 1022 40 10000 2.1 0 15:21 13.07.2020
42 Clouds 24 1023 40 10000 2.6 310 14:59 13.07.2020
43 Clouds 23 1023 40 10000 2.6 310 14:40 13.07.2020
44 Clear 23 1023 43 10000 3.6 320 14:21 13.07.2020
45 Clear 23 1023 40 10000 3.1 300 13:57 13.07.2020
46 Clear 22 1023 40 10000 3.1 300 13:39 13.07.2020
47 Clear 22 1024 40 10000 3.1 270 13:21 13.07.2020
48 Clouds 22 1024 43 10000 3.1 320 12:54 13.07.2020
49 Clouds 21 1024 45 10000 3.6 280 12:36 13.07.2020
50 Clouds 21 1024 45 10000 3.6 280 12:18 13.07.2020
51 Clouds 21 1024 45 10000 3.6 270 11:40 13.07.2020
52 Clouds 21 1025 48 10000 3.1 290 11:22 13.07.2020
53 Clouds 21 1025 49 10000 3.6 0 10:43 13.07.2020
54 Clouds 20 1025 49 10000 3.1 250 10:20 13.07.2020
55 Clouds 19 1025 52 10000 2.6 250 09:56 13.07.2020
56 Clouds 19 1025 52 10000 2.6 250 09:38 13.07.2020
57 Clear 18 1025 52 10000 3.1 280 09:18 13.07.2020
58 Clear 18 1025 55 10000 2.6 250 08:46 13.07.2020
59 Clouds 17 1026 59 10000 2.6 270 08:26 13.07.2020
60 Clouds 14 1025 76 10000 1 240 07:22 13.07.2020
61 Clouds 15 1025 76 10000 1.36 225 06:53 13.07.2020
62 Clouds 12 1025 93 10000 1.36 225 06:35 13.07.2020
63 Clear 12 1026 93 10000 0.5 0 05:33 13.07.2020
64 Clear 14 1026 81 10000 0.5 0 03:31 13.07.2020
65 Clouds 14 1026 82 10000 0.5 240 01:44 13.07.2020
66 Clouds 15 1026 67 10000 1 0 01:22 13.07.2020
67 Clouds 16 1026 63 10000 1 310 00:45 13.07.2020
68 Clouds 16 1026 59 10000 1 0 00:24 13.07.2020
69 Clouds 17 1026 55 10000 1.5 330 23:44 12.07.2020
70 Clouds 17 1026 55 10000 1 0 23:23 12.07.2020
71 Clouds 17 1026 55 10000 1.5 360 22:59 12.07.2020
72 Clouds 17 1026 55 10000 1.5 340 22:37 12.07.2020
73 Clouds 17 1026 55 10000 1.5 340 22:19 12.07.2020
74 Clouds 18 1026 48 10000 2.1 360 21:57 12.07.2020
75 Clouds 18 1026 48 10000 2.1 360 21:39 12.07.2020
76 Clear 18 1026 48 10000 3.1 350 21:19 12.07.2020
77 Clear 18 1026 48 10000 3.1 330 20:58 12.07.2020
78 Clear 19 1026 48 10000 3.1 330 20:38 12.07.2020
79 Clouds 19 1026 45 10000 3.1 320 20:19 12.07.2020
80 Clouds 20 1026 42 10000 3.6 330 19:54 12.07.2020
81 Clouds 20 1026 45 10000 3.6 320 19:36 12.07.2020
82 Clouds 20 1026 45 10000 3.6 320 19:18 12.07.2020
83 Clouds 20 1026 42 10000 5.1 330 18:40 12.07.2020
84 Clouds 20 1026 42 10000 3.6 300 18:19 12.07.2020
85 Clouds 21 1026 45 10000 3.6 340 17:41 12.07.2020
86 Clear 21 1026 40 10000 5.1 290 17:22 12.07.2020
87 Clear 21 1026 40 10000 4.1 310 16:58 12.07.2020
88 Clear 21 1026 40 10000 4.1 310 16:40 12.07.2020
89 Clear 21 1026 40 10000 3.6 320 16:19 12.07.2020
90 Clear 21 1026 37 10000 5.7 280 15:43 12.07.2020
91 Clear 21 1026 40 10000 4.6 280 15:23 12.07.2020
92 Clear 21 1026 42 10000 5.7 280 14:45 12.07.2020
93 Clear 21 1026 40 10000 4.6 320 14:27 12.07.2020
94 Clear 20 1027 42 10000 6.2 270 13:57 12.07.2020
95 Clear 20 1027 42 10000 6.2 270 13:39 12.07.2020
96 Clouds 20 1027 45 10000 4.1 300 13:20 12.07.2020
97 Clouds 20 1027 42 10000 5.1 310 12:54 12.07.2020
98 Clouds 20 1027 45 10000 5.1 280 12:36 12.07.2020
99 Clouds 19 1027 45 10000 5.1 280 12:18 12.07.2020
100 Clouds 18 1026 45 10000 5.1 290 11:42 12.07.2020
101 Clouds 19 1027 48 10000 4.6 290 11:19 12.07.2020
102 Clouds 18 1027 55 10000 4.1 300 10:42 12.07.2020
103 Clouds 18 1027 55 10000 4.1 300 10:42 12.07.2020
104 Clouds 18 1027 59 10000 4.1 300 10:22 12.07.2020
105 Clouds 17 1027 63 10000 3.1 280 09:55 12.07.2020
106 Clouds 17 1027 63 10000 3.1 280 09:37 12.07.2020
107 Clouds 16 1027 67 10000 3.1 290 09:18 12.07.2020
108 Clear 15 1026 67 10000 3.1 300 08:42 12.07.2020
109 Clear 15 1026 76 10000 2.6 280 08:23 12.07.2020
110 Clear 14 1026 76 10000 2.1 300 07:57 12.07.2020
111 Clear 13 1026 81 10000 1.5 290 07:37 12.07.2020
112 Clear 12 1026 81 10000 1.5 290 07:18 12.07.2020
113 Clouds 12 1026 87 10000 1.5 260 06:49 12.07.2020
114 Clouds 11 1025 87 10000 1.5 240 06:20 12.07.2020
115 Clouds 12 1025 87 10000 1.5 240 06:20 12.07.2020
116 Clouds 12 1025 87 10000 1.5 300 05:23 12.07.2020
117 Clear 12 1025 87 10000 1.5 310 04:44 12.07.2020
118 Clear 12 1025 93 10000 1.5 280 04:24 12.07.2020
119 Clear 12 1024 87 10000 2.1 280 03:31 12.07.2020
120 Clear 13 1024 93 10000 1.5 270 02:47 12.07.2020
121 Clouds 14 1024 71 10000 3.1 310 01:36 12.07.2020
122 Clouds 14 1024 71 10000 3.1 300 00:44 12.07.2020
123 Clouds 15 1024 71 10000 2.6 310 00:23 12.07.2020
124 Clouds 15 1024 71 10000 2.1 310 23:57 11.07.2020
125 Clouds 15 1024 71 10000 2.1 310 23:57 11.07.2020
126 Clouds 15 1024 71 10000 2.1 310 23:38 11.07.2020
127 Clouds 15 1024 67 10000 1.5 290 23:19 11.07.2020
128 Clouds 15 1024 67 10000 1.5 280 22:46 11.07.2020
129 Clouds 16 1024 63 10000 1.5 290 22:26 11.07.2020
130 Clouds 16 1023 59 10000 2.1 290 21:59 11.07.2020
131 Clear 17 1023 59 10000 2.1 290 21:40 11.07.2020
132 Clear 17 1023 55 10000 2.6 280 21:22 11.07.2020
133 Clear 18 1023 52 10000 2.6 290 20:56 11.07.2020
134 Rain 18 1023 52 10000 2.1 300 20:38 11.07.2020
135 Rain 18 1023 52 10000 2.1 300 20:20 11.07.2020
136 Rain 18 1023 55 10000 6.7 310 19:57 11.07.2020
137 Rain 18 1023 55 10000 2.6 310 19:39 11.07.2020
138 Rain 19 1023 42 10000 5.1 280 19:20 11.07.2020
139 Rain 19 1022 48 10000 4.6 350 18:56 11.07.2020
140 Rain 20 1022 40 10000 4.1 290 18:37 11.07.2020
141 Rain 20 1022 40 10000 4.1 290 18:19 11.07.2020
142 Rain 20 1022 40 10000 4.6 300 17:43 11.07.2020
143 Rain 21 1022 39 10000 6.7 290 17:22 11.07.2020
144 Rain 20 1022 45 10000 4.1 270 16:59 11.07.2020
145 Rain 20 1022 45 10000 4.1 300 16:39 11.07.2020
146 Rain 20 1022 45 10000 4.1 300 16:20 11.07.2020
147 Rain 20 1022 45 10000 4.1 320 15:57 11.07.2020
148 Clear 20 1022 48 10000 3.6 300 15:37 11.07.2020
149 Clear 20 1022 48 10000 3.6 300 15:19 11.07.2020
150 Clear 20 1022 45 10000 4.1 320 14:55 11.07.2020
151 Clouds 19 1022 48 10000 2.6 340 14:36 11.07.2020
152 Clouds 19 1022 48 10000 2.6 340 14:18 11.07.2020
153 Clouds 19 1022 48 10000 4.1 300 13:41 11.07.2020
154 Clouds 19 1022 45 0 4.6 290 13:21 11.07.2020
155 Clouds 19 1022 48 10000 4.1 290 12:55 11.07.2020
156 Clouds 19 1022 51 10000 4.1 310 12:37 11.07.2020
157 Clouds 18 1022 51 10000 4.1 310 12:18 11.07.2020
158 Clouds 18 1022 51 10000 3.6 310 11:41 11.07.2020
159 Clouds 18 1021 55 10000 4.1 300 11:21 11.07.2020
160 Clouds 17 1021 59 10000 4.6 310 10:57 11.07.2020
161 Clouds 17 1021 59 10000 4.6 310 10:39 11.07.2020
162 Clouds 18 1021 59 0 4.6 310 10:21 11.07.2020
163 Clouds 17 1021 63 10000 3.6 300 09:43 11.07.2020
164 Clouds 15 1021 67 10000 3.6 260 09:20 11.07.2020
165 Clouds 14 1021 71 10000 3.6 270 08:47 11.07.2020
166 Clouds 14 1020 82 10000 3.1 260 08:29 11.07.2020
167 Clouds 13 1020 81 10000 2.6 270 07:56 11.07.2020
168 Clouds 13 1020 81 10000 2.6 270 07:56 11.07.2020
169 Clouds 12 1020 87 10000 3.1 270 07:37 11.07.2020
170 Clouds 12 1020 87 10000 3.1 270 07:18 11.07.2020
171 Clouds 12 1020 87 10000 2.6 270 06:46 11.07.2020
172 Clouds 11 1019 87 10000 3.1 280 06:18 11.07.2020
173 Clouds 11 1019 100 10000 2.6 270 05:20 11.07.2020
174 Clouds 11 1018 93 10000 2.6 250 04:53 11.07.2020
175 Clouds 11 1018 93 10000 2.6 250 04:31 11.07.2020
176 Clouds 12 1018 93 10000 3.6 270 02:58 11.07.2020
177 Clouds 12 1018 93 10000 3.6 260 02:36 11.07.2020
178 Clouds 13 1017 87 10000 3.1 270 01:32 11.07.2020
179 Clouds 13 1017 87 10000 3.1 280 00:59 11.07.2020
180 Clouds 13 1017 87 10000 3.1 280 00:40 11.07.2020
181 Clouds 13 1016 82 10000 3.1 280 00:21 11.07.2020
182 Clouds 14 1016 82 10000 2.6 270 23:57 10.07.2020
183 Clouds 14 1016 82 10000 2.6 270 23:38 10.07.2020
184 Clouds 14 1016 76 10000 3.6 290 23:18 10.07.2020
185 Clouds 15 1015 72 10000 5.1 300 22:43 10.07.2020
186 Clouds 15 1014 77 10000 4.1 290 22:20 10.07.2020
187 Clouds 15 1014 77 10000 5.1 290 21:55 10.07.2020
188 Clouds 16 1013 72 10000 5.1 300 21:36 10.07.2020
189 Clouds 16 1013 72 10000 5.1 300 21:18 10.07.2020
190 Clouds 16 1013 72 10000 5.1 300 21:18 10.07.2020
191 Clouds 16 1013 72 10000 5.1 310 20:41 10.07.2020
192 Clouds 17 1012 77 10000 6.7 290 20:22 10.07.2020
193 Clouds 17 1012 77 10000 8.2 300 19:57 10.07.2020
194 Clouds 17 1012 77 10000 8.2 300 19:39 10.07.2020
195 Clouds 18 1011 77 10000 9.3 290 19:20 10.07.2020
196 Clouds 21 1010 77 10000 8.7 290 18:42 10.07.2020
197 Clouds 22 1009 64 10000 8.2 290 18:21 10.07.2020
198 Clouds 23 1008 56 10000 10.8 270 17:58 10.07.2020
199 Clouds 23 1008 56 10000 10.8 270 17:40 10.07.2020
200 Clouds 24 1007 53 10000 9.3 270 17:21 10.07.2020
201 Clouds 24 1007 60 10000 10.3 240 16:44 10.07.2020
202 Clouds 24 1006 64 10000 9.3 250 16:21 10.07.2020
203 Rain 24 1006 47 10000 10.3 250 15:55 10.07.2020
204 Rain 25 1006 47 10000 10.3 250 15:37 10.07.2020
205 Rain 24 1006 73 10000 3.6 240 15:18 10.07.2020
206 Rain 23 1006 83 10000 1.5 240 14:41 10.07.2020
207 Rain 23 1006 73 10000 2.1 260 14:21 10.07.2020
208 Clouds 24 1006 69 10000 1.5 190 13:58 10.07.2020
209 Clouds 24 1006 69 10000 1.5 190 13:39 10.07.2020
210 Clouds 24 1006 73 10000 3.1 160 13:21 10.07.2020
211 Clouds 23 1006 69 10000 3.6 150 12:58 10.07.2020
212 Clouds 21 1006 68 10000 3.1 140 12:38 10.07.2020
213 Clouds 21 1006 68 10000 3.1 140 12:19 10.07.2020
214 Clouds 21 1006 77 10000 2.1 150 11:42 10.07.2020
215 Clouds 21 1006 83 10000 1.5 70 11:22 10.07.2020
216 Clouds 19 1007 93 10000 2.6 150 10:58 10.07.2020
217 Clouds 19 1007 93 10000 2.6 150 10:40 10.07.2020
218 Clouds 19 1007 93 10000 2.6 150 10:21 10.07.2020
219 Rain 18 1008 100 10000 2.1 160 09:55 10.07.2020
220 Rain 17 1008 100 10000 1.5 180 09:36 10.07.2020
221 Rain 17 1008 100 10000 1.5 180 09:18 10.07.2020
222 Rain 17 1009 93 10000 2.6 200 08:43 10.07.2020
223 Rain 17 1009 88 10000 3.1 200 08:25 10.07.2020
224 Rain 17 1009 93 10000 2.6 180 07:59 10.07.2020
225 Rain 17 1009 93 10000 2.6 180 07:41 10.07.2020
226 Clouds 17 1009 93 10000 2.1 140 07:20 10.07.2020
227 Rain 17 1009 93 10000 1.5 130 06:45 10.07.2020
228 Clouds 16 1009 100 10000 0.5 0 05:54 10.07.2020
229 Clouds 16 1010 100 10000 2.1 210 04:31 10.07.2020
230 Clouds 16 1010 93 10000 2.1 280 03:26 10.07.2020
231 Clouds 16 1010 93 10000 2.1 280 02:48 10.07.2020
232 Clouds 16 1011 100 10000 1.5 260 01:47 10.07.2020
233 Clouds 16 1011 93 10000 3.1 260 00:45 10.07.2020
234 Clouds 17 1011 88 10000 3.1 270 00:18 10.07.2020
235 Clouds 17 1011 88 10000 3.1 250 23:45 09.07.2020
236 Clouds 17 1011 88 10000 2.6 270 23:21 09.07.2020
237 Clouds 17 1011 93 10000 2.6 270 22:58 09.07.2020
238 Clouds 18 1011 93 10000 2.6 270 22:39 09.07.2020
239 Clouds 18 1011 93 10000 3.6 290 22:21 09.07.2020
240 Clouds 18 1011 88 10000 4.6 290 21:56 09.07.2020
241 Clouds 19 1010 88 10000 3.6 310 21:37 09.07.2020
242 Clouds 19 1011 88 10000 4.6 290 21:37 09.07.2020
243 Clouds 19 1010 88 10000 3.6 310 21:18 09.07.2020
244 Clouds 20 1010 82 10000 3.1 300 20:43 09.07.2020
245 Clouds 20 1010 82 10000 4.1 240 20:25 09.07.2020
246 Clouds 20 1010 82 10000 3.6 230 19:58 09.07.2020
247 Clouds 20 1010 82 10000 3.6 230 19:40 09.07.2020
248 Rain 19 1010 82 10000 5.7 230 19:20 09.07.2020
249 Rain 20 1010 88 10000 4.6 200 18:42 09.07.2020
250 Rain 20 1010 88 10000 4.6 200 18:21 09.07.2020
251 Rain 19 1010 88 10000 3.6 200 17:55 09.07.2020
252 Rain 19 1010 88 10000 3.6 200 17:37 09.07.2020
253 Rain 19 1011 93 10000 4.6 200 17:18 09.07.2020
254 Rain 19 1011 88 10000 3.6 200 16:55 09.07.2020
255 Rain 19 1011 88 10000 4.1 210 16:37 09.07.2020
256 Rain 18 1011 88 10000 4.1 210 16:18 09.07.2020
257 Rain 18 1012 93 10000 4.1 170 15:54 09.07.2020
258 Rain 17 1012 88 10000 3.6 180 15:36 09.07.2020
259 Rain 17 1012 88 10000 3.6 180 15:18 09.07.2020
260 Rain 17 1012 93 7000 3.1 180 14:54 09.07.2020
261 Rain 17 1012 93 7000 3.1 180 14:36 09.07.2020
262 Rain 17 1013 93 7000 3.6 170 14:18 09.07.2020
263 Rain 17 1013 88 10000 1.5 170 13:41 09.07.2020
264 Rain 18 1013 77 10000 3.6 170 13:21 09.07.2020
265 Rain 18 1013 72 10000 4.6 180 12:59 09.07.2020
266 Clouds 19 1013 60 10000 5.7 190 12:39 09.07.2020
267 Clouds 19 1013 60 10000 5.7 190 12:20 09.07.2020
268 Clouds 19 1014 63 10000 5.1 200 11:55 09.07.2020
269 Clouds 19 1014 63 10000 5.1 200 11:37 09.07.2020
270 Clouds 19 1014 63 10000 5.7 200 11:18 09.07.2020
271 Clouds 19 1014 63 10000 4.1 180 10:42 09.07.2020
272 Clouds 18 1014 68 10000 4.6 160 10:24 09.07.2020
273 Clouds 18 1015 72 10000 3.6 190 09:59 09.07.2020
274 Clouds 17 1015 72 10000 3.6 190 09:41 09.07.2020
275 Clouds 17 1015 72 10000 3.1 180 09:21 09.07.2020
276 Clouds 16 1015 77 10000 2.6 170 08:45 09.07.2020
277 Clouds 16 1015 77 10000 2.6 150 08:25 09.07.2020
278 Clouds 15 1015 77 10000 1.5 150 07:47 09.07.2020
279 Rain 15 1015 82 10000 1.82 193 07:26 09.07.2020
280 Rain 15 1015 77 10000 1.82 193 06:57 09.07.2020
281 Rain 14 1016 82 10000 0.5 40 06:20 09.07.2020
282 Clouds 14 1016 82 10000 1 230 05:46 09.07.2020
283 Clouds 14 1015 87 10000 1.5 170 04:28 09.07.2020
284 Clouds 14 1016 82 10000 1.5 240 02:37 09.07.2020
285 Clouds 15 1016 82 10000 1 0 01:40 09.07.2020
286 Rain 15 1016 77 10000 2.1 260 00:56 09.07.2020
287 Rain 15 1016 77 10000 2.1 260 00:37 09.07.2020
288 Clouds 16 1016 77 10000 2.1 260 00:18 09.07.2020
289 Rain 16 1016 77 10000 1.5 240 23:43 08.07.2020
290 Rain 16 1016 77 10000 2.1 250 23:24 08.07.2020
291 Clouds 16 1016 72 10000 1.5 270 22:55 08.07.2020
292 Clouds 16 1016 72 10000 1.5 270 22:36 08.07.2020
293 Clouds 16 1016 72 10000 3.1 250 22:18 08.07.2020
294 Clouds 16 1015 72 10000 3.6 260 21:39 08.07.2020
295 Clouds 17 1015 63 10000 2.6 280 21:21 08.07.2020
296 Clouds 17 1015 63 10000 2.1 290 20:59 08.07.2020
297 Clouds 18 1015 63 10000 2.1 290 20:41 08.07.2020
298 Clouds 18 1015 63 10000 2.6 280 20:23 08.07.2020
299 Clouds 18 1015 55 10000 4.1 280 19:54 08.07.2020
300 Clouds 18 1015 55 10000 2.1 270 19:36 08.07.2020
301 Clouds 18 1015 55 10000 2.1 270 19:18 08.07.2020
302 Clouds 18 1015 59 10000 2.6 310 18:40 08.07.2020
303 Clouds 18 1015 59 10000 3.1 270 18:21 08.07.2020
304 Rain 18 1015 55 10000 4.1 260 17:57 08.07.2020
305 Clouds 18 1015 55 10000 4.1 260 17:38 08.07.2020
306 Clouds 18 1015 55 10000 4.1 260 17:20 08.07.2020
307 Clouds 19 1015 55 10000 4.1 280 16:57 08.07.2020
308 Clouds 19 1015 55 10000 4.1 280 16:38 08.07.2020
309 Clouds 18 1015 55 10000 4.6 260 16:18 08.07.2020
310 Clouds 18 1015 59 10000 5.1 250 15:57 08.07.2020
311 Clouds 17 1015 59 10000 5.1 250 15:38 08.07.2020
312 Clouds 17 1015 59 10000 4.1 250 15:19 08.07.2020
313 Clouds 17 1015 59 10000 4.1 250 15:19 08.07.2020
314 Clouds 17 1015 63 10000 5.1 230 14:42 08.07.2020
315 Clouds 17 1015 63 10000 5.7 240 14:23 08.07.2020
316 Clouds 17 1015 63 10000 5.7 220 13:57 08.07.2020
317 Clouds 17 1015 55 10000 5.7 240 13:38 08.07.2020
318 Clouds 17 1015 55 10000 5.7 240 13:18 08.07.2020
319 Clouds 18 1015 55 10000 4.6 250 12:41 08.07.2020
320 Clouds 17 1014 55 10000 4.6 260 12:20 08.07.2020
321 Clouds 17 1015 55 10000 4.1 270 11:56 08.07.2020
322 Clouds 17 1015 55 10000 4.1 270 11:37 08.07.2020
323 Clouds 17 1015 51 10000 4.6 260 11:19 08.07.2020
324 Clouds 16 1015 55 10000 5.1 260 10:43 08.07.2020
325 Clouds 15 1015 59 10000 5.1 270 10:24 08.07.2020
326 Clouds 15 1015 72 10000 5.1 260 09:46 08.07.2020
327 Clouds 14 1015 76 10000 4.1 260 09:25 08.07.2020
328 Clouds 14 1015 76 10000 5.1 250 08:57 08.07.2020
329 Clouds 14 1015 76 10000 5.1 250 08:38 08.07.2020
330 Clouds 14 1014 76 10000 4.1 250 08:19 08.07.2020
331 Clouds 14 1014 82 10000 4.1 250 07:43 08.07.2020
332 Rain 14 1014 82 10000 4.1 250 07:22 08.07.2020
333 Clouds 14 1014 76 10000 4.6 250 06:46 08.07.2020
334 Clouds 13 1015 82 10000 3.6 240 06:27 08.07.2020
335 Clouds 13 1015 82 10000 3.6 250 05:48 08.07.2020
336 Rain 13 1015 76 10000 3.1 250 04:50 08.07.2020
337 Clouds 13 1015 76 10000 4.1 250 04:19 08.07.2020
338 Clouds 13 1015 82 10000 4.6 260 02:19 08.07.2020
339 Rain 14 1015 82 10000 4.1 260 01:38 08.07.2020
340 Rain 14 1016 87 10000 3.6 260 00:56 08.07.2020
341 Rain 14 1016 82 10000 4.6 260 00:22 08.07.2020
342 Rain 14 1015 82 10000 3.6 270 23:44 07.07.2020
343 Rain 15 1015 82 10000 3.6 270 23:22 07.07.2020
344 Rain 15 1016 82 10000 4.1 280 22:58 07.07.2020
345 Rain 15 1016 82 10000 4.1 280 22:40 07.07.2020
346 Rain 16 1016 77 10000 3.6 300 22:20 07.07.2020
347 Rain 17 1016 67 10000 11.3 290 21:58 07.07.2020
348 Rain 18 1016 67 10000 11.3 290 21:38 07.07.2020
349 Rain 19 1015 39 10000 4.1 230 21:19 07.07.2020
350 Rain 19 1015 39 10000 4.1 230 20:56 07.07.2020
351 Rain 19 1015 39 10000 4.1 230 20:37 07.07.2020
352 Clouds 19 1015 39 10000 4.6 250 20:19 07.07.2020
353 Clouds 20 1015 34 10000 6.2 250 19:39 07.07.2020
354 Clouds 20 1015 34 10000 6.2 250 19:39 07.07.2020
355 Clouds 20 1015 34 10000 6.2 250 19:21 07.07.2020
356 Clouds 20 1016 34 10000 6.2 260 18:56 07.07.2020
357 Clouds 21 1016 34 10000 6.2 240 18:38 07.07.2020
358 Clouds 20 1016 34 10000 6.2 240 18:19 07.07.2020
359 Clouds 20 1016 37 10000 7.2 250 17:57 07.07.2020
360 Clouds 20 1016 37 10000 7.2 250 17:38 07.07.2020
361 Clouds 21 1016 35 10000 6.2 260 17:20 07.07.2020
362 Clouds 21 1017 34 10000 5.7 270 16:43 07.07.2020
363 Clouds 21 1017 32 10000 7.2 240 16:24 07.07.2020
364 Clouds 20 1017 39 10000 6.2 270 15:58 07.07.2020
365 Clouds 19 1017 39 10000 6.2 270 15:38 07.07.2020
366 Clouds 19 1018 40 10000 5.7 240 15:20 07.07.2020
367 Clouds 19 1018 40 10000 5.7 240 15:20 07.07.2020
368 Clouds 19 1018 39 10000 6.2 250 14:46 07.07.2020
369 Clouds 19 1018 42 10000 5.7 250 14:25 07.07.2020
370 Clouds 19 1018 42 10000 5.7 250 14:25 07.07.2020
371 Clouds 19 1018 42 10000 5.1 250 13:57 07.07.2020
372 Clouds 19 1018 42 10000 5.1 250 13:38 07.07.2020
373 Clouds 18 1018 45 10000 5.1 250 13:18 07.07.2020
374 Clouds 18 1018 45 10000 6.2 250 12:40 07.07.2020
375 Clouds 17 1018 48 10000 5.1 270 12:22 07.07.2020
376 Clouds 17 1018 45 10000 5.7 270 11:50 07.07.2020
377 Clouds 16 1018 51 10000 5.7 280 11:26 07.07.2020
378 Clouds 17 1018 59 10000 5.1 290 10:59 07.07.2020
379 Clouds 16 1018 59 10000 5.1 290 10:41 07.07.2020
380 Clouds 16 1018 59 10000 4.6 290 10:22 07.07.2020
381 Clouds 16 1018 62 10000 5.7 280 09:59 07.07.2020
382 Clouds 15 1018 67 10000 5.1 290 09:38 07.07.2020
383 Clouds 15 1018 67 10000 5.1 290 09:20 07.07.2020
384 Clouds 14 1018 71 10000 5.7 290 08:42 07.07.2020
385 Clouds 14 1018 71 10000 6.2 270 08:23 07.07.2020
386 Clouds 13 1018 76 10000 5.7 280 07:45 07.07.2020
387 Clouds 13 1018 82 10000 5.7 260 07:23 07.07.2020
388 Clouds 12 1018 87 10000 4.6 250 06:49 07.07.2020
389 Clouds 12 1018 87 10000 4.1 250 06:30 07.07.2020
390 Clear 12 1018 93 10000 3.6 250 05:54 07.07.2020
391 Clear 12 1017 87 10000 4.1 260 05:23 07.07.2020
392 Clear 12 1017 87 10000 4.1 260 04:40 07.07.2020
393 Clear 12 1017 81 10000 4.1 270 03:40 07.07.2020
394 Clouds 13 1016 76 10000 4.6 280 02:28 07.07.2020
395 Clouds 14 1016 76 10000 5.1 280 01:25 07.07.2020
396 Clear 14 1016 71 10000 5.7 270 00:54 07.07.2020
397 Clouds 14 1015 76 10000 5.1 260 00:36 07.07.2020
398 Clouds 14 1015 76 10000 5.1 260 00:18 07.07.2020
399 Clouds 14 1015 71 10000 6.2 260 23:41 06.07.2020
400 Clouds 15 1015 67 10000 6.2 260 23:22 06.07.2020
401 Clouds 15 1015 62 10000 4.6 270 22:55 06.07.2020
402 Clouds 15 1014 62 10000 4.1 300 22:37 06.07.2020
403 Clouds 15 1014 62 10000 4.1 300 22:18 06.07.2020
404 Clouds 15 1014 77 10000 4.6 260 21:54 06.07.2020
405 Clouds 16 1014 72 10000 5.7 250 21:36 06.07.2020
406 Clouds 15 1014 72 10000 5.7 250 21:18 06.07.2020
407 Clouds 17 1013 67 10000 7.2 250 20:39 06.07.2020
408 Clouds 17 1013 67 10000 7.2 250 20:20 06.07.2020
409 Clouds 17 1012 63 10000 7.2 260 19:58 06.07.2020
410 Clouds 17 1012 63 10000 7.2 260 19:58 06.07.2020
411 Clouds 17 1012 63 10000 7.2 260 19:39 06.07.2020
412 Clouds 18 1013 55 10000 6.7 270 19:21 06.07.2020
413 Clouds 19 1012 52 10000 5.1 280 18:57 06.07.2020
414 Clouds 19 1012 52 10000 8.7 280 18:39 06.07.2020
415 Clouds 19 1012 52 10000 8.7 280 18:21 06.07.2020
416 Clouds 19 1012 48 10000 8.2 270 17:44 06.07.2020
417 Rain 20 1012 55 10000 10.3 260 17:24 06.07.2020
418 Clouds 20 1011 45 10000 7.7 290 16:59 06.07.2020
419 Clouds 20 1011 45 10000 7.7 290 16:41 06.07.2020
420 Clouds 20 1011 42 10000 8.7 260 16:22 06.07.2020
421 Clouds 19 1011 52 10000 9.3 260 15:44 06.07.2020
422 Rain 19 1011 52 10000 10.3 280 15:26 06.07.2020
423 Rain 20 1010 40 10000 6.2 280 14:57 06.07.2020
424 Rain 20 1010 40 10000 6.2 280 14:57 06.07.2020
425 Clouds 21 1010 42 10000 7.2 280 14:38 06.07.2020
426 Clouds 21 1010 42 10000 7.2 280 14:20 06.07.2020
427 Clouds 21 1010 37 10000 9.8 260 13:59 06.07.2020
428 Clouds 21 1010 37 10000 9.8 260 13:40 06.07.2020
429 Clouds 21 1009 40 10000 8.2 250 13:20 06.07.2020
430 Clouds 21 1009 43 10000 8.2 270 12:44 06.07.2020
431 Clouds 21 1009 43 10000 7.2 270 12:20 06.07.2020
432 Clouds 20 1009 48 10000 8.7 280 11:58 06.07.2020
433 Clouds 20 1009 48 10000 8.7 280 11:40 06.07.2020
434 Rain 20 1009 52 10000 8.7 280 11:22 06.07.2020
435 Clouds 20 1009 52 10000 7.7 270 10:58 06.07.2020
436 Clouds 20 1009 52 10000 7.7 270 10:40 06.07.2020
437 Clouds 19 1009 52 10000 10.3 270 10:19 06.07.2020
438 Clouds 19 1009 55 10000 8.7 270 09:46 06.07.2020
439 Clouds 19 1009 59 10000 8.2 280 09:22 06.07.2020
440 Clouds 19 1009 59 10000 8.2 280 08:59 06.07.2020
441 Clouds 19 1008 59 10000 8.2 260 08:40 06.07.2020
442 Clouds 19 1008 59 10000 7.7 280 08:21 06.07.2020
443 Clouds 18 1008 59 10000 8.2 270 07:48 06.07.2020
444 Clouds 18 1008 63 10000 6.7 270 07:29 06.07.2020
445 Clouds 18 1008 63 10000 5.7 250 06:55 06.07.2020
446 Clouds 18 1008 67 10000 5.7 270 06:37 06.07.2020
447 Clouds 18 1007 68 10000 5.1 260 05:53 06.07.2020
448 Clouds 18 1007 82 10000 4.6 260 05:27 06.07.2020
449 Clouds 18 1007 88 10000 3.1 260 03:58 06.07.2020
450 Clouds 19 1008 88 10000 3.1 230 02:41 06.07.2020
451 Clouds 19 1008 88 10000 2.6 220 01:55 06.07.2020
452 Clouds 20 1008 82 10000 4.6 240 00:51 06.07.2020
453 Clouds 19 1008 82 10000 4.6 240 00:25 06.07.2020
454 Clouds 19 1008 93 10000 4.1 230 23:58 05.07.2020
455 Clouds 19 1008 93 10000 4.1 230 23:39 05.07.2020
456 Clouds 20 1008 93 10000 4.1 240 23:21 05.07.2020
457 Clouds 20 1008 88 10000 4.6 240 22:58 05.07.2020
458 Rain 20 1008 88 10000 4.6 240 22:37 05.07.2020
459 Rain 20 1008 88 10000 4.6 230 22:19 05.07.2020
460 Rain 20 1008 88 10000 4.1 240 21:56 05.07.2020
461 Rain 20 1008 88 10000 4.1 240 21:37 05.07.2020
462 Rain 20 1008 88 10000 6.2 230 21:18 05.07.2020
463 Rain 20 1008 88 10000 6.7 240 20:55 05.07.2020
464 Rain 20 1008 88 10000 6.7 240 20:37 05.07.2020
465 Rain 21 1008 88 10000 6.2 260 20:19 05.07.2020
466 Rain 21 1008 94 6000 6.7 270 19:41 05.07.2020
467 Rain 23 1009 83 6000 6.7 280 19:21 05.07.2020
468 Rain 24 1008 78 10000 5.1 310 18:55 05.07.2020
469 Rain 26 1008 50 10000 5.7 240 18:37 05.07.2020
470 Clouds 26 1008 50 10000 5.7 240 18:18 05.07.2020
471 Rain 26 1008 50 10000 7.7 240 17:42 05.07.2020
472 Clouds 27 1008 51 10000 6.7 230 17:19 05.07.2020
473 Clouds 27 1008 51 10000 7.2 220 16:59 05.07.2020
474 Clouds 27 1008 51 10000 7.2 220 16:40 05.07.2020
475 Clouds 27 1008 47 10000 8.7 220 16:21 05.07.2020
476 Clouds 26 1008 51 10000 9.8 220 15:41 05.07.2020
477 Clouds 27 1008 48 10000 9.3 220 15:20 05.07.2020
478 Clouds 27 1008 48 10000 9.3 240 14:57 05.07.2020
479 Clouds 26 1009 50 10000 10.3 230 14:38 05.07.2020
480 Clouds 26 1009 50 10000 10.3 230 14:20 05.07.2020
481 Clouds 26 1009 47 10000 8.7 220 13:41 05.07.2020
482 Clouds 26 1009 50 10000 9.8 240 13:23 05.07.2020
483 Clouds 25 1009 53 10000 10.3 230 12:46 05.07.2020
484 Clouds 25 1009 53 10000 9.8 220 12:25 05.07.2020
485 Clouds 25 1009 53 10000 10.3 240 11:58 05.07.2020
486 Clouds 25 1009 53 10000 10.3 240 11:39 05.07.2020
487 Clouds 24 1009 57 10000 8.7 230 11:21 05.07.2020
488 Clouds 24 1010 60 10000 7.2 220 10:58 05.07.2020
489 Clouds 24 1010 60 10000 7.2 220 10:39 05.07.2020
490 Clouds 24 1009 60 10000 7.7 230 10:19 05.07.2020
491 Clouds 23 1010 57 10000 7.2 220 09:55 05.07.2020
492 Clouds 24 1010 57 10000 7.2 220 09:37 05.07.2020
493 Clouds 22 1010 60 10000 7.2 210 09:18 05.07.2020
494 Clouds 22 1010 64 10000 6.7 220 08:43 05.07.2020
495 Clouds 21 1010 60 10000 6.2 210 08:25 05.07.2020
496 Clouds 21 1010 60 10000 5.1 220 07:46 05.07.2020
497 Clouds 21 1010 60 10000 6.2 210 07:27 05.07.2020
498 Clouds 21 1010 64 10000 4.6 220 06:50 05.07.2020
499 Clouds 21 1010 60 10000 4.1 230 05:29 05.07.2020
500 Rain 21 1011 64 10000 3.1 190 03:24 05.07.2020
501 Rain 21 1011 64 10000 3.1 190 02:41 05.07.2020
502 Rain 21 1012 60 10000 3.6 240 02:18 05.07.2020
503 Clouds 21 1012 60 10000 3.1 250 01:33 05.07.2020
504 Clouds 21 1012 56 10000 4.6 250 00:59 05.07.2020
505 Clouds 21 1012 56 10000 4.6 250 00:40 05.07.2020
506 Clouds 21 1012 56 10000 4.1 240 00:20 05.07.2020
507 Clouds 21 1012 56 10000 3.6 220 23:47 04.07.2020
508 Clouds 22 1012 56 10000 3.1 240 23:28 04.07.2020
509 Clouds 22 1012 56 10000 6.7 260 22:57 04.07.2020
510 Clouds 22 1012 56 10000 6.7 260 22:37 04.07.2020
511 Clouds 23 1012 49 10000 6.2 230 22:19 04.07.2020
512 Clouds 23 1012 49 10000 6.2 240 21:43 04.07.2020
513 Clouds 23 1012 49 10000 5.7 250 21:23 04.07.2020
514 Clouds 23 1012 49 10000 5.7 250 21:23 04.07.2020
515 Clouds 23 1012 60 10000 3.6 210 20:59 04.07.2020
516 Clouds 23 1012 60 10000 3.6 210 20:41 04.07.2020
517 Rain 23 1012 49 10000 4.1 230 20:20 04.07.2020
518 Rain 24 1012 44 10000 5.7 230 19:55 04.07.2020
519 Rain 24 1012 44 10000 6.2 220 19:36 04.07.2020
520 Clouds 25 1012 38 10000 5.1 230 19:18 04.07.2020
521 Clouds 24 1012 38 10000 5.1 230 18:42 04.07.2020
522 Clouds 24 1012 38 10000 7.2 250 18:22 04.07.2020
523 Clouds 25 1012 38 10000 7.2 220 17:44 04.07.2020
524 Clouds 25 1013 34 10000 7.2 230 17:26 04.07.2020
525 Clouds 25 1013 38 10000 7.2 220 16:58 04.07.2020
526 Clouds 25 1013 38 10000 7.2 220 16:39 04.07.2020
527 Clouds 26 1013 38 10000 7.2 200 16:21 04.07.2020
528 Clouds 26 1013 34 10000 7.2 220 15:57 04.07.2020
529 Clouds 26 1013 36 10000 7.2 210 15:38 04.07.2020
530 Clouds 26 1013 36 10000 7.2 210 15:19 04.07.2020
531 Clouds 26 1013 36 10000 7.7 200 14:55 04.07.2020
532 Clouds 26 1014 38 10000 6.7 220 14:36 04.07.2020
533 Clouds 26 1013 36 10000 7.7 200 14:36 04.07.2020
534 Clouds 26 1014 38 10000 6.7 220 14:18 04.07.2020
535 Clouds 26 1014 38 10000 6.7 220 14:18 04.07.2020
536 Clouds 25 1014 41 10000 7.2 230 13:41 04.07.2020
537 Clouds 24 1014 38 10000 8.2 230 13:19 04.07.2020
538 Clouds 25 1014 41 10000 6.7 240 12:55 04.07.2020
539 Clouds 24 1015 41 10000 8.2 240 12:37 04.07.2020
540 Clouds 24 1015 41 10000 8.2 240 12:18 04.07.2020
541 Clouds 24 1015 43 10000 7.7 240 11:42 04.07.2020
542 Clouds 23 1015 46 10000 7.2 240 11:22 04.07.2020
543 Clouds 23 1015 40 10000 8.2 240 10:55 04.07.2020
544 Clouds 23 1015 43 10000 8.7 240 10:36 04.07.2020
545 Clouds 23 1015 43 10000 8.7 240 10:18 04.07.2020
546 Clouds 22 1015 46 10000 8.2 240 09:40 04.07.2020
547 Clouds 21 1015 56 10000 6.2 250 09:21 04.07.2020
548 Clouds 21 1015 52 10000 7.2 250 08:58 04.07.2020
549 Clouds 21 1015 52 10000 7.2 250 08:39 04.07.2020
550 Clouds 19 1015 60 10000 5.7 240 08:20 04.07.2020
551 Clouds 18 1015 63 10000 3.6 230 07:40 04.07.2020
552 Clouds 18 1015 68 0 3.6 230 07:18 04.07.2020
553 Clouds 17 1015 67 10000 3.6 210 06:38 04.07.2020
554 Clouds 16 1015 72 10000 3.1 200 06:19 04.07.2020
555 Clouds 15 1015 77 10000 2.6 200 05:29 04.07.2020
556 Clouds 16 1016 72 10000 2.6 210 04:21 04.07.2020
557 Clouds 16 1016 77 10000 2.1 210 02:45 04.07.2020
558 Clouds 17 1016 72 10000 2.1 210 01:42 04.07.2020
559 Clouds 17 1016 67 10000 1.5 200 00:59 04.07.2020
560 Clouds 17 1016 67 10000 1.5 200 00:40 04.07.2020
561 Clouds 17 1016 72 10000 1.5 240 00:21 04.07.2020
562 Clouds 18 1016 67 10000 1.5 220 23:39 03.07.2020
563 Clouds 18 1016 63 10000 2.6 250 23:18 03.07.2020
564 Clouds 18 1016 63 10000 2.6 250 23:18 03.07.2020
565 Clouds 18 1016 63 10000 2.6 250 23:18 03.07.2020
566 Clouds 18 1016 63 10000 2.1 260 22:42 03.07.2020
567 Clouds 19 1016 59 10000 1.5 280 22:24 03.07.2020
568 Clouds 20 1015 56 10000 1.5 280 21:59 03.07.2020
569 Clouds 21 1015 49 10000 3.6 260 21:38 03.07.2020
570 Clouds 21 1015 49 10000 3.6 260 21:19 03.07.2020
571 Clouds 22 1015 46 10000 4.1 270 20:43 03.07.2020
572 Clouds 22 1015 46 10000 5.7 270 20:25 03.07.2020
573 Clouds 23 1015 43 10000 5.7 260 19:59 03.07.2020
574 Clouds 23 1015 43 10000 5.7 260 19:40 03.07.2020
575 Clouds 23 1015 43 10000 5.1 260 19:19 03.07.2020
576 Clouds 23 1015 46 10000 4.1 260 18:54 03.07.2020
577 Clouds 23 1015 43 10000 5.7 280 18:36 03.07.2020
578 Clouds 23 1015 46 10000 4.6 240 18:18 03.07.2020
579 Clouds 23 1015 43 10000 5.7 270 17:41 03.07.2020
580 Clouds 24 1015 43 10000 5.1 260 17:21 03.07.2020
581 Rain 23 1015 46 10000 5.7 250 16:41 03.07.2020
582 Rain 23 1015 46 10000 5.7 250 16:23 03.07.2020
583 Rain 22 1015 49 10000 5.7 280 15:47 03.07.2020
584 Clouds 23 1015 49 10000 5.7 260 15:25 03.07.2020
585 Clouds 23 1015 49 10000 3.1 280 14:58 03.07.2020
586 Clouds 23 1015 49 10000 3.1 280 14:40 03.07.2020
587 Clouds 22 1015 52 10000 4.1 290 14:21 03.07.2020
588 Clouds 22 1015 49 10000 5.7 290 13:48 03.07.2020
589 Clouds 21 1015 49 10000 6.2 280 13:29 03.07.2020
590 Clouds 21 1015 52 10000 5.7 260 12:59 03.07.2020
591 Clouds 21 1015 52 10000 5.7 260 12:40 03.07.2020
592 Clouds 21 1015 52 10000 5.7 260 12:20 03.07.2020
593 Clouds 21 1015 52 10000 4.6 270 11:44 03.07.2020
594 Clouds 21 1015 56 10000 5.7 260 11:25 03.07.2020
595 Clouds 21 1015 56 10000 5.7 260 10:59 03.07.2020
596 Clouds 20 1015 56 10000 4.1 280 10:40 03.07.2020
597 Clouds 20 1015 59 10000 5.1 290 10:21 03.07.2020
598 Clouds 20 1015 59 10000 5.7 290 09:58 03.07.2020
599 Clouds 20 1015 59 10000 5.7 290 09:38 03.07.2020
600 Clouds 18 1014 72 10000 5.1 290 09:19 03.07.2020
601 Clouds 18 1014 72 10000 4.1 290 08:55 03.07.2020
602 Clouds 18 1014 72 10000 4.1 290 08:37 03.07.2020
603 Clouds 17 1014 77 10000 4.1 300 08:18 03.07.2020
604 Clouds 17 1013 77 10000 5.1 280 07:41 03.07.2020
605 Clouds 17 1013 82 10000 4.6 280 07:21 03.07.2020
606 Clouds 16 1013 87 10000 4.1 260 06:29 03.07.2020
607 Clouds 16 1012 87 10000 3.6 280 05:34 03.07.2020
608 Clouds 17 1012 77 10000 4.1 290 03:59 03.07.2020
609 Rain 18 1011 82 10000 2.6 280 02:55 03.07.2020
610 Clouds 18 1011 82 10000 1.5 290 02:31 03.07.2020
611 Clouds 19 1011 77 10000 1 0 01:41 03.07.2020
612 Clouds 19 1011 77 10000 1 0 01:20 03.07.2020
613 Clouds 19 1011 77 10000 2.1 340 00:41 03.07.2020
614 Rain 20 1011 72 10000 1.5 350 23:58 02.07.2020
615 Rain 20 1011 72 10000 1.5 350 23:39 02.07.2020
616 Rain 20 1011 60 10000 1 0 23:19 02.07.2020
617 Clouds 21 1010 56 10000 1.5 30 22:55 02.07.2020
618 Clouds 21 1010 56 10000 1.5 30 22:37 02.07.2020
619 Clouds 21 1010 53 10000 1 0 22:19 02.07.2020
620 Clouds 22 1009 53 10000 1.5 320 21:42 02.07.2020
621 Clear 22 1009 53 10000 1.5 320 21:20 02.07.2020
622 Clear 23 1009 49 10000 2.6 300 20:59 02.07.2020
623 Clear 23 1009 49 10000 2.6 300 20:41 02.07.2020
624 Rain 23 1009 46 10000 3.1 310 20:20 02.07.2020
625 Rain 24 1009 44 10000 2.6 280 19:56 02.07.2020
626 Clouds 24 1009 44 10000 3.6 260 19:38 02.07.2020
627 Rain 24 1009 44 10000 2.6 280 19:38 02.07.2020
628 Clouds 24 1009 44 10000 3.6 260 19:19 02.07.2020
629 Clouds 24 1009 47 10000 4.6 250 18:55 02.07.2020
630 Clouds 25 1009 47 10000 5.7 250 18:37 02.07.2020
631 Clouds 24 1009 47 10000 5.7 250 18:18 02.07.2020
632 Clouds 24 1009 49 10000 4.6 250 17:39 02.07.2020
633 Clouds 24 1009 47 10000 4.6 260 17:20 02.07.2020
634 Clouds 24 1009 47 10000 4.6 300 16:56 02.07.2020
635 Clouds 24 1009 47 10000 4.6 300 16:37 02.07.2020
636 Clouds 25 1009 50 10000 5.1 290 16:19 02.07.2020
637 Clouds 25 1009 47 10000 5.1 280 15:39 02.07.2020
638 Clouds 25 1009 47 10000 6.2 250 15:21 02.07.2020
639 Clouds 25 1009 47 10000 6.2 250 15:21 02.07.2020
640 Clouds 24 1010 49 10000 4.1 220 14:54 02.07.2020
641 Clouds 23 1010 53 10000 2.6 260 14:36 02.07.2020
642 Clouds 23 1010 53 10000 2.6 260 14:18 02.07.2020
643 Clouds 23 1010 53 10000 4.1 220 13:40 02.07.2020
644 Clouds 22 1010 56 10000 4.1 260 13:21 02.07.2020
645 Clouds 22 1010 56 10000 4.1 250 12:59 02.07.2020
646 Clouds 22 1010 56 10000 3.6 270 12:39 02.07.2020
647 Clouds 22 1010 56 10000 3.6 270 12:21 02.07.2020
648 Clouds 21 1010 56 10000 4.6 240 11:44 02.07.2020
649 Clouds 22 1010 53 10000 4.1 240 11:26 02.07.2020
650 Clouds 21 1010 60 10000 4.1 240 10:57 02.07.2020
651 Clouds 21 1010 60 10000 4.1 240 10:39 02.07.2020
652 Clouds 20 1010 60 10000 4.6 260 10:21 02.07.2020
653 Clouds 20 1009 64 10000 5.1 270 09:42 02.07.2020
654 Clouds 19 1009 68 10000 3.6 280 09:21 02.07.2020
655 Clouds 19 1009 68 10000 5.1 250 08:58 02.07.2020
656 Clouds 19 1009 68 10000 5.1 250 08:39 02.07.2020
657 Clouds 18 1009 77 0 4.6 250 08:19 02.07.2020
658 Clouds 18 1009 77 10000 3.6 240 07:41 02.07.2020
659 Clouds 18 1009 82 10000 3.6 250 07:21 02.07.2020
660 Rain 17 1008 88 10000 3.1 250 06:41 02.07.2020
661 Clouds 16 1008 93 10000 2.6 250 06:20 02.07.2020
662 Clouds 16 1008 93 10000 3.6 240 05:47 02.07.2020
663 Clouds 16 1008 93 10000 3.6 250 04:50 02.07.2020
664 Clear 17 1007 93 10000 3.6 250 03:34 02.07.2020
665 Clouds 18 1007 88 10000 3.6 250 01:50 02.07.2020
666 Clouds 18 1007 82 10000 3.6 240 00:44 02.07.2020
667 Rain 19 1006 88 10000 2.1 220 00:18 02.07.2020
668 Rain 18 1006 88 10000 2.6 230 23:43 01.07.2020
669 Rain 19 1007 82 10000 3.1 220 23:22 01.07.2020
670 Rain 19 1006 88 10000 1.5 240 22:55 01.07.2020
671 Rain 19 1006 88 10000 1.5 240 22:37 01.07.2020
672 Clouds 20 1006 82 10000 4.1 310 22:18 01.07.2020
673 Rain 20 1006 88 10000 2.1 300 21:56 01.07.2020
674 Rain 20 1006 88 10000 2.1 300 21:38 01.07.2020
675 Rain 21 1006 82 10000 1.5 0 21:19 01.07.2020
676 Rain 22 1005 68 10000 1.5 330 20:46 01.07.2020
677 Clouds 23 1006 68 10000 1 0 20:26 01.07.2020
678 Clouds 23 1005 60 10000 2.1 350 19:58 01.07.2020
679 Clouds 23 1005 60 10000 2.1 350 19:39 01.07.2020
680 Clouds 23 1006 60 10000 3.1 270 19:20 01.07.2020
681 Clouds 23 1006 60 10000 3.1 270 19:20 01.07.2020
682 Clouds 23 1006 60 10000 2.6 250 18:56 01.07.2020
683 Clouds 23 1006 60 10000 4.1 260 18:38 01.07.2020
684 Clouds 23 1006 60 10000 4.1 260 18:20 01.07.2020
685 Clouds 23 1006 64 10000 3.6 270 17:41 01.07.2020
686 Clouds 22 1006 73 10000 3.6 240 17:20 01.07.2020
687 Clouds 22 1007 73 10000 3.6 230 16:57 01.07.2020
688 Clouds 21 1007 77 10000 3.6 230 16:39 01.07.2020
689 Clouds 21 1007 77 10000 3.6 230 16:20 01.07.2020
690 Rain 21 1007 77 10000 4.1 230 15:42 01.07.2020
691 Rain 20 1007 82 10000 5.1 220 15:23 01.07.2020
692 Rain 20 1008 82 10000 5.1 230 14:58 01.07.2020
693 Rain 19 1008 82 10000 5.1 210 14:38 01.07.2020
694 Clouds 19 1008 82 10000 5.1 210 14:20 01.07.2020
695 Clouds 19 1008 77 10000 6.7 220 13:55 01.07.2020
696 Clouds 19 1008 77 10000 6.7 220 13:36 01.07.2020
697 Rain 20 1008 77 10000 5.7 230 13:18 01.07.2020
698 Rain 19 1008 77 10000 7.7 210 12:41 01.07.2020
699 Rain 20 1007 82 10000 5.7 220 12:23 01.07.2020
700 Rain 20 1007 82 10000 5.7 220 12:23 01.07.2020
701 Rain 19 1007 82 10000 5.7 210 11:58 01.07.2020
702 Rain 19 1007 82 10000 5.7 210 11:40 01.07.2020
703 Rain 20 1007 68 10000 8.7 250 11:21 01.07.2020
704 Rain 22 1007 60 10000 7.7 250 10:56 01.07.2020
705 Rain 22 1007 60 10000 7.7 250 10:38 01.07.2020
706 Clouds 22 1007 64 10000 6.2 230 10:20 01.07.2020
707 Clouds 22 1007 60 10000 6.2 220 09:38 01.07.2020
708 Clouds 21 1007 60 10000 6.2 250 09:20 01.07.2020
709 Clouds 21 1007 60 10000 6.2 220 08:59 01.07.2020
710 Clouds 20 1007 60 10000 6.2 220 08:40 01.07.2020
711 Clouds 20 1006 60 10000 5.7 220 08:19 01.07.2020
712 Clouds 20 1006 60 10000 6.2 220 07:42 01.07.2020
713 Clouds 19 1006 60 10000 6.2 230 07:24 01.07.2020
714 Clouds 19 1006 56 10000 6.7 220 06:57 01.07.2020
715 Clouds 19 1006 56 10000 6.7 220 06:38 01.07.2020
716 Clouds 19 1006 56 10000 6.2 220 06:20 01.07.2020
717 Clouds 19 1006 55 10000 4.6 210 04:30 01.07.2020
718 Clouds 19 1006 55 10000 4.1 200 03:44 01.07.2020
719 Clouds 19 1006 52 10000 3.6 200 03:22 01.07.2020
720 Clouds 19 1007 52 10000 3.6 190 02:19 01.07.2020
721 Clouds 19 1007 52 10000 2.6 220 01:25 01.07.2020
722 Clouds 19 1007 45 10000 4.6 250 00:38 01.07.2020
723 Clouds 19 1007 45 10000 4.6 250 00:20 01.07.2020
724 Clouds 20 1007 45 10000 4.1 240 23:40 30.06.2020
725 Clouds 20 1007 45 10000 4.1 250 23:20 30.06.2020
726 Clouds 20 1007 45 10000 3.1 240 22:42 30.06.2020
727 Clouds 20 1007 45 10000 3.1 240 22:19 30.06.2020
728 Clouds 20 1007 45 10000 3.6 250 21:55 30.06.2020
729 Clouds 20 1007 45 10000 3.6 250 21:37 30.06.2020
730 Clouds 21 1007 43 10000 3.6 270 21:18 30.06.2020
731 Clouds 21 1007 43 10000 3.6 270 20:43 30.06.2020
732 Clouds 21 1007 43 10000 4.6 270 20:21 30.06.2020
733 Clouds 22 1007 43 10000 5.1 270 19:47 30.06.2020
734 Clouds 22 1007 40 10000 5.7 290 19:22 30.06.2020
735 Clouds 22 1007 37 10000 8.2 250 18:59 30.06.2020
736 Clouds 23 1007 37 10000 8.2 250 18:41 30.06.2020
737 Clouds 23 1007 37 10000 6.7 280 18:20 30.06.2020
738 Clouds 23 1007 35 10000 8.7 260 17:54 30.06.2020
739 Clouds 24 1007 33 10000 8.7 250 17:36 30.06.2020
740 Clouds 24 1007 33 10000 8.7 250 17:18 30.06.2020
741 Clouds 24 1007 33 10000 8.7 270 16:41 30.06.2020
742 Clouds 24 1007 33 10000 9.3 250 16:21 30.06.2020
743 Clouds 23 1007 40 10000 7.7 260 15:57 30.06.2020
744 Clouds 23 1007 38 10000 7.7 260 15:38 30.06.2020
745 Clouds 23 1007 38 10000 7.7 260 15:20 30.06.2020
746 Clouds 22 1008 40 10000 7.2 250 14:44 30.06.2020
747 Clouds 23 1008 40 10000 6.7 230 14:22 30.06.2020
748 Clouds 22 1008 43 10000 7.7 250 13:59 30.06.2020
749 Clouds 22 1008 43 10000 7.7 250 13:39 30.06.2020
750 Clouds 22 1008 43 10000 8.2 230 13:20 30.06.2020
751 Clouds 21 1008 45 10000 7.7 240 12:57 30.06.2020
752 Clouds 21 1008 45 10000 7.7 240 12:39 30.06.2020
753 Clouds 21 1008 43 10000 7.7 250 12:20 30.06.2020
754 Clouds 21 1008 43 10000 7.2 230 11:57 30.06.2020
755 Clouds 21 1008 43 10000 7.2 230 11:38 30.06.2020
756 Clouds 20 1008 45 10000 7.7 240 11:19 30.06.2020
757 Clouds 20 1008 45 10000 8.2 240 10:56 30.06.2020
758 Rain 23 1012 73 1500 4.1 290 16:38 28.06.2020
759 Clouds 24 1012 73 10000 4.1 200 16:19 28.06.2020
760 Rain 23 1012 83 10000 4.6 190 15:56 28.06.2020
761 Rain 23 1012 88 10000 4.1 190 15:37 28.06.2020
762 Rain 22 1012 88 10000 4.1 190 15:18 28.06.2020
763 Rain 22 1012 88 10000 4.1 190 15:18 28.06.2020
764 Rain 24 1012 83 10000 4.1 200 14:43 28.06.2020
765 Clouds 25 1011 69 10000 2.6 0 14:24 28.06.2020
766 Clouds 26 1012 78 10000 2.1 230 13:55 28.06.2020
767 Clouds 26 1012 78 10000 2.1 230 13:37 28.06.2020
768 Rain 28 1012 54 8000 6.7 270 13:18 28.06.2020
769 Clouds 27 1012 47 10000 6.2 250 12:55 28.06.2020
770 Clouds 28 1011 48 10000 5.7 230 12:36 28.06.2020
771 Clouds 28 1011 48 10000 5.7 230 12:18 28.06.2020
772 Clouds 28 1011 47 10000 5.7 230 11:55 28.06.2020
773 Clouds 28 1011 47 10000 5.7 230 11:37 28.06.2020
774 Clouds 28 1011 48 10000 5.7 200 11:19 28.06.2020
775 Clouds 27 1011 47 10000 3.6 220 10:41 28.06.2020
776 Clouds 27 1011 50 10000 3.1 240 10:23 28.06.2020
777 Clouds 27 1011 57 10000 4.1 250 09:57 28.06.2020
778 Clouds 26 1011 57 10000 4.1 250 09:39 28.06.2020
779 Clouds 25 1011 57 10000 2.6 240 09:20 28.06.2020
780 Clouds 25 1011 57 10000 2.6 220 08:42 28.06.2020
781 Clouds 23 1011 60 10000 3.1 250 08:22 28.06.2020
782 Clouds 22 1011 64 10000 2.1 210 07:45 28.06.2020
783 Clouds 22 1011 68 10000 1.5 200 07:27 28.06.2020
784 Clouds 21 1011 68 10000 0.5 0 06:34 28.06.2020
785 Clouds 20 1011 77 10000 1.5 250 05:57 28.06.2020
786 Clouds 20 1010 77 10000 2.1 240 05:26 28.06.2020
787 Clear 21 1010 77 10000 3.6 250 03:23 28.06.2020
788 Clear 21 1010 77 10000 3.6 250 02:39 28.06.2020
789 Clouds 22 1010 73 10000 1.5 210 01:52 28.06.2020
790 Clouds 22 1010 73 0 1 230 01:25 28.06.2020
791 Clouds 23 1009 68 10000 1 210 00:46 28.06.2020
792 Clouds 23 1009 64 10000 0.5 0 00:24 28.06.2020
793 Clouds 23 1009 64 10000 1 240 23:41 27.06.2020
794 Clouds 23 1009 64 10000 1 200 23:23 27.06.2020
795 Clouds 24 1009 60 10000 2.1 250 22:58 27.06.2020
796 Clouds 24 1009 60 10000 2.1 250 22:40 27.06.2020
797 Clouds 25 1009 57 10000 1 0 22:20 27.06.2020
798 Clouds 26 1009 57 10000 2.1 300 21:55 27.06.2020
799 Clouds 26 1009 57 10000 2.1 300 21:37 27.06.2020
800 Clouds 27 1009 51 10000 5.1 280 21:18 27.06.2020
801 Clouds 27 1008 51 10000 6.7 260 20:42 27.06.2020
802 Clouds 28 1008 45 10000 4.6 230 20:19 27.06.2020
803 Clouds 29 1008 39 10000 5.1 230 19:55 27.06.2020
804 Clouds 29 1008 35 10000 4.6 270 19:36 27.06.2020
805 Clouds 30 1008 35 10000 4.6 270 19:18 27.06.2020
806 Clouds 30 1008 33 10000 4.6 250 18:45 27.06.2020
807 Clouds 31 1008 29 10000 4.6 230 18:25 27.06.2020
808 Clouds 31 1008 31 10000 4.1 250 17:57 27.06.2020
809 Clouds 31 1008 31 10000 4.1 250 17:38 27.06.2020
810 Clouds 31 1008 33 10000 3.1 270 17:19 27.06.2020
811 Clouds 32 1008 33 10000 4.1 250 16:46 27.06.2020
812 Clouds 31 1008 35 10000 4.1 220 16:28 27.06.2020
813 Clouds 31 1009 33 10000 4.6 240 15:59 27.06.2020
814 Clouds 31 1009 33 10000 4.6 240 15:39 27.06.2020
815 Clouds 31 1009 37 10000 3.6 230 15:21 27.06.2020
816 Clouds 30 1009 39 10000 4.1 240 14:43 27.06.2020
817 Clouds 30 1009 37 10000 4.1 260 14:24 27.06.2020
818 Clouds 30 1009 35 10000 4.1 250 13:59 27.06.2020
819 Rain 30 1009 39 10000 3.6 200 13:38 27.06.2020
820 Clouds 30 1009 39 10000 3.6 200 13:38 27.06.2020
821 Rain 30 1009 39 10000 3.6 200 13:19 27.06.2020
822 Rain 29 1010 37 10000 3.1 240 12:58 27.06.2020
823 Rain 30 1010 37 10000 3.1 240 12:39 27.06.2020
824 Clear 29 1010 39 10000 3.6 0 12:21 27.06.2020
825 Clear 28 1010 42 10000 2.6 0 11:55 27.06.2020
826 Clear 28 1010 42 10000 2.6 0 11:37 27.06.2020
827 Clear 28 1010 42 10000 3.1 180 11:18 27.06.2020
828 Clear 28 1010 42 10000 3.1 180 11:18 27.06.2020
829 Clear 27 1010 44 10000 2.6 0 10:39 27.06.2020
830 Clear 26 1010 47 10000 3.1 150 10:19 27.06.2020
831 Clear 26 1010 50 10000 2.6 160 09:54 27.06.2020
832 Clear 24 1010 50 10000 2.6 160 09:36 27.06.2020
833 Clear 24 1010 53 10000 1 0 09:18 27.06.2020
834 Clear 23 1010 60 10000 2.1 170 08:41 27.06.2020
835 Clouds 22 1010 68 10000 2.1 150 08:22 27.06.2020
836 Clouds 22 1010 68 10000 2.1 150 08:22 27.06.2020
837 Clouds 20 1010 73 10000 1.5 150 07:46 27.06.2020
838 Clouds 19 1010 77 10000 1.5 130 07:25 27.06.2020
839 Clouds 18 1010 82 10000 2.1 120 06:50 27.06.2020
840 Clouds 18 1010 88 10000 1 0 06:31 27.06.2020
841 Clouds 18 1011 88 10000 0.5 0 04:24 27.06.2020
842 Clouds 18 1011 88 10000 0.5 0 03:59 27.06.2020
843 Clouds 18 1011 88 10000 0.5 0 03:41 27.06.2020
844 Clouds 19 1011 82 10000 2.6 80 02:39 27.06.2020
845 Clear 19 1011 82 10000 1.5 50 02:20 27.06.2020
846 Clear 20 1011 82 10000 1.5 50 01:24 27.06.2020
847 Clear 20 1011 82 10000 1.5 40 00:42 27.06.2020
848 Clouds 20 1012 73 10000 1.5 70 23:47 26.06.2020
849 Clouds 20 1012 77 10000 1 0 23:27 26.06.2020
850 Clouds 21 1012 73 10000 1.5 80 22:58 26.06.2020
851 Clouds 21 1012 73 10000 1.5 80 22:39 26.06.2020
852 Rain 21 1012 73 10000 2.6 30 22:21 26.06.2020
853 Rain 22 1012 68 10000 3.1 60 21:58 26.06.2020
854 Clouds 22 1012 68 10000 3.1 60 21:39 26.06.2020
855 Clouds 23 1012 60 10000 3.6 50 21:21 26.06.2020
856 Clouds 24 1012 57 10000 2.1 50 20:57 26.06.2020
857 Clouds 24 1012 57 10000 2.1 50 20:37 26.06.2020
858 Clouds 25 1012 57 10000 2.6 30 20:18 26.06.2020
859 Clouds 26 1012 57 10000 2.6 50 19:40 26.06.2020
860 Clouds 26 1012 57 10000 2.6 50 19:20 26.06.2020
861 Clouds 27 1012 54 10000 2.6 40 18:42 26.06.2020
862 Clouds 28 1012 51 10000 2.1 30 18:23 26.06.2020
863 Clouds 27 1013 54 10000 2.1 60 17:54 26.06.2020
864 Clouds 25 1013 64 10000 1 0 17:36 26.06.2020
865 Clouds 25 1013 64 10000 1 0 17:18 26.06.2020
866 Clouds 23 1013 64 10000 1 0 16:42 26.06.2020
867 Rain 22 1014 69 10000 0.5 0 16:23 26.06.2020
868 Rain 22 1014 69 10000 2.6 110 15:41 26.06.2020
869 Thunderstorm 23 1015 73 10000 5.1 140 15:22 26.06.2020
870 Thunderstorm 24 1015 51 10000 5.7 90 14:59 26.06.2020
871 Thunderstorm 26 1015 51 10000 5.7 90 14:40 26.06.2020
872 Clouds 27 1014 48 10000 5.1 90 14:22 26.06.2020
873 Clouds 29 1014 39 10000 3.6 60 13:47 26.06.2020
874 Clouds 29 1015 42 10000 3.6 90 13:25 26.06.2020
875 Clear 29 1015 42 10000 3.6 100 12:59 26.06.2020
876 Clear 29 1015 42 10000 3.6 100 12:41 26.06.2020
877 Clouds 28 1016 42 10000 4.1 100 12:22 26.06.2020
878 Clouds 28 1016 44 10000 4.6 90 11:57 26.06.2020
879 Clouds 28 1016 44 10000 4.6 90 11:39 26.06.2020
880 Clouds 27 1016 47 10000 5.1 100 11:20 26.06.2020
881 Clouds 27 1017 51 10000 4.6 110 10:57 26.06.2020
882 Clouds 27 1017 51 10000 4.6 110 10:38 26.06.2020
883 Clouds 27 1017 57 10000 4.6 90 10:18 26.06.2020
884 Clouds 25 1017 61 10000 3.6 90 09:44 26.06.2020
885 Clear 25 1017 61 10000 4.1 90 09:25 26.06.2020
886 Clear 24 1018 64 10000 3.1 80 08:56 26.06.2020
887 Clouds 23 1018 69 10000 2.6 80 08:28 26.06.2020
888 Clouds 22 1018 73 10000 2.1 60 07:53 26.06.2020
889 Clouds 21 1018 77 10000 2.6 90 07:25 26.06.2020
890 Clouds 20 1018 82 10000 2.6 60 06:59 26.06.2020
891 Clouds 19 1018 82 10000 2.6 60 06:41 26.06.2020
892 Clouds 19 1018 82 10000 2.1 60 06:23 26.06.2020
893 Clouds 18 1018 82 10000 1.5 60 05:48 26.06.2020
894 Clouds 19 1019 77 10000 2.6 110 03:55 26.06.2020
895 Clear 20 1019 73 10000 3.1 110 02:22 26.06.2020
896 Clear 21 1020 64 10000 4.1 110 01:21 26.06.2020
897 Clear 21 1020 64 10000 4.6 120 00:41 26.06.2020
898 Clouds 22 1020 60 10000 5.1 110 00:20 26.06.2020
899 Clouds 22 1020 60 10000 4.1 110 23:45 25.06.2020
900 Clouds 22 1020 60 10000 4.1 120 23:20 25.06.2020
901 Clouds 23 1020 53 10000 3.6 110 22:57 25.06.2020
902 Clouds 23 1020 53 10000 3.6 110 22:38 25.06.2020
903 Clouds 24 1020 50 10000 4.1 110 22:19 25.06.2020
904 Clouds 24 1019 47 10000 4.6 110 21:56 25.06.2020
905 Clouds 24 1019 47 10000 4.6 110 21:38 25.06.2020
906 Clouds 25 1019 47 10000 5.1 120 21:19 25.06.2020
907 Clouds 26 1019 44 10000 4.1 110 20:45 25.06.2020
908 Clouds 26 1019 41 10000 4.6 90 20:24 25.06.2020
909 Clouds 26 1019 39 10000 5.1 100 19:59 25.06.2020
910 Clouds 27 1020 37 10000 5.1 100 19:41 25.06.2020
911 Clouds 27 1020 37 10000 5.1 100 19:19 25.06.2020
912 Clouds 27 1020 42 10000 4.6 100 18:58 25.06.2020
913 Clouds 27 1020 42 10000 4.6 100 18:38 25.06.2020
914 Clouds 27 1020 37 10000 5.1 110 18:19 25.06.2020
915 Clouds 28 1020 37 10000 4.6 110 17:44 25.06.2020
916 Clouds 28 1020 39 10000 4.6 90 17:20 25.06.2020
917 Clouds 28 1020 39 10000 5.1 80 16:58 25.06.2020
918 Clouds 27 1020 39 10000 5.1 80 16:37 25.06.2020
919 Clouds 28 1020 39 10000 4.6 110 16:19 25.06.2020
920 Clouds 28 1021 39 10000 4.6 110 15:43 25.06.2020
921 Clear 28 1021 39 10000 5.1 110 15:24 25.06.2020
922 Clouds 28 1021 45 10000 4.6 90 14:54 25.06.2020
923 Clouds 27 1021 47 10000 4.1 70 14:36 25.06.2020
924 Clouds 27 1021 47 10000 4.1 70 14:18 25.06.2020
925 Clouds 27 1021 51 10000 4.6 80 13:42 25.06.2020
926 Clouds 27 1022 57 10000 4.6 100 13:20 25.06.2020
927 Clouds 26 1022 57 10000 4.1 100 12:58 25.06.2020
928 Clouds 24 1022 64 10000 5.1 90 12:40 25.06.2020
929 Clouds 24 1022 64 10000 5.1 90 12:19 25.06.2020
930 Clouds 23 1022 73 10000 5.1 120 11:42 25.06.2020
931 Clouds 22 1022 73 10000 4.6 100 11:22 25.06.2020
932 Clouds 22 1022 73 10000 5.1 110 10:44 25.06.2020
933 Clouds 22 1022 68 10000 5.1 90 10:26 25.06.2020
934 Clouds 22 1022 68 10000 5.7 100 09:58 25.06.2020
935 Clouds 22 1022 68 10000 5.7 100 09:40 25.06.2020
936 Clouds 22 1022 68 10000 4.1 90 09:19 25.06.2020
937 Clouds 21 1022 68 10000 4.1 80 08:43 25.06.2020
938 Clouds 21 1022 68 10000 3.1 70 08:19 25.06.2020
939 Clouds 21 1021 72 10000 2.1 60 07:44 25.06.2020
940 Clouds 20 1021 72 10000 3.1 40 07:26 25.06.2020
941 Clouds 20 1021 72 10000 3.1 40 07:26 25.06.2020
942 Clouds 20 1021 72 10000 2.6 30 06:48 25.06.2020
943 Rain 19 1022 77 10000 2.6 30 06:26 25.06.2020
944 Rain 19 1022 77 10000 2.6 30 05:51 25.06.2020
945 Clouds 20 1022 72 10000 2.1 10 03:57 25.06.2020
946 Clouds 20 1022 72 10000 2.1 30 03:29 25.06.2020
947 Clouds 20 1023 72 10000 3.1 40 02:42 25.06.2020
948 Clouds 20 1023 72 10000 2.6 30 01:55 25.06.2020
949 Clouds 20 1023 68 10000 2.1 20 01:20 25.06.2020
950 Clouds 21 1023 64 10000 2.1 10 00:43 25.06.2020
951 Clouds 21 1023 60 10000 2.6 20 00:20 25.06.2020
952 Clouds 22 1023 56 10000 2.6 20 23:44 24.06.2020
953 Clouds 22 1023 53 10000 2.1 20 23:25 24.06.2020
954 Clouds 22 1023 53 10000 3.1 30 22:58 24.06.2020
955 Clouds 23 1023 53 10000 3.1 30 22:40 24.06.2020
956 Clouds 23 1023 50 10000 2.6 40 22:20 24.06.2020
957 Clouds 23 1023 50 10000 3.1 30 21:55 24.06.2020
958 Clouds 23 1023 50 10000 3.1 30 21:36 24.06.2020
959 Clouds 24 1023 47 10000 2.1 30 21:18 24.06.2020
960 Clouds 24 1023 50 10000 2.6 30 20:57 24.06.2020
961 Clouds 25 1023 50 10000 2.6 30 20:38 24.06.2020
962 Clouds 25 1023 50 10000 3.1 20 20:20 24.06.2020
963 Clouds 25 1023 47 10000 3.1 50 19:55 24.06.2020
964 Clouds 25 1023 47 10000 3.1 50 19:36 24.06.2020
965 Rain 25 1023 47 10000 2.6 30 19:18 24.06.2020
966 Rain 25 1024 47 10000 3.6 40 18:57 24.06.2020
967 Rain 25 1024 47 10000 3.6 40 18:38 24.06.2020
968 Clouds 25 1024 44 10000 3.6 50 18:19 24.06.2020
969 Clouds 25 1024 47 10000 3.6 40 17:43 24.06.2020
970 Clouds 25 1024 47 10000 4.1 30 17:21 24.06.2020
971 Clouds 25 1024 53 10000 4.1 40 16:59 24.06.2020
972 Clouds 24 1024 53 10000 4.1 40 16:40 24.06.2020
973 Clouds 24 1024 53 10000 3.6 50 16:22 24.06.2020
974 Clouds 24 1024 53 10000 3.6 20 15:59 24.06.2020
975 Clouds 24 1024 50 10000 3.6 30 15:39 24.06.2020
976 Clouds 24 1024 50 10000 3.6 30 15:20 24.06.2020
977 Clouds 24 1024 50 10000 3.6 30 14:58 24.06.2020
978 Clouds 24 1024 50 10000 3.6 30 14:40 24.06.2020
979 Clouds 24 1024 50 10000 3.6 30 14:40 24.06.2020
980 Clouds 23 1024 53 10000 4.1 40 14:21 24.06.2020
981 Clouds 24 1024 53 10000 3.6 40 13:42 24.06.2020
982 Clouds 24 1024 50 10000 3.6 40 13:21 24.06.2020
983 Clouds 24 1024 50 10000 3.6 40 13:21 24.06.2020
984 Clouds 24 1025 53 10000 3.1 360 12:44 24.06.2020
985 Clouds 24 1025 53 10000 3.1 360 12:21 24.06.2020
986 Clouds 24 1025 49 10000 3.1 50 11:58 24.06.2020
987 Clouds 23 1025 49 10000 2.6 0 11:40 24.06.2020
988 Clouds 23 1025 49 10000 2.6 0 11:21 24.06.2020
989 Clouds 23 1025 49 10000 2.1 0 10:47 24.06.2020
990 Clouds 23 1025 56 10000 2.6 20 10:20 24.06.2020
991 Clouds 23 1025 56 10000 1.5 0 09:57 24.06.2020
992 Clouds 22 1025 56 10000 1.5 0 09:39 24.06.2020
993 Clouds 20 1025 60 10000 2.1 360 09:20 24.06.2020
994 Clouds 20 1025 56 10000 2.1 50 08:40 24.06.2020
995 Clouds 19 1025 63 10000 2.1 20 08:19 24.06.2020
996 Clouds 18 1025 63 10000 1.5 350 07:50 24.06.2020
997 Clouds 16 1025 72 10000 1.5 350 07:26 24.06.2020
998 Clouds 15 1025 77 10000 0.5 0 06:46 24.06.2020
999 Clouds 15 1025 82 10000 1 300 06:24 24.06.2020
1000 Clouds 14 1025 82 10000 1 0 05:46 24.06.2020
1001 Clouds 14 1025 76 10000 0.5 360 04:40 24.06.2020
1002 Clouds 15 1025 76 10000 0.5 0 03:40 24.06.2020
1003 Clear 15 1025 72 10000 0.5 0 03:19 24.06.2020
1004 Clear 16 1025 72 10000 0.5 0 02:41 24.06.2020
1005 Clear 17 1025 63 10000 2.1 50 01:19 24.06.2020
1006 Clear 17 1025 59 10000 2.1 30 00:41 24.06.2020
1007 Clear 17 1025 59 10000 2.1 30 00:21 24.06.2020
1008 Clear 19 1025 55 10000 2.1 30 23:41 23.06.2020
1009 Clear 19 1025 55 10000 2.1 360 23:18 23.06.2020
1010 Clear 20 1025 52 10000 1.5 350 22:41 23.06.2020
1011 Clear 20 1025 46 10000 2.1 10 22:19 23.06.2020
1012 Clear 21 1024 46 10000 2.6 10 21:59 23.06.2020
1013 Clear 21 1024 46 10000 2.6 10 21:39 23.06.2020
1014 Clear 22 1024 43 10000 2.6 10 21:19 23.06.2020
1015 Clear 22 1024 38 10000 4.1 30 20:55 23.06.2020
1016 Clear 23 1024 38 10000 3.1 20 20:37 23.06.2020
1017 Clear 23 1024 38 10000 3.1 20 20:18 23.06.2020
1018 Clear 23 1024 36 10000 3.6 10 19:44 23.06.2020
1019 Clear 24 1024 36 10000 3.6 10 19:26 23.06.2020
1020 Clear 24 1024 36 10000 3.6 340 18:42 23.06.2020
1021 Clear 24 1024 36 10000 3.6 340 18:19 23.06.2020
1022 Clear 24 1024 31 10000 3.6 360 17:58 23.06.2020
1023 Clear 24 1024 31 10000 3.6 360 17:39 23.06.2020
1024 Clear 24 1024 29 10000 4.6 360 17:20 23.06.2020
1025 Clear 24 1024 29 10000 4.1 350 16:55 23.06.2020
1026 Clear 24 1024 29 10000 4.1 350 16:37 23.06.2020
1027 Clear 24 1024 31 10000 4.1 350 16:18 23.06.2020
1028 Clear 25 1024 29 10000 3.6 20 15:44 23.06.2020
1029 Clear 25 1024 31 10000 3.1 360 15:25 23.06.2020
1030 Clear 24 1024 33 10000 4.1 310 14:58 23.06.2020
1031 Clear 24 1024 33 10000 4.6 300 14:40 23.06.2020
1032 Clear 24 1024 33 10000 4.6 300 14:18 23.06.2020
1033 Clear 24 1024 33 10000 4.6 300 14:18 23.06.2020
1034 Clear 24 1024 33 10000 5.1 290 13:55 23.06.2020
1035 Clear 23 1025 35 10000 4.6 290 13:37 23.06.2020
1036 Clear 24 1025 35 10000 4.6 290 13:19 23.06.2020
1037 Clear 23 1025 35 10000 4.1 320 12:41 23.06.2020
1038 Clear 22 1025 35 10000 4.1 320 12:22 23.06.2020
1039 Clear 21 1025 35 10000 5.1 320 11:55 23.06.2020
1040 Clear 21 1025 35 10000 5.1 320 11:37 23.06.2020
1041 Clear 22 1025 40 10000 5.1 310 11:19 23.06.2020
1042 Clear 21 1025 42 10000 4.1 320 10:55 23.06.2020
1043 Clouds 21 1025 49 10000 3.6 340 10:37 23.06.2020
1044 Clouds 21 1025 49 10000 3.6 340 10:19 23.06.2020
1045 Clouds 20 1025 48 10000 4.1 340 09:41 23.06.2020
1046 Clouds 19 1025 55 10000 3.6 360 09:20 23.06.2020
1047 Clear 19 1025 59 10000 3.1 320 08:48 23.06.2020
1048 -273 0 0 0 0 0 08:29 23.06.2020
1049 Clear 17 1025 67 10000 3.1 340 07:59 23.06.2020
1050 Clear 16 1025 67 10000 2.6 310 07:39 23.06.2020
1051 Clear 16 1025 67 10000 2.6 310 07:21 23.06.2020
1052 Clear 15 1025 67 10000 2.1 350 06:48 23.06.2020
1053 Clear 14 1024 67 10000 1.5 320 06:30 23.06.2020
1054 Clear 14 1024 71 10000 1.5 340 05:39 23.06.2020
1055 Clear 15 1024 67 10000 1.5 340 03:39 23.06.2020
1056 Clear 16 1024 67 10000 1.5 340 02:56 23.06.2020
1057 Clear 15 1024 67 10000 1.5 340 02:36 23.06.2020
1058 Clear 17 1024 63 10000 1 0 01:51 23.06.2020
1059 Clear 17 1024 59 10000 1.5 360 01:32 23.06.2020
1060 Clear 17 1024 59 10000 1 0 00:56 23.06.2020
1061 Clear 18 1023 55 10000 1 0 00:24 23.06.2020
1062 Clear 19 1023 52 10000 1.5 350 23:57 22.06.2020
1063 Clear 19 1023 52 10000 1.5 350 23:38 22.06.2020
1064 Clear 19 1023 48 10000 1.5 360 23:19 22.06.2020
1065 Clear 19 1023 45 10000 1.5 10 22:57 22.06.2020
1066 Clear 20 1023 45 10000 2.1 10 22:38 22.06.2020
1067 Clear 20 1023 45 10000 2.1 10 22:19 22.06.2020
1068 Clear 20 1023 45 10000 2.1 10 22:19 22.06.2020
1069 Clear 20 1022 43 10000 2.6 360 21:57 22.06.2020
1070 Clear 21 1022 43 10000 2.6 360 21:38 22.06.2020
1071 Clear 22 1022 40 10000 2.6 360 21:20 22.06.2020
1072 Clear 22 1022 40 10000 3.6 350 20:44 22.06.2020
1073 Clouds 23 1022 35 10000 4.1 350 20:25 22.06.2020
1074 Clouds 23 1022 40 10000 4.6 350 19:58 22.06.2020
1075 Clouds 24 1022 41 10000 5.7 350 19:38 22.06.2020
1076 Clouds 24 1022 41 10000 5.7 350 19:18 22.06.2020
1077 Clouds 25 1021 41 10000 5.1 320 18:42 22.06.2020
1078 Clouds 25 1021 41 10000 4.6 300 18:23 22.06.2020
1079 Clouds 25 1021 41 10000 4.6 300 17:57 22.06.2020
1080 Clouds 25 1021 41 10000 5.1 310 17:39 22.06.2020
1081 Clear 25 1021 41 10000 5.1 310 17:21 22.06.2020
1082 Clear 25 1021 41 10000 5.1 310 16:59 22.06.2020
1083 Clear 26 1022 38 10000 5.1 320 16:40 22.06.2020
1084 Clear 25 1022 41 10000 6.2 340 16:18 22.06.2020
1085 Clear 26 1022 41 10000 6.2 340 15:54 22.06.2020
1086 Clear 26 1021 41 10000 6.2 330 15:36 22.06.2020
1087 Clear 26 1021 41 10000 6.2 330 15:18 22.06.2020
1088 Clear 26 1021 41 10000 6.7 280 14:39 22.06.2020
1089 Clouds 26 1021 38 10000 6.2 290 14:20 22.06.2020
1090 Clouds 26 1021 38 10000 6.2 290 13:56 22.06.2020
1091 Clouds 25 1021 47 10000 6.7 290 13:37 22.06.2020
1092 Clouds 25 1021 47 10000 6.7 290 13:19 22.06.2020
1093 Clouds 25 1020 50 10000 6.2 280 12:42 22.06.2020
1094 Rain 25 1020 50 10000 5.1 300 12:23 22.06.2020
1095 Rain 24 1020 50 10000 5.1 300 11:57 22.06.2020
1096 Rain 24 1020 49 10000 4.6 270 11:37 22.06.2020
1097 Rain 24 1020 49 10000 4.1 280 11:18 22.06.2020
1098 Rain 24 1020 53 10000 3.1 310 10:54 22.06.2020
1099 Clouds 23 1020 53 10000 3.1 310 10:36 22.06.2020
1100 Clouds 23 1020 53 10000 2.1 290 10:18 22.06.2020
1101 Clouds 23 1020 56 10000 2.6 290 09:41 22.06.2020
1102 Clear 20 1020 60 10000 1.5 310 09:20 22.06.2020
1103 Clear 20 1020 60 10000 1.5 310 08:59 22.06.2020
1104 Clear 20 1019 60 10000 1.5 270 08:39 22.06.2020
1105 Clear 20 1019 60 10000 1.5 270 08:39 22.06.2020
1106 Clear 20 1019 60 10000 1.5 270 08:20 22.06.2020
1107 Clear 19 1019 63 10000 1 0 07:52 22.06.2020
1108 Clear 17 1019 72 10000 1 0 07:33 22.06.2020
1109 Clear 15 1019 82 10000 1 290 06:46 22.06.2020
1110 Clouds 14 1019 87 10000 0.5 230 06:27 22.06.2020
1111 Clouds 14 1019 87 10000 0.5 230 05:58 22.06.2020
1112 Clear 14 1019 87 10000 0.5 200 05:31 22.06.2020
1113 Clear 14 1019 82 10000 1.5 250 02:56 22.06.2020
1114 Clouds 15 1019 82 10000 1.5 250 01:37 22.06.2020
1115 Clouds 17 1019 63 10000 0.5 320 00:41 22.06.2020
1116 Clouds 17 1019 59 10000 1 340 00:18 22.06.2020
1117 Clouds 18 1019 59 10000 1 340 23:54 21.06.2020
1118 Clouds 18 1019 63 10000 1 320 23:36 21.06.2020
1119 Clouds 19 1019 49 10000 1.5 360 23:18 21.06.2020
1120 Clouds 19 1019 49 10000 1.5 360 22:54 21.06.2020
1121 Clouds 20 1019 49 10000 2.1 10 22:36 21.06.2020
1122 Clouds 20 1019 49 10000 2.1 10 22:18 21.06.2020
1123 Clouds 21 1018 49 10000 3.1 10 21:42 21.06.2020
1124 Clouds 22 1018 49 10000 3.1 10 21:21 21.06.2020
1125 Clouds 22 1018 43 10000 3.6 330 20:59 21.06.2020
1126 Clouds 22 1018 43 10000 3.6 310 20:38 21.06.2020
1127 Clouds 23 1018 43 10000 4.6 310 20:19 21.06.2020
1128 Clouds 23 1018 43 10000 4.6 310 19:57 21.06.2020
1129 Clouds 23 1017 46 10000 4.6 300 19:39 21.06.2020
1130 Clouds 23 1017 44 10000 4.6 300 19:20 21.06.2020
1131 Clouds 23 1017 44 10000 4.6 300 18:55 21.06.2020
1132 Clouds 23 1017 49 10000 4.1 300 18:37 21.06.2020
1133 Clouds 23 1017 49 10000 4.6 320 18:19 21.06.2020
1134 Clouds 23 1017 49 10000 4.6 320 18:19 21.06.2020
1135 Clouds 23 1017 53 10000 4.6 290 17:41 21.06.2020
1136 Clouds 22 1018 53 10000 4.6 310 17:21 21.06.2020
1137 Clouds 23 1018 53 10000 4.6 310 16:57 21.06.2020
1138 Clouds 22 1018 60 10000 5.7 300 16:39 21.06.2020
1139 Clouds 22 1018 60 10000 5.1 330 16:21 21.06.2020
1140 Clouds 22 1018 60 10000 5.1 330 15:40 21.06.2020
1141 Clouds 22 1018 60 10000 5.1 330 15:40 21.06.2020
1142 Clouds 21 1018 68 10000 5.1 300 15:22 21.06.2020
1143 Clouds 21 1018 68 10000 5.1 300 14:58 21.06.2020
1144 Clouds 21 1018 68 10000 5.7 290 14:37 21.06.2020
1145 Clouds 21 1018 68 10000 5.1 290 14:19 21.06.2020
1146 Clouds 21 1018 68 10000 5.1 290 13:55 21.06.2020
1147 Clouds 20 1018 68 10000 5.1 300 13:36 21.06.2020
1148 Clouds 20 1018 72 10000 4.6 290 13:18 21.06.2020
1149 Clouds 19 1018 72 10000 4.1 300 12:43 21.06.2020
1150 Clouds 19 1018 77 10000 6.2 290 12:24 21.06.2020
1151 Clouds 19 1018 77 10000 4.6 300 11:54 21.06.2020
1152 Clouds 19 1018 77 10000 4.6 300 11:36 21.06.2020
1153 Clouds 18 1018 82 10000 4.1 290 11:18 21.06.2020
1154 Clouds 18 1018 82 10000 4.1 310 10:41 21.06.2020
1155 Clouds 17 1018 82 10000 4.1 310 10:23 21.06.2020
1156 Clouds 17 1018 87 10000 4.6 300 09:58 21.06.2020
1157 Clouds 16 1018 87 10000 3.1 300 09:37 21.06.2020
1158 Clouds 16 1018 93 10000 3.1 300 09:18 21.06.2020
1159 Clouds 15 1018 93 10000 3.1 300 08:55 21.06.2020
1160 Clouds 15 1018 93 10000 3.6 300 08:37 21.06.2020
1161 Clouds 15 1018 93 10000 3.6 300 08:19 21.06.2020
1162 Clouds 15 1017 100 10000 3.6 300 07:41 21.06.2020
1163 Clouds 15 1017 100 10000 3.6 300 07:22 21.06.2020
1164 Clouds 15 1017 93 10000 4.1 300 06:48 21.06.2020
1165 Drizzle 15 1017 93 9000 3.1 300 05:59 21.06.2020
1166 Rain 15 1017 93 8000 3.1 300 05:31 21.06.2020
1167 Rain 15 1018 87 10000 4.6 300 03:40 21.06.2020
1168 Rain 15 1018 87 10000 3.6 300 03:18 21.06.2020
1169 Rain 15 1018 87 10000 5.1 310 02:20 21.06.2020
1170 Rain 16 1018 87 0 4.6 310 01:32 21.06.2020
1171 Rain 16 1018 87 10000 5.7 320 00:56 21.06.2020
1172 Clouds 16 1018 82 10000 5.7 320 00:38 21.06.2020
1173 Clouds 17 1018 82 10000 5.1 320 00:19 21.06.2020
1174 Clouds 17 1018 77 10000 4.1 330 23:44 20.06.2020
1175 Clouds 17 1018 77 10000 2.6 330 23:22 20.06.2020
1176 Clouds 17 1018 77 10000 2.6 330 22:56 20.06.2020
1177 Clouds 17 1017 77 10000 3.1 320 22:38 20.06.2020
1178 Clouds 17 1017 82 10000 3.1 330 22:19 20.06.2020
1179 Clouds 17 1017 82 10000 3.1 330 21:56 20.06.2020
1180 Clouds 17 1017 88 10000 2.1 310 21:38 20.06.2020
1181 Clouds 17 1017 88 10000 2.1 310 21:20 20.06.2020
1182 Clouds 17 1017 88 10000 2.1 290 20:57 20.06.2020
1183 Rain 17 1017 88 10000 2.1 290 20:39 20.06.2020
1184 Rain 17 1017 82 10000 2.6 300 20:20 20.06.2020
1185 Rain 17 1017 82 10000 3.1 310 19:44 20.06.2020
1186 Rain 17 1017 82 10000 3.1 310 19:25 20.06.2020
1187 Rain 17 1017 93 10000 3.1 320 18:59 20.06.2020
1188 Rain 17 1016 93 10000 3.1 300 18:40 20.06.2020
1189 Rain 17 1017 93 7000 5.1 280 18:20 20.06.2020
1190 Rain 17 1017 93 7000 5.1 280 17:57 20.06.2020
1191 Rain 17 1017 93 9000 5.1 280 17:39 20.06.2020
1192 Rain 17 1017 93 7000 5.1 290 17:20 20.06.2020
1193 Rain 17 1017 93 10000 5.1 290 16:42 20.06.2020
1194 Rain 17 1017 93 10000 5.1 290 16:42 20.06.2020
1195 Rain 17 1017 93 10000 4.1 290 16:19 20.06.2020
1196 Rain 17 1017 93 10000 4.1 290 15:57 20.06.2020
1197 Rain 17 1017 87 10000 5.1 290 15:39 20.06.2020
1198 Rain 17 1017 87 10000 5.1 290 15:18 20.06.2020
1199 Rain 18 1017 77 10000 5.1 300 14:43 20.06.2020
1200 Rain 18 1017 72 10000 6.2 300 14:21 20.06.2020
1201 Rain 18 1017 67 10000 6.2 300 13:42 20.06.2020
1202 Rain 18 1017 67 10000 6.2 300 13:24 20.06.2020
1203 Rain 18 1016 63 10000 6.2 300 12:59 20.06.2020
1204 Rain 18 1016 63 10000 6.7 310 12:40 20.06.2020
1205 Clouds 18 1016 68 10000 6.7 320 12:20 20.06.2020
1206 Clouds 18 1016 68 10000 6.7 320 11:55 20.06.2020
1207 Clouds 18 1016 68 10000 7.7 310 11:37 20.06.2020
1208 Clouds 18 1015 72 10000 6.2 300 11:19 20.06.2020
1209 Clouds 18 1015 77 10000 6.7 290 10:46 20.06.2020
1210 Clouds 18 1015 77 10000 6.2 290 10:22 20.06.2020
1211 Clouds 18 1015 77 10000 6.2 290 09:55 20.06.2020
1212 Clouds 17 1015 82 10000 5.7 290 09:37 20.06.2020
1213 Clouds 17 1015 77 10000 7.2 290 09:19 20.06.2020
1214 Clouds 17 1015 87 10000 5.1 290 08:46 20.06.2020
1215 Clouds 17 1015 87 10000 5.1 290 08:27 20.06.2020
1216 Clouds 17 1015 93 10000 4.6 280 07:51 20.06.2020
1217 Clouds 16 1015 93 10000 4.6 280 07:28 20.06.2020
1218 Clouds 17 1014 93 10000 4.6 280 06:58 20.06.2020
1219 Clouds 16 1014 93 10000 4.6 280 06:23 20.06.2020
1220 Clouds 16 1014 93 10000 4.6 290 05:53 20.06.2020
1221 Clouds 17 1014 93 10000 4.6 280 04:58 20.06.2020
1222 Drizzle 17 1014 93 10000 5.1 290 02:53 20.06.2020
1223 Drizzle 17 1014 88 10000 3.6 300 01:49 20.06.2020
1224 Drizzle 17 1014 88 10000 3.6 300 01:27 20.06.2020
1225 Clouds 18 1014 88 10000 3.1 280 00:22 20.06.2020
1226 Clouds 18 1014 93 10000 3.1 290 23:58 19.06.2020
1227 Clouds 18 1014 88 10000 2.6 280 23:39 19.06.2020
1228 Clouds 18 1014 88 10000 2.6 290 23:18 19.06.2020
1229 Clouds 18 1013 88 10000 3.1 280 22:42 19.06.2020
1230 Clouds 18 1013 88 10000 3.1 280 22:24 19.06.2020
1231 Clouds 18 1013 88 10000 2.6 280 21:59 19.06.2020
1232 Clouds 18 1013 88 10000 3.6 290 21:39 19.06.2020
1233 Clouds 18 1013 88 10000 3.6 290 21:19 19.06.2020
1234 Clouds 18 1013 88 10000 3.6 290 20:59 19.06.2020
1235 Clouds 19 1013 93 10000 3.1 280 20:40 19.06.2020
1236 Clouds 19 1013 93 10000 3.1 280 20:22 19.06.2020
1237 Rain 19 1013 88 10000 3.1 300 19:59 19.06.2020
1238 Rain 19 1013 82 10000 3.6 290 19:41 19.06.2020
1239 Rain 19 1013 82 10000 4.1 280 19:23 19.06.2020
1240 Rain 19 1013 82 10000 4.1 280 18:59 19.06.2020
1241 Clouds 19 1013 82 10000 4.1 270 18:39 19.06.2020
1242 Clouds 19 1013 82 10000 4.1 270 18:20 19.06.2020
1243 Clouds 19 1012 82 10000 4.1 330 17:42 19.06.2020
1244 Clouds 19 1012 82 10000 4.1 330 17:42 19.06.2020
1245 Rain 19 1012 77 10000 2.1 340 17:23 19.06.2020
1246 Rain 20 1012 77 10000 2.1 340 16:58 19.06.2020
1247 Clouds 20 1012 72 10000 2.6 340 16:39 19.06.2020
1248 Clouds 20 1012 72 10000 3.6 350 16:21 19.06.2020
1249 Clouds 20 1012 72 10000 3.6 360 15:45 19.06.2020
1250 Clouds 21 1012 72 10000 3.6 360 15:26 19.06.2020
1251 Clouds 21 1012 64 10000 4.1 340 14:58 19.06.2020
1252 Clouds 21 1012 68 10000 3.6 360 14:40 19.06.2020
1253 Clouds 20 1012 68 10000 3.6 360 14:21 19.06.2020
1254 Clouds 20 1012 68 10000 4.1 310 13:58 19.06.2020
1255 Clouds 20 1012 68 10000 3.6 290 13:40 19.06.2020
1256 Clouds 20 1011 64 10000 3.6 320 13:22 19.06.2020
1257 Clouds 20 1011 64 10000 3.6 330 12:45 19.06.2020
1258 Clouds 21 1011 64 10000 3.6 330 12:22 19.06.2020
1259 Clouds 21 1011 68 10000 3.1 290 11:56 19.06.2020
1260 Clouds 20 1011 68 10000 2.6 310 11:36 19.06.2020
1261 Clouds 20 1011 72 10000 3.1 290 11:18 19.06.2020
1262 Clouds 20 1011 72 10000 3.6 300 10:43 19.06.2020
1263 Clouds 20 1011 72 10000 3.6 300 10:25 19.06.2020
1264 Clouds 20 1011 72 10000 2.6 310 09:57 19.06.2020
1265 Clouds 19 1011 77 10000 2.6 290 09:39 19.06.2020
1266 Clouds 19 1011 77 10000 2.6 260 09:19 19.06.2020
1267 Clouds 18 1011 77 10000 3.1 260 08:41 19.06.2020
1268 Clouds 18 1011 77 10000 3.1 260 08:23 19.06.2020
1269 Clouds 18 1011 77 10000 2.6 280 07:55 19.06.2020
1270 Clouds 18 1011 77 10000 2.1 300 07:36 19.06.2020
1271 Clouds 17 1011 82 10000 2.1 270 07:18 19.06.2020
1272 Clouds 17 1011 82 10000 2.1 310 06:23 19.06.2020
1273 Clouds 17 1010 82 10000 1.5 310 05:41 19.06.2020
1274 Clouds 17 1010 77 10000 2.6 330 04:23 19.06.2020
1275 Clouds 18 1010 77 10000 2.1 310 02:33 19.06.2020
1276 Clouds 19 1010 68 10000 2.1 330 00:48 19.06.2020
1277 Clouds 19 1010 68 10000 2.1 320 00:22 19.06.2020
1278 Clouds 19 1010 68 10000 2.1 320 23:58 18.06.2020
1279 Clouds 19 1010 68 10000 1.5 330 23:40 18.06.2020
1280 Clouds 20 1010 64 10000 2.6 350 23:22 18.06.2020
1281 Clouds 20 1010 64 10000 2.6 350 22:58 18.06.2020
1282 Clouds 20 1010 64 10000 2.6 360 22:36 18.06.2020
1283 Clouds 21 1010 60 10000 2.1 10 22:18 18.06.2020
1284 Clouds 22 1010 56 10000 2.6 30 21:39 18.06.2020
1285 Clouds 22 1009 64 10000 2.1 300 21:20 18.06.2020
1286 Clouds 22 1009 64 10000 2.1 300 20:56 18.06.2020
1287 Clouds 22 1009 68 10000 3.6 320 20:38 18.06.2020
1288 Clouds 23 1009 64 10000 3.6 290 20:19 18.06.2020
1289 Clouds 24 1009 64 10000 3.6 300 19:42 18.06.2020
1290 Clouds 24 1009 53 10000 3.1 50 19:22 18.06.2020
1291 Clouds 24 1009 53 10000 3.1 50 18:58 18.06.2020
1292 Clouds 25 1009 50 10000 3.1 40 18:37 18.06.2020
1293 Clouds 25 1009 50 10000 3.1 20 18:19 18.06.2020
1294 Clouds 26 1009 44 10000 3.1 0 17:45 18.06.2020
1295 Clouds 26 1009 44 10000 3.1 0 17:25 18.06.2020
1296 Clouds 26 1009 44 10000 4.1 30 16:56 18.06.2020
1297 Clouds 26 1009 47 10000 4.1 30 16:37 18.06.2020
1298 Clouds 27 1009 47 10000 4.1 30 16:19 18.06.2020
1299 Clouds 27 1009 47 10000 3.6 50 15:56 18.06.2020
1300 Clouds 27 1009 47 10000 3.6 40 15:38 18.06.2020
1301 Clouds 27 1009 50 10000 4.1 90 15:18 18.06.2020
1302 Clouds 27 1009 44 10000 4.1 40 14:55 18.06.2020
1303 Clouds 27 1009 44 10000 4.1 40 14:36 18.06.2020
1304 Clouds 28 1009 42 10000 4.1 80 14:18 18.06.2020
1305 Clouds 27 1009 50 10000 3.1 0 13:41 18.06.2020
1306 Clouds 27 1009 50 10000 3.1 0 13:23 18.06.2020
1307 Clouds 26 1009 53 10000 3.1 80 12:56 18.06.2020
1308 Clouds 26 1009 53 10000 3.1 80 12:56 18.06.2020
1309 Clouds 26 1009 53 10000 2.6 30 12:38 18.06.2020
1310 Clouds 25 1009 53 10000 2.6 30 12:19 18.06.2020
1311 Clouds 25 1009 64 10000 2.6 60 11:47 18.06.2020
1312 Clouds 24 1009 64 10000 2.6 60 11:21 18.06.2020
1313 Clouds 24 1009 68 10000 2.6 30 10:59 18.06.2020
1314 Clouds 23 1009 68 10000 2.1 40 10:39 18.06.2020
1315 Clouds 23 1009 68 10000 2.1 60 10:18 18.06.2020
1316 Clouds 22 1009 68 10000 2.6 70 09:44 18.06.2020
1317 Clouds 21 1009 68 10000 2.6 70 09:26 18.06.2020
1318 Clouds 20 1009 68 10000 2.1 70 08:57 18.06.2020
1319 Clouds 20 1009 68 10000 2.1 50 08:36 18.06.2020
1320 Clouds 20 1009 68 10000 2.6 50 08:18 18.06.2020
1321 Clouds 20 1009 68 10000 2.6 50 07:44 18.06.2020
1322 Clouds 20 1009 64 10000 2.1 40 07:23 18.06.2020
1323 Clouds 20 1009 64 10000 1.5 40 06:37 18.06.2020
1324 Clouds 19 1009 63 10000 2.6 60 05:25 18.06.2020
1325 Clouds 20 1009 60 10000 2.1 40 04:18 18.06.2020
1326 Clouds 22 1010 53 10000 2.6 40 01:44 18.06.2020
1327 Clouds 22 1010 53 10000 3.6 40 01:22 18.06.2020
1328 Clouds 22 1010 53 10000 3.6 40 00:52 18.06.2020
1329 Clouds 22 1010 49 10000 3.6 40 00:31 18.06.2020
1330 Clouds 23 1010 47 10000 3.1 30 23:56 17.06.2020
1331 Clouds 23 1010 47 10000 3.1 30 23:38 17.06.2020
1332 Clouds 24 1009 44 10000 3.6 30 23:19 17.06.2020
1333 Clouds 24 1009 44 10000 3.1 40 22:57 17.06.2020
1334 Clouds 24 1009 44 10000 3.1 40 22:37 17.06.2020
1335 Clouds 25 1009 44 10000 3.1 40 22:19 17.06.2020
1336 Clouds 25 1009 47 10000 2.1 60 21:40 17.06.2020
1337 Clouds 26 1009 36 10000 2.6 40 21:22 17.06.2020
1338 Clouds 26 1009 39 10000 2.1 40 20:57 17.06.2020
1339 Clouds 27 1009 36 10000 2.6 50 20:38 17.06.2020
1340 Clouds 27 1009 34 10000 3.1 70 20:19 17.06.2020
1341 Clouds 27 1009 34 10000 2.6 80 19:44 17.06.2020
1342 Clouds 27 1009 34 10000 3.1 60 19:23 17.06.2020
1343 Clouds 28 1009 34 10000 3.1 60 18:56 17.06.2020
1344 Clouds 28 1009 34 10000 2.6 50 18:38 17.06.2020
1345 Clouds 28 1009 34 10000 2.6 50 18:20 17.06.2020
1346 Clouds 28 1009 32 10000 2.1 0 17:42 17.06.2020
1347 Clouds 29 1009 32 10000 2.1 0 17:22 17.06.2020
1348 Clouds 28 1010 32 10000 3.6 10 16:57 17.06.2020
1349 Clouds 28 1010 30 10000 3.1 60 16:38 17.06.2020
1350 Clouds 29 1010 30 10000 2.6 0 16:20 17.06.2020
1351 Clouds 29 1010 30 10000 2.6 0 15:56 17.06.2020
1352 Clouds 28 1011 30 10000 2.6 0 15:38 17.06.2020
1353 Clouds 28 1011 32 10000 2.6 40 15:18 17.06.2020
1354 Clouds 28 1011 32 10000 2.6 40 14:57 17.06.2020
1355 Clouds 28 1011 34 10000 3.1 30 14:38 17.06.2020
1356 Clouds 28 1011 34 10000 2.6 0 14:19 17.06.2020
1357 Clouds 28 1011 34 10000 2.6 30 13:42 17.06.2020
1358 Clouds 27 1011 34 10000 2.1 0 13:22 17.06.2020
1359 Clouds 28 1011 34 10000 2.1 0 12:59 17.06.2020
1360 Clouds 27 1012 39 10000 3.1 60 12:40 17.06.2020
1361 Clouds 27 1012 38 10000 2.6 20 12:21 17.06.2020
1362 Clouds 26 1012 41 10000 2.6 40 11:45 17.06.2020
1363 Clouds 27 1012 41 10000 2.6 40 11:26 17.06.2020
1364 Clouds 27 1012 36 10000 2.1 30 10:59 17.06.2020
1365 Clouds 27 1012 39 10000 2.6 90 10:38 17.06.2020
1366 Clouds 26 1012 44 10000 2.1 70 10:19 17.06.2020
1367 Clouds 26 1012 44 10000 2.1 70 09:56 17.06.2020
1368 Clouds 24 1012 50 10000 2.1 60 09:37 17.06.2020
1369 Clouds 23 1012 53 10000 2.1 90 09:19 17.06.2020
1370 Clouds 22 1012 56 10000 1.5 60 08:44 17.06.2020
1371 Clouds 22 1012 60 10000 1.5 90 08:20 17.06.2020
1372 Clouds 21 1012 60 10000 1.5 90 07:55 17.06.2020
1373 Clouds 20 1012 60 10000 1.5 60 07:37 17.06.2020
1374 Clouds 20 1012 63 10000 1.59 83 07:19 17.06.2020
1375 Clouds 19 1012 72 10000 0.5 0 06:41 17.06.2020
1376 Clouds 17 1012 72 10000 0.5 0 06:23 17.06.2020
1377 Clouds 17 1012 77 10000 0.5 0 05:59 17.06.2020
1378 Clouds 16 1012 87 10000 1.71 64 04:39 17.06.2020
1379 Clouds 17 1012 77 10000 0.5 0 02:48 17.06.2020
1380 Clouds 17 1012 72 10000 2.45 63 01:29 17.06.2020
1381 Clouds 19 1013 72 10000 2.46 59 00:38 17.06.2020
1382 Clouds 19 1012 60 10000 0.5 100 00:19 17.06.2020
1383 Clouds 19 1012 60 10000 0.5 100 23:55 16.06.2020
1384 Clouds 20 1013 56 10000 2.46 59 23:37 16.06.2020
1385 Clouds 20 1012 53 10000 1 0 23:18 16.06.2020
1386 Clouds 20 1012 53 10000 1 0 22:54 16.06.2020
1387 Clouds 22 1012 46 10000 1 0 22:36 16.06.2020
1388 Clouds 23 1012 44 10000 0.5 0 22:18 16.06.2020
1389 Clouds 23 1012 38 10000 1 0 21:44 16.06.2020
1390 Clouds 24 1012 38 10000 1 0 21:23 16.06.2020
1391 Clouds 24 1012 38 10000 2.1 280 20:57 16.06.2020
1392 Clouds 25 1012 36 10000 2.1 300 20:39 16.06.2020
1393 Clouds 25 1012 34 10000 3.1 300 20:18 16.06.2020
1394 Clouds 26 1012 34 10000 3.1 300 19:56 16.06.2020
1395 Clouds 26 1012 36 10000 3.1 320 19:38 16.06.2020
1396 Clouds 26 1012 39 10000 3.6 310 19:19 16.06.2020
1397 Clouds 26 1012 39 10000 2.1 250 18:45 16.06.2020
1398 Clouds 26 1012 39 10000 2.1 250 18:45 16.06.2020
1399 Clouds 26 1012 39 10000 2.1 250 18:22 16.06.2020
1400 Clouds 26 1012 39 10000 2.6 0 17:59 16.06.2020
1401 Clouds 27 1013 36 10000 2.1 0 17:39 16.06.2020
1402 Clouds 27 1013 36 10000 2.1 0 17:21 16.06.2020
1403 -273 0 0 0 0 0 16:59 16.06.2020
1404 Clouds 27 1013 39 10000 3.1 300 16:41 16.06.2020
1405 Clear 27 1013 39 10000 3.6 320 16:20 16.06.2020
1406 Clear 27 1013 39 10000 3.6 320 15:57 16.06.2020
1407 Clear 27 1013 38 10000 3.6 290 15:39 16.06.2020
1408 Clear 27 1013 38 10000 3.6 290 15:21 16.06.2020
1409 Clear 27 1013 41 10000 3.6 270 14:56 16.06.2020
1410 Clear 26 1013 39 10000 3.6 0 14:38 16.06.2020
1411 Clouds 27 1013 41 10000 1.5 0 14:20 16.06.2020
1412 Clouds 26 1014 44 10000 2.1 0 13:46 16.06.2020
1413 Clouds 26 1014 44 10000 2.1 0 13:26 16.06.2020
1414 Clouds 25 1014 44 10000 1.5 0 12:55 16.06.2020
1415 Clouds 25 1014 41 10000 2.1 0 12:37 16.06.2020
1416 Clouds 25 1014 44 10000 3.6 290 12:18 16.06.2020
1417 Clouds 25 1014 44 10000 3.6 290 11:54 16.06.2020
1418 Clouds 24 1014 46 10000 2.6 0 11:36 16.06.2020
1419 Clouds 24 1014 46 10000 2.6 0 11:18 16.06.2020
1420 Clouds 24 1015 43 10000 1.5 0 10:42 16.06.2020
1421 Clouds 24 1015 43 10000 1.5 0 10:20 16.06.2020
1422 Clouds 24 1015 43 10000 1.5 0 10:20 16.06.2020
1423 Clouds 23 1015 49 10000 1.5 0 09:57 16.06.2020
1424 Clouds 23 1015 49 10000 1 0 09:38 16.06.2020
1425 Clouds 22 1015 49 10000 1 0 09:20 16.06.2020
1426 Clouds 20 1015 60 10000 1 0 08:41 16.06.2020
1427 Clouds 19 1015 68 10000 1.5 90 08:22 16.06.2020
1428 Clouds 18 1015 67 10000 2.1 70 07:46 16.06.2020
1429 Clouds 18 1015 67 10000 2.1 70 07:26 16.06.2020
1430 Clouds 16 1015 72 10000 1.5 50 06:47 16.06.2020
1431 Clear 15 1015 72 10000 1.5 50 06:19 16.06.2020
1432 Clear 14 1015 87 10000 0.5 0 05:32 16.06.2020
1433 Clear 15 1015 87 10000 0.5 0 04:28 16.06.2020
1434 Clear 16 1015 77 10000 0.5 0 02:56 16.06.2020
1435 Clear 17 1015 67 10000 1.5 90 01:52 16.06.2020
1436 Clear 18 1015 59 10000 2.1 60 01:20 16.06.2020
1437 Clear 18 1015 59 10000 2.6 40 00:43 16.06.2020
1438 Clear 19 1015 55 10000 2.6 40 00:19 16.06.2020
1439 Clear 19 1015 49 10000 2.6 50 23:41 15.06.2020
1440 Clear 19 1015 49 10000 2.6 50 23:22 15.06.2020
1441 Clear 20 1015 49 10000 2.6 50 22:55 15.06.2020
1442 Clear 21 1015 46 10000 2.6 50 22:37 15.06.2020
1443 Clear 20 1014 46 10000 3.6 40 22:18 15.06.2020
1444 Clear 21 1014 46 10000 3.6 40 21:55 15.06.2020
1445 Clear 21 1014 49 10000 3.1 40 21:36 15.06.2020
1446 Clear 22 1014 40 10000 2.1 30 21:18 15.06.2020
1447 Clear 23 1014 40 10000 2.1 30 20:55 15.06.2020
1448 Clouds 23 1014 38 10000 3.1 10 20:37 15.06.2020
1449 Clouds 24 1014 41 10000 2.6 10 20:18 15.06.2020
1450 Clouds 24 1014 38 10000 3.1 20 19:54 15.06.2020
1451 Clouds 24 1014 38 10000 3.1 20 19:36 15.06.2020
1452 Clouds 24 1014 38 10000 3.6 40 19:18 15.06.2020
1453 Clouds 24 1014 38 10000 2.6 60 18:43 15.06.2020
1454 Clouds 25 1014 38 10000 2.6 60 18:22 15.06.2020
1455 Clouds 25 1014 34 10000 2.6 50 17:59 15.06.2020
1456 Clouds 25 1014 34 10000 2.1 0 17:41 15.06.2020
1457 Clouds 25 1014 34 10000 2.1 0 17:20 15.06.2020
1458 Clouds 25 1014 38 10000 2.6 0 16:57 15.06.2020
1459 Clouds 25 1014 38 10000 2.6 0 16:39 15.06.2020
1460 Clear 26 1014 34 10000 1.5 240 16:18 15.06.2020
1461 Clear 25 1014 36 10000 3.1 80 15:55 15.06.2020
1462 Clear 25 1014 36 10000 3.1 80 15:36 15.06.2020
1463 Clear 25 1014 33 10000 3.6 60 15:18 15.06.2020
1464 Clear 25 1014 33 10000 2.6 0 14:41 15.06.2020
1465 Clouds 25 1014 38 10000 3.6 30 14:20 15.06.2020
1466 Clouds 25 1014 38 10000 3.6 30 13:58 15.06.2020
1467 Clouds 25 1014 40 10000 3.6 20 13:38 15.06.2020
1468 Clouds 25 1014 43 10000 4.1 60 13:19 15.06.2020
1469 Clouds 24 1014 43 10000 4.1 60 12:55 15.06.2020
1470 Clouds 24 1015 46 10000 3.1 30 12:36 15.06.2020
1471 Clouds 23 1015 49 10000 3.6 50 12:18 15.06.2020
1472 Clouds 23 1015 49 10000 4.1 60 11:41 15.06.2020
1473 Clouds 22 1015 52 10000 4.1 80 11:23 15.06.2020
1474 Clouds 23 1015 56 10000 4.1 70 10:44 15.06.2020
1475 Clouds 22 1014 56 10000 4.1 70 10:22 15.06.2020
1476 Clouds 22 1014 56 10000 4.1 70 09:47 15.06.2020
1477 Clouds 19 1014 63 10000 4.1 60 09:25 15.06.2020
1478 Clouds 19 1014 63 10000 4.1 60 08:57 15.06.2020
1479 Clouds 18 1014 68 10000 2.6 70 08:39 15.06.2020
1480 Clouds 19 1014 68 10000 3.6 80 08:20 15.06.2020
1481 Clouds 17 1014 67 10000 2.6 90 07:45 15.06.2020
1482 Clouds 17 1014 67 10000 2.6 90 07:26 15.06.2020
1483 Clouds 17 1013 82 10000 2.1 60 06:48 15.06.2020
1484 Clouds 16 1013 82 10000 2.1 50 06:25 15.06.2020
1485 Clouds 15 1013 82 10000 1 0 05:46 15.06.2020
1486 Clear 15 1013 82 10000 1.5 70 05:25 15.06.2020
1487 Clouds 16 1013 77 10000 2.1 60 04:20 15.06.2020
1488 Clouds 16 1013 77 10000 1.5 70 03:41 15.06.2020
1489 Clouds 17 1013 77 10000 2.1 60 02:53 15.06.2020
1490 Clouds 17 1013 72 10000 2.6 60 01:53 15.06.2020
1491 Clouds 18 1013 68 10000 3.1 50 01:32 15.06.2020
1492 Clouds 18 1013 68 10000 3.1 40 00:58 15.06.2020
1493 Clouds 19 1013 63 10000 3.6 30 00:39 15.06.2020
1494 Clouds 19 1013 63 10000 3.6 30 00:20 15.06.2020
1495 Clouds 20 1013 60 10000 2.6 30 23:46 14.06.2020
1496 Clear 20 1013 60 10000 2.6 30 23:25 14.06.2020
1497 Clear 20 1013 56 10000 3.6 30 22:58 14.06.2020
1498 Clear 21 1012 53 10000 3.6 30 22:39 14.06.2020
1499 Clear 21 1012 46 10000 1.5 40 22:20 14.06.2020
1500 Clear 22 1012 46 10000 1.5 40 21:57 14.06.2020
1501 Clear 23 1012 44 10000 2.6 40 21:39 14.06.2020
1502 Clear 23 1012 44 10000 3.1 40 21:19 14.06.2020
1503 Clear 23 1012 44 10000 3.1 40 20:59 14.06.2020
1504 Clear 24 1011 41 10000 4.1 40 20:39 14.06.2020
1505 Clouds 24 1011 41 10000 4.1 40 20:20 14.06.2020
1506 Clouds 25 1011 44 10000 3.6 40 19:59 14.06.2020
1507 Clouds 25 1011 41 10000 3.6 70 19:40 14.06.2020
1508 Clouds 25 1011 41 10000 4.1 60 19:20 14.06.2020
1509 Clouds 25 1011 41 10000 4.1 60 18:58 14.06.2020
1510 Clouds 25 1011 41 10000 2.6 60 18:40 14.06.2020
1511 Clouds 25 1011 41 10000 2.6 60 18:21 14.06.2020
1512 Clouds 25 1011 44 10000 4.1 50 17:58 14.06.2020
1513 Clouds 25 1011 44 10000 4.6 60 17:39 14.06.2020
1514 Clouds 25 1012 44 10000 4.1 0 17:20 14.06.2020
1515 Clouds 25 1012 44 10000 4.1 0 16:57 14.06.2020
1516 Clouds 26 1012 47 10000 3.1 0 16:38 14.06.2020
1517 Clouds 25 1012 50 10000 3.6 80 16:19 14.06.2020
1518 Clouds 25 1012 53 10000 3.6 70 15:41 14.06.2020
1519 Clouds 25 1012 53 10000 4.1 80 15:20 14.06.2020
1520 Clouds 24 1012 53 10000 4.1 80 14:59 14.06.2020
1521 Clouds 24 1012 57 10000 4.1 70 14:41 14.06.2020
1522 Clouds 24 1012 57 10000 5.1 90 14:22 14.06.2020
1523 Clouds 24 1012 57 10000 5.1 90 13:58 14.06.2020
1524 Clouds 24 1012 64 10000 5.1 70 13:40 14.06.2020
1525 Clouds 23 1012 68 10000 5.7 80 13:21 14.06.2020
1526 Clouds 23 1012 68 10000 5.7 80 13:21 14.06.2020
1527 Clouds 23 1012 68 10000 5.7 80 12:57 14.06.2020
1528 Clouds 23 1012 68 10000 4.6 90 12:38 14.06.2020
1529 Clouds 23 1012 68 10000 4.6 90 12:20 14.06.2020
1530 Clouds 22 1012 73 10000 4.1 90 11:57 14.06.2020
1531 Clouds 21 1012 77 10000 3.6 60 11:38 14.06.2020
1532 Clouds 21 1012 77 10000 3.6 60 11:20 14.06.2020
1533 Clouds 20 1012 82 10000 2.6 50 10:42 14.06.2020
1534 Clouds 20 1012 82 10000 2.6 60 10:20 14.06.2020
1535 Clouds 20 1012 82 10000 3.1 50 09:51 14.06.2020
1536 Clouds 20 1012 82 10000 3.1 50 09:26 14.06.2020
1537 Clouds 20 1012 88 10000 2.6 40 08:59 14.06.2020
1538 Clouds 20 1011 88 10000 3.1 50 08:41 14.06.2020
1539 Clouds 20 1011 88 10000 3.1 50 08:19 14.06.2020
1540 Clouds 19 1011 88 10000 2.6 30 07:52 14.06.2020
1541 Clouds 19 1012 93 10000 2.1 20 07:32 14.06.2020
1542 Clouds 19 1012 100 9000 1.5 20 06:39 14.06.2020
1543 Clouds 18 1012 100 10000 2.1 300 05:47 14.06.2020
1544 Rain 19 1012 93 10000 1.5 0 05:18 14.06.2020
1545 Clouds 19 1011 93 10000 2.1 70 04:35 14.06.2020
1546 Rain 18 1011 93 10000 2.6 50 03:44 14.06.2020
1547 Clouds 18 1011 93 10000 2.1 70 02:34 14.06.2020
1548 Clouds 18 1011 93 10000 3.6 40 01:49 14.06.2020
1549 Clouds 18 1011 93 10000 3.6 40 01:26 14.06.2020
1550 Rain 18 1010 93 10000 3.6 40 00:42 14.06.2020
1551 Rain 18 1010 93 10000 3.6 40 00:20 14.06.2020
1552 Rain 19 1010 93 10000 3.6 10 23:46 13.06.2020
1553 Rain 19 1010 93 10000 3.6 10 23:26 13.06.2020
1554 Rain 19 1011 93 10000 2.6 20 22:58 13.06.2020
1555 Rain 19 1012 93 10000 2.6 10 22:38 13.06.2020
1556 Rain 19 1012 93 10000 3.1 20 22:18 13.06.2020
1557 Rain 19 1012 93 10000 3.1 20 21:57 13.06.2020
1558 Rain 19 1012 100 10000 2.1 150 21:39 13.06.2020
1559 Thunderstorm 20 1012 94 8000 3.1 30 21:21 13.06.2020
1560 Thunderstorm 20 1012 94 7000 1.5 120 20:44 13.06.2020
1561 Thunderstorm 20 1012 88 8000 2.6 140 20:20 13.06.2020
1562 Thunderstorm 20 1012 88 8000 2.6 140 19:58 13.06.2020
1563 Thunderstorm 20 1012 88 10000 1.5 0 19:38 13.06.2020
1564 Rain 21 1011 83 10000 2.1 0 19:19 13.06.2020
1565 Thunderstorm 22 1011 83 10000 2.1 0 18:58 13.06.2020
1566 Thunderstorm 22 1011 83 10000 5.1 70 18:38 13.06.2020
1567 Thunderstorm 22 1011 83 10000 5.1 70 18:19 13.06.2020
1568 Thunderstorm 22 1009 83 10000 6.2 40 17:56 13.06.2020
1569 Thunderstorm 23 1009 83 10000 6.2 40 17:37 13.06.2020
1570 Thunderstorm 23 1010 73 10000 5.1 40 17:19 13.06.2020
1571 Clouds 23 1010 69 10000 5.1 30 16:54 13.06.2020
1572 Clouds 23 1010 69 10000 5.1 30 16:36 13.06.2020
1573 Thunderstorm 24 1009 73 10000 5.1 30 16:18 13.06.2020
1574 Thunderstorm 25 1010 69 10000 7.2 50 15:41 13.06.2020
1575 Thunderstorm 26 1010 69 10000 7.2 50 15:21 13.06.2020
1576 Rain 31 1009 46 10000 2.6 160 14:44 13.06.2020
1577 Clouds 31 1009 52 10000 1.5 0 14:24 13.06.2020
1578 Clouds 32 1009 52 10000 1.5 0 13:58 13.06.2020
1579 Clouds 31 1010 52 10000 3.1 0 13:39 13.06.2020
1580 Clouds 31 1010 55 10000 2.1 0 13:20 13.06.2020
1581 Clouds 31 1010 55 10000 2.1 0 12:43 13.06.2020
1582 Clouds 31 1010 55 10000 2.1 0 12:43 13.06.2020
1583 Clouds 30 1010 55 10000 2.1 0 12:25 13.06.2020
1584 Clouds 29 1010 58 10000 2.6 80 11:57 13.06.2020
1585 Rain 29 1011 61 10000 2.6 40 11:38 13.06.2020
1586 Rain 28 1011 69 10000 2.6 100 11:19 13.06.2020
1587 Rain 29 1011 61 10000 2.6 40 11:19 13.06.2020
1588 Rain 28 1011 69 10000 2.6 100 10:56 13.06.2020
1589 Clouds 27 1011 73 10000 2.1 50 10:38 13.06.2020
1590 Clouds 26 1011 73 10000 2.1 50 10:18 13.06.2020
1591 Clouds 26 1011 78 10000 2.1 50 09:44 13.06.2020
1592 Rain 23 1011 78 10000 2.1 50 09:22 13.06.2020
1593 Rain 23 1011 83 10000 1.5 40 08:49 13.06.2020
1594 Clouds 22 1011 83 10000 1.5 40 08:30 13.06.2020
1595 Clouds 22 1011 83 10000 1.5 40 08:30 13.06.2020
1596 Clouds 21 1011 88 10000 1.5 50 07:54 13.06.2020
1597 Clouds 21 1011 93 10000 2.1 50 07:30 13.06.2020
1598 Clouds 20 1011 88 9000 2.1 50 06:51 13.06.2020
1599 Clouds 19 1011 88 9000 2.6 40 06:33 13.06.2020
1600 Clouds 19 1011 93 10000 2.1 30 05:47 13.06.2020
1601 Clouds 18 1011 93 10000 2.1 30 05:25 13.06.2020
1602 Clouds 19 1011 88 10000 2.6 40 03:55 13.06.2020
1603 Clouds 20 1011 88 10000 2.1 40 02:55 13.06.2020
1604 Clouds 20 1011 82 10000 3.6 40 02:35 13.06.2020
1605 Clouds 21 1011 83 10000 2.6 40 01:47 13.06.2020
1606 Rain 21 1011 83 10000 3.1 60 01:21 13.06.2020
1607 Rain 22 1011 78 10000 4.1 40 00:44 13.06.2020
1608 Clouds 22 1011 78 10000 4.1 40 00:26 13.06.2020
1609 Rain 23 1010 73 10000 3.1 30 23:42 12.06.2020
1610 Clouds 23 1010 69 10000 4.1 50 23:19 12.06.2020
1611 Clouds 23 1010 69 10000 4.1 50 22:59 12.06.2020
1612 Clouds 23 1010 64 10000 3.6 40 22:40 12.06.2020
1613 Clouds 24 1010 64 10000 3.6 40 22:19 12.06.2020
1614 Clouds 24 1010 57 10000 4.1 40 21:50 12.06.2020
1615 Clouds 25 1010 57 10000 4.1 40 21:27 12.06.2020
1616 Clouds 26 1010 54 10000 4.6 40 20:59 12.06.2020
1617 Clouds 26 1009 54 10000 5.1 50 20:41 12.06.2020
1618 Clouds 26 1009 54 10000 4.1 40 20:22 12.06.2020
1619 Clouds 27 1009 51 10000 3.6 40 19:57 12.06.2020
1620 Clouds 27 1009 51 10000 3.6 40 19:57 12.06.2020
1621 Clouds 27 1009 51 10000 3.1 60 19:39 12.06.2020
1622 Clouds 27 1009 45 10000 3.6 60 19:19 12.06.2020
1623 Clouds 27 1010 48 10000 3.1 50 18:39 12.06.2020
1624 Clouds 27 1010 47 10000 3.1 70 18:19 12.06.2020
1625 Clouds 27 1010 47 10000 3.1 70 17:59 12.06.2020
1626 Clouds 27 1010 54 10000 3.1 90 17:39 12.06.2020
1627 Clouds 27 1010 51 10000 3.1 60 17:21 12.06.2020
1628 Rain 26 1010 54 10000 2.1 50 16:45 12.06.2020
1629 Rain 26 1010 57 10000 2.1 50 16:21 12.06.2020
1630 Clouds 26 1011 57 10000 3.1 60 15:49 12.06.2020
1631 Clouds 26 1011 57 10000 3.1 60 15:27 12.06.2020
1632 Clouds 26 1011 61 10000 2.6 60 14:58 12.06.2020
1633 Clouds 26 1011 61 10000 3.1 90 14:39 12.06.2020
1634 Clouds 26 1011 65 10000 2.6 50 14:21 12.06.2020
1635 Clouds 25 1011 64 10000 2.1 0 13:43 12.06.2020
1636 Clouds 25 1011 69 10000 2.6 100 13:22 12.06.2020
1637 Clouds 25 1011 69 10000 2.6 100 12:55 12.06.2020
1638 Clouds 25 1011 64 10000 2.1 0 12:37 12.06.2020
1639 Clouds 24 1012 73 10000 3.6 80 12:18 12.06.2020
1640 Clouds 23 1012 73 10000 3.6 100 11:43 12.06.2020
1641 Clouds 22 1012 73 10000 3.6 100 11:23 12.06.2020
1642 Clouds 21 1012 77 10000 2.1 40 10:54 12.06.2020
1643 Clouds 19 1012 82 10000 1.5 100 10:36 12.06.2020
1644 Clouds 19 1012 88 10000 2.6 30 10:18 12.06.2020
1645 Clouds 19 1012 87 8000 2.1 70 09:43 12.06.2020
1646 Clouds 17 1012 87 8000 2.1 70 09:19 12.06.2020
1647 Mist 15 1012 93 4300 1 0 08:41 12.06.2020
1648 Mist 15 1012 93 4300 1 0 08:23 12.06.2020
1649 Mist 15 1012 100 1300 1.5 40 07:42 12.06.2020
1650 Mist 15 1012 100 1300 1.5 40 07:24 12.06.2020
1651 Mist 14 1011 100 3200 2.1 30 06:43 12.06.2020
1652 Mist 14 1011 100 3200 2.1 70 06:22 12.06.2020
1653 Mist 14 1011 100 3200 2.1 60 05:49 12.06.2020
1654 Mist 14 1011 100 3200 2.1 50 05:24 12.06.2020
1655 Clouds 15 1011 100 10000 1.5 50 03:55 12.06.2020
1656 Clouds 15 1011 93 10000 2.1 60 02:43 12.06.2020
1657 Clouds 15 1011 93 10000 2.1 20 01:47 12.06.2020
1658 Clouds 15 1011 93 10000 2.1 20 01:20 12.06.2020
1659 Clouds 16 1011 93 10000 2.1 50 00:40 12.06.2020
1660 Clouds 17 1011 88 10000 2.6 30 00:21 12.06.2020
1661 Clouds 17 1011 88 10000 2.6 30 23:58 11.06.2020
1662 Clouds 17 1011 88 10000 2.1 20 23:39 11.06.2020
1663 Clouds 18 1011 88 10000 2.1 30 23:20 11.06.2020
1664 Clouds 18 1011 88 10000 2.1 30 22:57 11.06.2020
1665 Clouds 18 1011 82 10000 2.1 30 22:38 11.06.2020
1666 Clouds 19 1011 82 10000 2.1 50 22:19 11.06.2020
1667 Clouds 19 1011 82 10000 2.1 50 21:54 11.06.2020
1668 Clouds 19 1010 93 10000 0.5 0 21:36 11.06.2020
1669 Clouds 20 1010 93 10000 2.1 250 21:18 11.06.2020
1670 Clouds 20 1010 93 10000 1.5 320 20:43 11.06.2020
1671 Clouds 20 1010 93 10000 1.5 320 20:21 11.06.2020
1672 Clouds 20 1010 93 10000 1.5 280 19:44 11.06.2020
1673 Clouds 20 1010 93 10000 1.5 280 19:23 11.06.2020
1674 Clouds 20 1010 93 9000 1.5 310 18:58 11.06.2020
1675 Rain 20 1010 93 9000 2.1 260 18:40 11.06.2020
1676 Rain 20 1010 93 9000 2.1 260 18:20 11.06.2020
1677 Rain 20 1010 88 9000 1.5 300 17:56 11.06.2020
1678 Rain 20 1010 88 9000 1.5 300 17:37 11.06.2020
1679 Clouds 20 1010 77 10000 1.5 340 17:19 11.06.2020
1680 Clouds 20 1010 77 10000 1.5 0 16:55 11.06.2020
1681 Clouds 20 1011 82 10000 1.5 50 16:37 11.06.2020
1682 Clouds 20 1011 82 10000 1.5 50 16:18 11.06.2020
1683 Clouds 20 1011 82 10000 1 0 15:42 11.06.2020
1684 Clouds 19 1011 82 10000 1 0 15:23 11.06.2020
1685 Clouds 19 1011 82 10000 1 0 14:55 11.06.2020
1686 Clouds 19 1011 82 10000 1.5 70 14:37 11.06.2020
1687 Clouds 19 1011 82 10000 1.5 70 14:19 11.06.2020
1688 Clouds 18 1011 88 10000 1.5 60 13:54 11.06.2020
1689 Drizzle 18 1010 82 8000 2.1 90 13:36 11.06.2020
1690 Drizzle 18 1010 82 8000 2.1 90 13:18 11.06.2020
1691 Clouds 17 1011 88 9000 2.6 40 12:39 11.06.2020
1692 Clouds 17 1011 88 9000 2.6 40 12:21 11.06.2020
1693 Clouds 17 1010 88 8000 2.1 0 11:59 11.06.2020
1694 Clouds 17 1010 88 8000 2.6 40 11:41 11.06.2020
1695 Clouds 17 1010 88 8000 2.6 40 11:23 11.06.2020
1696 Clouds 17 1010 88 8000 2.6 30 10:59 11.06.2020
1697 Clouds 17 1010 93 8000 2.1 40 10:41 11.06.2020
1698 Clouds 17 1010 93 8000 2.1 40 10:18 11.06.2020
1699 Clouds 16 1010 93 7000 2.1 30 09:44 11.06.2020
1700 Clouds 16 1011 93 6000 1.5 50 09:26 11.06.2020
1701 Clouds 15 1011 93 6000 2.1 40 08:55 11.06.2020
1702 Clouds 16 1011 93 6000 2.1 40 08:36 11.06.2020
1703 Rain 15 1010 93 5000 2.6 40 08:18 11.06.2020
1704 Rain 15 1011 93 4500 3.1 40 07:41 11.06.2020
1705 Rain 15 1010 93 4500 3.1 40 07:23 11.06.2020
1706 Rain 15 1010 93 3500 2.1 40 06:33 11.06.2020
1707 Rain 15 1010 93 5000 2.1 30 05:54 11.06.2020
1708 Rain 15 1010 100 6000 1.5 10 04:41 11.06.2020
1709 Drizzle 15 1011 100 6000 2.6 20 03:25 11.06.2020
1710 Drizzle 15 1011 87 7000 2.1 20 02:46 11.06.2020
1711 Clouds 16 1012 77 10000 3.1 20 01:56 11.06.2020
1712 Clouds 16 1012 77 10000 2.6 30 01:35 11.06.2020
1713 Clouds 16 1012 77 10000 3.1 40 00:57 11.06.2020
1714 Clouds 16 1012 77 10000 3.1 30 00:39 11.06.2020
1715 Clouds 17 1012 77 10000 3.1 30 00:19 11.06.2020
1716 Clouds 17 1012 72 10000 3.1 50 23:41 10.06.2020
1717 Clouds 17 1012 72 10000 2.6 30 23:22 10.06.2020
1718 Clouds 17 1012 72 10000 2.1 30 22:55 10.06.2020
1719 Clouds 17 1012 72 10000 2.6 30 22:37 10.06.2020
1720 Clouds 17 1012 72 10000 2.6 30 22:18 10.06.2020
1721 Clouds 17 1012 72 10000 2.6 30 22:18 10.06.2020
1722 Clouds 17 1012 72 10000 3.6 30 21:55 10.06.2020
1723 Clouds 18 1012 63 0 3.1 30 21:37 10.06.2020
1724 Clouds 18 1012 63 0 3.1 30 21:18 10.06.2020
1725 Clouds 19 1012 63 10000 3.1 30 20:55 10.06.2020
1726 Clouds 19 1012 59 10000 4.6 20 20:37 10.06.2020
1727 Clouds 19 1012 59 10000 4.6 20 20:19 10.06.2020
1728 Clouds 20 1012 55 10000 4.1 20 19:39 10.06.2020
1729 Clouds 21 1012 49 10000 4.6 360 19:19 10.06.2020
1730 Clouds 21 1012 49 10000 4.6 360 18:57 10.06.2020
1731 Clouds 21 1012 49 10000 4.6 360 18:39 10.06.2020
1732 Clouds 21 1012 45 10000 4.1 40 18:19 10.06.2020
1733 Clouds 21 1012 43 10000 4.1 30 17:55 10.06.2020
1734 Clouds 21 1012 43 10000 4.1 30 17:37 10.06.2020
1735 Clouds 21 1012 43 10000 4.6 20 17:18 10.06.2020
1736 Clouds 22 1013 40 10000 3.1 10 16:56 10.06.2020
1737 Clouds 22 1013 43 10000 4.6 30 16:38 10.06.2020
1738 Clouds 22 1013 43 10000 4.6 30 16:18 10.06.2020
1739 Clouds 22 1013 40 10000 4.6 30 15:40 10.06.2020
1740 Clouds 22 1013 40 10000 4.6 30 15:21 10.06.2020
1741 Clouds 22 1013 35 10000 2.6 20 14:56 10.06.2020
1742 Clouds 22 1013 35 10000 2.6 20 14:38 10.06.2020
1743 Clouds 23 1013 35 10000 4.1 350 14:20 10.06.2020
1744 Clouds 22 1014 40 10000 4.1 40 13:40 10.06.2020
1745 Clouds 22 1014 40 10000 4.1 40 13:21 10.06.2020
1746 Clouds 21 1014 45 10000 3.1 0 12:45 10.06.2020
1747 Clouds 20 1014 48 10000 3.1 50 12:23 10.06.2020
1748 Clouds 18 1015 52 10000 3.1 40 11:58 10.06.2020
1749 Clouds 18 1015 52 10000 3.1 40 11:40 10.06.2020
1750 Clouds 17 1015 63 10000 4.1 30 11:19 10.06.2020
1751 Clouds 17 1015 59 10000 2.1 70 10:57 10.06.2020
1752 Clouds 17 1015 63 10000 3.1 70 10:39 10.06.2020
1753 Clouds 17 1015 63 10000 3.1 70 10:20 10.06.2020
1754 Clouds 16 1015 72 10000 4.1 60 09:42 10.06.2020
1755 Clouds 16 1015 72 10000 4.1 60 09:23 10.06.2020
1756 Clouds 15 1015 72 10000 3.6 70 08:57 10.06.2020
1757 Clouds 15 1015 72 10000 2.6 40 08:38 10.06.2020
1758 Clouds 15 1015 72 10000 2.6 40 08:20 10.06.2020
1759 Clouds 14 1015 87 10000 3.1 20 07:39 10.06.2020
1760 Clouds 13 1015 87 10000 3.1 20 07:21 10.06.2020
1761 Clouds 13 1015 87 10000 2.6 20 06:47 10.06.2020
1762 Clouds 12 1015 81 10000 2.1 350 06:25 10.06.2020
1763 Clouds 12 1015 81 10000 2.1 10 05:58 10.06.2020
1764 Clouds 12 1015 81 10000 1.5 20 05:28 10.06.2020
1765 Clouds 13 1015 81 10000 2.6 360 04:37 10.06.2020
1766 Clouds 13 1016 76 10000 2.1 10 03:33 10.06.2020
1767 Clouds 14 1016 71 10000 2.6 10 02:24 10.06.2020
1768 Clouds 16 1016 59 10000 3.1 20 01:39 10.06.2020
1769 Clouds 17 1016 59 10000 2.6 30 00:41 10.06.2020
1770 Clouds 17 1016 51 10000 3.1 30 00:23 10.06.2020
1771 Clouds 17 1016 51 10000 3.6 40 23:59 09.06.2020
1772 Clouds 17 1016 51 10000 3.6 40 23:41 09.06.2020
1773 Clouds 18 1016 48 10000 3.1 40 23:22 09.06.2020
1774 Clouds 18 1016 48 10000 3.6 30 22:57 09.06.2020
1775 Clouds 19 1016 45 10000 4.6 30 22:38 09.06.2020
1776 Clouds 19 1016 45 10000 4.6 30 22:20 09.06.2020
1777 Clouds 19 1016 45 10000 4.6 30 21:57 09.06.2020
1778 Clouds 20 1015 42 10000 5.1 30 21:39 09.06.2020
1779 Clouds 20 1015 42 10000 5.1 30 21:21 09.06.2020
1780 Clouds 20 1015 40 10000 4.1 40 20:57 09.06.2020
1781 Clouds 20 1015 40 10000 4.1 40 20:57 09.06.2020
1782 Clouds 20 1015 40 10000 4.1 40 20:39 09.06.2020
1783 Clouds 21 1015 37 10000 3.6 30 20:20 09.06.2020
1784 Clouds 21 1015 37 10000 3.6 30 20:20 09.06.2020
1785 Clouds 21 1015 37 10000 3.1 40 19:57 09.06.2020
1786 Clouds 21 1015 37 10000 3.1 40 19:39 09.06.2020
1787 Clouds 21 1015 37 10000 3.1 30 19:20 09.06.2020
1788 Clouds 21 1015 37 10000 3.1 30 19:20 09.06.2020
1789 Clouds 21 1015 37 10000 2.1 20 18:57 09.06.2020
1790 Clouds 21 1015 40 10000 3.1 20 18:39 09.06.2020
1791 Clouds 22 1015 40 10000 3.1 20 18:19 09.06.2020
1792 Clouds 22 1015 40 10000 2.6 360 17:55 09.06.2020
1793 Clouds 22 1015 37 10000 2.1 10 17:37 09.06.2020
1794 Clouds 22 1015 37 10000 2.1 10 17:18 09.06.2020
1795 Clouds 22 1015 37 10000 3.6 10 16:42 09.06.2020
1796 Clouds 22 1015 37 10000 3.1 30 16:23 09.06.2020
1797 Clouds 22 1015 40 10000 3.1 20 15:56 09.06.2020
1798 Clouds 22 1015 40 10000 3.1 20 15:38 09.06.2020
1799 Clouds 22 1016 43 10000 2.6 360 15:20 09.06.2020
1800 Clouds 22 1016 40 10000 2.1 0 14:55 09.06.2020
1801 Clouds 22 1016 40 10000 1.5 20 14:36 09.06.2020
1802 Clouds 22 1016 40 10000 1.5 20 14:18 09.06.2020
1803 Clouds 22 1016 40 10000 2.6 0 13:42 09.06.2020
1804 Clouds 21 1016 43 10000 2.1 40 13:21 09.06.2020
1805 Clouds 21 1016 40 10000 3.1 10 12:58 09.06.2020
1806 Clouds 21 1016 40 10000 3.1 10 12:40 09.06.2020
1807 Rain 21 1016 43 10000 2.1 0 12:18 09.06.2020
1808 Rain 21 1016 43 10000 3.1 350 11:55 09.06.2020
1809 Clouds 21 1016 43 10000 2.6 40 11:37 09.06.2020
1810 Clouds 21 1016 43 10000 2.6 40 11:37 09.06.2020
1811 Clouds 21 1016 43 10000 2.6 40 11:19 09.06.2020
1812 Clouds 21 1016 45 10000 3.1 0 10:44 09.06.2020
1813 Rain 20 1016 49 10000 3.1 50 10:25 09.06.2020
1814 Rain 20 1016 49 10000 3.1 30 09:55 09.06.2020
1815 Rain 18 1016 52 10000 3.1 30 09:36 09.06.2020
1816 Clear 18 1016 52 10000 3.1 30 09:18 09.06.2020
1817 Clear 17 1016 59 10000 2.6 50 08:39 09.06.2020
1818 Clouds 17 1016 63 10000 2.1 50 08:20 09.06.2020
1819 Clouds 16 1016 67 10000 2.1 40 07:40 09.06.2020
1820 Clouds 15 1016 67 10000 2.1 40 07:22 09.06.2020
1821 Clouds 15 1016 71 10000 2.1 30 06:55 09.06.2020
1822 Clouds 14 1015 76 10000 1.5 50 06:36 09.06.2020
1823 Clouds 13 1015 81 10000 1 0 05:37 09.06.2020
1824 Clouds 14 1015 76 10000 1.5 40 03:53 09.06.2020
1825 Clouds 15 1015 67 10000 1.5 20 02:22 09.06.2020
1826 Clouds 16 1015 63 10000 1.5 40 01:37 09.06.2020
1827 Clouds 16 1015 63 10000 1.5 40 01:18 09.06.2020
1828 Clouds 16 1015 59 10000 1.5 20 00:42 09.06.2020
1829 Clouds 17 1015 59 10000 1.5 20 00:19 09.06.2020
1830 Clouds 18 1015 59 10000 1.5 30 23:42 08.06.2020
1831 Clouds 18 1015 52 10000 1.5 30 23:22 08.06.2020
1832 Clouds 18 1014 52 10000 1.5 30 22:59 08.06.2020
1833 Clouds 18 1014 52 10000 1.5 30 22:39 08.06.2020
1834 Clouds 19 1014 52 10000 1.5 10 22:20 08.06.2020
1835 Clouds 19 1014 48 10000 2.1 360 21:56 08.06.2020
1836 Clouds 19 1014 48 10000 2.6 10 21:38 08.06.2020
1837 Clouds 19 1014 48 10000 2.6 10 21:19 08.06.2020
1838 Clouds 20 1013 45 10000 3.1 360 20:55 08.06.2020
1839 Clouds 20 1013 45 10000 3.1 360 20:37 08.06.2020
1840 Clouds 20 1013 42 10000 2.6 330 20:18 08.06.2020
1841 Clouds 21 1013 42 10000 1.5 360 19:43 08.06.2020
1842 Clouds 21 1013 42 10000 2.6 300 19:22 08.06.2020
1843 Clouds 21 1013 40 10000 2.1 330 18:58 08.06.2020
1844 Clouds 21 1013 40 10000 2.6 330 18:39 08.06.2020
1845 Clouds 22 1013 40 10000 2.6 330 18:18 08.06.2020
1846 Clouds 22 1013 40 10000 2.1 330 17:54 08.06.2020
1847 Clouds 22 1013 40 10000 2.6 10 17:36 08.06.2020
1848 Clouds 22 1013 40 10000 2.6 10 17:18 08.06.2020
1849 Clouds 22 1013 37 10000 2.6 300 16:42 08.06.2020
1850 Clouds 22 1013 42 10000 3.1 320 16:22 08.06.2020
1851 Clouds 22 1013 42 10000 3.6 290 15:44 08.06.2020
1852 Clouds 22 1013 37 10000 2.1 310 15:22 08.06.2020
1853 Clouds 21 1013 35 10000 3.6 300 14:59 08.06.2020
1854 Clouds 21 1013 42 10000 2.6 300 14:40 08.06.2020
1855 Clouds 21 1013 42 10000 2.6 300 14:20 08.06.2020
1856 Clouds 21 1013 42 10000 2.6 300 14:20 08.06.2020
1857 Clouds 21 1013 40 10000 2.1 0 13:44 08.06.2020
1858 Clear 21 1013 42 10000 4.1 320 13:26 08.06.2020
1859 Clouds 21 1013 42 10000 3.6 260 12:58 08.06.2020
1860 Clouds 20 1013 45 10000 3.6 270 12:40 08.06.2020
1861 Clouds 20 1013 45 10000 3.6 270 12:19 08.06.2020
1862 Clouds 20 1013 48 10000 4.1 310 11:42 08.06.2020
1863 Clouds 20 1013 52 10000 3.6 300 11:24 08.06.2020
1864 Clouds 20 1013 52 10000 3.1 280 10:59 08.06.2020
1865 Clouds 19 1013 52 10000 3.1 310 10:40 08.06.2020
1866 Clouds 19 1013 52 10000 3.1 310 10:21 08.06.2020
1867 Clouds 19 1013 55 10000 3.1 290 09:59 08.06.2020
1868 Clouds 18 1013 55 10000 3.1 290 09:41 08.06.2020
1869 Clear 17 1013 59 10000 2.6 300 09:23 08.06.2020
1870 Clear 16 1013 59 10000 2.1 280 08:49 08.06.2020
1871 Clear 16 1013 59 10000 2.1 280 08:49 08.06.2020
1872 Clouds 16 1013 62 10000 1 0 08:23 08.06.2020
1873 Clouds 15 1012 62 10000 0.5 0 07:48 08.06.2020
1874 Clouds 13 1012 71 10000 1 0 07:28 08.06.2020
1875 Clouds 12 1012 81 10000 1 0 06:58 08.06.2020
1876 Clouds 11 1012 81 10000 1.5 260 06:36 08.06.2020
1877 Clouds 11 1011 87 10000 1.5 260 05:54 08.06.2020
1878 Clouds 11 1011 76 10000 1 210 04:36 08.06.2020
1879 Clouds 13 1010 71 10000 2.1 290 03:22 08.06.2020
1880 Clouds 14 1010 62 10000 2.1 310 02:26 08.06.2020
1881 Clouds 15 1010 62 10000 3.1 310 01:42 08.06.2020
1882 Clouds 15 1010 62 10000 2.6 300 00:57 08.06.2020
1883 Clouds 15 1010 67 10000 3.1 290 00:24 08.06.2020
1884 Clouds 16 1010 67 10000 1.5 220 23:38 07.06.2020
1885 Clouds 16 1010 67 10000 1.5 220 23:19 07.06.2020
1886 Clouds 16 1010 67 10000 1.5 190 22:57 07.06.2020
1887 Clouds 16 1010 67 10000 1.5 190 22:37 07.06.2020
1888 Clouds 16 1009 63 10000 1.5 200 22:18 07.06.2020
1889 Clouds 17 1009 63 10000 2.1 200 21:58 07.06.2020
1890 Clouds 17 1009 63 10000 2.1 200 21:58 07.06.2020
1891 Clouds 17 1009 63 10000 2.1 200 21:37 07.06.2020
1892 Clouds 17 1009 59 10000 2.1 200 21:19 07.06.2020
1893 Clouds 18 1008 52 10000 3.6 210 20:40 07.06.2020
1894 Clouds 18 1008 52 10000 3.6 210 20:21 07.06.2020
1895 Clouds 18 1008 52 10000 2.6 210 19:59 07.06.2020
1896 Clouds 18 1008 52 10000 2.6 210 19:41 07.06.2020
1897 Clouds 18 1008 52 10000 2.6 210 19:21 07.06.2020
1898 Clouds 18 1008 48 10000 4.1 210 19:00 07.06.2020
1899 Clouds 18 1008 48 10000 4.1 210 18:39 07.06.2020
1900 Clouds 19 1008 52 10000 3.1 200 18:21 07.06.2020
1901 Clouds 19 1008 52 10000 3.1 200 18:21 07.06.2020
1902 Clouds 19 1008 48 10000 3.6 210 17:58 07.06.2020
1903 Clouds 19 1007 48 10000 4.1 230 17:40 07.06.2020
1904 Clouds 19 1007 48 10000 4.1 230 17:21 07.06.2020
1905 Clouds 19 1007 42 10000 4.6 210 16:43 07.06.2020
1906 Clouds 19 1007 42 10000 4.6 200 16:22 07.06.2020
1907 Clouds 20 1007 42 10000 4.6 200 15:44 07.06.2020
1908 Rain 20 1007 45 10000 4.6 210 15:22 07.06.2020
1909 Rain 19 1007 45 10000 4.1 200 14:59 07.06.2020
1910 Rain 19 1007 45 10000 4.1 200 14:59 07.06.2020
1911 Rain 19 1007 45 10000 4.1 200 14:59 07.06.2020
1912 Rain 19 1007 45 10000 4.1 200 14:36 07.06.2020
1913 Clouds 19 1007 45 10000 4.6 210 14:18 07.06.2020
1914 Clouds 19 1007 45 10000 5.1 180 13:44 07.06.2020
1915 Clouds 19 1007 45 10000 5.1 180 13:44 07.06.2020
1916 Clouds 19 1007 45 10000 5.1 180 13:43 07.06.2020
1917 Clouds 19 1007 45 10000 5.1 180 13:43 07.06.2020
1918 Clouds 19 1007 52 10000 4.1 180 13:19 07.06.2020
1919 Clouds 18 1007 67 10000 3.6 190 12:44 07.06.2020
1920 Clouds 17 1007 72 10000 3.6 170 12:25 07.06.2020
1921 Rain 16 1007 77 10000 4.1 140 11:56 07.06.2020
1922 Rain 15 1007 77 10000 4.1 140 11:38 07.06.2020
1923 Rain 15 1007 77 10000 3.1 140 11:20 07.06.2020
1924 Rain 15 1007 77 10000 2.6 150 10:57 07.06.2020
1925 Rain 15 1007 77 10000 2.6 150 10:39 07.06.2020
1926 Clouds 15 1007 76 10000 3.1 170 10:19 07.06.2020
1927 Clouds 15 1007 76 10000 3.1 170 10:19 07.06.2020
1928 Clouds 15 1006 76 10000 3.1 170 09:56 07.06.2020
1929 Clouds 15 1006 76 10000 3.1 170 09:37 07.06.2020
1930 Clouds 14 1006 71 0 3.6 180 09:19 07.06.2020
1931 Clouds 14 1006 72 10000 3.1 160 08:44 07.06.2020
1932 Clouds 13 1006 76 10000 1.5 0 08:23 07.06.2020
1933 Clouds 12 1005 76 10000 2.1 180 07:46 07.06.2020
1934 Clouds 11 1005 81 10000 1.5 200 07:28 07.06.2020
1935 Clouds 11 1005 81 10000 0.5 0 06:38 07.06.2020
1936 Clouds 10 1005 87 10000 1.5 200 05:36 07.06.2020
1937 Clouds 11 1005 87 10000 2.1 180 04:20 07.06.2020
1938 Clouds 11 1005 87 10000 2.1 180 04:20 07.06.2020
1939 Clouds 12 1005 76 10000 3.6 190 02:31 07.06.2020
1940 Clouds 11 1005 76 10000 3.1 180 01:50 07.06.2020
1941 Clear 12 1005 76 10000 2.6 190 01:25 07.06.2020
1942 Clear 12 1005 81 10000 1 0 00:42 07.06.2020
1943 Clear 12 1005 76 10000 1 0 00:19 07.06.2020
1944 Clear 13 1005 76 10000 2.1 200 23:57 06.06.2020
1945 Clear 13 1005 76 10000 2.1 200 23:36 06.06.2020
1946 Clear 13 1004 71 10000 2.6 180 23:18 06.06.2020
1947 Clear 14 1004 67 10000 2.1 180 22:56 06.06.2020
1948 Clear 14 1004 71 10000 2.6 190 22:37 06.06.2020
1949 Clear 15 1004 71 10000 2.6 190 22:18 06.06.2020
1950 Clear 15 1004 71 10000 2.1 230 21:44 06.06.2020
1951 Clouds 15 1003 62 10000 3.1 230 21:22 06.06.2020
1952 Clouds 15 1003 67 10000 3.6 190 20:57 06.06.2020
1953 Rain 15 1003 67 10000 4.1 200 20:38 06.06.2020
1954 Rain 15 1003 67 10000 4.1 200 20:18 06.06.2020
1955 Clouds 15 1003 62 10000 3.1 220 19:57 06.06.2020
1956 Clouds 15 1003 62 10000 3.1 220 19:37 06.06.2020
1957 Clouds 16 1003 62 10000 2.6 270 19:19 06.06.2020
1958 Clouds 17 1002 42 10000 5.7 200 18:43 06.06.2020
1959 Rain 18 1002 42 10000 5.7 200 18:24 06.06.2020
1960 Rain 19 1002 42 10000 5.7 190 17:58 06.06.2020
1961 Rain 19 1002 42 10000 5.7 190 17:40 06.06.2020
1962 Rain 19 1002 42 10000 5.1 210 17:19 06.06.2020
1963 Rain 19 1002 42 10000 5.1 210 17:19 06.06.2020
1964 Rain 19 1002 42 10000 6.7 210 16:55 06.06.2020
1965 Rain 19 1002 42 10000 6.7 210 16:36 06.06.2020
1966 Clouds 19 1002 42 10000 7.2 190 16:18 06.06.2020
1967 Clouds 19 1001 42 10000 8.7 190 15:42 06.06.2020
1968 Clouds 18 1001 42 10000 7.2 180 15:20 06.06.2020
1969 Clouds 19 1001 39 10000 7.2 200 14:56 06.06.2020
1970 Clouds 18 1001 39 10000 7.2 200 14:37 06.06.2020
1971 Clouds 19 1002 34 10000 7.7 210 14:19 06.06.2020
1972 Clouds 18 1002 42 10000 5.1 230 13:45 06.06.2020
1973 Clouds 18 1002 39 10000 6.7 230 13:19 06.06.2020
1974 Clouds 18 1001 42 10000 6.2 200 12:56 06.06.2020
1975 Clouds 17 1001 44 10000 6.7 220 12:38 06.06.2020
1976 Clouds 16 1001 44 10000 6.7 220 12:18 06.06.2020
1977 Clouds 17 1001 44 10000 7.2 230 11:40 06.06.2020
1978 Clouds 16 1001 51 10000 7.7 220 11:21 06.06.2020
1979 Clouds 16 1001 51 10000 7.7 220 11:21 06.06.2020
1980 Clouds 15 1001 54 10000 7.2 220 10:59 06.06.2020
1981 Clouds 15 1001 54 10000 7.2 220 10:40 06.06.2020
1982 Clouds 15 1001 58 10000 6.7 220 10:22 06.06.2020
1983 Clouds 14 1001 58 10000 6.7 220 09:59 06.06.2020
1984 Clouds 14 1000 62 10000 6.7 220 09:41 06.06.2020
1985 Clouds 13 1000 66 10000 7.2 220 09:22 06.06.2020
1986 Clouds 13 1000 62 10000 6.2 220 08:47 06.06.2020
1987 Clouds 12 1000 71 10000 5.7 220 08:24 06.06.2020
1988 Clouds 12 1000 76 10000 5.1 210 07:56 06.06.2020
1989 Clouds 11 1000 76 10000 5.1 210 07:38 06.06.2020
1990 Clouds 11 1000 76 10000 4.1 210 07:19 06.06.2020
1991 Clouds 10 999 71 10000 4.6 220 06:43 06.06.2020
1992 Clouds 10 999 71 10000 4.6 220 06:25 06.06.2020
1993 Clouds 9 999 76 10000 4.1 230 05:33 06.06.2020
1994 Clouds 9 998 81 10000 6.2 230 04:50 06.06.2020
1995 Clouds 10 998 76 10000 6.7 240 03:45 06.06.2020
1996 Clouds 11 996 76 10000 7.2 250 02:35 06.06.2020
1997 Clouds 12 995 87 10000 5.1 220 01:23 06.06.2020
1998 Clouds 12 995 81 10000 5.7 230 00:58 06.06.2020
1999 Clouds 12 995 81 10000 5.7 230 00:40 06.06.2020
2000 Clouds 12 994 81 10000 7.7 230 00:21 06.06.2020
2001 Rain 13 994 87 10000 7.2 200 23:40 05.06.2020
2002 Rain 12 994 87 10000 5.1 190 23:20 05.06.2020
2003 Rain 12 994 87 10000 5.1 190 23:20 05.06.2020
2004 Rain 13 994 87 10000 5.7 200 22:57 05.06.2020
2005 Rain 13 994 87 10000 5.7 200 22:38 05.06.2020
2006 Rain 14 994 67 10000 7.7 190 22:20 05.06.2020
2007 Rain 16 993 51 10000 5.1 170 21:54 05.06.2020
2008 Rain 15 993 51 10000 5.1 170 21:36 05.06.2020
2009 Rain 15 993 54 10000 3.1 160 21:18 05.06.2020
2010 Rain 16 993 54 10000 3.1 190 20:44 05.06.2020
2011 Clouds 16 994 54 10000 5.1 210 20:22 05.06.2020
2012 Rain 17 994 45 10000 7.2 200 19:57 05.06.2020
2013 Clouds 17 994 39 10000 7.2 190 19:39 05.06.2020
2014 Clouds 17 994 39 10000 7.2 190 19:20 05.06.2020
2015 Clouds 18 994 42 10000 4.6 200 18:40 05.06.2020
2016 Rain 18 994 42 10000 4.6 200 18:21 05.06.2020
2017 Rain 18 994 45 10000 7.2 210 17:59 05.06.2020
2018 Rain 18 994 45 10000 7.2 210 17:40 05.06.2020
2019 Clouds 18 995 48 10000 6.2 220 17:20 05.06.2020
2020 Clouds 17 995 59 10000 4.6 190 16:57 05.06.2020
2021 Clouds 17 995 59 10000 4.6 190 16:37 05.06.2020
2022 Clouds 17 995 55 10000 5.1 180 16:19 05.06.2020
2023 Clouds 17 995 55 10000 5.1 180 16:19 05.06.2020
2024 Rain 17 995 67 10000 4.1 190 15:39 05.06.2020
2025 Rain 16 996 67 10000 5.7 200 15:20 05.06.2020
2026 Clouds 17 995 55 10000 4.6 230 14:58 05.06.2020
2027 Clouds 16 995 55 10000 4.6 230 14:39 05.06.2020
2028 Clouds 16 995 55 10000 4.6 230 14:39 05.06.2020
2029 Clouds 16 996 62 10000 4.6 210 14:21 05.06.2020
2030 Clouds 16 996 58 10000 5.7 230 13:47 05.06.2020
2031 Clouds 15 996 67 10000 5.1 250 13:28 05.06.2020
2032 Clouds 15 996 67 10000 5.7 240 12:57 05.06.2020
2033 Clouds 15 996 62 10000 5.1 250 12:39 05.06.2020
2034 Clouds 14 996 62 10000 5.1 250 12:19 05.06.2020
2035 Clouds 14 996 67 10000 4.1 270 11:43 05.06.2020
2036 Clouds 14 996 67 10000 4.1 270 11:43 05.06.2020
2037 Clouds 14 996 71 10000 5.1 270 11:24 05.06.2020
2038 Rain 14 996 76 10000 4.1 280 10:59 05.06.2020
2039 Rain 13 996 76 10000 4.1 280 10:41 05.06.2020
2040 Clouds 12 995 81 10000 4.1 280 10:20 05.06.2020
2041 Clouds 12 995 87 10000 4.6 290 09:57 05.06.2020
2042 Clouds 12 995 87 10000 4.6 290 09:39 05.06.2020
2043 Clouds 12 995 87 10000 4.6 290 09:39 05.06.2020
2044 Clouds 12 995 87 10000 4.6 270 09:20 05.06.2020
2045 Rain 12 994 87 10000 5.7 290 08:58 05.06.2020
2046 Rain 13 994 87 10000 5.7 290 08:40 05.06.2020
2047 Rain 13 994 93 10000 3.6 280 08:18 05.06.2020
2048 Rain 13 994 93 10000 4.6 280 07:52 05.06.2020
2049 Rain 13 994 93 10000 5.1 270 07:33 05.06.2020
2050 Rain 13 993 93 7000 3.6 270 06:50 05.06.2020
2051 Rain 14 992 93 4000 3.6 280 05:23 05.06.2020
2052 Clouds 14 992 93 8000 4.1 270 04:30 05.06.2020
2053 Clouds 14 992 93 10000 3.6 260 03:38 05.06.2020
2054 Clouds 15 992 93 10000 2.6 270 02:30 05.06.2020
2055 Clouds 15 992 93 10000 3.6 270 01:59 05.06.2020
2056 Clouds 15 992 93 10000 3.6 280 01:34 05.06.2020
2057 Rain 16 992 93 10000 4.1 260 00:55 05.06.2020
2058 Rain 16 992 93 10000 4.1 260 00:36 05.06.2020
2059 Rain 16 991 93 10000 3.1 230 00:18 05.06.2020
2060 Rain 17 992 100 6000 3.6 200 23:42 04.06.2020
2061 Rain 17 992 93 5000 4.1 200 23:24 04.06.2020
2062 Rain 17 992 100 6000 4.1 200 22:42 04.06.2020
2063 Rain 17 992 77 10000 2.6 160 22:22 04.06.2020
2064 Clouds 17 992 82 10000 2.1 140 21:58 04.06.2020
2065 Clouds 17 992 82 10000 2.1 140 21:39 04.06.2020
2066 Rain 18 992 77 10000 2.6 150 21:21 04.06.2020
2067 Rain 18 992 72 10000 3.6 160 20:57 04.06.2020
2068 Rain 18 992 68 10000 4.6 170 20:39 04.06.2020
2069 Rain 18 992 68 10000 4.6 170 20:20 04.06.2020
2070 Rain 19 992 63 10000 5.1 170 19:55 04.06.2020
2071 Rain 20 992 68 10000 4.1 160 19:37 04.06.2020
2072 Rain 20 992 68 10000 4.1 160 19:19 04.06.2020
2073 Rain 20 992 60 10000 3.1 200 18:40 04.06.2020
2074 Rain 20 992 60 10000 3.1 200 18:21 04.06.2020
2075 Rain 20 993 72 10000 3.6 200 17:59 04.06.2020
2076 Rain 20 993 72 10000 3.6 200 17:41 04.06.2020
2077 Rain 20 993 60 10000 5.7 190 17:20 04.06.2020
2078 Rain 20 993 52 10000 9.3 190 16:41 04.06.2020
2079 Rain 23 993 36 10000 6.2 150 16:21 04.06.2020
2080 Rain 23 993 36 10000 6.2 150 16:21 04.06.2020
2081 Rain 24 993 33 10000 5.7 160 15:56 04.06.2020
2082 Rain 24 993 33 10000 5.7 160 15:37 04.06.2020
2083 Clouds 25 993 31 10000 6.7 130 15:19 04.06.2020
2084 Clouds 26 993 29 10000 6.7 130 14:39 04.06.2020
2085 Clouds 26 994 29 10000 7.2 140 14:19 04.06.2020
2086 Clouds 25 994 31 10000 7.2 120 13:56 04.06.2020
2087 Clouds 25 995 31 10000 7.7 130 13:37 04.06.2020
2088 Clouds 25 995 31 10000 7.7 130 13:18 04.06.2020
2089 Clouds 24 995 33 10000 6.2 120 12:54 04.06.2020
2090 Clouds 24 995 33 10000 6.7 120 12:36 04.06.2020
2091 Clouds 24 995 33 10000 6.7 120 12:18 04.06.2020
2092 Clouds 23 995 38 10000 6.2 130 11:40 04.06.2020
2093 Clouds 23 996 43 10000 5.7 120 11:20 04.06.2020
2094 Clouds 22 996 46 10000 4.6 130 10:59 04.06.2020
2095 Clouds 21 996 46 10000 4.6 130 10:38 04.06.2020
2096 Clouds 21 996 45 10000 4.6 120 10:20 04.06.2020
2097 Clouds 20 996 48 10000 4.1 110 09:46 04.06.2020
2098 Clouds 18 997 48 10000 3.1 130 09:28 04.06.2020
2099 Clouds 18 997 45 10000 2.6 110 08:51 04.06.2020
2100 Clouds 18 997 48 10000 2.6 120 08:31 04.06.2020
2101 Clouds 16 997 55 10000 2.6 120 07:59 04.06.2020
2102 Clouds 16 998 63 10000 1.5 120 07:31 04.06.2020
2103 Clouds 15 998 72 10000 1 0 06:45 04.06.2020
2104 Clouds 14 998 72 10000 1 0 06:26 04.06.2020
2105 Clouds 14 998 76 10000 2.1 110 05:51 04.06.2020
2106 Clouds 14 998 76 10000 1.5 130 05:31 04.06.2020
2107 Clouds 15 999 58 10000 3.1 130 03:34 04.06.2020
2108 Clouds 16 1000 48 10000 1.5 60 02:21 04.06.2020
2109 Clouds 16 1000 45 10000 2.1 50 01:21 04.06.2020
2110 Clouds 17 1001 45 10000 1.5 40 00:59 04.06.2020
2111 Clouds 17 1001 45 10000 1 0 00:18 04.06.2020
2112 Clouds 17 1001 45 10000 1 0 00:18 04.06.2020
2113 Clouds 19 1002 37 10000 3.1 80 23:37 03.06.2020
2114 Clouds 19 1002 37 10000 3.1 80 23:19 03.06.2020
2115 Clouds 19 1002 37 10000 3.1 80 23:19 03.06.2020
2116 Clouds 19 1002 34 10000 2.6 80 22:54 03.06.2020
2117 Clouds 19 1002 34 10000 3.1 80 22:36 03.06.2020
2118 Clouds 19 1002 34 10000 3.1 80 22:18 03.06.2020
2119 Clouds 20 1002 32 10000 2.1 80 21:55 03.06.2020
2120 Clouds 21 1002 28 10000 3.1 70 21:36 03.06.2020
2121 Clouds 21 1002 28 10000 3.1 70 21:18 03.06.2020
2122 Clouds 22 1002 30 10000 3.1 80 20:41 03.06.2020
2123 Clouds 23 1002 28 10000 3.6 80 20:21 03.06.2020
2124 Clouds 23 1002 31 10000 3.6 70 19:57 03.06.2020
2125 Clouds 24 1002 29 10000 2.6 80 19:39 03.06.2020
2126 Clouds 24 1002 29 10000 2.6 80 19:20 03.06.2020
2127 Clouds 24 1002 29 10000 3.1 70 18:58 03.06.2020
2128 Clouds 24 1002 27 10000 4.1 0 18:39 03.06.2020
2129 Clouds 25 1002 27 10000 4.1 0 18:19 03.06.2020
2130 Clouds 25 1003 27 10000 3.1 30 17:45 03.06.2020
2131 Clouds 25 1003 27 10000 4.1 80 17:23 03.06.2020
2132 Clouds 25 1003 27 10000 3.1 0 16:59 03.06.2020
2133 Clouds 25 1003 27 10000 3.1 0 16:41 03.06.2020
2134 Clouds 25 1004 29 10000 2.1 0 16:19 03.06.2020
2135 Clouds 25 1004 27 10000 3.1 0 15:55 03.06.2020
2136 Clouds 25 1004 27 10000 3.1 0 15:37 03.06.2020
2137 Clouds 25 1004 29 10000 3.1 0 15:18 03.06.2020
2138 Clouds 25 1005 29 10000 3.6 60 14:44 03.06.2020
2139 Clouds 25 1005 29 10000 3.6 0 14:24 03.06.2020
2140 Clouds 24 1005 31 10000 2.6 0 13:40 03.06.2020
2141 Clouds 24 1006 33 10000 3.1 120 13:22 03.06.2020
2142 Clouds 23 1006 31 10000 2.1 0 12:57 03.06.2020
2143 Clouds 23 1006 31 10000 2.1 0 12:39 03.06.2020
2144 Clouds 22 1007 35 10000 2.6 0 12:19 03.06.2020
2145 Clouds 22 1007 35 10000 2.6 0 12:19 03.06.2020
2146 Clouds 22 1007 35 10000 2.6 90 11:44 03.06.2020
2147 Clouds 21 1007 37 10000 2.6 0 11:25 03.06.2020
2148 Clouds 21 1007 40 10000 2.1 0 10:55 03.06.2020
2149 Clouds 21 1008 30 10000 1.5 0 10:36 03.06.2020
2150 Clouds 21 1008 30 10000 1.5 0 10:18 03.06.2020
2151 Clouds 20 1008 39 10000 2.1 60 09:41 03.06.2020
2152 Clouds 18 1008 42 10000 1.5 40 09:19 03.06.2020
2153 Clouds 18 1008 45 10000 1 0 08:47 03.06.2020
2154 Clouds 16 1008 55 10000 2.6 110 08:22 03.06.2020
2155 Clouds 16 1008 62 10000 2.1 60 07:58 03.06.2020
2156 Clear 15 1008 62 10000 2.6 50 07:37 03.06.2020
2157 Clear 15 1008 71 10000 1.5 50 07:18 03.06.2020
2158 Clear 14 1008 71 10000 1.5 50 06:45 03.06.2020
2159 Clear 13 1009 71 10000 1 0 06:22 03.06.2020
2160 Clear 13 1009 76 10000 1.5 60 05:45 03.06.2020
2161 Clear 14 1009 71 10000 1.5 70 04:26 03.06.2020
2162 Clear 14 1009 67 10000 2.6 60 03:42 03.06.2020
2163 Clear 16 1010 67 10000 1 0 02:39 03.06.2020
2164 Clear 16 1010 67 10000 1 0 01:46 03.06.2020
2165 Clear 18 1011 52 10000 0.5 0 00:39 03.06.2020
2166 Clear 18 1011 52 10000 0.5 0 00:21 03.06.2020
2167 Clear 19 1011 49 10000 2.1 360 23:46 02.06.2020
2168 Clear 20 1011 46 10000 2.6 10 23:27 02.06.2020
2169 Clear 21 1011 43 10000 2.6 10 22:56 02.06.2020
2170 Clear 20 1011 43 10000 2.6 10 22:37 02.06.2020
2171 Clear 22 1012 40 10000 2.1 360 22:18 02.06.2020
2172 Clear 22 1011 38 10000 2.1 360 21:55 02.06.2020
2173 Clear 23 1011 36 10000 3.6 360 21:36 02.06.2020
2174 Clear 23 1011 36 10000 3.6 360 21:18 02.06.2020
2175 Clear 24 1011 33 10000 5.7 350 20:42 02.06.2020
2176 Clouds 25 1011 31 10000 3.6 360 20:24 02.06.2020
2177 Clouds 25 1012 29 10000 4.6 350 19:59 02.06.2020
2178 Clouds 26 1012 29 10000 4.1 10 19:40 02.06.2020
2179 Clouds 26 1012 29 10000 4.1 10 19:22 02.06.2020
2180 Clouds 26 1012 26 10000 4.6 360 18:56 02.06.2020
2181 Clouds 27 1012 28 10000 4.6 350 18:38 02.06.2020
2182 Clouds 27 1012 28 10000 4.6 350 18:19 02.06.2020
2183 Clouds 27 1013 28 10000 4.6 340 17:42 02.06.2020
2184 Clouds 27 1013 26 10000 4.6 320 17:23 02.06.2020
2185 Clouds 27 1013 29 10000 5.1 320 16:57 02.06.2020
2186 Clouds 27 1013 29 10000 5.1 320 16:39 02.06.2020
2187 Clouds 27 1014 27 10000 4.6 330 16:21 02.06.2020
2188 Clouds 27 1014 28 10000 4.6 350 15:57 02.06.2020
2189 Clouds 27 1014 28 10000 4.6 350 15:37 02.06.2020
2190 Clouds 27 1015 28 10000 4.6 310 15:18 02.06.2020
2191 Clouds 26 1015 31 10000 4.1 340 14:42 02.06.2020
2192 Clear 26 1016 31 10000 4.1 330 14:23 02.06.2020
2193 Clear 26 1016 31 10000 3.1 340 13:54 02.06.2020
2194 Clear 26 1017 31 10000 4.6 330 13:36 02.06.2020
2195 Clear 26 1017 31 10000 4.6 330 13:18 02.06.2020
2196 Clear 26 1017 31 10000 3.1 310 12:40 02.06.2020
2197 Clear 25 1018 31 10000 4.1 320 12:21 02.06.2020
2198 Clear 24 1018 33 10000 3.1 360 11:59 02.06.2020
2199 Clear 23 1018 35 10000 2.1 0 11:39 02.06.2020
2200 Clear 23 1018 35 10000 2.1 0 11:20 02.06.2020
2201 Clear 22 1019 37 10000 2.6 340 10:50 02.06.2020
2202 Clear 22 1019 37 10000 2.1 340 10:29 02.06.2020
2203 Clear 21 1020 42 10000 1.5 0 09:59 02.06.2020
2204 Clear 21 1020 42 10000 1.5 0 09:40 02.06.2020
2205 Clear 18 1020 45 10000 1.5 300 09:20 02.06.2020
2206 Clear 17 1020 48 10000 2.1 340 08:53 02.06.2020
2207 Clear 17 1020 51 10000 2.1 320 08:27 02.06.2020
2208 Clear 16 1020 55 10000 1.5 0 07:54 02.06.2020
2209 Clear 14 1021 58 10000 1.5 350 07:31 02.06.2020
2210 Clear 13 1021 58 10000 1.5 10 06:51 02.06.2020
2211 Clear 11 1021 62 10000 1.5 20 06:31 02.06.2020
2212 Clear 12 1021 71 10000 1.5 330 05:28 02.06.2020
2213 Clear 13 1021 62 10000 2.1 30 03:54 02.06.2020
2214 Clear 14 1021 58 10000 3.1 50 02:31 02.06.2020
2215 Clear 14 1022 54 10000 2.6 30 01:43 02.06.2020
2216 Clear 16 1022 51 10000 2.6 20 00:40 02.06.2020
2217 Clear 16 1022 51 10000 2.6 30 00:20 02.06.2020
2218 Clear 16 1022 51 10000 2.6 30 23:39 01.06.2020
2219 Clear 17 1022 48 10000 2.1 20 23:19 01.06.2020
2220 Clear 17 1022 45 10000 3.1 30 22:56 01.06.2020
2221 Clear 18 1022 45 10000 3.1 30 22:38 01.06.2020
2222 Clear 18 1022 45 10000 3.6 30 22:18 01.06.2020
2223 Clear 19 1022 42 10000 4.1 40 21:42 01.06.2020
2224 Clear 20 1022 40 10000 5.1 40 21:21 01.06.2020
2225 Clear 20 1022 37 10000 4.1 40 20:59 01.06.2020
2226 Clear 21 1022 37 10000 4.1 40 20:41 01.06.2020
2227 Clear 21 1021 40 10000 6.7 20 20:20 01.06.2020
2228 Clear 22 1021 40 10000 6.7 20 19:58 01.06.2020
2229 Clear 22 1021 40 10000 6.7 20 19:58 01.06.2020
2230 Clear 22 1022 35 10000 5.1 40 19:39 01.06.2020
2231 Clear 22 1022 38 10000 5.7 40 19:20 01.06.2020
2232 Clear 23 1021 38 10000 5.1 40 18:58 01.06.2020
2233 Clear 23 1022 33 10000 5.1 40 18:38 01.06.2020
2234 Clear 23 1022 33 10000 5.1 40 18:19 01.06.2020
2235 Clear 24 1022 31 10000 4.6 50 17:54 01.06.2020
2236 Clear 24 1022 31 10000 4.6 50 17:36 01.06.2020
2237 Clear 24 1022 29 10000 3.6 50 17:18 01.06.2020
2238 Clear 24 1022 27 10000 4.6 40 16:39 01.06.2020
2239 Clear 24 1022 27 10000 4.6 40 16:20 01.06.2020
2240 Clear 24 1023 23 10000 5.1 50 15:55 01.06.2020
2241 Clear 24 1023 23 10000 5.1 50 15:37 01.06.2020
2242 Clear 24 1023 23 10000 3.6 10 15:18 01.06.2020
2243 Clear 23 1023 23 10000 3.6 60 14:56 01.06.2020
2244 Clear 23 1023 27 10000 5.1 20 14:37 01.06.2020
2245 Clear 23 1023 27 10000 5.1 20 14:18 01.06.2020
2246 Clear 23 1024 28 10000 4.1 20 13:42 01.06.2020
2247 Clear 23 1024 30 10000 4.1 20 13:21 01.06.2020
2248 Clear 22 1024 30 10000 4.1 20 12:58 01.06.2020
2249 Clear 22 1024 30 10000 4.6 20 12:40 01.06.2020
2250 Clear 22 1024 30 10000 4.6 20 12:40 01.06.2020
2251 Clear 20 1024 40 10000 3.6 0 12:21 01.06.2020
2252 Clear 20 1024 40 10000 3.6 0 11:57 01.06.2020
2253 Clear 20 1024 40 10000 3.1 20 11:37 01.06.2020
2254 Clear 20 1024 42 10000 3.1 60 11:18 01.06.2020
2255 Clear 19 1024 42 10000 3.1 60 10:55 01.06.2020
2256 Clear 19 1024 48 10000 2.6 0 10:36 01.06.2020
2257 Clear 18 1024 55 10000 3.1 20 10:18 01.06.2020
2258 Clear 17 1024 55 10000 2.6 40 09:44 01.06.2020
2259 Clear 15 1024 55 10000 2.6 40 09:25 01.06.2020
2260 Clear 14 1024 62 10000 2.6 40 08:55 01.06.2020
2261 Clear 14 1024 71 10000 3.6 40 08:33 01.06.2020
2262 Clear 12 1024 71 10000 3.1 40 07:59 01.06.2020
2263 Clear 12 1024 76 10000 2.6 30 07:40 01.06.2020
2264 Clear 11 1023 81 10000 2.6 30 07:22 01.06.2020
2265 Clear 10 1023 81 10000 2.6 30 06:49 01.06.2020
2266 Clear 10 1023 87 10000 1 0 05:57 01.06.2020
2267 Clear 10 1023 81 10000 1.5 10 04:58 01.06.2020
2268 Clear 10 1023 81 10000 3.1 30 03:57 01.06.2020
2269 Clear 10 1023 76 10000 2.6 20 03:37 01.06.2020
2270 Clear 11 1023 76 10000 3.1 30 02:56 01.06.2020
2271 Clear 12 1023 71 10000 2.6 30 01:40 01.06.2020
2272 Clear 12 1023 71 10000 2.6 30 01:18 01.06.2020
2273 Clear 13 1023 62 10000 3.1 30 00:56 01.06.2020
2274 Clear 13 1023 62 10000 3.1 30 00:37 01.06.2020
2275 Clear 14 1023 62 10000 3.1 30 00:19 01.06.2020
2276 Clear 14 1023 58 10000 3.1 360 23:41 31.05.2020
2277 Clear 15 1022 54 10000 3.6 20 23:22 31.05.2020
2278 Clear 15 1022 54 10000 3.6 20 22:59 31.05.2020
2279 Clear 16 1022 51 10000 3.6 20 22:40 31.05.2020
2280 Clear 16 1022 51 10000 3.6 20 22:22 31.05.2020
2281 Clear 16 1022 45 10000 3.1 10 21:57 31.05.2020
2282 Clear 18 1022 42 10000 4.1 10 21:39 31.05.2020
2283 Clear 17 1022 42 10000 4.1 10 21:20 31.05.2020
2284 Clear 19 1021 40 10000 5.7 40 20:45 31.05.2020
2285 Clear 19 1021 40 10000 5.7 40 20:25 31.05.2020
2286 Clear 20 1021 42 10000 5.1 30 19:56 31.05.2020
2287 Clear 20 1021 40 10000 5.1 30 19:38 31.05.2020
2288 Clear 20 1021 40 10000 5.1 30 19:20 31.05.2020
2289 Clear 21 1020 33 10000 6.2 10 18:46 31.05.2020
2290 Clouds 21 1020 33 10000 6.2 10 18:25 31.05.2020
2291 Clouds 22 1020 33 10000 6.7 20 17:59 31.05.2020
2292 Clouds 22 1020 31 10000 5.1 20 17:40 31.05.2020
2293 Clear 22 1020 31 10000 5.1 20 17:21 31.05.2020
2294 Clear 22 1020 35 10000 5.1 360 16:42 31.05.2020
2295 Clear 22 1020 35 10000 5.1 360 16:22 31.05.2020
2296 Clear 22 1020 33 10000 5.1 10 15:56 31.05.2020
2297 Clear 22 1020 35 10000 5.1 360 15:37 31.05.2020
2298 Clear 22 1020 35 10000 5.1 360 15:19 31.05.2020
2299 Clear 21 1020 37 10000 5.1 30 14:42 31.05.2020
2300 Clouds 22 1021 37 10000 5.7 20 14:19 31.05.2020
2301 Clouds 21 1020 37 10000 5.1 30 14:19 31.05.2020
2302 Clouds 22 1021 37 10000 5.7 20 13:56 31.05.2020
2303 Clouds 22 1021 40 10000 5.7 10 13:37 31.05.2020
2304 Clouds 21 1021 45 10000 3.6 20 13:19 31.05.2020
2305 Clouds 21 1021 45 10000 3.6 20 12:54 31.05.2020
2306 Clouds 19 1021 48 10000 3.6 0 12:36 31.05.2020
2307 Clouds 17 1021 55 10000 3.6 350 12:18 31.05.2020
2308 Clouds 16 1021 59 10000 3.6 350 11:42 31.05.2020
2309 Clouds 16 1022 62 10000 4.1 360 11:21 31.05.2020
2310 Clouds 16 1022 62 10000 4.1 360 10:55 31.05.2020
2311 Clouds 15 1022 62 10000 3.6 360 10:37 31.05.2020
2312 Clouds 15 1022 67 10000 2.6 360 10:18 31.05.2020
2313 Clouds 14 1022 71 10000 3.6 20 09:42 31.05.2020
2314 Clouds 13 1022 71 10000 3.6 20 09:22 31.05.2020
2315 Clouds 13 1021 76 10000 4.1 10 08:57 31.05.2020
2316 Clouds 12 1021 76 10000 3.1 360 08:37 31.05.2020
2317 Clouds 12 1021 76 10000 3.1 360 08:19 31.05.2020
2318 Clouds 12 1021 76 10000 3.6 360 07:40 31.05.2020
2319 Clouds 12 1021 76 10000 3.6 360 07:20 31.05.2020
2320 Clouds 11 1021 81 10000 3.1 350 06:50 31.05.2020
2321 Clouds 11 1021 81 10000 2.6 340 06:31 31.05.2020
2322 Clouds 10 1021 87 10000 2.1 340 05:41 31.05.2020
2323 Clouds 11 1022 81 10000 2.1 350 04:27 31.05.2020
2324 Clouds 11 1022 81 10000 3.1 360 03:48 31.05.2020
2325 Clouds 11 1023 81 10000 2.6 10 02:59 31.05.2020
2326 Clouds 11 1023 71 10000 2.1 10 01:49 31.05.2020
2327 Clouds 11 1023 71 10000 2.1 10 01:27 31.05.2020
2328 Clouds 12 1023 62 10000 2.6 10 00:30 31.05.2020
2329 Clouds 13 1023 58 10000 2.1 360 23:56 30.05.2020
2330 Clouds 13 1023 58 10000 2.1 360 23:38 30.05.2020
2331 Clouds 13 1023 58 10000 2.1 360 23:38 30.05.2020
2332 Clouds 13 1023 58 10000 2.1 360 23:19 30.05.2020
2333 Clouds 14 1023 54 10000 3.1 10 22:41 30.05.2020
2334 Clouds 14 1023 54 10000 3.1 10 22:23 30.05.2020
2335 Clouds 14 1022 54 10000 4.1 30 21:56 30.05.2020
2336 Clouds 15 1022 51 10000 4.1 20 21:37 30.05.2020
2337 Clouds 16 1022 41 10000 4.1 30 21:19 30.05.2020
2338 Clouds 16 1022 41 10000 4.1 30 20:56 30.05.2020
2339 Clouds 16 1022 41 10000 4.6 30 20:38 30.05.2020
2340 Clouds 16 1022 41 10000 4.6 30 20:20 30.05.2020
2341 Clouds 17 1022 42 10000 4.1 10 19:42 30.05.2020
2342 Clouds 17 1022 42 10000 4.1 10 19:22 30.05.2020
2343 Clouds 17 1023 42 10000 4.6 30 18:46 30.05.2020
2344 Clouds 18 1023 42 10000 4.6 30 18:25 30.05.2020
2345 Clouds 18 1022 39 10000 6.2 30 18:25 30.05.2020
2346 Clouds 18 1022 39 10000 6.2 30 17:56 30.05.2020
2347 Clouds 18 1022 36 10000 5.7 360 17:38 30.05.2020
2348 Clouds 18 1022 36 10000 5.7 360 17:19 30.05.2020
2349 Clouds 18 1023 36 10000 5.1 10 16:43 30.05.2020
2350 Clouds 18 1023 39 10000 5.7 30 16:23 30.05.2020
2351 Clouds 18 1023 39 10000 5.7 30 15:56 30.05.2020
2352 Clouds 18 1023 42 10000 4.6 20 15:38 30.05.2020
2353 Clouds 17 1023 39 10000 5.7 20 15:19 30.05.2020
2354 Clouds 18 1024 39 10000 5.7 0 14:42 30.05.2020
2355 Clouds 18 1024 39 10000 5.7 0 14:21 30.05.2020
2356 Clouds 18 1024 42 10000 4.6 10 13:42 30.05.2020
2357 Clouds 18 1024 39 10000 4.1 20 13:20 30.05.2020
2358 Clouds 18 1024 42 10000 5.7 30 12:40 30.05.2020
2359 Clouds 17 1025 41 10000 5.1 20 12:20 30.05.2020
2360 Clouds 17 1025 41 10000 5.1 20 11:56 30.05.2020
2361 Clouds 17 1025 39 10000 5.7 0 11:38 30.05.2020
2362 Clouds 17 1025 39 10000 6.2 40 11:20 30.05.2020
2363 Clouds 17 1025 41 10000 5.7 20 10:39 30.05.2020
2364 Clouds 16 1025 41 10000 5.7 20 10:21 30.05.2020
2365 Clouds 16 1025 47 10000 4.6 30 09:48 30.05.2020
2366 Clouds 14 1025 50 10000 3.1 30 09:30 30.05.2020
2367 Clouds 14 1025 50 10000 3.1 30 09:30 30.05.2020
2368 Clouds 13 1026 62 10000 3.1 30 08:51 30.05.2020
2369 Clouds 13 1026 62 10000 2.6 20 08:32 30.05.2020
2370 Clouds 12 1026 66 10000 2.1 20 07:45 30.05.2020
2371 Clouds 11 1026 66 10000 2.1 20 07:23 30.05.2020
2372 Clouds 11 1026 71 10000 1.5 20 06:51 30.05.2020
2373 Clouds 10 1026 71 10000 1.5 20 06:23 30.05.2020
2374 Clouds 9 1026 76 10000 2.1 30 05:49 30.05.2020
2375 Clouds 11 1026 71 10000 2.1 30 03:46 30.05.2020
2376 Clear 11 1026 71 10000 2.6 30 02:30 30.05.2020
2377 Clear 11 1026 71 10000 2.1 30 01:49 30.05.2020
2378 Clear 13 1026 62 10000 2.1 20 00:38 30.05.2020
2379 Clear 13 1026 58 10000 2.1 30 00:19 30.05.2020
2380 Clear 14 1026 58 10000 2.1 30 23:58 29.05.2020
2381 Clear 14 1026 54 10000 3.6 30 23:38 29.05.2020
2382 Clear 14 1026 54 10000 3.6 30 23:18 29.05.2020
2383 Clear 15 1026 51 10000 3.6 30 22:41 29.05.2020
2384 Clear 15 1026 51 10000 3.6 30 22:20 29.05.2020
2385 Clear 15 1026 55 10000 3.1 30 21:59 29.05.2020
2386 Clear 17 1025 51 10000 1.5 20 21:39 29.05.2020
2387 Clear 17 1026 48 10000 2.1 30 21:20 29.05.2020
2388 Clear 17 1026 48 10000 2.1 30 20:55 29.05.2020
2389 Clouds 17 1026 45 10000 3.1 30 20:37 29.05.2020
2390 Clouds 18 1026 45 10000 2.6 30 20:18 29.05.2020
2391 Clouds 18 1026 45 10000 2.6 20 19:42 29.05.2020
2392 Clouds 18 1026 45 10000 2.6 20 19:23 29.05.2020
2393 Clouds 18 1026 42 10000 4.6 10 18:47 29.05.2020
2394 Clouds 19 1026 42 10000 4.6 10 18:22 29.05.2020
2395 Clouds 19 1026 37 10000 4.1 20 17:57 29.05.2020
2396 Clouds 19 1027 34 10000 4.1 360 17:38 29.05.2020
2397 Clouds 20 1027 32 10000 4.6 360 17:20 29.05.2020
2398 Clouds 20 1027 30 10000 2.6 0 16:46 29.05.2020
2399 Clouds 20 1027 30 10000 2.6 0 16:28 29.05.2020
2400 Clouds 20 1027 32 10000 3.1 20 15:59 29.05.2020
2401 Clouds 20 1028 32 10000 4.1 20 15:40 29.05.2020
2402 Clouds 20 1028 32 10000 4.1 20 15:21 29.05.2020
2403 Clouds 21 1028 30 10000 3.1 60 14:57 29.05.2020
2404 Clouds 20 1028 32 0 4.1 0 14:38 29.05.2020
2405 Clouds 20 1028 32 10000 4.1 40 14:19 29.05.2020
2406 Clouds 20 1029 30 10000 3.1 20 13:41 29.05.2020
2407 Clouds 20 1029 30 10000 4.1 20 13:21 29.05.2020
2408 Clouds 20 1029 30 10000 4.1 20 12:55 29.05.2020
2409 Clouds 20 1029 30 10000 3.6 350 12:37 29.05.2020
2410 Clear 19 1029 32 10000 3.1 0 12:18 29.05.2020
2411 Clear 19 1030 31 10000 2.6 60 11:42 29.05.2020
2412 Clear 19 1030 31 10000 2.6 60 11:42 29.05.2020
2413 Clear 19 1030 31 10000 2.6 60 11:24 29.05.2020
2414 Clear 18 1030 36 10000 2.6 60 10:46 29.05.2020
2415 Clear 18 1030 36 10000 2.6 60 10:24 29.05.2020
2416 Clear 17 1030 38 10000 2.1 60 09:58 29.05.2020
2417 Clear 16 1030 47 10000 2.6 90 09:40 29.05.2020
2418 Clear 15 1030 47 10000 2.6 90 09:19 29.05.2020
2419 Clear 13 1030 58 10000 2.6 100 08:47 29.05.2020
2420 Clouds 14 1030 58 10000 2.6 100 08:24 29.05.2020
2421 Clouds 12 1030 71 10000 1.5 50 07:48 29.05.2020
2422 Clouds 12 1030 71 10000 1.5 50 07:30 29.05.2020
2423 Clouds 10 1030 76 10000 1.5 50 06:58 29.05.2020
2424 Clouds 10 1030 81 10000 1 0 06:39 29.05.2020
2425 Clouds 10 1030 81 10000 1 0 06:21 29.05.2020
2426 Clouds 9 1030 76 10000 2.1 40 05:40 29.05.2020
2427 Clear 11 1030 66 10000 2.6 30 02:18 29.05.2020
2428 Clear 11 1030 66 10000 2.6 30 01:27 29.05.2020
2429 Clear 11 1030 66 10000 2.6 30 01:27 29.05.2020
2430 Clear 12 1030 62 10000 3.1 40 00:53 29.05.2020
2431 Clear 12 1030 62 10000 3.1 40 00:33 29.05.2020
2432 Clear 12 1029 62 10000 2.6 30 23:57 28.05.2020
2433 Clear 13 1029 58 10000 2.1 30 23:39 28.05.2020
2434 Clear 13 1029 54 10000 2.1 20 23:18 28.05.2020
2435 Clear 13 1029 54 10000 3.1 10 22:42 28.05.2020
2436 Clear 15 1029 54 10000 3.1 10 22:24 28.05.2020
2437 Clear 16 1029 44 10000 3.6 30 21:56 28.05.2020
2438 Clear 16 1029 44 10000 3.6 30 21:38 28.05.2020
2439 Clear 16 1028 48 10000 4.6 30 21:19 28.05.2020
2440 Clear 17 1028 48 10000 4.6 30 20:56 28.05.2020
2441 Clear 17 1028 48 10000 5.1 30 20:38 28.05.2020
2442 Clouds 17 1028 45 10000 4.6 30 20:18 28.05.2020
2443 Clouds 18 1028 45 10000 4.6 30 19:54 28.05.2020
2444 Clouds 18 1028 37 10000 5.7 10 19:36 28.05.2020
2445 Clouds 19 1028 32 10000 4.6 10 19:18 28.05.2020
2446 Clouds 19 1028 37 10000 5.7 20 18:41 28.05.2020
2447 Clouds 19 1028 34 10000 5.1 360 18:22 28.05.2020
2448 Clouds 20 1028 34 10000 4.1 360 17:43 28.05.2020
2449 Clouds 20 1028 34 10000 4.1 360 17:23 28.05.2020
2450 Clouds 20 1028 30 10000 4.6 10 16:58 28.05.2020
2451 Clouds 20 1028 32 10000 4.1 20 16:39 28.05.2020
2452 Clouds 20 1028 34 10000 4.1 30 16:20 28.05.2020
2453 Clouds 20 1028 37 10000 4.1 360 15:45 28.05.2020
2454 Clouds 20 1028 37 10000 4.1 360 15:24 28.05.2020
2455 Clouds 19 1029 42 10000 4.6 360 14:57 28.05.2020
2456 Clouds 19 1029 42 10000 3.6 30 14:39 28.05.2020
2457 Rain 19 1029 42 10000 3.6 30 14:21 28.05.2020
2458 Clouds 18 1029 45 10000 5.7 350 13:43 28.05.2020
2459 Rain 19 1029 45 10000 5.7 350 13:25 28.05.2020
2460 Clouds 18 1029 45 10000 5.1 360 12:43 28.05.2020
2461 Clouds 18 1029 42 10000 5.1 350 12:19 28.05.2020
2462 Clouds 18 1029 42 10000 5.1 350 11:54 28.05.2020
2463 Clouds 17 1029 44 10000 5.1 340 11:36 28.05.2020
2464 Clouds 17 1029 44 10000 5.7 340 11:18 28.05.2020
2465 Clouds 17 1030 51 10000 5.1 320 10:42 28.05.2020
2466 Clouds 16 1030 51 10000 5.1 320 10:23 28.05.2020
2467 Clouds 16 1030 58 10000 4.6 330 09:40 28.05.2020
2468 Clouds 14 1030 58 10000 4.6 330 09:22 28.05.2020
2469 Clouds 14 1030 58 10000 4.6 330 09:22 28.05.2020
2470 Clouds 13 1030 71 10000 3.6 320 08:57 28.05.2020
2471 Clouds 13 1030 71 10000 3.1 320 08:39 28.05.2020
2472 Clouds 13 1030 71 10000 3.1 320 08:20 28.05.2020
2473 Clouds 13 1030 76 10000 3.1 310 07:41 28.05.2020
2474 Clouds 13 1030 76 10000 2.6 310 07:23 28.05.2020
2475 Clouds 12 1030 76 10000 2.6 300 06:44 28.05.2020
2476 Clouds 12 1030 76 10000 2.6 300 06:26 28.05.2020
2477 Clouds 12 1030 71 10000 2.6 330 05:39 28.05.2020
2478 Clouds 13 1029 66 10000 2.6 330 04:37 28.05.2020
2479 Clouds 13 1029 66 10000 2.6 330 04:18 28.05.2020
2480 Clouds 14 1029 62 10000 3.6 40 02:56 28.05.2020
2481 Rain 14 1030 67 10000 3.1 10 02:38 28.05.2020
2482 Clouds 15 1030 67 10000 3.1 360 01:45 28.05.2020
2483 Clouds 15 1030 59 10000 5.1 360 00:49 28.05.2020
2484 Clouds 15 1030 67 10000 3.1 10 00:20 28.05.2020
2485 Rain 16 1029 63 10000 3.6 360 23:56 27.05.2020
2486 Rain 16 1029 63 10000 3.6 360 23:56 27.05.2020
2487 Rain 16 1029 67 10000 3.6 340 23:37 27.05.2020
2488 Rain 17 1029 67 10000 3.6 340 23:19 27.05.2020
2489 Clouds 18 1029 55 10000 4.1 360 22:42 27.05.2020
2490 Clouds 18 1029 55 10000 4.1 360 22:23 27.05.2020
2491 Clouds 19 1028 48 10000 3.6 340 21:57 27.05.2020
2492 Clouds 19 1028 48 10000 2.6 310 21:39 27.05.2020
2493 Clouds 19 1028 42 10000 2.6 300 21:20 27.05.2020
2494 Clouds 20 1028 42 10000 2.6 300 20:58 27.05.2020
2495 Clouds 20 1028 42 10000 3.6 310 20:39 27.05.2020
2496 Clouds 20 1028 42 10000 3.6 310 20:20 27.05.2020
2497 Clouds 21 1028 37 10000 4.6 300 19:46 27.05.2020
2498 Clouds 21 1028 37 10000 4.6 300 19:21 27.05.2020
2499 Clouds 22 1028 37 10000 2.6 320 18:58 27.05.2020
2500 Clouds 22 1029 37 10000 4.6 320 18:39 27.05.2020
2501 Rain 22 1029 37 10000 5.1 290 18:19 27.05.2020
2502 Rain 22 1029 40 10000 4.6 300 17:43 27.05.2020
2503 Rain 23 1029 40 10000 4.6 300 17:24 27.05.2020
2504 Rain 23 1029 37 10000 3.6 310 16:57 27.05.2020
2505 Rain 23 1030 37 10000 3.1 300 16:38 27.05.2020
2506 Rain 22 1030 37 10000 3.1 300 16:20 27.05.2020
2507 Rain 22 1030 37 10000 2.1 0 15:55 27.05.2020
2508 Rain 23 1030 37 10000 3.6 320 15:37 27.05.2020
2509 Clouds 22 1031 40 10000 3.1 310 15:18 27.05.2020
2510 Clouds 22 1031 37 10000 2.6 0 14:42 27.05.2020
2511 Clouds 22 1031 37 10000 2.6 0 14:42 27.05.2020
2512 Clouds 22 1031 40 10000 2.6 230 14:20 27.05.2020
2513 Clouds 22 1032 37 10000 2.1 0 13:44 27.05.2020
2514 Clouds 21 1032 37 10000 2.1 0 13:25 27.05.2020
2515 Clouds 21 1032 37 10000 2.6 0 12:57 27.05.2020
2516 Clouds 21 1032 37 10000 2.6 0 12:39 27.05.2020
2517 Clouds 21 1032 37 10000 2.6 0 12:21 27.05.2020
2518 Clouds 20 1033 39 10000 2.1 0 11:39 27.05.2020
2519 Clouds 20 1033 39 10000 2.1 0 11:21 27.05.2020
2520 Clouds 20 1033 37 10000 1 0 10:57 27.05.2020
2521 Clouds 20 1033 34 10000 1.5 0 10:38 27.05.2020
2522 Clouds 19 1033 39 10000 1 0 10:19 27.05.2020
2523 Clouds 19 1033 45 10000 1 0 09:41 27.05.2020
2524 Clouds 16 1033 51 10000 1 0 09:22 27.05.2020
2525 Clouds 16 1033 51 10000 1 0 08:56 27.05.2020
2526 Clouds 16 1033 51 10000 0.5 270 08:36 27.05.2020
2527 Clouds 15 1033 62 10000 0.5 0 08:18 27.05.2020
2528 Clouds 13 1033 76 10000 0.5 170 07:49 27.05.2020
2529 Clouds 13 1033 76 10000 0.5 170 07:30 27.05.2020
2530 Clouds 13 1033 76 10000 0.5 170 07:30 27.05.2020
2531 Clouds 10 1033 87 10000 0.62 322 06:47 27.05.2020
2532 Clouds 9 1033 87 10000 0.59 334 06:20 27.05.2020
2533 Clouds 9 1033 93 10000 0.5 0 05:49 27.05.2020
2534 Clouds 9 1033 93 10000 0.5 360 05:22 27.05.2020
2535 Clouds 10 1034 81 10000 0.5 0 02:34 27.05.2020
2536 Clouds 10 1034 76 10000 0.5 0 01:53 27.05.2020
2537 Clouds 11 1034 71 10000 0.5 0 01:30 27.05.2020
2538 Clouds 12 1034 58 10000 1 0 00:46 27.05.2020
2539 Clear 13 1034 58 10000 2.1 50 00:20 27.05.2020
2540 Clear 13 1034 58 10000 2.1 50 23:57 26.05.2020
2541 Clear 14 1034 54 10000 2.1 60 23:38 26.05.2020
2542 Clear 14 1034 51 10000 2.1 40 23:19 26.05.2020
2543 Clear 14 1034 51 10000 1.5 50 22:41 26.05.2020
2544 Clear 15 1034 51 10000 1.5 50 22:22 26.05.2020
2545 Clear 16 1034 45 10000 1.5 60 21:59 26.05.2020
2546 Clear 17 1033 39 10000 2.1 40 21:40 26.05.2020
2547 Clear 17 1033 39 10000 2.1 40 21:22 26.05.2020
2548 Clear 18 1033 37 10000 3.1 20 20:57 26.05.2020
2549 Clear 18 1033 34 10000 3.1 30 20:39 26.05.2020
2550 Clouds 19 1033 37 10000 3.1 20 20:19 26.05.2020
2551 Clouds 19 1033 37 10000 2.6 30 19:40 26.05.2020
2552 Clouds 20 1033 34 10000 4.6 30 19:20 26.05.2020
2553 Clouds 20 1033 34 10000 4.6 30 18:58 26.05.2020
2554 Clouds 20 1033 37 10000 3.6 10 18:39 26.05.2020
2555 Clouds 20 1033 34 10000 3.6 30 18:20 26.05.2020
2556 Clouds 20 1033 30 10000 4.1 20 17:42 26.05.2020
2557 Clouds 21 1033 30 10000 4.1 20 17:23 26.05.2020
2558 Clouds 21 1033 35 10000 3.6 350 16:49 26.05.2020
2559 Clouds 21 1033 35 10000 3.6 350 16:23 26.05.2020
2560 Clouds 21 1033 34 10000 2.6 0 15:59 26.05.2020
2561 Clouds 21 1033 35 10000 3.6 0 15:40 26.05.2020
2562 Clouds 20 1034 39 10000 3.1 0 15:20 26.05.2020
2563 Clouds 20 1034 39 10000 3.1 0 14:55 26.05.2020
2564 Clouds 20 1034 39 10000 2.1 0 14:37 26.05.2020
2565 Clouds 20 1034 45 10000 2.6 40 14:18 26.05.2020
2566 Clouds 20 1034 48 10000 3.6 0 13:41 26.05.2020
2567 Clouds 20 1034 48 10000 3.6 0 13:22 26.05.2020
2568 Clouds 19 1034 45 10000 3.6 30 12:44 26.05.2020
2569 Clouds 18 1034 45 10000 3.6 30 12:23 26.05.2020
2570 Clouds 18 1034 52 10000 3.6 50 11:59 26.05.2020
2571 Clouds 18 1034 55 10000 3.1 10 11:41 26.05.2020
2572 Clouds 18 1034 63 10000 3.1 10 11:20 26.05.2020
2573 Clouds 17 1034 63 10000 2.6 360 10:47 26.05.2020
2574 Clouds 17 1034 67 10000 2.6 20 10:20 26.05.2020
2575 Clouds 17 1034 67 10000 2.6 20 09:59 26.05.2020
2576 Clouds 14 1034 72 10000 2.1 20 09:38 26.05.2020
2577 Clouds 14 1034 82 10000 2.6 10 09:19 26.05.2020
2578 Clouds 13 1034 81 10000 3.1 360 08:41 26.05.2020
2579 Clouds 13 1034 81 10000 3.1 360 08:22 26.05.2020
2580 Clouds 11 1033 93 10000 2.6 320 07:44 26.05.2020
2581 Clouds 11 1033 93 10000 2.6 320 07:23 26.05.2020
2582 Clouds 10 1033 100 10000 1.5 320 06:54 26.05.2020
2583 Clouds 9 1033 100 10000 1 0 06:31 26.05.2020
2584 Clear 8 1033 100 10000 1 0 05:44 26.05.2020
2585 Clear 8 1033 100 10000 1 0 05:25 26.05.2020
2586 Clear 9 1032 100 10000 0.5 0 04:49 26.05.2020
2587 Clear 9 1032 100 10000 0.5 0 04:31 26.05.2020
2588 Clear 9 1032 93 10000 0.5 0 03:52 26.05.2020
2589 Clear 10 1032 93 10000 1.5 320 02:40 26.05.2020
2590 Clouds 10 1032 93 10000 1 0 01:48 26.05.2020
2591 Clouds 11 1032 87 10000 1 0 01:21 26.05.2020
2592 Clouds 12 1032 81 10000 1.5 300 00:37 26.05.2020
2593 Clouds 12 1031 81 10000 1.5 300 00:18 26.05.2020
2594 Clouds 12 1031 81 10000 1.5 300 23:55 25.05.2020
2595 Clouds 12 1031 87 10000 2.1 280 23:36 25.05.2020
2596 Clouds 12 1031 87 10000 2.1 280 23:18 25.05.2020
2597 Clouds 12 1031 81 10000 1.5 300 22:54 25.05.2020
2598 Clouds 13 1031 81 10000 1.5 300 22:36 25.05.2020
2599 Clouds 13 1031 76 10000 2.1 320 22:18 25.05.2020
2600 Clouds 13 1030 71 10000 2.1 330 21:54 25.05.2020
2601 Clouds 13 1030 71 10000 2.1 330 21:36 25.05.2020
2602 Clouds 13 1030 71 10000 2.1 310 21:18 25.05.2020
2603 Clouds 14 1030 71 10000 3.6 300 20:42 25.05.2020
2604 Clouds 14 1030 71 10000 3.6 300 20:21 25.05.2020
2605 Clouds 14 1030 71 10000 3.1 310 19:59 25.05.2020
2606 Clouds 14 1029 82 10000 2.6 300 19:40 25.05.2020
2607 Rain 14 1029 71 10000 3.6 320 19:18 25.05.2020
2608 Rain 14 1029 71 10000 3.6 320 18:55 25.05.2020
2609 Clouds 14 1029 76 10000 2.6 300 18:36 25.05.2020
2610 Clouds 14 1029 71 10000 2.6 310 18:18 25.05.2020
2611 Clouds 14 1029 76 10000 3.6 320 17:42 25.05.2020
2612 Clouds 14 1029 76 10000 3.6 320 17:23 25.05.2020
2613 Clouds 14 1029 76 10000 4.1 310 16:57 25.05.2020
2614 Clouds 13 1029 76 10000 4.1 330 16:39 25.05.2020
2615 Clouds 13 1028 76 10000 4.6 330 16:20 25.05.2020
2616 Clouds 13 1028 76 10000 5.7 320 15:44 25.05.2020
2617 Rain 13 1028 71 10000 6.2 320 15:20 25.05.2020
2618 Rain 13 1028 71 10000 6.2 320 14:59 25.05.2020
2619 Rain 13 1027 71 10000 5.1 330 14:38 25.05.2020
2620 Rain 13 1027 76 10000 4.1 310 14:20 25.05.2020
2621 Clouds 13 1027 76 10000 4.6 320 13:40 25.05.2020
2622 Clouds 13 1027 76 10000 4.6 320 13:21 25.05.2020
2623 Rain 13 1027 81 10000 5.7 310 12:59 25.05.2020
2624 Rain 13 1026 71 10000 7.7 300 12:39 25.05.2020
2625 Rain 13 1026 71 10000 7.7 300 12:20 25.05.2020
2626 Clouds 13 1026 81 10000 5.7 290 11:56 25.05.2020
2627 Clouds 13 1026 71 10000 4.6 310 11:37 25.05.2020
2628 Clouds 13 1026 76 10000 4.6 300 11:18 25.05.2020
2629 Clouds 13 1026 76 10000 6.2 300 10:41 25.05.2020
2630 Clouds 13 1026 76 10000 6.2 300 10:41 25.05.2020
2631 Clouds 13 1026 76 10000 6.2 300 10:21 25.05.2020
2632 Clouds 12 1026 76 10000 5.7 300 09:56 25.05.2020
2633 Clouds 12 1025 81 10000 4.6 290 09:38 25.05.2020
2634 Clouds 12 1025 81 10000 4.6 290 09:19 25.05.2020
2635 Rain 12 1025 87 10000 5.7 280 08:44 25.05.2020
2636 Rain 12 1025 87 10000 5.7 280 08:24 25.05.2020
2637 Rain 11 1025 93 10000 4.1 280 07:59 25.05.2020
2638 Rain 11 1025 93 10000 3.6 280 07:41 25.05.2020
2639 Rain 11 1024 87 10000 4.1 290 07:20 25.05.2020
2640 Rain 11 1024 87 10000 4.1 280 06:46 25.05.2020
2641 Clouds 11 1024 87 10000 4.1 280 06:27 25.05.2020
2642 Clouds 11 1024 87 10000 4.6 270 03:46 25.05.2020
2643 Clouds 11 1024 81 10000 4.1 290 03:22 25.05.2020
2644 Clouds 11 1024 81 10000 5.1 280 02:44 25.05.2020
2645 Clouds 11 1024 87 10000 4.6 280 01:42 25.05.2020
2646 Clouds 11 1024 93 10000 4.6 270 00:58 25.05.2020
2647 Clouds 11 1024 93 10000 4.1 260 00:36 25.05.2020
2648 Clouds 11 1024 93 10000 4.1 250 00:18 25.05.2020
2649 Clouds 11 1024 100 10000 3.6 250 23:43 24.05.2020
2650 Clouds 11 1024 93 10000 3.6 260 23:23 24.05.2020
2651 Clouds 11 1024 93 10000 3.6 260 22:59 24.05.2020
2652 Rain 11 1024 93 10000 3.6 260 22:41 24.05.2020
2653 Rain 11 1024 93 10000 4.6 260 22:19 24.05.2020
2654 Rain 11 1024 93 10000 4.6 260 21:56 24.05.2020
2655 Rain 11 1024 93 10000 4.6 260 21:56 24.05.2020
2656 Rain 12 1024 93 10000 2.1 270 21:38 24.05.2020
2657 Rain 12 1024 87 2500 5.1 330 21:19 24.05.2020
2658 Rain 13 1023 71 10000 3.1 280 20:44 24.05.2020
2659 Rain 14 1023 71 10000 3.1 280 20:22 24.05.2020
2660 Rain 15 1023 62 10000 4.1 290 19:59 24.05.2020
2661 Clouds 15 1023 62 10000 5.7 280 19:41 24.05.2020
2662 Clouds 15 1023 62 10000 5.7 280 19:19 24.05.2020
2663 Clouds 15 1023 62 10000 5.7 280 19:19 24.05.2020
2664 Clouds 16 1023 55 10000 7.2 290 18:57 24.05.2020
2665 Clouds 16 1023 55 10000 9.8 290 18:38 24.05.2020
2666 Clouds 16 1023 72 10000 3.1 290 18:20 24.05.2020
2667 Clouds 16 1023 72 10000 3.1 290 17:55 24.05.2020
2668 Clouds 16 1023 72 10000 2.6 270 17:36 24.05.2020
2669 Clouds 15 1023 71 10000 3.6 270 17:18 24.05.2020
2670 Clouds 14 1023 81 10000 3.6 260 16:39 24.05.2020
2671 Rain 14 1023 81 10000 3.6 260 16:21 24.05.2020
2672 Clouds 14 1024 81 10000 3.6 290 15:57 24.05.2020
2673 Rain 14 1024 71 10000 5.7 270 15:39 24.05.2020
2674 Rain 14 1023 71 10000 8.7 260 15:19 24.05.2020
2675 Clouds 15 1023 71 10000 8.7 260 14:55 24.05.2020
2676 Clouds 15 1023 71 10000 4.1 280 14:37 24.05.2020
2677 Rain 14 1023 81 10000 4.6 290 14:18 24.05.2020
2678 Rain 15 1023 66 10000 9.8 290 13:55 24.05.2020
2679 Rain 15 1023 66 10000 9.8 290 13:36 24.05.2020
2680 Rain 16 1022 51 10000 8.7 270 13:18 24.05.2020
2681 Rain 17 1022 51 10000 8.7 270 12:54 24.05.2020
2682 Clouds 17 1022 55 10000 6.7 270 12:36 24.05.2020
2683 Rain 17 1023 67 10000 8.7 260 12:18 24.05.2020
2684 Clouds 16 1023 59 10000 6.7 260 11:42 24.05.2020
2685 Clouds 16 1023 59 10000 6.7 260 11:23 24.05.2020
2686 Clouds 16 1023 59 10000 7.7 260 10:59 24.05.2020
2687 Rain 16 1023 62 10000 6.2 290 10:40 24.05.2020
2688 Rain 16 1023 62 10000 6.2 290 10:39 24.05.2020
2689 Rain 16 1023 62 10000 6.2 290 10:21 24.05.2020
2690 Clouds 15 1023 62 10000 7.7 270 09:55 24.05.2020
2691 Clouds 15 1023 62 10000 7.7 270 09:37 24.05.2020
2692 Clouds 14 1023 62 10000 7.2 260 09:18 24.05.2020
2693 Clouds 14 1023 66 10000 7.7 260 08:40 24.05.2020
2694 Clouds 13 1023 66 10000 5.1 240 08:22 24.05.2020
2695 Clouds 12 1023 66 10000 5.1 240 07:57 24.05.2020
2696 Clouds 12 1023 76 10000 4.6 250 07:39 24.05.2020
2697 Clouds 12 1023 81 10000 4.1 250 07:19 24.05.2020
2698 Clear 11 1023 81 10000 5.1 240 06:38 24.05.2020
2699 Clear 10 1023 93 10000 0.5 0 05:49 24.05.2020
2700 Clear 10 1023 87 10000 1.5 220 03:56 24.05.2020
2701 Clear 10 1023 81 10000 1.5 190 03:35 24.05.2020
2702 Clouds 10 1023 87 10000 2.6 220 02:24 24.05.2020
2703 Clouds 11 1023 76 10000 1.5 240 01:18 24.05.2020
2704 Clouds 12 1023 66 10000 4.1 320 00:37 24.05.2020
2705 Clouds 12 1023 71 10000 5.1 0 00:19 24.05.2020
2706 Clouds 12 1022 71 10000 3.1 270 23:39 23.05.2020
2707 Clouds 12 1022 71 10000 3.6 260 23:20 23.05.2020
2708 Clouds 13 1022 71 10000 3.6 260 22:55 23.05.2020
2709 Clouds 13 1022 71 10000 3.6 260 22:37 23.05.2020
2710 Clouds 14 1021 62 10000 4.1 270 22:19 23.05.2020
2711 Clouds 14 1021 62 10000 4.1 270 21:56 23.05.2020
2712 Clouds 14 1021 62 10000 4.6 260 21:37 23.05.2020
2713 Clouds 15 1021 58 10000 4.6 280 21:18 23.05.2020
2714 Clouds 15 1020 54 10000 4.1 290 20:54 23.05.2020
2715 Clouds 15 1020 54 10000 4.1 290 20:36 23.05.2020
2716 Rain 16 1020 51 10000 5.7 300 20:18 23.05.2020
2717 Clouds 17 1019 55 10000 3.6 300 19:41 23.05.2020
2718 Clouds 17 1019 51 10000 5.7 290 19:19 23.05.2020
2719 Rain 17 1019 51 10000 5.7 290 18:57 23.05.2020
2720 Rain 17 1019 63 10000 2.6 290 18:39 23.05.2020
2721 Rain 17 1019 63 10000 2.6 290 18:20 23.05.2020
2722 Rain 18 1018 55 10000 4.6 280 17:55 23.05.2020
2723 Rain 18 1018 55 10000 5.1 290 17:37 23.05.2020
2724 Rain 18 1018 55 10000 5.1 290 17:19 23.05.2020
2725 Rain 18 1018 48 10000 6.2 280 16:55 23.05.2020
2726 Rain 19 1018 48 10000 6.2 280 16:37 23.05.2020
2727 Clouds 19 1018 42 10000 7.7 260 16:18 23.05.2020
2728 Clouds 20 1018 42 10000 7.7 270 15:42 23.05.2020
2729 Clouds 20 1018 42 10000 7.7 270 15:23 23.05.2020
2730 Clouds 20 1018 52 10000 5.7 270 14:57 23.05.2020
2731 Clouds 20 1018 52 10000 5.7 270 14:57 23.05.2020
2732 Clouds 20 1018 49 10000 9.3 250 14:38 23.05.2020
2733 Clouds 20 1018 49 10000 9.3 250 14:20 23.05.2020
2734 Clouds 20 1018 59 10000 8.2 260 13:40 23.05.2020
2735 Clouds 19 1018 59 10000 7.2 270 13:19 23.05.2020
2736 Clouds 19 1018 59 10000 7.2 270 12:56 23.05.2020
2737 Clouds 20 1018 68 10000 6.7 250 12:37 23.05.2020
2738 Clouds 20 1018 72 10000 5.1 220 12:18 23.05.2020
2739 Clouds 20 1018 72 10000 3.6 210 11:43 23.05.2020
2740 Clouds 19 1018 72 10000 3.6 210 11:21 23.05.2020
2741 Clouds 18 1018 77 10000 2.6 240 10:57 23.05.2020
2742 Clouds 18 1018 77 10000 2.6 250 10:39 23.05.2020
2743 Clouds 18 1018 77 10000 2.6 250 10:20 23.05.2020
2744 Clouds 17 1018 88 10000 3.1 250 09:58 23.05.2020
2745 Clouds 17 1018 93 10000 3.1 250 09:39 23.05.2020
2746 Clouds 16 1018 93 10000 3.1 250 09:21 23.05.2020
2747 Clouds 15 1018 87 10000 1.5 200 08:43 23.05.2020
2748 Clouds 14 1018 87 10000 1 0 08:20 23.05.2020
2749 Clouds 14 1018 87 10000 1 0 07:57 23.05.2020
2750 Clouds 14 1018 93 10000 1 0 07:37 23.05.2020
2751 Clouds 13 1018 93 10000 2.1 140 07:19 23.05.2020
2752 Clouds 13 1018 93 10000 2.1 150 06:38 23.05.2020
2753 Clouds 12 1018 87 10000 1 0 05:34 23.05.2020
2754 Clouds 13 1018 87 10000 3.6 140 03:48 23.05.2020
2755 Rain 13 1018 82 8000 4.1 130 03:21 23.05.2020
2756 Rain 15 1018 55 10000 4.6 140 01:59 23.05.2020
2757 Rain 15 1018 55 10000 4.6 140 01:59 23.05.2020
2758 Rain 15 1018 59 10000 4.1 130 01:27 23.05.2020
2759 Rain 15 1019 59 10000 4.6 130 00:47 23.05.2020
2760 Rain 15 1019 59 10000 4.6 130 00:29 23.05.2020
2761 Rain 15 1019 63 10000 3.6 130 23:58 22.05.2020
2762 Rain 15 1019 72 10000 3.1 110 23:39 22.05.2020
2763 Rain 16 1019 63 10000 3.6 130 23:19 22.05.2020
2764 Rain 16 1019 63 10000 3.6 130 22:56 22.05.2020
2765 Rain 17 1018 48 10000 5.7 120 22:38 22.05.2020
2766 Rain 19 1019 40 10000 3.1 150 22:18 22.05.2020
2767 Clouds 20 1018 35 10000 4.1 140 21:44 22.05.2020
2768 Clouds 20 1018 35 10000 4.1 140 21:21 22.05.2020
2769 Clouds 20 1018 35 10000 4.1 140 20:55 22.05.2020
2770 Clouds 20 1018 35 10000 4.1 140 20:36 22.05.2020
2771 Clouds 21 1019 32 10000 4.1 140 20:18 22.05.2020
2772 Clouds 21 1019 30 10000 4.6 150 19:43 22.05.2020
2773 Clouds 21 1019 30 10000 4.6 150 19:24 22.05.2020
2774 Clouds 22 1019 33 10000 3.6 140 18:40 22.05.2020
2775 Clouds 22 1019 33 10000 3.6 140 18:21 22.05.2020
2776 Clouds 22 1020 30 10000 3.6 160 17:59 22.05.2020
2777 Clouds 22 1020 30 10000 4.6 150 17:39 22.05.2020
2778 Clouds 22 1020 30 10000 4.6 150 17:19 22.05.2020
2779 Clouds 23 1020 33 10000 4.6 120 16:55 22.05.2020
2780 Clouds 23 1020 28 10000 4.1 150 16:37 22.05.2020
2781 Clouds 23 1020 28 10000 4.1 150 16:19 22.05.2020
2782 Clouds 23 1020 30 10000 3.6 140 15:42 22.05.2020
2783 Clouds 23 1020 30 10000 3.6 140 15:42 22.05.2020
2784 Clouds 23 1020 30 10000 3.6 140 15:21 22.05.2020
2785 Clouds 22 1021 30 10000 4.1 150 14:45 22.05.2020
2786 Clouds 22 1021 30 10000 4.1 150 14:26 22.05.2020
2787 Clouds 22 1021 28 10000 4.1 160 13:56 22.05.2020
2788 Clouds 22 1021 28 10000 4.6 140 13:37 22.05.2020
2789 Clouds 23 1021 28 10000 5.1 150 13:19 22.05.2020
2790 Clouds 22 1021 28 10000 5.1 140 12:40 22.05.2020
2791 Clouds 21 1021 30 10000 5.1 130 12:21 22.05.2020
2792 Clouds 21 1021 32 10000 5.1 140 11:45 22.05.2020
2793 Clouds 21 1021 32 10000 5.1 140 11:22 22.05.2020
2794 Clouds 20 1022 34 10000 5.1 120 10:59 22.05.2020
2795 Clouds 20 1022 37 10000 4.6 140 10:39 22.05.2020
2796 Clouds 20 1022 37 10000 4.6 140 10:20 22.05.2020
2797 Clouds 19 1022 39 10000 4.1 140 09:55 22.05.2020
2798 Clouds 18 1022 39 10000 4.1 150 09:36 22.05.2020
2799 Clouds 17 1022 42 10000 4.1 150 09:18 22.05.2020
2800 Clouds 16 1022 44 10000 3.1 140 08:41 22.05.2020
2801 Clouds 15 1022 47 10000 3.1 140 08:19 22.05.2020
2802 Clouds 14 1022 47 10000 3.1 140 07:52 22.05.2020
2803 Clouds 14 1022 44 10000 3.6 150 07:23 22.05.2020
2804 Clouds 13 1022 47 10000 2.6 130 06:53 22.05.2020
2805 Clouds 12 1022 54 10000 1.5 110 06:31 22.05.2020
2806 Clouds 11 1022 50 10000 1.5 110 05:38 22.05.2020
2807 Clouds 10 1022 53 10000 1.5 130 04:50 22.05.2020
2808 Clouds 11 1023 53 10000 1.5 130 04:19 22.05.2020
2809 Clouds 11 1023 50 10000 2.1 110 03:41 22.05.2020
2810 Clouds 12 1023 47 10000 2.1 110 02:59 22.05.2020
2811 Clouds 12 1023 41 10000 3.1 110 01:52 22.05.2020
2812 Clouds 13 1023 38 10000 3.6 110 01:24 22.05.2020
2813 Clouds 14 1023 38 10000 4.6 110 00:34 22.05.2020
2814 Clouds 14 1023 38 10000 4.1 120 23:59 21.05.2020
2815 Clouds 15 1023 36 10000 4.1 110 23:41 21.05.2020
2816 Clouds 15 1023 36 10000 4.1 110 23:23 21.05.2020
2817 Clouds 15 1023 36 10000 3.6 120 22:57 21.05.2020
2818 Clouds 15 1023 36 10000 3.6 120 22:57 21.05.2020
2819 Clouds 16 1023 33 10000 4.1 110 22:37 21.05.2020
2820 Clouds 17 1023 31 10000 3.6 100 22:19 21.05.2020
2821 Clouds 17 1023 31 10000 3.6 100 21:55 21.05.2020
2822 Clouds 17 1023 31 10000 3.6 100 21:37 21.05.2020
2823 Clouds 18 1023 32 10000 3.1 80 21:18 21.05.2020
2824 Clouds 19 1023 29 10000 3.6 100 20:42 21.05.2020
2825 Clouds 19 1023 30 10000 3.1 90 20:22 21.05.2020
2826 Clouds 20 1022 28 10000 2.6 40 19:41 21.05.2020
2827 Clouds 20 1022 28 10000 2.6 40 19:20 21.05.2020
2828 Clouds 21 1022 26 10000 1 0 18:59 21.05.2020
2829 Clouds 21 1022 26 10000 2.1 0 18:39 21.05.2020
2830 Clouds 21 1023 28 10000 3.6 70 18:19 21.05.2020
2831 Clouds 21 1023 28 10000 3.6 70 17:57 21.05.2020
2832 Clouds 21 1023 28 10000 3.1 80 17:39 21.05.2020
2833 Clouds 21 1023 28 10000 3.1 50 17:21 21.05.2020
2834 Clouds 21 1023 28 10000 2.6 0 16:45 21.05.2020
2835 Clouds 21 1023 28 10000 2.6 0 16:23 21.05.2020
2836 Clouds 21 1023 28 10000 2.6 140 15:45 21.05.2020
2837 Clouds 20 1023 28 10000 2.6 140 15:24 21.05.2020
2838 Clouds 20 1023 32 10000 3.6 110 14:56 21.05.2020
2839 Clouds 20 1024 32 10000 2.1 100 14:37 21.05.2020
2840 Clouds 20 1024 32 10000 2.1 100 14:18 21.05.2020
2841 Clouds 20 1024 37 10000 3.1 190 13:40 21.05.2020
2842 Clouds 20 1024 37 10000 3.1 190 13:22 21.05.2020
2843 Clouds 19 1024 39 10000 1.5 0 12:57 21.05.2020
2844 Clouds 20 1024 39 10000 3.1 0 12:37 21.05.2020
2845 Clouds 18 1025 42 10000 1.5 0 12:18 21.05.2020
2846 Clouds 18 1025 45 10000 2.1 180 11:41 21.05.2020
2847 Clouds 18 1025 45 10000 2.1 180 11:23 21.05.2020
2848 Clouds 17 1025 45 10000 2.1 140 10:57 21.05.2020
2849 Clouds 17 1025 48 10000 2.1 0 10:39 21.05.2020
2850 Clouds 17 1025 51 10000 1.5 150 10:19 21.05.2020
2851 Clouds 17 1025 51 10000 1.5 150 09:54 21.05.2020
2852 Clouds 16 1024 54 10000 2.1 100 09:36 21.05.2020
2853 Clouds 13 1024 62 10000 2.1 100 09:18 21.05.2020
2854 Clouds 13 1024 62 10000 2.1 90 08:42 21.05.2020
2855 Clouds 12 1024 66 10000 1.5 70 08:23 21.05.2020
2856 Clouds 12 1024 66 10000 1.5 70 07:44 21.05.2020
2857 Clouds 11 1024 66 10000 1.5 70 07:25 21.05.2020
2858 Clouds 10 1023 81 10000 1 0 06:52 21.05.2020
2859 Clouds 9 1023 81 10000 1 0 05:54 21.05.2020
2860 Clouds 9 1023 87 10000 0.5 0 04:56 21.05.2020
2861 Clouds 10 1023 71 10000 1 0 03:22 21.05.2020
2862 Clouds 10 1023 76 10000 1 0 03:22 21.05.2020
2863 Clouds 10 1023 76 10000 1 0 03:22 21.05.2020
2864 Clouds 10 1023 66 10000 1.5 60 02:42 21.05.2020
2865 Clouds 11 1023 66 10000 1.5 60 02:21 21.05.2020
2866 Clouds 11 1023 62 10000 1.5 40 01:43 21.05.2020
2867 Clouds 11 1023 62 10000 1.5 40 01:19 21.05.2020
2868 Clouds 12 1023 58 10000 2.6 40 00:48 21.05.2020
2869 Clouds 13 1023 58 10000 2.6 40 00:23 21.05.2020
2870 Clouds 13 1023 50 10000 2.6 30 23:41 20.05.2020
2871 Clouds 14 1023 41 10000 2.1 360 23:20 20.05.2020
2872 Clouds 14 1023 41 10000 2.1 360 22:58 20.05.2020
2873 Clouds 15 1023 38 10000 2.6 350 22:39 20.05.2020
2874 Clear 15 1022 38 10000 1 0 22:20 20.05.2020
2875 Clouds 16 1022 36 10000 2.1 350 21:40 20.05.2020
2876 Clouds 17 1022 36 10000 2.1 350 21:21 20.05.2020
2877 Clouds 18 1021 29 10000 2.6 340 20:45 20.05.2020
2878 Clouds 19 1021 29 10000 2.6 340 20:26 20.05.2020
2879 Clouds 19 1021 29 10000 3.6 340 19:58 20.05.2020
2880 Clouds 19 1021 30 10000 3.1 340 19:38 20.05.2020
2881 Clouds 20 1021 28 10000 4.6 330 19:20 20.05.2020
2882 Clouds 20 1021 28 10000 4.6 330 18:47 20.05.2020
2883 Clouds 20 1021 30 10000 3.6 340 18:28 20.05.2020
2884 Clouds 21 1021 30 10000 4.1 330 17:57 20.05.2020
2885 Clouds 21 1021 30 10000 4.1 10 17:37 20.05.2020
2886 Clouds 21 1021 30 10000 4.1 330 17:19 20.05.2020
2887 Clouds 20 1021 32 10000 2.6 340 16:41 20.05.2020
2888 Clear 21 1021 30 10000 3.1 340 16:22 20.05.2020
2889 Clear 20 1021 30 10000 3.1 340 15:56 20.05.2020
2890 Clear 21 1021 32 10000 2.6 0 15:38 20.05.2020
2891 Clear 21 1021 32 10000 1.5 0 15:20 20.05.2020
2892 Clear 20 1021 34 10000 4.1 320 14:42 20.05.2020
2893 Clear 20 1021 37 10000 3.1 290 14:20 20.05.2020
2894 Clear 19 1021 39 10000 3.6 330 13:41 20.05.2020
2895 Clear 20 1022 36 10000 3.6 20 13:19 20.05.2020
2896 Clear 20 1022 36 10000 3.6 20 12:56 20.05.2020
2897 Clear 18 1022 36 10000 3.1 350 12:37 20.05.2020
2898 Clear 18 1022 36 10000 3.1 350 12:19 20.05.2020
2899 Clouds 18 1022 42 10000 3.1 0 11:36 20.05.2020
2900 Clouds 18 1022 42 10000 3.1 320 11:18 20.05.2020
2901 Clouds 18 1022 42 10000 3.1 320 11:18 20.05.2020
2902 Clouds 17 1022 48 10000 2.1 0 10:43 20.05.2020
2903 Clouds 18 1022 48 10000 2.1 0 10:20 20.05.2020
2904 Clear 17 1022 58 10000 2.6 20 09:45 20.05.2020
2905 Clear 14 1022 58 10000 2.6 20 09:22 20.05.2020
2906 Clouds 14 1022 62 10000 2.6 20 08:57 20.05.2020
2907 Clouds 14 1021 66 10000 1.5 340 08:39 20.05.2020
2908 Clouds 13 1021 71 10000 1.5 360 08:18 20.05.2020
2909 Clouds 13 1021 71 10000 1.5 360 07:47 20.05.2020
2910 Clouds 12 1021 71 10000 1.5 350 07:21 20.05.2020
2911 Clouds 12 1021 71 10000 1.5 340 06:43 20.05.2020
2912 Clear 11 1021 93 10000 1 0 05:24 20.05.2020
2913 Clouds 11 1021 93 10000 1 0 04:33 20.05.2020
2914 Clouds 10 1021 93 10000 0.5 0 03:53 20.05.2020
2915 Clear 11 1021 100 10000 1.7 335 02:32 20.05.2020
2916 Clouds 11 1021 93 10000 2.22 343 01:31 20.05.2020
2917 Clouds 11 1021 93 10000 0.5 0 00:46 20.05.2020
2918 Clouds 12 1021 93 10000 0.5 0 00:24 20.05.2020
2919 Clouds 12 1020 87 10000 0.5 280 23:45 19.05.2020
2920 Clouds 13 1020 81 10000 1 240 23:21 19.05.2020
2921 Clouds 14 1020 81 10000 1 240 22:57 19.05.2020
2922 Clouds 14 1020 71 10000 1 340 22:39 19.05.2020
2923 Clouds 15 1020 67 10000 1 300 22:20 19.05.2020
2924 Clouds 15 1020 67 10000 1 300 21:59 19.05.2020
2925 Clouds 16 1019 63 10000 1.5 310 21:39 19.05.2020
2926 Clouds 16 1019 59 10000 2.1 310 21:21 19.05.2020
2927 Clouds 17 1019 59 10000 2.1 310 20:58 19.05.2020
2928 Clouds 18 1019 59 10000 2.6 320 20:40 19.05.2020
2929 Clouds 17 1019 59 10000 2.6 320 20:22 19.05.2020
2930 Clouds 18 1019 59 10000 3.6 330 19:59 19.05.2020
2931 Clouds 18 1019 55 10000 2.6 340 19:37 19.05.2020
2932 Clouds 19 1019 52 10000 5.1 320 19:19 19.05.2020
2933 Clouds 19 1019 48 10000 6.7 290 18:43 19.05.2020
2934 Clouds 20 1019 45 10000 4.6 320 18:22 19.05.2020
2935 Clouds 20 1019 45 10000 4.6 320 17:57 19.05.2020
2936 Clouds 20 1019 48 10000 5.1 290 17:38 19.05.2020
2937 Clouds 19 1019 52 10000 6.2 290 17:19 19.05.2020
2938 Clouds 19 1019 52 10000 4.6 300 16:41 19.05.2020
2939 Clouds 19 1019 52 10000 4.6 300 16:23 19.05.2020
2940 Clouds 19 1019 52 10000 4.6 290 15:56 19.05.2020
2941 Clouds 19 1019 59 10000 4.1 310 15:38 19.05.2020
2942 Clouds 18 1019 59 10000 4.1 310 15:20 19.05.2020
2943 Clouds 18 1019 59 10000 5.1 290 14:54 19.05.2020
2944 Clouds 19 1019 59 10000 5.7 270 14:36 19.05.2020
2945 Clouds 19 1019 59 10000 7.7 290 14:18 19.05.2020
2946 Clouds 18 1019 59 10000 7.7 290 13:55 19.05.2020
2947 Clouds 18 1019 63 10000 5.1 290 13:36 19.05.2020
2948 Clouds 18 1019 59 10000 5.7 280 13:18 19.05.2020
2949 Clouds 18 1019 59 10000 5.7 280 12:55 19.05.2020
2950 Clouds 18 1019 63 10000 5.1 290 12:36 19.05.2020
2951 Clouds 17 1019 63 10000 5.1 280 12:18 19.05.2020
2952 Clouds 16 1019 67 10000 5.7 270 11:41 19.05.2020
2953 Clouds 17 1019 67 10000 5.7 270 11:22 19.05.2020
2954 Clouds 16 1019 67 10000 4.6 280 11:22 19.05.2020
2955 Clouds 16 1019 67 10000 4.6 280 10:56 19.05.2020
2956 Clouds 15 1019 72 10000 5.1 280 10:38 19.05.2020
2957 Clouds 15 1019 76 10000 4.6 300 10:18 19.05.2020
2958 Clouds 15 1019 76 10000 5.1 280 09:43 19.05.2020
2959 Clouds 15 1019 76 10000 5.1 280 09:24 19.05.2020
2960 Clouds 14 1019 76 10000 4.6 290 08:47 19.05.2020
2961 Clouds 14 1019 76 10000 4.6 290 08:25 19.05.2020
2962 Clouds 14 1019 76 10000 4.1 290 07:49 19.05.2020
2963 Clouds 14 1019 76 10000 4.1 290 07:28 19.05.2020
2964 Clouds 13 1018 76 10000 3.1 290 06:55 19.05.2020
2965 Clouds 13 1018 76 10000 3.1 290 06:31 19.05.2020
2966 Clouds 13 1018 76 10000 3.6 290 05:53 19.05.2020
2967 Clouds 13 1019 76 10000 3.6 290 05:35 19.05.2020
2968 Clouds 12 1019 81 10000 2.1 290 04:50 19.05.2020
2969 Clouds 11 1019 93 10000 1.5 310 02:59 19.05.2020
2970 Clouds 14 1019 76 10000 0.5 0 00:59 19.05.2020
2971 Clouds 14 1019 71 10000 1 0 00:36 19.05.2020
2972 Clouds 14 1019 71 10000 0.5 340 00:18 19.05.2020
2973 Clouds 15 1019 67 10000 0.5 0 23:40 18.05.2020
2974 Clouds 16 1019 59 10000 1 230 23:20 18.05.2020
2975 Clouds 16 1019 59 10000 1 230 22:57 18.05.2020
2976 Clouds 16 1019 59 10000 1 0 22:39 18.05.2020
2977 Clouds 17 1019 48 10000 1 330 22:20 18.05.2020
2978 Clouds 18 1019 45 10000 2.1 320 21:42 18.05.2020
2979 Clouds 19 1018 42 10000 2.6 310 21:22 18.05.2020
2980 Clouds 19 1018 42 10000 2.6 310 20:58 18.05.2020
2981 Clouds 20 1018 42 10000 2.6 310 20:39 18.05.2020
2982 Clouds 20 1018 40 10000 3.1 280 20:20 18.05.2020
2983 Clouds 21 1018 40 10000 3.1 280 19:56 18.05.2020
2984 Clouds 21 1018 43 10000 3.6 300 19:38 18.05.2020
2985 Clouds 21 1019 40 10000 4.6 290 19:18 18.05.2020
2986 Clouds 21 1019 40 10000 4.6 300 18:45 18.05.2020
2987 Clouds 21 1019 40 10000 4.6 300 18:22 18.05.2020
2988 Clouds 21 1019 40 10000 5.1 250 17:40 18.05.2020
2989 Clouds 22 1019 37 10000 6.2 260 17:18 18.05.2020
2990 Clouds 21 1019 35 10000 5.7 280 16:57 18.05.2020
2991 Clouds 21 1019 35 10000 5.7 280 16:38 18.05.2020
2992 Clouds 21 1019 37 10000 7.2 240 16:19 18.05.2020
2993 Clouds 21 1019 37 10000 7.2 240 15:57 18.05.2020
2994 Clouds 20 1020 40 10000 6.7 240 15:38 18.05.2020
2995 Clouds 20 1020 40 10000 6.2 240 15:20 18.05.2020
2996 Clouds 21 1020 40 10000 6.2 240 14:55 18.05.2020
2997 Clouds 20 1020 40 10000 6.2 250 14:37 18.05.2020
2998 Clouds 20 1020 42 10000 6.2 240 14:19 18.05.2020
2999 Clouds 19 1020 45 10000 6.2 240 13:40 18.05.2020
3000 Clouds 19 1021 42 10000 6.2 250 13:20 18.05.2020
3001 Clouds 18 1021 45 10000 5.7 250 12:58 18.05.2020
3002 Clouds 19 1021 45 10000 6.2 270 12:39 18.05.2020
3003 Clouds 17 1021 48 10000 5.7 250 12:19 18.05.2020
3004 Clouds 17 1021 48 10000 5.7 260 11:47 18.05.2020
3005 Clouds 17 1021 48 10000 5.7 260 11:27 18.05.2020
3006 Clouds 17 1021 51 10000 5.7 260 10:59 18.05.2020
3007 Clouds 17 1022 55 10000 5.1 270 10:41 18.05.2020
3008 Clouds 16 1022 58 10000 5.7 260 10:22 18.05.2020
3009 Clouds 16 1021 58 10000 6.2 260 09:44 18.05.2020
3010 Clouds 15 1021 58 10000 6.2 260 09:25 18.05.2020
3011 Clouds 14 1021 62 10000 4.6 250 08:54 18.05.2020
3012 Clouds 14 1021 66 10000 4.6 240 08:36 18.05.2020
3013 Clouds 13 1021 66 10000 4.6 250 08:18 18.05.2020
3014 Clouds 13 1021 66 10000 4.1 250 07:41 18.05.2020
3015 Clouds 12 1021 66 10000 4.1 250 07:20 18.05.2020
3016 Clouds 12 1021 71 10000 3.6 260 06:46 18.05.2020
3017 Clouds 11 1021 66 10000 3.6 260 06:18 18.05.2020
3018 Clouds 11 1021 66 10000 3.6 260 05:42 18.05.2020
3019 Clouds 11 1021 66 10000 3.6 270 03:37 18.05.2020
3020 Clouds 12 1020 58 10000 4.6 260 02:31 18.05.2020
3021 Clouds 13 1020 54 10000 4.6 250 01:34 18.05.2020
3022 Clouds 13 1020 54 10000 4.6 240 00:38 18.05.2020
3023 Clouds 13 1020 54 10000 4.6 240 00:38 18.05.2020
3024 Clouds 13 1020 54 10000 4.1 240 00:18 18.05.2020
3025 Clouds 13 1020 54 10000 3.1 250 23:42 17.05.2020
3026 Clouds 13 1020 54 10000 3.1 240 23:20 17.05.2020
3027 Clouds 13 1020 54 10000 3.1 240 22:59 17.05.2020
3028 Clouds 14 1020 50 10000 4.1 260 22:39 17.05.2020
3029 Clouds 14 1020 50 10000 4.1 260 22:21 17.05.2020
3030 Clouds 14 1020 50 10000 3.6 260 21:59 17.05.2020
3031 Clouds 16 1020 44 10000 3.6 260 21:41 17.05.2020
3032 Clouds 16 1020 38 10000 6.2 270 21:19 17.05.2020
3033 Clouds 16 1020 38 10000 6.2 270 20:55 17.05.2020
3034 Clouds 17 1020 36 10000 6.7 270 20:37 17.05.2020
3035 Clouds 17 1020 36 10000 6.2 260 20:18 17.05.2020
3036 Clouds 17 1020 39 10000 4.6 270 19:42 17.05.2020
3037 Clouds 17 1020 39 10000 4.6 270 19:42 17.05.2020
3038 Clouds 18 1020 39 10000 4.6 270 19:23 17.05.2020
3039 Clouds 18 1020 39 10000 6.7 250 18:56 17.05.2020
3040 Clouds 18 1020 39 10000 6.2 250 18:38 17.05.2020
3041 Clouds 18 1020 36 10000 6.2 260 18:20 17.05.2020
3042 Clouds 19 1020 36 10000 5.7 270 17:41 17.05.2020
3043 Clear 19 1020 36 10000 5.7 270 17:23 17.05.2020
3044 Clear 18 1021 39 10000 5.7 280 16:57 17.05.2020
3045 Clear 18 1021 41 10000 5.7 260 16:39 17.05.2020
3046 Clear 18 1021 41 10000 5.7 260 16:20 17.05.2020
3047 Clear 18 1021 39 10000 5.7 300 15:46 17.05.2020
3048 Clear 18 1021 42 10000 4.6 300 15:25 17.05.2020
3049 Clear 17 1021 42 10000 4.6 300 14:58 17.05.2020
3050 Clear 17 1021 44 10000 5.1 280 14:40 17.05.2020
3051 Clear 17 1021 44 10000 5.1 280 14:22 17.05.2020
3052 Clouds 17 1021 47 10000 4.6 300 13:43 17.05.2020
3053 Clouds 17 1021 47 10000 5.7 310 13:21 17.05.2020
3054 Clouds 14 1021 54 10000 5.1 290 10:50 17.05.2020
3055 Clouds 10 1019 71 10000 3.1 250 04:19 17.05.2020
3056 Rain 10 1018 62 10000 2.1 290 02:29 17.05.2020
3057 Clouds 11 1018 58 10000 1.5 290 01:55 17.05.2020
3058 Clouds 11 1018 54 10000 2.6 230 00:57 17.05.2020
3059 Clouds 12 1019 54 10000 3.1 220 00:38 17.05.2020
3060 Clouds 12 1019 50 10000 3.1 210 23:57 16.05.2020
3061 Clouds 12 1019 50 10000 3.1 210 23:39 16.05.2020
3062 Clouds 12 1019 54 10000 2.6 210 23:20 16.05.2020
3063 Clouds 12 1019 54 10000 2.6 210 22:58 16.05.2020
3064 Clouds 12 1019 50 10000 2.6 210 22:39 16.05.2020
3065 Clouds 12 1019 54 10000 2.1 210 22:19 16.05.2020
3066 Clouds 13 1019 47 10000 3.1 230 21:45 16.05.2020
3067 Clouds 14 1019 47 10000 3.1 230 21:27 16.05.2020
3068 Clouds 14 1019 47 10000 4.6 240 20:58 16.05.2020
3069 Clouds 15 1019 44 10000 5.1 250 20:39 16.05.2020
3070 Clouds 15 1019 44 10000 4.1 230 20:21 16.05.2020
3071 Clouds 15 1019 44 10000 4.1 230 19:58 16.05.2020
3072 Clouds 15 1019 38 10000 4.1 280 19:39 16.05.2020
3073 Clouds 15 1019 41 10000 5.1 270 19:21 16.05.2020
3074 Clouds 16 1019 38 10000 5.7 260 18:42 16.05.2020
3075 Clouds 16 1019 38 10000 5.1 260 18:24 16.05.2020
3076 Clouds 16 1019 38 10000 5.1 260 17:57 16.05.2020
3077 Clouds 16 1020 41 10000 7.2 260 17:38 16.05.2020
3078 Clouds 15 1020 44 10000 7.2 250 17:19 16.05.2020
3079 Clouds 16 1020 41 10000 7.7 240 16:41 16.05.2020
3080 Clouds 16 1020 41 10000 7.2 260 16:22 16.05.2020
3081 Clouds 16 1020 41 10000 7.7 260 15:58 16.05.2020
3082 Clouds 16 1020 41 10000 7.7 260 15:39 16.05.2020
3083 Clouds 16 1020 41 10000 7.7 260 15:19 16.05.2020
3084 Clouds 15 1021 44 10000 6.7 270 14:48 16.05.2020
3085 Clouds 16 1021 44 10000 6.7 270 14:21 16.05.2020
3086 Clouds 15 1021 41 10000 7.7 250 13:59 16.05.2020
3087 Clouds 15 1021 41 10000 7.7 250 13:59 16.05.2020
3088 Clouds 15 1021 44 10000 6.7 260 13:40 16.05.2020
3089 Clouds 15 1021 44 10000 6.7 260 13:22 16.05.2020
3090 Clouds 15 1021 44 10000 6.2 280 12:55 16.05.2020
3091 Clouds 14 1021 44 10000 7.2 260 12:37 16.05.2020
3092 Clouds 14 1021 44 10000 7.2 260 12:18 16.05.2020
3093 Clouds 13 1021 50 10000 6.2 280 11:39 16.05.2020
3094 Clouds 13 1021 50 10000 6.2 290 11:20 16.05.2020
3095 Clouds 13 1021 50 10000 6.2 290 10:56 16.05.2020
3096 Clouds 13 1021 57 10000 6.2 270 10:37 16.05.2020
3097 Clouds 12 1021 57 10000 6.7 280 10:19 16.05.2020
3098 Clouds 12 1021 62 10000 5.1 270 09:45 16.05.2020
3099 Clouds 11 1021 62 10000 5.1 270 09:27 16.05.2020
3100 Clouds 10 1021 66 10000 5.1 270 08:46 16.05.2020
3101 Clouds 10 1021 66 10000 5.1 270 08:23 16.05.2020
3102 Clouds 10 1021 66 10000 5.1 270 07:58 16.05.2020
3103 Clouds 9 1021 70 10000 4.6 280 07:40 16.05.2020
3104 Clouds 9 1021 75 10000 5.1 270 07:21 16.05.2020
3105 Clouds 9 1020 75 10000 3.6 260 06:46 16.05.2020
3106 Clear 9 1020 75 10000 3.1 280 06:19 16.05.2020
3107 Clear 8 1020 70 10000 3.1 260 05:41 16.05.2020
3108 Clear 9 1020 70 10000 4.1 280 04:53 16.05.2020
3109 Clear 9 1020 75 10000 3.1 270 03:26 16.05.2020
3110 Clear 9 1020 70 10000 3.1 290 02:42 16.05.2020
3111 Clouds 10 1020 66 10000 3.6 290 02:18 16.05.2020
3112 Clouds 10 1020 66 10000 3.6 280 01:39 16.05.2020
3113 Clouds 10 1020 66 10000 4.1 270 00:57 16.05.2020
3114 Clouds 10 1020 61 10000 3.6 260 00:39 16.05.2020
3115 Clouds 11 1020 61 10000 4.1 280 00:19 16.05.2020
3116 Clouds 11 1020 57 10000 4.1 280 23:39 15.05.2020
3117 Clouds 11 1020 57 10000 4.1 280 23:19 15.05.2020
3118 Clouds 11 1019 57 10000 4.1 280 22:42 15.05.2020
3119 Clouds 11 1019 57 10000 3.6 280 22:21 15.05.2020
3120 Clouds 11 1019 57 10000 3.6 280 21:57 15.05.2020
3121 Clouds 11 1019 57 10000 4.1 290 21:39 15.05.2020
3122 Clouds 12 1019 57 10000 5.1 310 21:21 15.05.2020
3123 Clouds 12 1019 57 10000 5.1 310 20:56 15.05.2020
3124 Clouds 12 1018 58 10000 6.2 310 20:38 15.05.2020
3125 Clouds 13 1018 58 10000 6.2 310 20:19 15.05.2020
3126 Clouds 14 1018 44 10000 5.1 300 19:44 15.05.2020
3127 Clouds 14 1018 44 10000 5.1 300 19:44 15.05.2020
3128 Clouds 14 1018 44 10000 5.1 300 19:24 15.05.2020
3129 Clouds 14 1018 44 10000 4.1 300 18:59 15.05.2020
3130 Clouds 15 1018 41 10000 4.6 290 18:39 15.05.2020
3131 Clouds 15 1018 41 10000 4.6 290 18:21 15.05.2020
3132 Clear 15 1017 45 10000 6.2 280 17:39 15.05.2020
3133 Clear 15 1017 45 10000 6.2 280 17:39 15.05.2020
3134 Clouds 16 1018 38 10000 6.7 280 17:19 15.05.2020
3135 Clouds 15 1018 42 10000 6.2 270 16:57 15.05.2020
3136 Clouds 15 1018 42 10000 6.2 270 16:38 15.05.2020
3137 Clouds 16 1018 38 10000 5.1 290 16:19 15.05.2020
3138 Clouds 15 1018 42 10000 5.1 280 15:42 15.05.2020
3139 Clouds 15 1017 41 10000 4.6 280 15:23 15.05.2020
3140 Clouds 15 1017 41 10000 4.6 280 14:59 15.05.2020
3141 Clouds 15 1017 38 10000 4.6 310 14:41 15.05.2020
3142 Clear 15 1017 38 10000 4.6 310 14:23 15.05.2020
3143 Clear 15 1017 42 10000 4.6 310 13:58 15.05.2020
3144 Clear 15 1018 40 10000 5.1 310 13:39 15.05.2020
3145 Clear 15 1018 40 10000 5.1 310 13:19 15.05.2020
3146 Clear 14 1018 40 10000 4.1 330 12:39 15.05.2020
3147 Clear 13 1018 40 10000 5.1 310 12:18 15.05.2020
3148 Clear 14 1018 40 10000 5.1 310 11:57 15.05.2020
3149 Clear 13 1018 41 10000 3.6 300 11:38 15.05.2020
3150 Clear 13 1018 41 10000 3.6 300 11:20 15.05.2020
3151 Clear 13 1018 41 10000 3.1 300 10:58 15.05.2020
3152 Clear 13 1018 40 10000 2.6 0 10:39 15.05.2020
3153 Clear 13 1018 40 10000 2.6 260 10:20 15.05.2020
3154 Clear 13 1018 40 10000 2.6 260 09:58 15.05.2020
3155 Clear 10 1019 39 10000 1.5 0 09:37 15.05.2020
3156 Clear 11 1019 49 10000 1 0 09:18 15.05.2020
3157 Clear 10 1019 49 10000 1 0 08:54 15.05.2020
3158 Clear 10 1019 49 10000 0.5 0 08:36 15.05.2020
3159 Clear 10 1019 65 10000 0.5 0 08:18 15.05.2020
3160 Clear 8 1019 70 10000 0.5 0 07:42 15.05.2020
3161 Clear 8 1019 70 10000 0.5 0 07:42 15.05.2020
3162 Clear 7 1019 70 10000 0.5 0 07:23 15.05.2020
3163 Clear 4 1018 70 10000 1 330 06:35 15.05.2020
3164 Clear 3 1018 86 10000 1 340 05:40 15.05.2020
3165 Clear 3 1018 80 10000 0.96 52 04:25 15.05.2020
3166 Clear 4 1018 70 10000 0.5 350 03:40 15.05.2020
3167 Clear 4 1019 74 10000 0.5 250 02:26 15.05.2020
3168 Clear 7 1019 56 10000 1 0 01:19 15.05.2020
3169 Clear 7 1019 52 10000 1 0 00:45 15.05.2020
3170 Clear 8 1019 52 10000 1 0 00:26 15.05.2020
3171 Clear 9 1019 49 10000 2.1 40 23:43 14.05.2020
3172 Clear 8 1019 49 10000 2.1 40 23:21 14.05.2020
3173 Clear 9 1019 49 10000 2.1 30 22:57 14.05.2020
3174 Clear 9 1019 46 10000 2.6 360 22:39 14.05.2020
3175 Clear 9 1019 46 10000 2.1 10 22:19 14.05.2020
3176 Clear 10 1018 43 10000 2.1 350 21:56 14.05.2020
3177 Clear 11 1018 43 10000 2.1 350 21:37 14.05.2020
3178 Clouds 11 1018 40 10000 2.6 10 21:19 14.05.2020
3179 Clouds 12 1018 37 10000 3.1 350 20:42 14.05.2020
3180 Clouds 12 1018 37 10000 3.1 350 20:21 14.05.2020
3181 Clouds 12 1018 37 10000 4.1 350 19:59 14.05.2020
3182 Clouds 13 1017 37 10000 3.1 340 19:40 14.05.2020
3183 Clouds 13 1017 33 10000 3.1 320 19:20 14.05.2020
3184 Clouds 13 1017 33 10000 3.1 320 18:58 14.05.2020
3185 Clouds 14 1018 35 10000 4.1 360 18:38 14.05.2020
3186 Clouds 14 1018 35 10000 3.1 280 18:20 14.05.2020
3187 Clouds 14 1018 35 10000 3.1 280 17:59 14.05.2020
3188 Clouds 14 1018 35 10000 3.6 300 17:37 14.05.2020
3189 Clouds 14 1018 35 10000 3.6 300 17:37 14.05.2020
3190 Clouds 14 1018 42 10000 4.6 280 17:19 14.05.2020
3191 Clouds 14 1018 42 10000 4.6 280 16:57 14.05.2020
3192 Clouds 14 1018 42 10000 4.6 310 16:38 14.05.2020
3193 Clouds 14 1018 38 10000 5.1 290 16:19 14.05.2020
3194 Clouds 14 1018 38 10000 5.1 290 15:56 14.05.2020
3195 Clouds 14 1018 38 10000 4.1 320 15:38 14.05.2020
3196 Clear 14 1018 37 10000 4.1 310 15:19 14.05.2020
3197 Clear 14 1018 37 10000 4.1 310 14:55 14.05.2020
3198 Clear 14 1018 35 10000 4.1 300 14:36 14.05.2020
3199 Clouds 14 1018 38 10000 3.1 0 14:18 14.05.2020
3200 Clouds 14 1018 43 10000 3.6 0 13:44 14.05.2020
3201 Clouds 13 1018 46 10000 2.6 330 13:20 14.05.2020
3202 Clouds 13 1018 46 10000 2.6 330 12:59 14.05.2020
3203 Clouds 13 1018 50 10000 2.1 0 12:40 14.05.2020
3204 Clouds 11 1018 50 10000 2.1 0 12:21 14.05.2020
3205 Clouds 11 1018 57 10000 2.6 0 11:59 14.05.2020
3206 Clouds 10 1018 61 10000 3.1 340 11:40 14.05.2020
3207 Rain 10 1017 57 10000 3.6 10 11:22 14.05.2020
3208 Rain 10 1017 57 10000 3.6 10 10:58 14.05.2020
3209 Rain 10 1017 57 10000 4.6 340 10:39 14.05.2020
3210 Rain 10 1017 57 10000 4.6 340 10:21 14.05.2020
3211 Clouds 10 1016 70 10000 2.6 360 09:43 14.05.2020
3212 Clouds 9 1016 70 10000 2.6 360 09:23 14.05.2020
3213 Clouds 9 1016 70 10000 2.6 360 08:56 14.05.2020
3214 Clouds 9 1016 70 10000 3.6 30 08:36 14.05.2020
3215 Clouds 9 1015 75 10000 2.6 0 08:18 14.05.2020
3216 Clouds 8 1015 81 10000 2.1 10 07:43 14.05.2020
3217 Clouds 7 1015 87 10000 2.1 10 07:20 14.05.2020
3218 Clouds 7 1014 81 10000 2.6 360 06:43 14.05.2020
3219 Clouds 7 1014 87 10000 2.6 20 06:23 14.05.2020
3220 Clouds 7 1014 87 10000 2.6 20 05:37 14.05.2020
3221 Clouds 7 1013 87 10000 2.1 40 04:45 14.05.2020
3222 Clouds 7 1013 81 10000 2.6 10 03:37 14.05.2020
3223 Clouds 7 1012 81 10000 2.1 30 02:57 14.05.2020
3224 Clouds 7 1012 81 10000 2.1 30 02:57 14.05.2020
3225 Clouds 7 1012 81 10000 2.1 70 02:34 14.05.2020
3226 Clouds 8 1012 81 10000 2.6 30 01:48 14.05.2020
3227 Clouds 8 1012 75 10000 2.6 30 00:53 14.05.2020
3228 Clouds 9 1012 81 10000 2.6 40 00:27 14.05.2020
3229 Clouds 9 1012 66 10000 4.1 20 23:45 13.05.2020
3230 Clouds 10 1011 50 10000 1.5 20 23:24 13.05.2020
3231 Clouds 9 1011 50 10000 1.5 20 22:59 13.05.2020
3232 Clouds 10 1011 46 10000 2.1 40 22:41 13.05.2020
3233 Clouds 10 1011 46 10000 2.1 40 22:22 13.05.2020
3234 Clouds 11 1011 46 10000 2.1 50 21:58 13.05.2020
3235 Clouds 11 1011 46 10000 2.1 50 21:58 13.05.2020
3236 Clouds 11 1011 63 10000 2.6 50 21:39 13.05.2020
3237 Clouds 12 1011 43 10000 3.1 30 21:19 13.05.2020
3238 Clouds 13 1011 43 10000 3.1 30 20:55 13.05.2020
3239 Clouds 12 1010 61 10000 0.5 20 20:37 13.05.2020
3240 Clouds 13 1010 41 10000 1.5 330 20:19 13.05.2020
3241 Clouds 14 1010 38 10000 1.5 250 19:41 13.05.2020
3242 Clouds 14 1011 43 10000 1.5 310 19:23 13.05.2020
3243 Clouds 14 1011 42 10000 2.6 260 18:44 13.05.2020
3244 Clouds 14 1011 39 10000 2.6 260 18:22 13.05.2020
3245 Clouds 15 1011 41 10000 1.5 220 17:58 13.05.2020
3246 Clouds 15 1011 41 10000 2.6 310 17:38 13.05.2020
3247 Clouds 15 1011 41 10000 2.6 270 17:18 13.05.2020
3248 Clouds 15 1011 41 10000 1.5 0 16:41 13.05.2020
3249 Clouds 15 1012 41 10000 3.1 0 16:20 13.05.2020
3250 Clouds 15 1012 41 10000 3.1 0 15:57 13.05.2020
3251 Clouds 14 1012 43 10000 3.6 290 15:39 13.05.2020
3252 Clouds 14 1012 43 10000 4.1 260 15:18 13.05.2020
3253 Clouds 14 1012 43 10000 4.1 260 14:55 13.05.2020
3254 Clouds 14 1012 43 10000 3.1 280 14:36 13.05.2020
3255 Clouds 14 1012 46 10000 3.6 270 14:18 13.05.2020
3256 Clouds 13 1012 46 10000 4.1 260 13:42 13.05.2020
3257 Clouds 13 1013 47 10000 4.6 210 13:22 13.05.2020
3258 Clouds 14 1013 47 10000 4.6 210 12:59 13.05.2020
3259 Clouds 13 1013 46 10000 5.7 250 12:41 13.05.2020
3260 Clouds 12 1013 46 10000 5.1 270 12:21 13.05.2020
3261 Clouds 12 1013 46 10000 5.1 270 11:56 13.05.2020
3262 Clouds 12 1013 50 10000 4.6 260 11:38 13.05.2020
3263 Clouds 12 1013 53 10000 4.6 250 11:20 13.05.2020
3264 Clouds 12 1013 53 10000 4.6 250 10:58 13.05.2020
3265 Clouds 11 1013 61 10000 4.1 220 10:38 13.05.2020
3266 Clouds 11 1013 61 10000 3.1 230 10:19 13.05.2020
3267 Clouds 10 1013 61 10000 3.1 230 09:56 13.05.2020
3268 Clouds 9 1013 66 10000 3.6 270 09:38 13.05.2020
3269 Clouds 8 1013 75 10000 2.1 250 09:19 13.05.2020
3270 Clouds 8 1013 81 10000 1.5 230 08:40 13.05.2020
3271 Rain 7 1013 81 10000 2.6 210 08:21 13.05.2020
3272 Rain 7 1013 81 10000 2.6 210 07:56 13.05.2020
3273 Rain 6 1013 81 10000 2.6 240 07:34 13.05.2020
3274 Rain 7 1013 75 10000 2.6 260 06:55 13.05.2020
3275 Rain 6 1013 75 10000 3.1 260 06:35 13.05.2020
3276 Clouds 6 1013 70 10000 2.1 240 05:48 13.05.2020
3277 Clouds 7 1013 70 10000 2.1 220 04:21 13.05.2020
3278 Clouds 7 1013 75 10000 1.5 210 02:43 13.05.2020
3279 Clouds 7 1013 75 10000 2.1 210 01:47 13.05.2020
3280 Clouds 7 1013 75 10000 2.1 210 01:20 13.05.2020
3281 Clouds 7 1014 65 10000 2.6 240 00:30 13.05.2020
3282 Clouds 8 1014 61 10000 3.1 260 23:59 12.05.2020
3283 Clouds 8 1014 57 10000 3.6 270 23:39 12.05.2020
3284 Clouds 9 1014 57 10000 4.1 240 23:20 12.05.2020
3285 Clouds 9 1014 57 10000 4.1 240 23:20 12.05.2020
3286 Clouds 9 1014 57 10000 4.1 240 22:55 12.05.2020
3287 Clouds 10 1014 53 10000 3.6 230 22:36 12.05.2020
3288 Clouds 10 1014 53 10000 3.6 230 22:18 12.05.2020
3289 Clouds 10 1014 68 10000 5.1 240 21:54 12.05.2020
3290 Clouds 10 1014 65 10000 4.6 240 21:36 12.05.2020
3291 Clouds 10 1014 65 10000 4.6 240 21:36 12.05.2020
3292 Clouds 10 1014 65 10000 4.6 240 21:18 12.05.2020
3293 Clouds 10 1014 65 10000 4.6 240 20:55 12.05.2020
3294 Clouds 10 1014 56 10000 6.2 240 20:36 12.05.2020
3295 Clouds 11 1014 56 10000 5.7 240 20:18 12.05.2020
3296 Clouds 11 1014 53 10000 6.2 240 19:41 12.05.2020
3297 Clouds 11 1014 53 10000 6.2 240 19:23 12.05.2020
3298 Clouds 11 1014 47 10000 7.2 260 18:58 12.05.2020
3299 Clouds 12 1015 50 10000 6.2 250 18:40 12.05.2020
3300 Clouds 12 1015 50 10000 6.2 250 18:21 12.05.2020
3301 Clouds 12 1015 43 10000 6.7 250 17:54 12.05.2020
3302 Clouds 12 1015 42 10000 5.7 260 17:36 12.05.2020
3303 Clouds 12 1015 50 10000 6.2 250 17:18 12.05.2020
3304 Clouds 12 1016 42 10000 7.7 260 16:42 12.05.2020
3305 Clouds 11 1016 42 10000 7.7 260 16:20 12.05.2020
3306 Clouds 11 1016 53 10000 7.7 250 15:55 12.05.2020
3307 Clouds 11 1016 57 10000 7.2 260 15:36 12.05.2020
3308 Clouds 10 1016 57 10000 7.2 260 15:18 12.05.2020
3309 Rain 10 1016 57 10000 6.7 250 14:54 12.05.2020
3310 Clouds 10 1016 53 10000 7.7 260 14:36 12.05.2020
3311 Clouds 10 1016 47 10000 7.2 240 14:18 12.05.2020
3312 Clouds 10 1016 47 10000 7.2 240 13:54 12.05.2020
3313 Rain 10 1016 57 0 7.15 261 13:36 12.05.2020
3314 Rain 10 1016 58 0 5.82 274 13:18 12.05.2020
3315 Rain 10 1016 61 0 5.82 274 12:55 12.05.2020
3316 Rain 10 1016 62 0 5.82 274 12:37 12.05.2020
3317 Rain 10 1016 59 0 5.28 277 12:18 12.05.2020
3318 Clouds 10 1016 66 10000 5.7 250 11:56 12.05.2020
3319 Clouds 10 1016 66 10000 5.7 250 11:37 12.05.2020
3320 Clouds 10 1016 66 10000 5.7 250 11:19 12.05.2020
3321 Clouds 10 1016 66 10000 5.7 250 10:55 12.05.2020
3322 Clouds 10 1016 66 10000 5.7 250 10:55 12.05.2020
3323 Clouds 9 1016 70 10000 3.6 270 10:36 12.05.2020
3324 Clouds 9 1016 70 10000 4.1 240 10:18 12.05.2020
3325 Clouds 8 1016 70 10000 4.1 240 09:55 12.05.2020
3326 Clear 6 1016 70 10000 3.6 260 09:37 12.05.2020
3327 Clear 5 1016 62 10000 4.6 260 09:19 12.05.2020
3328 Clear 6 1015 62 10000 4.1 250 08:39 12.05.2020
3329 Clear 5 1015 69 10000 4.1 250 08:21 12.05.2020
3330 Clear 4 1015 74 10000 3.6 260 07:45 12.05.2020
3331 Clear 4 1015 74 10000 3.6 260 07:27 12.05.2020
3332 Clear 3 1015 74 10000 1.5 260 06:56 12.05.2020
3333 Clear 2 1015 81 10000 1.5 260 06:37 12.05.2020
3334 Clear 2 1014 80 10000 3.6 290 06:19 12.05.2020
3335 Clear 2 1014 80 10000 3.1 280 05:45 12.05.2020
3336 Clear 3 1013 69 10000 2.6 310 03:53 12.05.2020
3337 Clear 3 1013 74 10000 4.1 290 03:18 12.05.2020
3338 Clouds 3 1013 80 10000 3.1 280 02:27 12.05.2020
3339 Clouds 3 1012 73 10000 2.6 260 01:35 12.05.2020
3340 Clouds 3 1012 69 10000 2.1 290 00:58 12.05.2020
3341 Clouds 4 1012 69 10000 1.5 320 00:24 12.05.2020
3342 Clouds 4 1011 64 10000 2.6 310 23:57 11.05.2020
3343 Clouds 5 1011 69 10000 2.1 310 23:37 11.05.2020
3344 Clouds 5 1011 69 10000 2.6 320 23:19 11.05.2020
3345 Clouds 5 1011 69 10000 2.6 320 22:56 11.05.2020
3346 Clouds 5 1011 69 10000 2.6 320 22:56 11.05.2020
3347 Clouds 5 1010 86 10000 1.5 310 22:38 11.05.2020
3348 Clouds 5 1010 80 10000 1 0 22:19 11.05.2020
3349 Clouds 5 1010 80 10000 1 0 21:55 11.05.2020
3350 Clouds 6 1009 75 10000 2.1 340 21:55 11.05.2020
3351 Clouds 6 1009 75 10000 2.1 340 21:36 11.05.2020
3352 Clouds 6 1009 75 10000 2.1 340 21:18 11.05.2020
3353 Clouds 6 1009 75 10000 2.1 340 20:54 11.05.2020
3354 Clouds 6 1009 87 10000 2.1 340 20:36 11.05.2020
3355 Clouds 6 1009 81 10000 3.1 360 20:18 11.05.2020
3356 Clouds 6 1008 87 10000 4.6 360 19:41 11.05.2020
3357 Clouds 6 1008 87 10000 4.6 360 19:22 11.05.2020
3358 Rain 6 1008 87 10000 3.1 360 18:58 11.05.2020
3359 Rain 6 1008 87 10000 4.1 20 18:39 11.05.2020
3360 Rain 6 1008 87 10000 4.6 10 18:20 11.05.2020
3361 Rain 6 1008 93 10000 6.2 350 17:58 11.05.2020
3362 Rain 6 1008 93 10000 6.2 350 17:40 11.05.2020
3363 Rain 6 1008 93 10000 6.2 350 17:40 11.05.2020
3364 Rain 6 1007 93 10000 4.1 360 17:21 11.05.2020
3365 Rain 6 1007 93 10000 4.1 360 16:58 11.05.2020
3366 Rain 7 1007 93 10000 5.1 10 16:38 11.05.2020
3367 Rain 7 1007 93 10000 4.1 350 16:20 11.05.2020
3368 Rain 7 1007 93 10000 4.1 350 15:54 11.05.2020
3369 Rain 7 1007 93 9000 3.6 350 15:36 11.05.2020
3370 Rain 7 1007 93 10000 3.6 350 15:18 11.05.2020
3371 Rain 7 1007 87 10000 3.6 360 14:41 11.05.2020
3372 Rain 7 1007 87 10000 3.6 360 14:22 11.05.2020
3373 Rain 7 1007 93 9000 4.6 360 13:59 11.05.2020
3374 Drizzle 7 1007 87 10000 4.6 350 13:40 11.05.2020
3375 Rain 7 1006 87 10000 7.2 350 13:18 11.05.2020
3376 Rain 7 1006 87 10000 7.2 350 13:18 11.05.2020
3377 Rain 7 1006 87 10000 7.2 350 13:18 11.05.2020
3378 Rain 7 1006 87 10000 7.2 350 12:56 11.05.2020
3379 Rain 7 1007 93 9000 5.1 360 12:38 11.05.2020
3380 Drizzle 7 1007 93 9000 5.1 360 12:19 11.05.2020
3381 Rain 8 1007 93 8000 3.1 360 11:55 11.05.2020
3382 Rain 8 1006 93 7000 3.6 360 11:37 11.05.2020
3383 Drizzle 8 1006 93 9000 3.1 10 11:18 11.05.2020
3384 Rain 8 1006 93 9000 3.1 10 10:54 11.05.2020
3385 Rain 8 1006 87 10000 4.6 350 10:36 11.05.2020
3386 Rain 8 1006 93 10000 3.6 350 10:18 11.05.2020
3387 Drizzle 8 1006 93 10000 4.1 350 09:42 11.05.2020
3388 Drizzle 8 1006 87 10000 4.1 330 09:20 11.05.2020
3389 Drizzle 8 1006 87 10000 4.1 330 08:57 11.05.2020
3390 Rain 8 1006 75 10000 4.1 330 08:38 11.05.2020
3391 Clouds 9 1005 66 10000 4.6 340 08:18 11.05.2020
3392 Clouds 9 1005 66 10000 4.6 340 07:50 11.05.2020
3393 Clouds 9 1005 70 10000 4.6 340 07:31 11.05.2020
3394 Clouds 9 1005 70 10000 4.1 360 06:52 11.05.2020
3395 Clouds 9 1005 76 10000 4.6 350 06:18 11.05.2020
3396 Clouds 10 1004 81 10000 4.6 350 05:30 11.05.2020
3397 Rain 10 1004 87 10000 3.6 330 04:43 11.05.2020
3398 Clouds 13 1003 87 10000 5.7 340 03:35 11.05.2020
3399 Clouds 15 1003 87 10000 3.1 330 02:34 11.05.2020
3400 Clouds 16 1003 87 10000 1.5 320 01:46 11.05.2020
3401 Clouds 16 1003 93 10000 1.5 300 00:54 11.05.2020
3402 Clouds 16 1003 93 10000 1.5 250 00:22 11.05.2020
3403 Clouds 16 1003 93 10000 1.5 240 23:45 10.05.2020
3404 Clouds 16 1003 93 10000 1.5 240 23:26 10.05.2020
3405 Clouds 16 1003 88 10000 0.5 0 22:59 10.05.2020
3406 Clouds 16 1003 88 10000 0.5 330 22:41 10.05.2020
3407 Clouds 17 1003 88 10000 1 0 22:23 10.05.2020
3408 Clouds 17 1003 88 10000 1 0 21:46 10.05.2020
3409 Clouds 18 1003 88 10000 1.5 340 21:21 10.05.2020
3410 Clouds 18 1003 88 10000 1.5 340 20:59 10.05.2020
3411 Rain 18 1003 88 10000 2.6 350 20:41 10.05.2020
3412 Rain 18 1003 88 10000 2.6 350 20:23 10.05.2020
3413 Rain 19 1003 82 10000 3.6 280 19:56 10.05.2020
3414 Rain 18 1003 82 10000 3.6 280 19:38 10.05.2020
3415 Rain 18 1003 82 10000 3.6 280 19:20 10.05.2020
3416 Rain 21 1003 68 10000 2.1 330 18:54 10.05.2020
3417 Rain 23 1003 46 10000 1 0 18:36 10.05.2020
3418 Clouds 23 1003 43 10000 2.6 210 18:18 10.05.2020
3419 Clouds 23 1003 43 10000 2.6 210 17:57 10.05.2020
3420 Clouds 24 1003 41 10000 2.6 200 17:37 10.05.2020
3421 Clouds 24 1003 41 10000 2.6 200 17:19 10.05.2020
3422 Rain 24 1004 41 10000 2.6 190 16:43 10.05.2020
3423 Rain 24 1004 41 10000 2.6 190 16:21 10.05.2020
3424 Rain 24 1004 41 10000 3.1 140 15:58 10.05.2020
3425 Rain 23 1004 40 10000 4.1 140 15:39 10.05.2020
3426 Rain 24 1004 38 10000 3.1 150 15:21 10.05.2020
3427 Rain 24 1004 38 10000 3.1 150 14:56 10.05.2020
3428 Rain 24 1005 40 10000 4.6 150 14:37 10.05.2020
3429 Rain 24 1005 40 10000 4.6 150 14:19 10.05.2020
3430 Rain 24 1005 40 10000 4.6 160 13:57 10.05.2020
3431 Rain 24 1005 38 10000 3.1 150 13:37 10.05.2020
3432 Rain 23 1005 38 10000 3.1 100 13:18 10.05.2020
3433 Rain 23 1005 38 10000 3.1 100 12:56 10.05.2020
3434 Rain 23 1006 40 10000 3.6 120 12:37 10.05.2020
3435 Clouds 22 1006 37 10000 4.6 120 12:19 10.05.2020
3436 Clouds 21 1006 37 10000 4.6 120 11:54 10.05.2020
3437 Clouds 22 1006 37 10000 4.6 120 11:36 10.05.2020
3438 Clouds 21 1007 37 10000 4.1 140 11:18 10.05.2020
3439 Clouds 21 1007 37 10000 4.1 100 10:42 10.05.2020
3440 Clouds 21 1007 37 10000 4.1 100 10:24 10.05.2020
3441 Clouds 19 1007 48 10000 5.1 120 09:43 10.05.2020
3442 Clouds 17 1007 48 10000 5.1 120 09:24 10.05.2020
3443 Clouds 17 1007 48 10000 5.7 110 08:59 10.05.2020
3444 Clouds 16 1008 48 10000 3.6 110 08:41 10.05.2020
3445 Clouds 16 1008 48 10000 3.6 110 08:22 10.05.2020
3446 Clouds 14 1008 66 10000 2.1 90 07:43 10.05.2020
3447 Clear 13 1008 71 10000 2.6 70 07:19 10.05.2020
3448 Clear 12 1009 76 10000 1.5 70 06:51 10.05.2020
3449 Clear 12 1009 76 10000 1.5 70 06:29 10.05.2020
3450 Clear 12 1009 76 10000 2.1 60 05:48 10.05.2020
3451 Clear 12 1010 71 10000 1.5 70 04:49 10.05.2020
3452 Clear 13 1010 71 10000 1.5 70 04:29 10.05.2020
3453 Clear 13 1010 66 10000 2.1 70 03:52 10.05.2020
3454 Clear 13 1010 66 10000 2.6 70 03:31 10.05.2020
3455 Clear 14 1010 62 10000 2.6 80 02:41 10.05.2020
3456 Clouds 14 1011 58 10000 2.6 70 02:18 10.05.2020
3457 Clouds 15 1011 58 10000 2.6 70 01:41 10.05.2020
3458 Clouds 15 1011 58 10000 2.6 70 01:19 10.05.2020
3459 Clouds 15 1011 55 10000 2.1 70 00:54 10.05.2020
3460 Clouds 16 1011 55 10000 2.1 70 00:24 10.05.2020
3461 Clouds 16 1011 55 10000 2.1 80 23:58 09.05.2020
3462 Clouds 16 1011 51 10000 2.1 70 23:39 09.05.2020
3463 Clouds 16 1011 51 10000 2.1 70 23:20 09.05.2020
3464 Clouds 17 1012 45 10000 2.1 60 22:42 09.05.2020
3465 Clouds 17 1012 45 10000 2.1 60 22:24 09.05.2020
3466 Clouds 17 1012 42 10000 2.1 60 21:58 09.05.2020
3467 Clear 18 1012 37 10000 2.1 70 21:40 09.05.2020
3468 Clear 19 1012 35 10000 2.6 80 21:21 09.05.2020
3469 Clear 20 1012 35 10000 2.6 80 20:58 09.05.2020
3470 Clear 20 1012 40 10000 3.6 60 20:38 09.05.2020
3471 Clouds 21 1012 33 10000 3.1 60 20:20 09.05.2020
3472 Clouds 21 1012 33 10000 3.1 60 19:56 09.05.2020
3473 Clouds 22 1012 33 10000 4.1 50 19:38 09.05.2020
3474 Clouds 22 1012 33 10000 4.1 50 19:19 09.05.2020
3475 Clouds 23 1012 31 10000 2.6 0 18:44 09.05.2020
3476 Clouds 23 1013 28 10000 3.1 50 18:26 09.05.2020
3477 Clouds 23 1012 31 10000 2.6 0 18:26 09.05.2020
3478 Clouds 23 1013 28 10000 3.1 50 17:56 09.05.2020
3479 Clouds 23 1013 31 10000 3.1 60 17:36 09.05.2020
3480 Clouds 23 1013 31 10000 3.1 60 17:18 09.05.2020
3481 Clouds 23 1013 33 10000 3.1 120 16:41 09.05.2020
3482 Clouds 23 1014 31 10000 2.6 0 16:20 09.05.2020
3483 Clouds 23 1014 33 10000 2.6 0 15:45 09.05.2020
3484 Clear 22 1014 33 10000 2.6 0 15:26 09.05.2020
3485 Clear 22 1014 35 10000 2.6 0 14:59 09.05.2020
3486 Clear 22 1015 35 10000 2.6 0 14:40 09.05.2020
3487 Clouds 22 1015 35 10000 2.6 0 14:19 09.05.2020
3488 Clouds 23 1015 37 10000 2.1 80 13:58 09.05.2020
3489 Clouds 22 1015 37 10000 2.1 0 13:40 09.05.2020
3490 Clouds 22 1015 37 10000 2.1 0 13:20 09.05.2020
3491 Clouds 22 1016 40 10000 2.1 0 12:42 09.05.2020
3492 Clouds 21 1016 40 10000 2.1 0 12:22 09.05.2020
3493 Clouds 20 1016 40 10000 1.5 0 11:58 09.05.2020
3494 Clouds 20 1016 40 10000 1.5 0 11:40 09.05.2020
3495 Clouds 20 1016 42 10000 2.6 0 11:18 09.05.2020
3496 Clouds 20 1016 42 10000 2.6 0 10:47 09.05.2020
3497 Clouds 19 1016 39 10000 2.1 0 10:25 09.05.2020
3498 Clouds 19 1016 39 10000 2.1 0 09:58 09.05.2020
3499 Clouds 18 1017 39 10000 1 0 09:39 09.05.2020
3500 Clouds 16 1017 39 10000 1 0 09:19 09.05.2020
3501 Clouds 16 1017 39 10000 1 0 08:51 09.05.2020
3502 Clouds 16 1017 48 10000 0.5 0 08:33 09.05.2020
3503 Clouds 14 1017 58 10000 0.5 0 07:54 09.05.2020
3504 Clouds 12 1017 66 10000 0.5 190 07:36 09.05.2020
3505 Clouds 11 1017 81 10000 0.91 109 07:18 09.05.2020
3506 Clouds 9 1017 87 10000 0.5 0 06:26 09.05.2020
3507 Clouds 9 1016 70 10000 0.5 0 05:49 09.05.2020
3508 Clouds 9 1017 70 10000 0.5 350 04:43 09.05.2020
3509 Clouds 10 1017 70 10000 0.5 0 03:38 09.05.2020
3510 Clouds 10 1017 61 10000 0.5 200 02:50 09.05.2020
3511 Clouds 11 1017 57 10000 0.76 102 01:54 09.05.2020
3512 Clouds 11 1017 57 10000 0.5 160 01:26 09.05.2020
3513 Clouds 11 1017 53 10000 1 210 00:59 09.05.2020
3514 Clouds 12 1017 50 10000 0.5 100 00:38 09.05.2020
3515 Clouds 12 1017 61 10000 1 0 23:58 08.05.2020
3516 Clouds 13 1017 35 10000 1.5 360 23:39 08.05.2020
3517 Clouds 14 1017 33 10000 2.1 360 23:20 08.05.2020
3518 Clouds 15 1017 33 10000 2.1 360 22:55 08.05.2020
3519 Clouds 15 1017 31 10000 1.5 10 22:36 08.05.2020
3520 Clouds 15 1017 36 10000 1.5 360 22:18 08.05.2020
3521 Clouds 16 1017 36 10000 1.5 360 21:54 08.05.2020
3522 Clouds 16 1016 33 10000 1.5 320 21:36 08.05.2020
3523 Clouds 17 1016 31 10000 2.1 320 21:18 08.05.2020
3524 Clouds 18 1016 31 10000 2.1 320 20:55 08.05.2020
3525 Clouds 18 1016 29 10000 3.1 310 20:36 08.05.2020
3526 Clouds 19 1016 29 10000 3.1 310 20:18 08.05.2020
3527 Clouds 20 1016 41 10000 3.6 320 19:41 08.05.2020
3528 Clouds 20 1016 41 10000 3.6 320 19:20 08.05.2020
3529 Clouds 20 1016 28 10000 3.6 310 18:45 08.05.2020
3530 Clouds 21 1016 28 10000 3.6 310 18:27 08.05.2020
3531 Clouds 21 1016 21 10000 5.1 320 17:43 08.05.2020
3532 Clouds 21 1016 38 10000 4.1 310 17:20 08.05.2020
3533 Clouds 21 1016 38 10000 4.1 310 16:56 08.05.2020
3534 Clouds 21 1016 28 10000 5.1 290 16:38 08.05.2020
3535 Clouds 22 1016 28 10000 4.1 320 16:19 08.05.2020
3536 Clouds 22 1016 26 10000 5.7 310 15:43 08.05.2020
3537 Clouds 21 1016 26 10000 5.7 310 15:22 08.05.2020
3538 Clouds 21 1017 30 10000 4.6 280 14:58 08.05.2020
3539 Clouds 21 1017 32 10000 5.1 300 14:40 08.05.2020
3540 Clouds 21 1017 34 10000 4.6 300 14:20 08.05.2020
3541 Clouds 21 1017 34 10000 4.6 300 13:57 08.05.2020
3542 Clouds 20 1017 30 10000 5.1 260 13:39 08.05.2020
3543 Clouds 20 1017 32 10000 4.6 270 13:19 08.05.2020
3544 Clouds 20 1017 37 10000 4.6 260 12:45 08.05.2020
3545 Clouds 18 1017 39 10000 3.6 270 12:23 08.05.2020
3546 Clouds 18 1018 42 10000 3.6 260 11:55 08.05.2020
3547 Clouds 18 1018 42 10000 3.6 260 11:37 08.05.2020
3548 Clouds 18 1018 48 10000 2.6 270 11:18 08.05.2020
3549 Clouds 18 1018 55 10000 1.5 200 10:45 08.05.2020
3550 Clouds 17 1018 55 10000 1 0 10:22 08.05.2020
3551 Clouds 17 1018 55 10000 1 0 10:00 08.05.2020
3552 Clouds 16 1018 58 10000 1 0 09:40 08.05.2020
3553 Clouds 14 1018 62 10000 1 0 09:19 08.05.2020
3554 Clouds 11 1018 62 10000 0.5 0 08:51 08.05.2020
3555 Clouds 11 1019 71 0 1.35 282 08:25 08.05.2020
3556 Clouds 11 1018 62 10000 0.5 0 08:25 08.05.2020
3557 Clouds 11 1019 71 0 1.35 282 07:55 08.05.2020
3558 Clouds 10 1019 87 10000 1 330 07:37 08.05.2020
3559 Clouds 8 1018 93 10000 1.23 269 07:19 08.05.2020
3560 Clouds 8 1019 100 0 0.5 0 06:39 08.05.2020
3561 Clouds 7 1019 100 10000 0.5 0 06:20 08.05.2020
3562 Clouds 8 1019 100 10000 0.5 110 05:29 08.05.2020
3563 Clouds 9 1019 87 10000 1.45 253 03:21 08.05.2020
3564 Clouds 9 1019 87 10000 1.64 253 02:29 08.05.2020
3565 Clouds 9 1020 87 10000 0.5 0 01:40 08.05.2020
3566 Clouds 9 1020 87 10000 0.5 0 01:20 08.05.2020
3567 Clouds 10 1020 81 10000 0.5 0 00:47 08.05.2020
3568 Clouds 11 1020 81 10000 0.5 0 00:27 08.05.2020
3569 Clouds 11 1020 81 10000 0.5 0 23:57 07.05.2020
3570 Clouds 10 1020 76 10000 0.5 0 23:38 07.05.2020
3571 Clouds 10 1020 76 10000 0.5 0 23:20 07.05.2020
3572 Clouds 11 1020 71 10000 1 230 22:42 07.05.2020
3573 Clear 12 1020 66 10000 1.5 250 22:20 07.05.2020
3574 Clear 12 1020 66 10000 1.5 250 21:57 07.05.2020
3575 Clear 13 1020 62 10000 2.1 240 21:39 07.05.2020
3576 Clear 14 1020 62 10000 2.1 240 21:20 07.05.2020
3577 Clear 14 1020 58 10000 2.6 260 20:57 07.05.2020
3578 Clouds 15 1020 54 10000 3.1 260 20:38 07.05.2020
3579 Clouds 15 1020 51 10000 3.1 270 20:20 07.05.2020
3580 Clouds 15 1020 51 10000 3.1 270 20:20 07.05.2020
3581 Clouds 16 1021 51 10000 3.6 260 19:48 07.05.2020
3582 Clouds 16 1021 51 10000 3.6 260 19:23 07.05.2020
3583 Clouds 16 1021 45 10000 3.6 280 18:57 07.05.2020
3584 Clouds 16 1021 48 10000 4.1 270 18:38 07.05.2020
3585 Clouds 16 1021 48 10000 4.1 270 18:38 07.05.2020
3586 Clouds 16 1021 51 10000 3.6 280 18:20 07.05.2020
3587 Clouds 16 1021 48 10000 4.6 310 17:42 07.05.2020
3588 Clouds 16 1022 48 10000 3.6 300 17:21 07.05.2020
3589 Clouds 15 1022 51 10000 5.1 280 16:43 07.05.2020
3590 Clouds 16 1022 51 10000 4.6 280 16:20 07.05.2020
3591 Clouds 15 1022 51 10000 4.6 280 15:58 07.05.2020
3592 Clouds 15 1022 51 10000 4.6 280 15:58 07.05.2020
3593 Clouds 15 1022 54 10000 3.6 310 15:39 07.05.2020
3594 Clouds 14 1022 58 10000 3.6 300 15:19 07.05.2020
3595 Clouds 14 1022 58 10000 3.6 300 14:59 07.05.2020
3596 Clouds 14 1023 58 10000 4.1 290 14:41 07.05.2020
3597 Clouds 14 1023 62 10000 4.1 310 14:19 07.05.2020
3598 Clouds 13 1023 62 10000 4.1 290 13:43 07.05.2020
3599 Clouds 12 1023 62 10000 4.1 290 13:25 07.05.2020
3600 Clouds 12 1023 62 10000 4.1 290 13:25 07.05.2020
3601 Clouds 11 1023 66 10000 4.1 290 12:44 07.05.2020
3602 Clouds 11 1022 66 10000 4.6 290 12:20 07.05.2020
3603 Clouds 11 1022 66 10000 4.6 290 11:59 07.05.2020
3604 Clouds 11 1022 66 10000 4.1 290 11:39 07.05.2020
3605 Clouds 11 1022 66 10000 4.1 310 11:20 07.05.2020
3606 Clouds 10 1022 66 10000 5.1 300 10:42 07.05.2020
3607 Clouds 10 1022 76 10000 3.6 290 10:23 07.05.2020
3608 Clouds 10 1022 76 10000 4.1 280 09:41 07.05.2020
3609 Clouds 9 1022 76 10000 4.1 280 09:21 07.05.2020
3610 Clouds 9 1022 75 10000 4.1 290 08:59 07.05.2020
3611 Clouds 9 1022 75 10000 4.1 290 08:41 07.05.2020
3612 Clouds 9 1022 75 10000 4.1 290 08:21 07.05.2020
3613 Clouds 8 1022 75 10000 4.1 290 07:57 07.05.2020
3614 Clouds 8 1021 75 10000 4.1 280 07:39 07.05.2020
3615 Clouds 8 1021 75 10000 4.1 280 07:18 07.05.2020
3616 Clouds 8 1021 81 0 4.6 280 06:36 07.05.2020
3617 Clouds 7 1021 81 10000 3.6 290 05:40 07.05.2020
3618 Clouds 7 1022 81 10000 4.1 290 04:27 07.05.2020
3619 Clouds 7 1021 75 10000 4.1 290 03:29 07.05.2020
3620 Clouds 8 1021 75 10000 4.1 290 02:59 07.05.2020
3621 Clouds 8 1021 65 10000 4.1 290 02:24 07.05.2020
3622 Clouds 9 1021 61 10000 3.6 290 01:25 07.05.2020
3623 Clouds 10 1021 53 10000 3.6 300 00:51 07.05.2020
3624 Clouds 11 1021 53 10000 3.6 300 00:31 07.05.2020
3625 Clouds 11 1021 64 10000 3.6 300 23:58 06.05.2020
3626 Clouds 11 1020 64 0 3.6 300 23:38 06.05.2020
3627 Clouds 11 1020 64 0 3.6 300 23:19 06.05.2020
3628 Clouds 12 1020 64 10000 4.6 290 22:55 06.05.2020
3629 Clouds 12 1020 46 10000 4.6 290 22:37 06.05.2020
3630 Clouds 12 1020 46 10000 4.6 290 22:37 06.05.2020
3631 Clouds 12 1020 64 10000 3.6 290 22:18 06.05.2020
3632 Clouds 12 1020 64 10000 3.6 290 22:18 06.05.2020
3633 Clouds 13 1020 64 10000 3.1 290 21:42 06.05.2020
3634 Clouds 14 1020 35 10000 5.1 290 21:23 06.05.2020
3635 Clouds 14 1020 35 10000 5.1 290 20:57 06.05.2020
3636 Clouds 15 1020 33 10000 4.6 300 20:38 06.05.2020
3637 Clouds 15 1020 31 10000 5.7 300 20:20 06.05.2020
3638 Clouds 16 1020 31 10000 5.7 300 19:56 06.05.2020
3639 Clouds 16 1020 31 10000 6.7 300 19:38 06.05.2020
3640 Clouds 16 1020 36 10000 6.2 290 19:18 06.05.2020
3641 Clouds 16 1020 36 10000 6.2 290 18:56 06.05.2020
3642 Clouds 17 1020 36 10000 5.7 280 18:37 06.05.2020
3643 Clouds 17 1020 40 10000 6.2 290 18:19 06.05.2020
3644 Clouds 17 1021 36 10000 5.7 310 17:55 06.05.2020
3645 Clouds 17 1021 36 10000 5.7 310 17:36 06.05.2020
3646 Clouds 17 1021 36 10000 5.7 310 17:36 06.05.2020
3647 Clouds 17 1021 36 10000 6.2 300 17:18 06.05.2020
3648 Clouds 17 1021 36 10000 6.2 300 16:58 06.05.2020
3649 Clouds 17 1021 36 10000 6.7 300 16:40 06.05.2020
3650 Clouds 17 1021 33 10000 6.2 300 16:20 06.05.2020
3651 Clouds 17 1021 33 10000 6.2 300 15:56 06.05.2020
3652 Clouds 17 1021 36 10000 5.1 310 15:38 06.05.2020
3653 Clouds 17 1022 36 10000 5.7 320 15:18 06.05.2020
3654 Clouds 16 1022 36 10000 5.1 310 14:40 06.05.2020
3655 Clouds 16 1022 38 10000 4.6 310 14:19 06.05.2020
3656 Clouds 16 1022 38 10000 4.6 310 13:59 06.05.2020
3657 Clear 16 1022 36 10000 4.6 290 13:39 06.05.2020
3658 Clear 16 1022 36 10000 4.6 290 13:19 06.05.2020
3659 Clear 16 1022 36 10000 4.6 290 13:19 06.05.2020
3660 Clouds 16 1022 44 10000 6.7 300 12:43 06.05.2020
3661 Clouds 15 1022 44 10000 6.7 300 12:25 06.05.2020
3662 Clouds 15 1022 47 10000 3.1 0 11:56 06.05.2020
3663 Clouds 14 1022 50 10000 4.6 320 11:37 06.05.2020
3664 Clear 13 1022 54 10000 4.6 300 11:19 06.05.2020
3665 Clear 13 1022 54 10000 4.6 300 10:56 06.05.2020
3666 Clear 13 1022 62 10000 3.6 300 10:37 06.05.2020
3667 Clear 11 1022 66 10000 3.1 310 10:18 06.05.2020
3668 Clear 9 1022 70 10000 3.6 330 09:39 06.05.2020
3669 Clear 9 1022 70 10000 3.1 320 09:21 06.05.2020
3670 Clear 8 1022 81 10000 4.1 310 08:45 06.05.2020
3671 Clouds 8 1022 81 10000 4.1 310 08:22 06.05.2020
3672 Clouds 7 1022 81 10000 2.6 310 07:58 06.05.2020
3673 Clouds 7 1022 81 10000 3.6 320 07:39 06.05.2020
3674 Clouds 7 1021 75 10000 3.1 310 07:20 06.05.2020
3675 Clouds 7 1021 81 10000 2.6 310 06:51 06.05.2020
3676 Clouds 7 1021 81 10000 3.1 300 06:21 06.05.2020
3677 Clouds 7 1021 81 10000 3.1 300 05:52 06.05.2020
3678 Clouds 7 1021 81 10000 3.1 300 05:34 06.05.2020
3679 Clouds 7 1021 81 10000 3.1 300 04:31 06.05.2020
3680 Clouds 7 1021 81 10000 3.1 290 03:38 06.05.2020
3681 Clouds 7 1021 81 10000 3.1 290 03:19 06.05.2020
3682 Clouds 6 1021 81 10000 2.6 280 02:30 06.05.2020
3683 Clear 6 1021 81 10000 2.1 300 01:54 06.05.2020
3684 Clear 6 1021 86 10000 2.1 300 01:31 06.05.2020
3685 Clear 6 1020 81 10000 1.5 300 00:53 06.05.2020
3686 Clear 7 1020 81 10000 1.5 300 00:26 06.05.2020
3687 Clouds 7 1020 87 10000 1.5 310 23:56 05.05.2020
3688 Clouds 7 1020 81 10000 1.5 320 23:37 05.05.2020
3689 Clouds 7 1020 81 10000 1.5 310 23:18 05.05.2020
3690 Clouds 8 1020 70 10000 1.5 300 22:42 05.05.2020
3691 Clouds 8 1019 70 10000 1.5 320 22:20 05.05.2020
3692 Clouds 8 1019 70 10000 1.5 320 21:58 05.05.2020
3693 Clouds 8 1019 70 10000 1.5 320 21:58 05.05.2020
3694 Clouds 9 1019 66 10000 2.6 340 21:39 05.05.2020
3695 Clouds 9 1019 66 10000 2.6 340 21:21 05.05.2020
3696 Rain 10 1019 61 10000 3.1 320 20:58 05.05.2020
3697 Rain 10 1019 61 10000 2.6 320 20:39 05.05.2020
3698 Clouds 10 1019 61 10000 3.6 330 20:19 05.05.2020
3699 Clouds 10 1019 61 10000 3.6 330 19:57 05.05.2020
3700 Clouds 10 1018 61 10000 4.6 310 19:37 05.05.2020
3701 Clouds 11 1018 62 10000 3.6 330 19:18 05.05.2020
3702 Clouds 10 1018 71 10000 3.1 310 18:54 05.05.2020
3703 Clouds 10 1018 71 10000 3.1 310 18:36 05.05.2020
3704 Clouds 10 1018 71 10000 3.1 310 18:18 05.05.2020
3705 Rain 10 1019 87 10000 5.7 330 17:41 05.05.2020
3706 Rain 10 1019 87 10000 5.7 330 17:23 05.05.2020
3707 Rain 10 1018 70 10000 2.6 0 16:57 05.05.2020
3708 Clouds 11 1018 61 10000 7.7 340 16:37 05.05.2020
3709 Thunderstorm 10 1018 61 10000 4.6 360 16:18 05.05.2020
3710 Rain 11 1018 61 10000 4.6 360 15:55 05.05.2020
3711 Rain 12 1018 50 10000 6.2 340 15:37 05.05.2020
3712 Rain 11 1018 57 10000 6.7 320 15:19 05.05.2020
3713 Clouds 11 1018 53 10000 6.7 300 14:42 05.05.2020
3714 Rain 11 1018 53 10000 6.7 300 14:42 05.05.2020
3715 Clouds 11 1018 57 10000 6.2 320 14:24 05.05.2020
3716 Clouds 11 1018 57 10000 6.2 320 13:59 05.05.2020
3717 Clouds 11 1018 57 10000 6.2 320 13:59 05.05.2020
3718 Clouds 11 1018 53 10000 7.2 310 13:41 05.05.2020
3719 Clouds 12 1018 53 10000 7.2 310 13:21 05.05.2020
3720 Rain 11 1018 45 10000 5.1 320 12:59 05.05.2020
3721 Rain 11 1018 45 10000 5.1 320 12:59 05.05.2020
3722 Rain 11 1018 57 10000 4.1 310 12:40 05.05.2020
3723 Rain 11 1018 50 10000 3.6 320 12:20 05.05.2020
3724 Rain 12 1018 50 10000 3.6 320 11:59 05.05.2020
3725 Clouds 11 1018 53 10000 4.6 330 11:40 05.05.2020
3726 Clouds 11 1018 53 10000 4.6 330 11:19 05.05.2020
3727 Clouds 11 1018 57 10000 5.1 320 10:54 05.05.2020
3728 Clouds 11 1018 57 10000 5.1 330 10:36 05.05.2020
3729 Clouds 11 1018 61 10000 5.7 320 10:18 05.05.2020
3730 Clouds 10 1018 66 10000 4.1 320 09:43 05.05.2020
3731 Clouds 9 1018 66 10000 4.1 320 09:25 05.05.2020
3732 Clear 8 1018 75 10000 2.6 310 08:43 05.05.2020
3733 Clear 7 1018 81 10000 2.1 300 08:22 05.05.2020
3734 Clear 7 1018 81 10000 2.1 300 07:59 05.05.2020
3735 Clear 5 1018 80 10000 2.1 310 07:41 05.05.2020
3736 Clear 5 1017 93 10000 1.5 300 07:19 05.05.2020
3737 Clear 5 1017 78 10000 1.5 270 06:50 05.05.2020
3738 Clear 4 1017 80 10000 1.5 270 06:30 05.05.2020
3739 Clear 4 1017 93 10000 1.5 290 05:51 05.05.2020
3740 Clear 4 1017 93 10000 2.1 260 04:54 05.05.2020
3741 Clear 5 1018 86 10000 2.1 260 02:37 05.05.2020
3742 Clear 6 1017 86 10000 0.5 0 00:56 05.05.2020
3743 Clear 6 1017 86 10000 0.5 230 00:31 05.05.2020
3744 Clear 7 1017 70 10000 1 320 23:48 04.05.2020
3745 Clear 7 1017 70 10000 1 320 23:48 04.05.2020
3746 Clear 8 1017 70 10000 1 320 23:26 04.05.2020
3747 Clear 8 1017 65 10000 1 0 22:59 04.05.2020
3748 Clear 9 1017 66 10000 1.5 330 22:41 04.05.2020
3749 Clear 9 1017 66 10000 1.5 330 22:22 04.05.2020
3750 Clear 9 1017 66 10000 1.5 330 22:22 04.05.2020
3751 Clear 9 1017 66 10000 1.5 330 22:22 04.05.2020
3752 Clouds 9 1017 66 10000 2.1 330 21:57 04.05.2020
3753 Clouds 10 1016 81 10000 1.5 320 21:37 04.05.2020
3754 Clouds 10 1016 81 10000 1.5 320 21:19 04.05.2020
3755 Clouds 11 1016 76 10000 1.5 310 20:41 04.05.2020
3756 Clouds 11 1016 76 10000 1.5 310 20:41 04.05.2020
3757 Clouds 11 1016 76 10000 1.5 310 20:41 04.05.2020
3758 Clouds 11 1016 76 10000 1.5 310 20:41 04.05.2020
3759 Clouds 11 1016 76 10000 2.1 340 20:21 04.05.2020
3760 Clouds 11 1016 76 10000 2.1 340 19:56 04.05.2020
3761 Clouds 12 1016 76 10000 2.6 340 19:37 04.05.2020
3762 Clouds 12 1016 76 10000 2.6 340 19:18 04.05.2020
3763 Clouds 12 1016 66 10000 3.1 360 18:39 04.05.2020
3764 Clouds 12 1016 66 10000 3.1 360 18:20 04.05.2020
3765 Clouds 12 1016 71 10000 2.6 340 17:57 04.05.2020
3766 Clouds 13 1016 81 10000 1.5 310 17:39 04.05.2020
3767 Clouds 12 1016 87 10000 2.1 330 17:20 04.05.2020
3768 Clouds 12 1016 87 10000 2.1 330 16:58 04.05.2020
3769 Clouds 12 1016 81 10000 2.6 300 16:40 04.05.2020
3770 Clouds 11 1016 81 10000 1.5 310 16:19 04.05.2020
3771 Rain 11 1016 81 10000 2.6 340 15:42 04.05.2020
3772 Drizzle 11 1016 93 10000 2.6 340 15:22 04.05.2020
3773 Drizzle 11 1016 93 10000 2.6 340 14:54 04.05.2020
3774 Rain 11 1016 87 10000 2.6 330 14:54 04.05.2020
3775 Drizzle 11 1016 93 10000 2.6 340 14:54 04.05.2020
3776 Drizzle 11 1016 93 10000 2.6 340 14:54 04.05.2020
3777 Drizzle 11 1016 93 10000 2.6 340 14:54 04.05.2020
3778 Rain 11 1016 87 10000 2.6 330 14:27 04.05.2020
3779 Rain 11 1017 93 10000 3.1 320 13:31 04.05.2020
3780 Rain 11 1017 93 10000 3.1 320 13:31 04.05.2020
3781 Rain 11 1017 93 10000 3.1 320 13:31 04.05.2020
3782 Rain 11 1017 93 10000 3.1 320 13:31 04.05.2020
3783 Rain 11 1017 93 10000 3.1 320 13:31 04.05.2020
3784 Rain 12 1017 87 10000 2.6 310 12:44 04.05.2020
3785 Rain 12 1017 87 10000 2.6 310 12:44 04.05.2020
3786 Rain 12 1017 87 10000 2.6 310 12:44 04.05.2020
3787 Rain 12 1017 87 10000 2.6 310 12:44 04.05.2020
3788 Rain 12 1017 87 10000 2.6 310 12:44 04.05.2020
3789 Rain 12 1017 76 10000 1 0 11:29 04.05.2020
3790 Rain 12 1017 76 10000 1 0 11:29 04.05.2020
3791 Rain 12 1017 76 10000 1 0 11:29 04.05.2020
3792 Rain 12 1017 76 10000 1 0 11:29 04.05.2020
3793 Rain 12 1017 76 10000 1 0 11:29 04.05.2020
3794 Rain 10 1017 81 10000 1 0 09:31 04.05.2020
3795 Clouds 9 1017 81 10000 1 0 07:58 04.05.2020
3796 Clouds 8 1016 87 10000 0.5 0 07:38 04.05.2020
3797 Clouds 7 1016 100 10000 0.5 110 06:21 04.05.2020
3798 Clouds 7 1016 93 10000 0.5 0 06:21 04.05.2020
3799 Clouds 7 1017 93 10000 0.5 0 04:53 04.05.2020
3800 Clouds 8 1017 93 10000 0.5 170 03:18 04.05.2020
3801 Clouds 9 1017 81 10000 0.5 0 02:29 04.05.2020
3802 Clouds 10 1017 81 10000 1 260 00:36 04.05.2020
3803 Clouds 10 1017 76 10000 1.54 263 23:45 03.05.2020
3804 Clouds 10 1017 76 10000 1.46 265 23:24 03.05.2020
3805 Clouds 10 1017 71 10000 1 240 22:45 03.05.2020
3806 Clouds 11 1017 71 10000 1 240 22:25 03.05.2020
3807 Clouds 11 1017 66 10000 1.5 290 21:58 03.05.2020
3808 Clouds 12 1017 62 10000 2.1 280 21:40 03.05.2020
3809 Clouds 13 1017 66 10000 2.1 290 21:20 03.05.2020
3810 Clouds 13 1017 58 10000 2.6 280 20:46 03.05.2020
3811 Clouds 13 1017 58 10000 2.6 280 20:22 03.05.2020
3812 Clouds 14 1016 62 10000 3.1 260 19:54 03.05.2020
3813 Clouds 14 1016 58 10000 2.6 280 19:36 03.05.2020
3814 Clouds 14 1016 58 10000 2.6 280 19:36 03.05.2020
3815 Clouds 14 1016 58 10000 2.6 280 19:18 03.05.2020
3816 Clouds 15 1016 54 10000 3.1 300 18:39 03.05.2020
3817 Clouds 15 1016 54 10000 3.1 300 18:39 03.05.2020
3818 Clouds 15 1016 54 10000 3.1 300 18:39 03.05.2020
3819 Clouds 15 1016 58 10000 4.6 260 18:20 03.05.2020
3820 Clouds 15 1017 58 10000 3.6 270 17:42 03.05.2020
3821 Clouds 15 1017 58 10000 3.6 270 17:22 03.05.2020
3822 Clouds 15 1017 58 10000 3.6 270 17:22 03.05.2020
3823 Clouds 15 1017 50 10000 5.1 280 16:57 03.05.2020
3824 Clouds 15 1017 50 10000 5.1 280 16:57 03.05.2020
3825 Clouds 15 1017 50 10000 5.1 280 16:56 03.05.2020
3826 Clouds 15 1017 50 10000 5.1 280 16:56 03.05.2020
3827 Clouds 15 1017 50 10000 5.1 280 16:56 03.05.2020
3828 Clouds 15 1016 54 10000 5.1 270 16:37 03.05.2020
3829 Clouds 15 1017 50 10000 5.7 270 16:18 03.05.2020
3830 Clouds 15 1017 50 10000 5.7 270 15:55 03.05.2020
3831 Clouds 15 1017 51 10000 5.7 270 15:37 03.05.2020
3832 Clouds 14 1016 54 10000 6.2 250 15:18 03.05.2020
3833 Clouds 14 1016 54 10000 6.2 250 15:18 03.05.2020
3834 Clouds 14 1016 54 10000 4.6 270 14:41 03.05.2020
3835 Clouds 14 1016 50 10000 4.6 300 14:22 03.05.2020
3836 Clouds 14 1016 50 10000 4.6 300 14:22 03.05.2020
3837 Clouds 14 1016 54 10000 4.6 270 14:22 03.05.2020
3838 Clouds 14 1016 54 10000 4.6 270 14:22 03.05.2020
3839 Clouds 14 1016 50 10000 4.6 300 14:22 03.05.2020
3840 Clouds 14 1016 50 10000 4.6 300 13:58 03.05.2020
3841 Clouds 14 1016 54 10000 3.6 300 13:33 03.05.2020
3842 Clouds 14 1016 54 10000 3.6 300 13:33 03.05.2020
3843 Clouds 14 1016 66 10000 6.2 270 12:48 03.05.2020
3844 Clouds 13 1016 66 10000 6.2 270 12:26 03.05.2020
3845 Clouds 12 1016 66 10000 4.6 280 11:57 03.05.2020
3846 Clouds 12 1016 71 10000 3.6 290 11:39 03.05.2020
3847 Clouds 12 1016 81 10000 3.1 310 11:20 03.05.2020
3848 Clouds 12 1016 81 10000 3.1 310 10:54 03.05.2020
3849 Clouds 11 1016 81 10000 3.6 280 10:24 03.05.2020
3850 Rain 11 1015 87 10000 5.1 280 09:40 03.05.2020
3851 Rain 11 1015 87 10000 5.1 280 09:40 03.05.2020
3852 Clouds 9 1015 87 10000 4.1 270 08:59 03.05.2020
3853 Clouds 9 1015 87 10000 4.1 270 08:59 03.05.2020
3854 Clouds 9 1014 87 10000 4.1 270 08:35 03.05.2020
3855 Clouds 8 1014 93 10000 3.6 270 07:44 03.05.2020
3856 Clouds 8 1014 93 10000 3.6 270 07:44 03.05.2020
3857 Clouds 8 1014 93 10000 3.6 270 07:44 03.05.2020
3858 Clouds 8 1014 93 10000 3.6 270 07:44 03.05.2020
3859 Clouds 8 1014 93 10000 3.6 270 07:44 03.05.2020
3860 Clouds 8 1013 93 10000 2.6 280 06:44 03.05.2020
3861 Clouds 7 1012 93 10000 3.1 280 05:56 03.05.2020
3862 Clouds 8 1012 87 10000 3.6 280 05:37 03.05.2020
3863 Clouds 8 1012 93 10000 4.1 280 04:28 03.05.2020
3864 Clouds 8 1011 87 10000 4.1 280 03:39 03.05.2020
3865 Clouds 9 1011 81 10000 4.6 280 02:31 03.05.2020
3866 Clouds 8 1010 87 10000 4.1 290 01:59 03.05.2020
3867 Clouds 8 1010 87 10000 3.6 280 01:39 03.05.2020
3868 Clouds 9 1010 87 10000 3.6 280 01:21 03.05.2020
3869 Clouds 9 1009 87 10000 3.6 280 00:38 03.05.2020
3870 Clouds 9 1009 93 10000 3.6 260 00:20 03.05.2020
3871 Clouds 9 1009 87 10000 3.6 280 23:46 02.05.2020
3872 Rain 9 1009 87 10000 3.6 280 23:28 02.05.2020
3873 Rain 9 1009 87 0 3.6 270 22:57 02.05.2020
3874 Clouds 10 1008 87 10000 2.6 280 22:39 02.05.2020
3875 Clouds 10 1008 87 10000 3.1 260 22:20 02.05.2020
3876 Clouds 10 1007 87 10000 2.1 290 21:41 02.05.2020
3877 Clouds 10 1007 87 10000 2.1 290 21:20 02.05.2020
3878 Clouds 11 1007 87 10000 3.6 260 20:58 02.05.2020
3879 Rain 11 1007 81 10000 4.6 260 20:39 02.05.2020
3880 Rain 11 1007 81 10000 4.6 260 20:20 02.05.2020
3881 Clouds 11 1006 71 10000 5.1 250 20:20 02.05.2020
3882 Clouds 11 1006 71 10000 5.1 250 19:59 02.05.2020
3883 Clouds 12 1006 66 10000 5.1 240 19:39 02.05.2020
3884 Clouds 12 1006 66 10000 4.6 260 19:20 02.05.2020
3885 Clouds 12 1006 66 10000 4.6 260 18:56 02.05.2020
3886 Clouds 12 1006 62 10000 5.7 250 18:38 02.05.2020
3887 Rain 13 1005 58 10000 4.6 270 18:20 02.05.2020
3888 Rain 13 1005 58 10000 4.6 270 17:57 02.05.2020
3889 Clouds 13 1005 66 10000 6.7 260 17:38 02.05.2020
3890 Rain 13 1005 66 10000 8.2 260 17:19 02.05.2020
3891 Rain 12 1005 66 10000 8.2 260 16:56 02.05.2020
3892 Rain 12 1005 71 10000 5.7 230 16:38 02.05.2020
3893 Rain 13 1005 76 10000 3.1 230 16:20 02.05.2020
3894 Rain 13 1005 81 10000 4.1 290 15:41 02.05.2020
3895 Rain 14 1004 58 10000 9.3 260 15:20 02.05.2020
3896 Rain 15 1004 51 10000 5.7 210 14:45 02.05.2020
3897 Rain 15 1004 51 10000 5.7 210 14:27 02.05.2020
3898 Rain 15 1004 58 10000 5.7 230 13:59 02.05.2020
3899 Rain 15 1004 67 10000 5.1 210 13:40 02.05.2020
3900 Rain 14 1004 67 10000 5.1 210 13:20 02.05.2020
3901 Rain 13 1004 58 10000 5.7 230 12:43 02.05.2020
3902 Rain 13 1004 58 10000 5.7 230 12:24 02.05.2020
3903 Clouds 14 1004 58 10000 4.1 220 11:59 02.05.2020
3904 Clouds 14 1004 62 10000 4.6 220 11:40 02.05.2020
3905 Clouds 14 1004 62 10000 4.6 220 11:22 02.05.2020
3906 Clouds 13 1004 71 10000 3.1 250 10:57 02.05.2020
3907 Clouds 13 1004 71 10000 3.1 250 10:38 02.05.2020
3908 Clouds 13 1004 71 10000 3.1 250 10:20 02.05.2020
3909 Clouds 13 1004 71 10000 4.6 250 10:20 02.05.2020
3910 Clouds 12 1004 71 10000 4.6 250 09:56 02.05.2020
3911 Clouds 11 1004 71 10000 4.6 250 09:37 02.05.2020
3912 Clouds 11 1004 76 10000 4.6 240 09:19 02.05.2020
3913 Clouds 10 1004 76 10000 2.6 240 08:46 02.05.2020
3914 Clouds 9 1004 76 10000 2.6 240 08:26 02.05.2020
3915 Clouds 9 1003 87 10000 1.5 210 07:47 02.05.2020
3916 Clouds 8 1003 87 10000 1.5 210 07:28 02.05.2020
3917 Clouds 7 1003 93 10000 1 0 06:51 02.05.2020
3918 Clouds 7 1003 93 10000 3.1 240 05:29 02.05.2020
3919 Clouds 8 1002 93 10000 3.1 260 04:48 02.05.2020
3920 Clear 8 1002 93 10000 3.1 260 04:24 02.05.2020
3921 Clear 9 1002 81 10000 3.1 240 02:44 02.05.2020
3922 Clouds 9 1002 81 10000 3.1 240 02:24 02.05.2020
3923 Clouds 10 1002 76 10000 4.1 240 01:49 02.05.2020
3924 Clouds 11 1001 76 10000 3.1 200 00:48 02.05.2020
3925 Clouds 11 1001 76 10000 3.1 200 00:29 02.05.2020
3926 Clouds 11 1001 66 10000 3.1 190 23:59 01.05.2020
3927 Rain 12 1001 66 10000 3.1 190 23:39 01.05.2020
3928 Rain 12 1001 71 10000 3.1 250 23:20 01.05.2020
3929 Rain 12 1001 71 10000 3.1 250 22:56 01.05.2020
3930 Rain 13 1001 62 10000 5.1 260 22:37 01.05.2020
3931 Rain 13 1001 62 10000 3.1 300 22:18 01.05.2020
3932 Clouds 13 1001 62 10000 3.1 300 22:18 01.05.2020
3933 Clouds 13 1001 62 10000 3.1 300 21:56 01.05.2020
3934 Rain 14 1000 54 10000 2.6 280 21:38 01.05.2020
3935 Rain 14 1000 54 10000 2.6 280 21:18 01.05.2020
3936 Clouds 14 1000 51 10000 3.6 220 20:56 01.05.2020
3937 Clouds 15 1000 48 10000 3.6 200 20:37 01.05.2020
3938 Clouds 15 1000 48 10000 3.1 220 20:18 01.05.2020
3939 Rain 16 1000 48 10000 3.6 240 19:42 01.05.2020
3940 Rain 16 1000 48 10000 3.6 240 19:42 01.05.2020
3941 Clouds 16 1000 48 10000 3.6 240 19:22 01.05.2020
3942 Clouds 17 1000 45 10000 3.6 230 18:58 01.05.2020
3943 Clouds 17 1000 48 10000 4.1 230 18:40 01.05.2020
3944 Clouds 17 1000 48 10000 4.1 230 18:21 01.05.2020
3945 Clouds 17 1000 42 10000 5.1 220 17:58 01.05.2020
3946 Clouds 17 1000 42 10000 5.7 240 17:39 01.05.2020
3947 Clouds 17 1000 42 10000 5.1 240 17:21 01.05.2020
3948 Clouds 18 1000 42 10000 5.1 240 16:56 01.05.2020
3949 Clouds 18 1000 42 10000 5.7 250 16:38 01.05.2020
3950 Clouds 18 1001 48 10000 5.7 250 16:19 01.05.2020
3951 Clouds 17 1001 48 10000 5.7 250 15:55 01.05.2020
3952 Clouds 17 1001 45 10000 5.7 220 15:37 01.05.2020
3953 Clouds 17 1001 48 10000 6.7 240 15:18 01.05.2020
3954 Clouds 17 1001 55 10000 4.1 260 14:42 01.05.2020
3955 Rain 16 1001 54 10000 4.1 210 14:23 01.05.2020
3956 Clouds 15 1001 54 10000 3.6 220 13:41 01.05.2020
3957 Clouds 16 1001 54 10000 3.6 220 13:23 01.05.2020
3958 Clouds 15 1001 54 10000 4.6 240 12:58 01.05.2020
3959 Clouds 15 1001 51 10000 5.7 250 12:40 01.05.2020
3960 Clouds 15 1001 51 10000 5.7 250 12:20 01.05.2020
3961 Clouds 15 1002 54 10000 6.2 250 11:59 01.05.2020
3962 Clouds 15 1002 58 10000 6.2 240 11:41 01.05.2020
3963 Clouds 15 1002 58 10000 6.2 240 11:19 01.05.2020
3964 Clouds 14 1002 66 10000 6.2 250 10:56 01.05.2020
3965 Clouds 14 1002 66 10000 5.7 240 10:36 01.05.2020
3966 Clouds 14 1002 66 10000 5.7 240 10:18 01.05.2020
3967 Clouds 13 1002 71 10000 5.7 210 09:42 01.05.2020
3968 Clouds 12 1002 71 10000 5.7 210 09:19 01.05.2020
3969 Clouds 12 1001 76 10000 4.1 180 08:47 01.05.2020
3970 Clouds 12 1001 76 10000 4.1 180 08:28 01.05.2020
3971 Clouds 11 1001 76 10000 3.6 190 07:59 01.05.2020
3972 Clouds 11 1001 81 10000 3.6 190 07:40 01.05.2020
3973 Clouds 10 1001 81 10000 3.6 190 07:21 01.05.2020
3974 Clouds 10 1001 81 10000 4.1 190 06:39 01.05.2020
3975 Clouds 10 1001 81 10000 4.6 190 05:26 01.05.2020
3976 Clouds 11 1001 76 10000 5.1 220 04:19 01.05.2020
3977 Clouds 12 1001 76 10000 7.2 220 02:59 01.05.2020
3978 Clouds 12 1001 82 10000 5.1 200 02:40 01.05.2020
3979 Clouds 13 1001 82 10000 4.6 170 01:58 01.05.2020
3980 Rain 12 1001 82 10000 4.6 170 01:28 01.05.2020
3981 Rain 13 1001 76 10000 4.6 200 00:41 01.05.2020
3982 Rain 13 1001 76 10000 4.6 200 00:22 01.05.2020
3983 Rain 13 1002 71 10000 3.6 180 23:58 30.04.2020
3984 Clouds 13 1002 71 10000 3.1 180 23:39 30.04.2020
3985 Clouds 13 1002 71 10000 3.1 170 23:21 30.04.2020
3986 Clouds 13 1002 71 10000 3.1 170 22:59 30.04.2020
3987 Clouds 13 1002 76 10000 3.1 150 22:40 30.04.2020
3988 Clouds 13 1002 71 10000 2.1 140 22:19 30.04.2020
3989 Clouds 13 1002 71 10000 2.1 140 21:55 30.04.2020
3990 Rain 14 1002 67 10000 1.5 140 21:37 30.04.2020
3991 Rain 14 1002 71 10000 5.7 250 21:18 30.04.2020
3992 Rain 15 1002 55 10000 5.1 200 20:41 30.04.2020
3993 Rain 16 1002 55 10000 5.1 200 20:19 30.04.2020
3994 Clouds 18 1002 48 10000 4.1 220 19:58 30.04.2020
3995 Clouds 18 1002 48 10000 4.1 220 19:38 30.04.2020
3996 Clouds 18 1002 48 10000 4.1 220 19:18 30.04.2020
3997 Clouds 18 1002 55 10000 6.2 220 18:55 30.04.2020
3998 Clouds 18 1002 55 10000 6.2 220 18:36 30.04.2020
3999 Clouds 18 1002 55 10000 6.7 220 18:18 30.04.2020
4000 Clouds 18 1002 63 10000 6.2 220 17:40 30.04.2020
4001 Clouds 18 1002 67 10000 5.7 190 17:22 30.04.2020
4002 Clouds 18 1002 67 10000 5.7 190 16:59 30.04.2020
4003 Clouds 17 1003 77 10000 4.6 180 16:40 30.04.2020
4004 Rain 17 1003 77 10000 4.6 180 16:20 30.04.2020
4005 Rain 16 1003 82 10000 5.7 210 15:58 30.04.2020
4006 Rain 16 1003 77 10000 3.6 220 15:40 30.04.2020
4007 Rain 16 1003 77 10000 2.6 220 15:21 30.04.2020
4008 Rain 16 1003 67 10000 5.7 220 14:41 30.04.2020
4009 Rain 17 1003 67 10000 5.7 210 14:20 30.04.2020
4010 Rain 17 1003 67 10000 5.7 210 14:20 30.04.2020
4011 Rain 17 1003 67 10000 5.7 210 13:58 30.04.2020
4012 Clouds 17 1003 59 10000 5.7 180 13:39 30.04.2020
4013 Clouds 17 1003 59 10000 5.7 180 13:39 30.04.2020
4014 Clouds 17 1003 59 10000 5.7 180 13:39 30.04.2020
4015 Rain 17 1003 67 10000 4.1 200 13:21 30.04.2020
4016 Clouds 17 1004 59 10000 6.7 210 12:58 30.04.2020
4017 Rain 17 1004 67 10000 5.1 190 12:39 30.04.2020
4018 Rain 16 1004 72 10000 3.6 190 12:18 30.04.2020
4019 Rain 16 1004 72 10000 3.1 190 11:38 30.04.2020
4020 Clouds 15 1004 76 10000 3.1 190 11:19 30.04.2020
4021 Rain 15 1004 72 10000 3.1 190 11:19 30.04.2020
4022 Clouds 15 1004 76 10000 3.1 190 10:57 30.04.2020
4023 Rain 15 1004 71 10000 4.1 200 10:38 30.04.2020
4024 Clouds 14 1004 76 10000 3.6 190 10:18 30.04.2020
4025 Clouds 14 1004 76 10000 3.6 190 09:55 30.04.2020
4026 Clouds 14 1004 71 10000 3.6 180 09:36 30.04.2020
4027 Clouds 13 1004 76 10000 3.1 170 09:18 30.04.2020
4028 Clouds 12 1004 81 10000 4.1 160 08:42 30.04.2020
4029 Clouds 12 1004 81 10000 4.1 160 08:23 30.04.2020
4030 Clouds 11 1005 87 10000 3.1 140 07:43 30.04.2020
4031 Clouds 11 1005 87 10000 3.1 140 07:25 30.04.2020
4032 Clouds 10 1005 93 10000 1 0 06:51 30.04.2020
4033 Clouds 10 1005 87 10000 1.5 160 05:56 30.04.2020
4034 Clouds 10 1005 87 10000 2.1 180 05:36 30.04.2020
4035 Clouds 10 1006 93 10000 0.5 0 04:36 30.04.2020
4036 Clouds 10 1006 93 10000 1 0 03:57 30.04.2020
4037 Clouds 10 1006 100 10000 0.5 0 02:46 30.04.2020
4038 Clouds 10 1006 100 10000 0.5 0 02:24 30.04.2020
4039 Clouds 11 1006 87 10000 2.1 210 01:36 30.04.2020
4040 Clouds 11 1006 87 10000 2.6 160 00:42 30.04.2020
4041 Clouds 11 1006 93 10000 3.1 170 00:20 30.04.2020
4042 Clouds 11 1006 93 10000 3.1 170 00:20 30.04.2020
4043 Clouds 11 1006 93 10000 3.1 170 23:57 29.04.2020
4044 Clouds 12 1006 93 10000 2.1 170 23:37 29.04.2020
4045 Rain 12 1006 93 10000 2.1 160 23:19 29.04.2020
4046 Rain 12 1006 93 10000 1.5 160 22:41 29.04.2020
4047 Rain 12 1006 93 10000 1.5 160 22:22 29.04.2020
4048 Rain 12 1005 93 10000 2.1 150 21:59 29.04.2020
4049 Rain 12 1005 93 10000 2.1 120 21:37 29.04.2020
4050 Rain 13 1005 93 10000 5.7 120 21:19 29.04.2020
4051 Rain 13 1005 93 10000 5.7 120 20:57 29.04.2020
4052 Rain 13 1006 93 4500 2.1 320 20:38 29.04.2020
4053 Rain 13 1006 93 4500 2.1 320 20:18 29.04.2020
4054 Rain 13 1006 93 4500 2.1 320 20:18 29.04.2020
4055 Rain 14 1005 82 10000 2.1 50 19:43 29.04.2020
4056 Clouds 14 1005 82 10000 2.1 50 19:22 29.04.2020
4057 Rain 15 1005 82 10000 2.1 50 18:57 29.04.2020
4058 Rain 16 1005 87 10000 3.6 360 18:39 29.04.2020
4059 Rain 16 1005 77 9000 2.6 240 18:19 29.04.2020
4060 Rain 17 1004 55 10000 1.5 240 17:42 29.04.2020
4061 Clouds 18 1004 52 10000 2.1 230 17:21 29.04.2020
4062 Clouds 18 1004 52 10000 2.1 230 16:56 29.04.2020
4063 Clouds 19 1004 55 10000 2.6 330 16:36 29.04.2020
4064 Clouds 18 1004 55 10000 2.6 330 16:18 29.04.2020
4065 Clouds 18 1004 59 10000 2.1 0 15:55 29.04.2020
4066 Clouds 18 1004 59 10000 2.6 300 15:37 29.04.2020
4067 Clouds 17 1004 63 10000 3.1 270 15:18 29.04.2020
4068 Clouds 17 1005 67 10000 3.6 270 14:43 29.04.2020
4069 Clouds 17 1005 67 10000 3.6 270 14:25 29.04.2020
4070 Clouds 16 1005 67 10000 1 0 13:58 29.04.2020
4071 Clouds 16 1004 62 10000 2.1 10 13:38 29.04.2020
4072 Clouds 16 1004 67 10000 2.1 260 13:19 29.04.2020
4073 Clouds 16 1004 67 10000 2.1 260 12:55 29.04.2020
4074 Clouds 15 1004 71 10000 2.1 240 12:37 29.04.2020
4075 Clouds 13 1004 76 10000 2.1 260 12:18 29.04.2020
4076 Clouds 13 1004 71 10000 1 0 11:39 29.04.2020
4077 Clouds 13 1004 71 10000 1 0 11:20 29.04.2020
4078 Clouds 13 1004 81 10000 1 0 11:20 29.04.2020
4079 Clouds 12 1004 81 10000 1 0 11:20 29.04.2020
4080 Rain 12 1004 81 10000 1 0 10:55 29.04.2020
4081 Rain 12 1004 81 10000 1.5 270 10:37 29.04.2020
4082 Clouds 11 1004 76 10000 1.5 270 10:18 29.04.2020
4083 Clouds 11 1004 71 10000 0.5 0 09:41 29.04.2020
4084 Clouds 11 1004 76 10000 1.5 100 09:21 29.04.2020
4085 Clouds 10 1004 76 10000 2.1 50 08:44 29.04.2020
4086 Clouds 10 1004 76 10000 2.1 50 08:26 29.04.2020
4087 Clouds 10 1004 76 10000 2.1 50 08:26 29.04.2020
4088 Clouds 9 1003 76 10000 2.6 30 07:57 29.04.2020
4089 Clouds 9 1003 76 10000 2.6 30 07:38 29.04.2020
4090 Clouds 9 1003 76 10000 2.1 30 07:18 29.04.2020
4091 Clouds 9 1002 76 10000 2.6 30 06:48 29.04.2020
4092 Clouds 9 1002 76 10000 2.6 30 06:29 29.04.2020
4093 Rain 9 1002 76 10000 3.1 70 05:21 29.04.2020
4094 Rain 9 1002 81 10000 2.6 50 05:21 29.04.2020
4095 Rain 10 1002 76 10000 2.6 40 04:21 29.04.2020
4096 Rain 10 1002 71 10000 3.1 50 03:55 29.04.2020
4097 Rain 11 1002 62 10000 3.6 80 02:32 29.04.2020
4098 Rain 12 1003 54 10000 2.6 70 01:44 29.04.2020
4099 Rain 13 1003 62 10000 3.1 60 01:20 29.04.2020
4100 Clouds 13 1003 62 10000 3.1 70 00:39 29.04.2020
4101 Clouds 14 1003 62 10000 4.1 60 00:19 29.04.2020
4102 Clouds 14 1002 62 10000 4.6 50 23:48 28.04.2020
4103 Rain 15 1002 62 10000 4.6 40 23:23 28.04.2020
4104 Rain 15 1002 62 10000 4.6 40 22:55 28.04.2020
4105 Rain 15 1003 67 10000 4.6 60 22:37 28.04.2020
4106 Rain 16 1003 63 10000 4.6 60 22:18 28.04.2020
4107 Rain 16 1003 63 10000 4.6 60 21:54 28.04.2020
4108 Rain 17 1003 59 10000 3.1 90 21:36 28.04.2020
4109 Rain 17 1003 55 10000 3.1 40 21:18 28.04.2020
4110 Rain 18 1002 55 10000 4.1 40 20:41 28.04.2020
4111 Rain 18 1002 55 10000 4.1 40 20:21 28.04.2020
4112 Rain 19 1002 42 10000 3.6 340 19:59 28.04.2020
4113 Rain 20 1002 40 10000 4.1 350 19:41 28.04.2020
4114 Clouds 21 1002 40 10000 4.1 350 19:22 28.04.2020
4115 Clouds 21 1002 37 10000 4.1 340 19:22 28.04.2020
4116 Clouds 21 1002 37 10000 4.1 340 18:58 28.04.2020
4117 Clouds 22 1002 37 10000 4.6 360 18:40 28.04.2020
4118 Rain 23 1002 33 10000 2.6 310 18:19 28.04.2020
4119 Rain 23 1002 33 10000 2.6 310 18:19 28.04.2020
4120 Rain 22 1002 33 10000 2.6 310 18:19 28.04.2020
4121 Rain 23 1002 33 10000 2.6 310 17:57 28.04.2020
4122 Rain 23 1002 33 10000 2.6 300 17:36 28.04.2020
4123 Rain 23 1002 33 10000 2.6 300 17:18 28.04.2020
4124 Clouds 23 1002 31 10000 2.1 20 16:42 28.04.2020
4125 Clouds 24 1002 31 10000 2.1 20 16:23 28.04.2020
4126 Clouds 24 1003 31 10000 2.6 0 15:57 28.04.2020
4127 Clouds 24 1003 31 10000 2.1 0 15:39 28.04.2020
4128 Clouds 24 1003 31 10000 2.1 0 15:21 28.04.2020
4129 Clouds 24 1003 31 10000 2.6 210 14:58 28.04.2020
4130 Clouds 24 1003 31 10000 2.6 210 14:58 28.04.2020
4131 Clouds 23 1003 31 10000 3.6 280 14:40 28.04.2020
4132 Clouds 23 1004 31 10000 1.5 0 14:21 28.04.2020
4133 Clouds 24 1004 31 10000 1.5 0 13:58 28.04.2020
4134 Clouds 23 1004 33 10000 4.1 290 13:38 28.04.2020
4135 Clouds 23 1004 32 10000 4.6 290 13:19 28.04.2020
4136 Clouds 22 1004 35 10000 3.6 270 12:46 28.04.2020
4137 Clouds 22 1004 35 10000 3.6 270 12:25 28.04.2020
4138 Clouds 21 1004 34 10000 4.1 260 11:56 28.04.2020
4139 Clouds 20 1004 37 10000 4.1 260 11:37 28.04.2020
4140 Clouds 19 1004 37 10000 3.1 280 11:18 28.04.2020
4141 Clouds 19 1004 39 10000 2.6 280 10:39 28.04.2020
4142 Clouds 19 1004 42 10000 2.6 250 10:19 28.04.2020
4143 Clouds 19 1004 42 10000 2.6 250 09:59 28.04.2020
4144 Clouds 18 1004 44 10000 2.6 270 09:40 28.04.2020
4145 Clouds 16 1004 44 10000 2.6 270 09:21 28.04.2020
4146 Clouds 15 1004 58 10000 1.5 250 08:46 28.04.2020
4147 Clouds 14 1004 58 10000 1.5 250 08:27 28.04.2020
4148 Clouds 13 1004 62 10000 0.5 0 07:58 28.04.2020
4149 Clouds 11 1004 71 10000 0.5 0 07:38 28.04.2020
4150 Clouds 11 1004 75 10000 0.5 210 07:18 28.04.2020
4151 Clouds 9 1004 81 10000 0.5 300 06:28 28.04.2020
4152 Clouds 11 1004 76 10000 1.51 249 05:44 28.04.2020
4153 Clouds 10 1004 76 10000 1.79 253 05:25 28.04.2020
4154 Clouds 12 1004 71 10000 1.79 253 04:33 28.04.2020
4155 Clouds 14 1005 54 10000 1 0 02:36 28.04.2020
4156 Clouds 13 1005 50 10000 1 200 01:25 28.04.2020
4157 Clouds 13 1005 50 10000 1 200 01:25 28.04.2020
4158 Clouds 13 1005 54 10000 0.5 260 00:59 28.04.2020
4159 Clouds 13 1005 58 10000 1 0 00:27 28.04.2020
4160 Clouds 14 1005 54 10000 2.78 234 23:48 27.04.2020
4161 Clouds 14 1005 54 10000 2.24 191 23:25 27.04.2020
4162 Clouds 15 1005 50 10000 0.5 160 22:57 27.04.2020
4163 Clouds 15 1005 44 10000 0.5 0 22:38 27.04.2020
4164 Clouds 16 1005 44 10000 0.5 0 22:20 27.04.2020
4165 Clouds 16 1005 41 10000 2.68 181 21:56 27.04.2020
4166 Clouds 17 1005 39 10000 0.5 0 21:38 27.04.2020
4167 Clouds 17 1005 39 10000 0.5 0 21:18 27.04.2020
4168 Clouds 18 1005 32 10000 1 0 20:55 27.04.2020
4169 Clouds 19 1005 30 10000 2.6 210 20:37 27.04.2020
4170 Clouds 20 1005 28 10000 2.6 220 20:19 27.04.2020
4171 Clouds 21 1005 28 10000 4.1 260 19:40 27.04.2020
4172 Clouds 21 1005 24 10000 5.1 270 19:22 27.04.2020
4173 Clouds 22 1005 24 10000 5.1 270 18:59 27.04.2020
4174 Clouds 22 1005 25 10000 2.6 260 18:40 27.04.2020
4175 Clouds 22 1005 25 10000 3.1 240 18:20 27.04.2020
4176 Clouds 22 1005 25 10000 3.1 240 17:58 27.04.2020
4177 Clouds 22 1006 24 10000 4.1 240 17:40 27.04.2020
4178 Clouds 22 1006 26 10000 4.6 260 17:19 27.04.2020
4179 Clouds 22 1006 25 10000 2.1 220 16:40 27.04.2020
4180 Clouds 22 1006 25 10000 2.1 220 16:40 27.04.2020
4181 Clouds 23 1006 26 10000 4.1 260 16:22 27.04.2020
4182 Clouds 22 1006 26 10000 4.1 260 15:57 27.04.2020
4183 Clouds 22 1007 28 10000 2.6 0 15:38 27.04.2020
4184 Clear 22 1007 28 10000 3.6 260 15:20 27.04.2020
4185 Clear 22 1007 28 10000 3.6 260 14:58 27.04.2020
4186 Clear 22 1007 28 10000 3.6 260 14:58 27.04.2020
4187 Clear 22 1008 28 10000 4.6 270 14:40 27.04.2020
4188 Clear 21 1008 28 10000 6.2 260 14:19 27.04.2020
4189 Clear 22 1008 28 10000 6.2 260 13:57 27.04.2020
4190 Clear 21 1008 30 10000 3.1 260 13:37 27.04.2020
4191 Clear 21 1008 30 10000 3.1 260 13:18 27.04.2020
4192 Clear 21 1008 34 10000 2.1 270 12:43 27.04.2020
4193 Clear 19 1008 34 10000 2.1 270 12:21 27.04.2020
4194 Clear 18 1009 36 10000 2.1 0 11:55 27.04.2020
4195 Clear 18 1009 36 10000 1.5 0 11:37 27.04.2020
4196 Clear 17 1009 39 10000 1 0 11:18 27.04.2020
4197 Clear 17 1009 44 10000 1.5 250 10:42 27.04.2020
4198 Clear 16 1009 47 10000 1 0 10:24 27.04.2020
4199 Clear 17 1009 44 10000 1.5 250 10:24 27.04.2020
4200 Clear 17 1009 44 10000 1.5 250 10:24 27.04.2020
4201 Clear 15 1009 47 10000 1 0 09:58 27.04.2020
4202 Clear 16 1009 50 10000 0.5 160 09:39 27.04.2020
4203 Clear 12 1009 62 10000 0.5 0 09:18 27.04.2020
4204 Clear 12 1009 62 10000 0.5 0 08:52 27.04.2020
4205 Clear 8 1009 62 10000 0.5 0 08:32 27.04.2020
4206 Clear 7 1009 81 10000 1 0 07:45 27.04.2020
4207 Clear 7 1009 81 10000 1 0 07:27 27.04.2020
4208 Clear 6 1009 86 10000 1 0 06:59 27.04.2020
4209 Clear 6 1009 86 10000 0.5 0 06:30 27.04.2020
4210 Clear 6 1010 86 10000 0.5 0 05:57 27.04.2020
4211 Clear 6 1010 81 10000 1 0 05:21 27.04.2020
4212 Clear 7 1010 75 10000 1.5 30 04:40 27.04.2020
4213 Clear 7 1010 75 10000 2.1 40 03:48 27.04.2020
4214 Clear 8 1010 75 10000 0.5 0 02:36 27.04.2020
4215 Clear 8 1010 65 10000 0.5 0 01:20 27.04.2020
4216 Clear 9 1010 65 10000 0.5 280 00:45 27.04.2020
4217 Clear 9 1010 61 10000 0.5 160 00:19 27.04.2020
4218 Clear 10 1010 61 10000 0.5 160 23:55 26.04.2020
4219 Clear 10 1010 61 10000 0.5 140 23:37 26.04.2020
4220 Clear 10 1010 61 10000 0.5 140 23:18 26.04.2020
4221 Clear 10 1009 61 10000 0.99 103 22:55 26.04.2020
4222 Clear 10 1009 61 10000 0.99 103 22:37 26.04.2020
4223 Clear 11 1009 46 10000 0.5 360 22:18 26.04.2020
4224 Clear 11 1009 46 10000 0.5 360 21:55 26.04.2020
4225 Clear 13 1009 44 10000 1 330 21:37 26.04.2020
4226 Clouds 14 1009 38 10000 1 320 21:18 26.04.2020
4227 Clouds 15 1009 53 10000 2.6 280 20:39 26.04.2020
4228 Clouds 16 1009 53 10000 3.6 290 20:20 26.04.2020
4229 Clouds 17 1009 53 10000 3.6 290 19:59 26.04.2020
4230 Clouds 17 1009 53 10000 4.1 260 19:38 26.04.2020
4231 Clouds 17 1009 53 10000 4.1 260 19:19 26.04.2020
4232 Clouds 18 1009 53 10000 2.1 0 18:45 26.04.2020
4233 Clouds 18 1009 40 10000 2.1 0 18:25 26.04.2020
4234 Clouds 18 1010 40 10000 3.6 230 17:58 26.04.2020
4235 Clouds 18 1010 40 10000 3.6 230 17:39 26.04.2020
4236 Clouds 18 1010 40 10000 4.6 260 17:21 26.04.2020
4237 Clouds 18 1010 29 10000 4.1 290 16:42 26.04.2020
4238 Clouds 18 1010 40 10000 4.1 260 16:24 26.04.2020
4239 Clouds 17 1010 40 10000 4.1 260 15:59 26.04.2020
4240 Clouds 18 1010 40 10000 4.1 260 15:59 26.04.2020
4241 Clouds 17 1010 33 10000 3.6 250 15:41 26.04.2020
4242 Clouds 18 1011 40 10000 3.6 250 15:41 26.04.2020
4243 Clouds 17 1010 33 10000 3.6 250 15:22 26.04.2020
4244 Clouds 17 1011 31 10000 3.6 280 14:58 26.04.2020
4245 Clouds 17 1011 34 10000 4.6 250 14:39 26.04.2020
4246 Clouds 16 1011 34 10000 3.1 260 14:19 26.04.2020
4247 Clouds 17 1011 34 10000 3.1 260 14:19 26.04.2020
4248 Clouds 16 1011 34 10000 3.1 260 13:57 26.04.2020
4249 Clouds 16 1011 34 10000 3.1 0 13:38 26.04.2020
4250 Clouds 16 1011 34 10000 4.1 220 13:19 26.04.2020
4251 Clouds 16 1011 34 10000 4.1 220 12:54 26.04.2020
4252 Clouds 16 1012 34 10000 2.1 0 12:36 26.04.2020
4253 Clouds 15 1012 38 10000 2.6 210 12:18 26.04.2020
4254 Clouds 15 1012 38 10000 3.1 260 11:41 26.04.2020
4255 Clouds 15 1012 38 10000 3.1 260 11:23 26.04.2020
4256 Clouds 15 1012 38 10000 2.1 0 10:58 26.04.2020
4257 Clouds 15 1011 41 10000 1.5 0 10:40 26.04.2020
4258 Clouds 15 1011 41 10000 1.5 0 10:22 26.04.2020
4259 Clouds 14 1011 47 10000 1 0 09:57 26.04.2020
4260 Clouds 12 1011 58 10000 1 0 09:37 26.04.2020
4261 Clouds 11 1011 57 10000 0.5 0 09:18 26.04.2020
4262 Clouds 10 1011 70 10000 1 0 08:41 26.04.2020
4263 Clouds 9 1011 70 10000 1 0 08:21 26.04.2020
4264 Clouds 9 1011 70 10000 1 0 07:48 26.04.2020
4265 Clouds 7 1011 93 10000 0.5 0 07:23 26.04.2020
4266 Clouds 6 1011 86 10000 0.82 284 06:46 26.04.2020
4267 Clear 6 1011 86 10000 1 0 06:20 26.04.2020
4268 Clear 6 1011 86 10000 1 0 05:47 26.04.2020
4269 Clear 6 1011 81 10000 0.5 0 05:28 26.04.2020
4270 Clear 7 1011 75 10000 0.5 210 04:30 26.04.2020
4271 Clear 8 1011 70 10000 0.5 340 03:35 26.04.2020
4272 Clouds 9 1011 61 10000 1.5 350 02:33 26.04.2020
4273 Clouds 9 1011 66 10000 1.5 350 01:57 26.04.2020
4274 Clouds 9 1011 61 10000 2.1 360 01:36 26.04.2020
4275 Clouds 9 1011 66 10000 1 0 00:41 26.04.2020
4276 Rain 10 1011 66 10000 1 0 00:21 26.04.2020
4277 Rain 10 1011 66 10000 1 0 00:21 26.04.2020
4278 Rain 10 1011 61 10000 1 300 23:55 25.04.2020
4279 Rain 11 1010 57 10000 1 0 23:36 25.04.2020
4280 Rain 11 1011 54 10000 1.5 310 23:18 25.04.2020
4281 Rain 12 1011 50 10000 2.6 320 22:42 25.04.2020
4282 Rain 12 1011 50 10000 2.6 320 22:20 25.04.2020
4283 Rain 12 1011 47 10000 2.1 290 21:58 25.04.2020
4284 Rain 13 1010 47 10000 2.1 280 21:39 25.04.2020
4285 Rain 13 1010 47 10000 2.1 280 21:19 25.04.2020
4286 Rain 13 1010 43 10000 2.1 300 20:43 25.04.2020
4287 Rain 14 1010 41 10000 2.6 290 20:23 25.04.2020
4288 Rain 14 1010 41 10000 2.6 290 19:59 25.04.2020
4289 Rain 14 1010 56 10000 2.1 300 19:39 25.04.2020
4290 Rain 14 1010 41 10000 2.1 300 19:21 25.04.2020
4291 Rain 15 1010 41 10000 2.1 300 18:56 25.04.2020
4292 Rain 15 1010 56 10000 3.1 320 18:37 25.04.2020
4293 Clouds 15 1011 40 10000 3.1 340 18:18 25.04.2020
4294 Clouds 15 1011 40 10000 3.1 340 17:55 25.04.2020
4295 Clouds 15 1011 40 10000 3.1 340 17:37 25.04.2020
4296 Clouds 15 1011 40 10000 4.1 350 17:18 25.04.2020
4297 Clouds 15 1011 40 10000 4.1 320 16:46 25.04.2020
4298 Clouds 15 1011 40 10000 4.1 320 16:27 25.04.2020
4299 Clouds 16 1011 40 10000 3.6 360 15:58 25.04.2020
4300 Clouds 16 1011 40 10000 4.6 320 15:38 25.04.2020
4301 Clouds 16 1011 35 10000 3.6 340 15:19 25.04.2020
4302 Clouds 16 1011 35 10000 3.6 340 14:57 25.04.2020
4303 Clouds 16 1011 35 10000 3.1 350 14:38 25.04.2020
4304 Clouds 16 1011 35 10000 5.1 360 14:19 25.04.2020
4305 Clouds 15 1011 41 0 5.1 350 13:43 25.04.2020
4306 Clouds 14 1011 41 10000 4.6 340 13:19 25.04.2020
4307 Clouds 15 1011 41 10000 4.6 340 12:58 25.04.2020
4308 Clouds 14 1011 43 10000 4.1 360 12:39 25.04.2020
4309 Clouds 13 1011 50 10000 4.1 20 12:20 25.04.2020
4310 Clouds 13 1011 50 10000 4.1 20 11:55 25.04.2020
4311 Clouds 13 1011 57 10000 5.1 340 11:37 25.04.2020
4312 Clouds 13 1011 57 10000 5.1 340 11:19 25.04.2020
4313 Clouds 13 1009 54 10000 3.6 10 10:42 25.04.2020
4314 Clouds 12 1009 61 10000 4.6 340 10:22 25.04.2020
4315 Clouds 11 1009 76 10000 4.1 320 09:47 25.04.2020
4316 Clouds 10 1009 76 10000 4.1 320 09:28 25.04.2020
4317 Clouds 9 1008 70 10000 4.1 310 08:58 25.04.2020
4318 Clouds 9 1008 75 10000 4.1 300 08:39 25.04.2020
4319 Clouds 9 1008 75 10000 4.1 300 08:21 25.04.2020
4320 Clouds 8 1008 70 10000 5.1 300 07:58 25.04.2020
4321 Clouds 8 1007 70 10000 6.7 290 07:39 25.04.2020
4322 Clouds 8 1007 70 10000 6.7 290 06:47 25.04.2020
4323 Clouds 8 1007 70 10000 6.7 290 06:28 25.04.2020
4324 Clouds 8 1006 70 10000 5.7 300 05:40 25.04.2020
4325 Clouds 8 1006 70 10000 5.7 300 05:18 25.04.2020
4326 Clouds 8 1006 70 10000 5.1 290 02:59 25.04.2020
4327 Clouds 8 1006 70 10000 4.1 290 02:21 25.04.2020
4328 Clouds 8 1006 70 10000 4.6 290 01:54 25.04.2020
4329 Clouds 8 1006 70 10000 4.6 290 01:34 25.04.2020
4330 Clouds 9 1006 66 10000 6.2 300 00:58 25.04.2020
4331 Clear 10 1006 53 10000 6.7 300 00:34 25.04.2020
4332 Clear 12 1006 43 10000 5.7 300 23:55 24.04.2020
4333 Clear 12 1005 32 10000 4.6 300 23:36 24.04.2020
4334 Clear 13 1005 30 10000 5.7 300 23:18 24.04.2020
4335 Clear 14 1005 35 10000 6.2 290 22:40 24.04.2020
4336 Clear 15 1005 28 10000 4.6 290 22:19 24.04.2020
4337 Clear 15 1005 28 10000 4.6 290 21:57 24.04.2020
4338 Clear 16 1005 26 10000 5.1 300 21:38 24.04.2020
4339 Clouds 16 1005 26 10000 5.1 300 21:20 24.04.2020
4340 Clouds 17 1005 29 10000 6.2 290 20:56 24.04.2020
4341 Clouds 17 1005 42 10000 5.7 300 20:38 24.04.2020
4342 Clouds 18 1005 25 10000 6.2 290 20:18 24.04.2020
4343 Clouds 19 1005 24 10000 6.7 280 19:43 24.04.2020
4344 Clouds 20 1005 22 10000 6.7 280 19:24 24.04.2020
4345 Clouds 20 1005 22 10000 7.2 290 18:46 24.04.2020
4346 Clouds 21 1005 22 10000 7.2 290 18:28 24.04.2020
4347 Clouds 21 1005 26 10000 6.2 300 17:59 24.04.2020
4348 Clouds 21 1005 28 10000 7.2 290 17:41 24.04.2020
4349 Clouds 21 1006 30 10000 6.2 300 17:22 24.04.2020
4350 Clouds 21 1006 30 10000 6.2 300 16:58 24.04.2020
4351 Clouds 21 1006 30 10000 6.2 300 16:58 24.04.2020
4352 Clouds 22 1006 28 10000 8.2 290 16:40 24.04.2020
4353 Clouds 22 1006 30 10000 6.7 280 16:21 24.04.2020
4354 Clouds 21 1006 30 10000 6.7 280 15:55 24.04.2020
4355 Clouds 22 1006 28 10000 6.2 290 15:37 24.04.2020
4356 Clouds 22 1006 28 10000 6.2 290 15:18 24.04.2020
4357 Clouds 22 1007 26 10000 6.2 300 14:40 24.04.2020
4358 Clouds 22 1007 26 10000 6.2 300 14:20 24.04.2020
4359 Clouds 21 1007 26 10000 5.1 280 13:56 24.04.2020
4360 Clouds 21 1007 28 10000 5.7 260 13:38 24.04.2020
4361 Clouds 21 1008 30 10000 5.1 290 13:18 24.04.2020
4362 Clouds 21 1008 34 10000 2.6 280 12:42 24.04.2020
4363 Clouds 19 1008 37 10000 2.6 290 12:23 24.04.2020
4364 Clouds 19 1008 37 10000 2.6 290 11:58 24.04.2020
4365 Clouds 18 1008 39 10000 3.6 270 11:38 24.04.2020
4366 Clouds 17 1009 42 10000 3.1 280 11:20 24.04.2020
4367 Clouds 17 1009 51 10000 3.1 260 10:55 24.04.2020
4368 Clouds 16 1009 51 10000 3.1 260 10:37 24.04.2020
4369 Clouds 15 1009 58 10000 2.1 260 10:19 24.04.2020
4370 Clouds 14 1009 58 10000 1.5 250 09:45 24.04.2020
4371 Clouds 13 1009 58 10000 1.5 250 09:24 24.04.2020
4372 Clouds 12 1010 62 10000 0.5 0 08:58 24.04.2020
4373 Clouds 11 1010 71 10000 0.5 0 08:39 24.04.2020
4374 Clouds 10 1010 76 10000 0.5 140 08:18 24.04.2020
4375 Clouds 10 1010 76 10000 0.5 140 07:46 24.04.2020
4376 Clouds 9 1011 87 10000 0.5 0 07:26 24.04.2020
4377 Clouds 9 1011 81 10000 1 260 06:58 24.04.2020
4378 Clouds 9 1011 87 10000 0.5 0 06:38 24.04.2020
4379 Clouds 9 1012 81 10000 0.5 0 05:49 24.04.2020
4380 Clouds 9 1013 75 10000 0.5 20 04:33 24.04.2020
4381 Clouds 10 1014 70 10000 1.63 181 03:27 24.04.2020
4382 Clouds 10 1014 70 10000 0.5 10 02:44 24.04.2020
4383 Clouds 10 1015 70 10000 1.66 188 02:20 24.04.2020
4384 Clouds 11 1015 61 10000 0.5 0 01:37 24.04.2020
4385 Clouds 11 1016 62 10000 0.5 110 00:46 24.04.2020
4386 Clouds 12 1016 57 10000 0.5 0 00:18 24.04.2020
4387 Clouds 13 1016 54 10000 1.55 155 23:45 23.04.2020
4388 Clouds 13 1016 54 10000 1.55 155 23:27 23.04.2020
4389 Clouds 14 1017 50 10000 1.55 155 22:57 23.04.2020
4390 Clouds 14 1017 47 10000 0.5 20 22:38 23.04.2020
4391 Clouds 14 1017 38 10000 0.5 0 22:19 23.04.2020
4392 Clouds 14 1017 38 10000 0.5 0 21:57 23.04.2020
4393 Clouds 14 1017 38 10000 0.5 0 21:57 23.04.2020
4394 Clear 16 1017 31 10000 1.5 40 21:38 23.04.2020
4395 Clouds 15 1017 31 10000 1.5 40 21:38 23.04.2020
4396 Clear 16 1017 31 10000 1.5 40 21:20 23.04.2020
4397 Clear 17 1017 28 10000 1.5 80 20:56 23.04.2020
4398 Clear 18 1017 28 10000 1.5 80 20:37 23.04.2020
4399 Clear 19 1018 28 10000 2.1 80 20:18 23.04.2020
4400 Clear 19 1018 28 10000 2.1 80 19:55 23.04.2020
4401 Clear 20 1018 26 10000 1.5 40 19:37 23.04.2020
4402 Clear 20 1018 26 10000 1.5 0 19:19 23.04.2020
4403 Clear 21 1019 26 10000 3.1 90 18:40 23.04.2020
4404 Clear 21 1019 26 10000 3.1 90 18:22 23.04.2020
4405 Clear 21 1019 26 10000 3.6 70 17:58 23.04.2020
4406 Clear 21 1020 26 10000 3.1 90 17:39 23.04.2020
4407 Clear 21 1020 26 10000 3.1 50 17:21 23.04.2020
4408 Clear 21 1020 26 10000 3.1 50 16:56 23.04.2020
4409 Clear 21 1020 26 10000 3.1 0 16:37 23.04.2020
4410 Clear 21 1021 26 10000 3.1 70 16:18 23.04.2020
4411 Clear 21 1021 28 10000 3.1 0 15:41 23.04.2020
4412 Clear 20 1022 28 10000 4.1 100 15:22 23.04.2020
4413 Clear 21 1022 28 10000 3.1 0 14:56 23.04.2020
4414 Clear 21 1022 28 10000 3.1 0 14:37 23.04.2020
4415 Clear 20 1023 28 10000 2.6 100 14:19 23.04.2020
4416 Clear 20 1023 28 10000 2.6 0 13:41 23.04.2020
4417 Clear 20 1023 28 10000 2.6 0 13:23 23.04.2020
4418 Clear 19 1024 32 10000 4.6 90 12:59 23.04.2020
4419 Clear 20 1024 32 10000 3.6 90 12:41 23.04.2020
4420 Clear 19 1024 32 10000 3.6 90 12:23 23.04.2020
4421 Clear 19 1024 32 10000 3.6 90 12:23 23.04.2020
4422 Clear 18 1024 34 10000 1.5 0 11:55 23.04.2020
4423 Clear 18 1024 34 10000 1.5 0 11:36 23.04.2020
4424 Clear 17 1025 36 10000 2.6 110 11:18 23.04.2020
4425 Clear 17 1025 39 10000 2.1 110 10:41 23.04.2020
4426 Clear 17 1025 41 10000 1 0 10:21 23.04.2020
4427 Clear 14 1025 44 10000 2.1 80 09:41 23.04.2020
4428 Clear 12 1025 50 10000 1.5 70 09:20 23.04.2020
4429 Clear 12 1025 57 10000 1.5 70 08:59 23.04.2020
4430 Clear 11 1025 57 10000 1.5 70 08:40 23.04.2020
4431 Clear 11 1025 66 10000 1.5 60 08:21 23.04.2020
4432 Clear 10 1025 70 10000 1 0 07:42 23.04.2020
4433 Clear 8 1025 81 10000 1 0 07:23 23.04.2020
4434 Clear 7 1025 87 10000 1 0 06:48 23.04.2020
4435 Clear 7 1025 87 10000 1 0 06:22 23.04.2020
4436 Clear 8 1025 75 10000 1 0 05:29 23.04.2020
4437 Clear 8 1025 81 10000 1 0 04:51 23.04.2020
4438 Clear 10 1025 61 10000 2.1 60 02:24 23.04.2020
4439 Clear 10 1025 53 10000 2.1 40 01:49 23.04.2020
4440 Clear 11 1025 53 10000 2.1 40 01:25 23.04.2020
4441 Clear 11 1025 50 10000 2.1 40 00:45 23.04.2020
4442 Clear 12 1025 50 10000 1.5 50 00:20 23.04.2020
4443 Clear 12 1025 47 10000 2.1 60 23:49 22.04.2020
4444 Clear 12 1025 47 10000 2.1 60 23:23 22.04.2020
4445 Clear 12 1025 47 10000 2.1 50 22:56 22.04.2020
4446 Clear 13 1024 44 10000 2.1 40 22:37 22.04.2020
4447 Clear 14 1024 38 10000 2.1 70 22:19 22.04.2020
4448 Clear 14 1024 38 10000 2.1 70 21:56 22.04.2020
4449 Clear 15 1024 36 10000 2.6 70 21:37 22.04.2020
4450 Clear 15 1024 36 10000 2.6 70 21:19 22.04.2020
4451 Clear 16 1024 33 10000 4.1 70 20:43 22.04.2020
4452 Clear 16 1024 33 10000 4.1 70 20:20 22.04.2020
4453 Clear 17 1024 31 10000 4.1 70 19:58 22.04.2020
4454 Clear 18 1024 51 10000 4.6 60 19:39 22.04.2020
4455 Clear 18 1024 51 10000 4.6 60 19:19 22.04.2020
4456 Clear 18 1024 51 10000 4.6 80 18:59 22.04.2020
4457 Clear 18 1024 25 10000 4.6 80 18:41 22.04.2020
4458 Clear 18 1024 38 10000 5.7 80 18:22 22.04.2020
4459 Clear 19 1024 29 10000 4.6 80 17:58 22.04.2020
4460 Clear 18 1024 29 10000 4.6 80 17:39 22.04.2020
4461 Clear 18 1024 31 10000 5.1 90 17:21 22.04.2020
4462 Clear 18 1025 38 10000 5.1 90 16:46 22.04.2020
4463 Clear 19 1025 38 10000 5.1 90 16:28 22.04.2020
4464 Clear 19 1025 31 10000 4.1 50 15:54 22.04.2020
4465 Clear 18 1025 31 10000 4.1 50 15:36 22.04.2020
4466 Clear 18 1025 31 10000 5.1 90 15:18 22.04.2020
4467 Clear 18 1025 31 10000 5.1 90 14:55 22.04.2020
4468 Clear 18 1026 34 10000 4.6 0 14:36 22.04.2020
4469 Clear 18 1026 36 10000 4.6 90 14:18 22.04.2020
4470 Clear 18 1026 39 10000 4.6 80 13:43 22.04.2020
4471 Clear 17 1026 38 10000 5.1 90 13:20 22.04.2020
4472 Clear 17 1027 41 10000 4.1 80 12:42 22.04.2020
4473 Clear 16 1027 41 10000 4.1 80 12:23 22.04.2020
4474 Clear 15 1027 44 10000 3.6 50 11:58 22.04.2020
4475 Clear 15 1027 47 10000 2.6 70 11:39 22.04.2020
4476 Clear 14 1027 47 10000 4.1 60 11:19 22.04.2020
4477 Clear 14 1027 50 10000 3.1 70 10:44 22.04.2020
4478 Clear 13 1027 53 10000 3.6 90 10:24 22.04.2020
4479 Clear 13 1027 53 10000 3.6 90 09:55 22.04.2020
4480 Clear 10 1027 57 10000 4.1 70 09:36 22.04.2020
4481 Clear 10 1027 57 10000 3.1 70 09:18 22.04.2020
4482 Clear 10 1027 61 10000 3.1 70 08:41 22.04.2020
4483 Clear 10 1027 61 10000 3.1 70 08:41 22.04.2020
4484 Clear 10 1027 61 10000 3.1 70 08:23 22.04.2020
4485 Clear 9 1027 65 10000 2.1 60 07:58 22.04.2020
4486 Clear 8 1027 70 10000 2.6 50 07:39 22.04.2020
4487 Clear 8 1027 70 10000 2.6 50 07:19 22.04.2020
4488 Clear 7 1026 75 10000 2.1 60 06:42 22.04.2020
4489 Clear 7 1026 70 10000 2.6 60 05:45 22.04.2020
4490 Clear 7 1026 70 10000 2.6 60 04:59 22.04.2020
4491 Clear 8 1026 65 10000 2.6 50 03:40 22.04.2020
4492 Clear 9 1026 61 10000 2.1 50 02:28 22.04.2020
4493 Clear 10 1026 53 10000 2.6 50 01:41 22.04.2020
4494 Clear 10 1026 65 10000 3.1 40 01:23 22.04.2020
4495 Clear 10 1026 65 10000 3.1 40 00:41 22.04.2020
4496 Clear 11 1026 58 10000 2.1 70 00:20 22.04.2020
4497 Clear 11 1025 58 10000 2.1 70 23:45 21.04.2020
4498 Clear 12 1025 58 10000 2.6 80 23:23 21.04.2020
4499 Clear 12 1025 58 10000 2.6 80 22:59 21.04.2020
4500 Clear 12 1025 58 10000 2.6 70 22:39 21.04.2020
4501 Clear 13 1025 35 10000 2.1 70 22:20 21.04.2020
4502 Clear 13 1025 35 10000 2.1 70 21:57 21.04.2020
4503 Clear 14 1025 35 10000 3.6 80 21:39 21.04.2020
4504 Clear 14 1025 35 10000 3.6 80 21:21 21.04.2020
4505 Clear 15 1025 31 10000 5.7 90 20:41 21.04.2020
4506 Clear 15 1025 31 10000 5.7 90 20:23 21.04.2020
4507 Clear 16 1025 31 10000 5.7 80 19:59 21.04.2020
4508 Clear 16 1025 29 10000 6.2 80 19:39 21.04.2020
4509 Clear 16 1025 29 10000 6.2 80 19:19 21.04.2020
4510 Clear 16 1025 29 10000 5.7 80 18:56 21.04.2020
4511 Clear 17 1025 29 10000 6.2 80 18:38 21.04.2020
4512 Clear 17 1025 27 10000 6.2 90 18:18 21.04.2020
4513 Clear 17 1025 29 10000 7.7 90 17:41 21.04.2020
4514 Clear 17 1025 29 10000 7.2 90 17:21 21.04.2020
4515 Clear 17 1025 29 10000 7.2 90 16:59 21.04.2020
4516 Clear 17 1025 38 10000 7.2 100 16:38 21.04.2020
4517 Clear 17 1025 39 10000 7.2 80 16:19 21.04.2020
4518 Clear 17 1026 39 10000 7.7 100 15:55 21.04.2020
4519 Clear 17 1026 39 10000 7.7 100 15:37 21.04.2020
4520 Clear 16 1026 36 10000 5.7 90 15:19 21.04.2020
4521 Clear 16 1026 39 10000 7.7 80 14:45 21.04.2020
4522 Clear 16 1026 39 10000 7.7 80 14:25 21.04.2020
4523 Clear 16 1026 33 10000 7.2 80 13:59 21.04.2020
4524 Clear 16 1026 33 10000 6.7 90 13:38 21.04.2020
4525 Clear 16 1026 35 10000 7.2 100 13:19 21.04.2020
4526 Clear 15 1026 39 10000 6.7 80 12:54 21.04.2020
4527 Clear 13 1026 48 10000 6.7 80 12:36 21.04.2020
4528 Clear 13 1027 48 10000 7.2 90 12:18 21.04.2020
4529 Clear 13 1027 48 10000 7.2 90 12:18 21.04.2020
4530 Clear 13 1027 48 10000 7.2 90 11:54 21.04.2020
4531 Clear 13 1027 48 10000 7.2 70 11:36 21.04.2020
4532 Clear 13 1027 48 10000 6.7 80 11:18 21.04.2020
4533 Clear 12 1027 48 10000 5.1 80 10:54 21.04.2020
4534 Clear 12 1027 48 10000 5.1 80 10:36 21.04.2020
4535 Clear 12 1027 48 10000 4.6 90 10:18 21.04.2020
4536 Clear 10 1027 48 10000 4.6 80 09:37 21.04.2020
4537 Clear 9 1027 65 10000 4.6 80 09:18 21.04.2020
4538 Clear 8 1027 65 10000 5.1 80 08:55 21.04.2020
4539 Clear 8 1027 56 10000 4.6 70 08:37 21.04.2020
4540 Clear 8 1027 56 10000 4.1 70 08:18 21.04.2020
4541 Clear 6 1026 60 10000 3.1 70 07:43 21.04.2020
4542 Clear 6 1026 60 10000 3.1 80 07:20 21.04.2020
4543 Clear 6 1026 60 10000 4.1 80 06:44 21.04.2020
4544 Clear 6 1026 60 10000 3.6 80 06:19 21.04.2020
4545 Clear 6 1026 60 10000 3.6 80 05:45 21.04.2020
4546 Clear 7 1026 56 10000 2.6 80 03:48 21.04.2020
4547 Clear 7 1026 56 10000 2.6 60 03:27 21.04.2020
4548 Clear 8 1026 49 10000 3.1 60 01:40 21.04.2020
4549 Clear 9 1026 49 10000 3.6 60 00:53 21.04.2020
4550 Clear 9 1026 46 10000 3.6 60 00:32 21.04.2020
4551 Clear 10 1026 43 10000 3.1 40 23:44 20.04.2020
4552 Clear 10 1025 52 10000 2.1 80 23:25 20.04.2020
4553 Clear 10 1025 52 10000 2.1 80 22:57 20.04.2020
4554 Clear 10 1025 52 10000 2.6 70 22:38 20.04.2020
4555 Clear 11 1025 52 10000 2.6 70 22:19 20.04.2020
4556 Clear 11 1025 40 10000 2.6 70 21:57 20.04.2020
4557 Clear 12 1025 37 10000 3.6 70 21:38 20.04.2020
4558 Clear 12 1025 37 10000 3.6 70 21:19 20.04.2020
4559 Clear 13 1025 37 10000 3.6 70 20:57 20.04.2020
4560 Clear 13 1024 35 10000 4.6 70 20:38 20.04.2020
4561 Clear 13 1024 35 10000 7.2 90 20:18 20.04.2020
4562 Clear 14 1024 35 10000 7.2 90 20:18 20.04.2020
4563 Clear 14 1024 33 10000 4.6 80 19:57 20.04.2020
4564 Clear 14 1024 33 10000 6.2 90 19:38 20.04.2020
4565 Clear 15 1024 33 10000 6.2 90 19:19 20.04.2020
4566 Clear 15 1024 30 10000 6.7 100 18:42 20.04.2020
4567 Clear 15 1024 30 10000 6.7 100 18:23 20.04.2020
4568 Clear 15 1024 30 10000 5.7 90 17:56 20.04.2020
4569 Clear 15 1024 31 10000 6.2 100 17:37 20.04.2020
4570 Rain 15 1025 31 0 5.7 100 17:19 20.04.2020
4571 Rain 16 1025 31 0 5.7 100 16:58 20.04.2020
4572 Rain 15 1025 33 10000 5.7 80 16:39 20.04.2020
4573 Clear 15 1025 33 10000 5.7 70 16:18 20.04.2020
4574 Clear 15 1026 33 10000 5.7 100 15:43 20.04.2020
4575 Clear 15 1026 33 10000 4.6 80 15:23 20.04.2020
4576 Clear 15 1026 33 10000 4.6 80 14:58 20.04.2020
4577 Clear 15 1026 33 10000 6.7 70 14:40 20.04.2020
4578 Clear 15 1026 33 10000 6.7 70 14:19 20.04.2020
4579 Clear 15 1026 35 10000 4.6 60 13:54 20.04.2020
4580 Clear 14 1027 33 10000 5.1 80 13:36 20.04.2020
4581 Clear 14 1027 35 10000 6.2 80 13:18 20.04.2020
4582 Clear 14 1027 37 10000 6.2 80 12:42 20.04.2020
4583 Clear 12 1027 37 10000 6.2 80 12:21 20.04.2020
4584 Clear 12 1027 37 10000 5.7 70 11:42 20.04.2020
4585 Clear 12 1027 40 10000 5.7 90 11:22 20.04.2020
4586 Clear 12 1027 40 10000 5.7 90 10:57 20.04.2020
4587 Clear 11 1027 43 10000 5.1 90 10:39 20.04.2020
4588 Clear 11 1027 43 10000 4.6 90 10:20 20.04.2020
4589 Clear 11 1027 43 10000 4.6 90 09:59 20.04.2020
4590 Clear 10 1027 45 10000 3.6 80 09:40 20.04.2020
4591 Clear 9 1027 45 10000 3.6 80 09:21 20.04.2020
4592 Clear 8 1027 52 10000 3.6 80 08:42 20.04.2020
4593 Clear 7 1027 52 10000 3.6 80 08:23 20.04.2020
4594 Clear 7 1027 56 10000 3.1 80 07:59 20.04.2020
4595 Clear 6 1027 60 10000 2.6 70 07:39 20.04.2020
4596 Clear 5 1026 64 10000 2.6 50 07:19 20.04.2020
4597 Clear 5 1026 64 10000 2.6 50 07:19 20.04.2020
4598 Clear 5 1026 64 10000 2.1 60 06:37 20.04.2020
4599 Clear 5 1026 60 10000 2.6 70 05:57 20.04.2020
4600 Clear 6 1026 56 10000 3.1 60 04:46 20.04.2020
4601 Clear 6 1026 56 10000 2.6 60 02:49 20.04.2020
4602 Clear 6 1026 56 10000 2.6 60 02:27 20.04.2020
4603 Clear 7 1026 56 10000 2.6 50 01:29 20.04.2020
4604 Clear 7 1025 52 10000 3.6 50 00:45 20.04.2020
4605 Clear 7 1025 52 10000 3.6 50 00:22 20.04.2020
4606 Clear 8 1025 52 10000 3.6 40 23:40 19.04.2020
4607 Clear 8 1024 52 10000 3.1 40 23:21 19.04.2020
4608 Clear 8 1024 52 10000 3.1 40 22:57 19.04.2020
4609 Clear 9 1024 49 10000 3.1 30 22:37 19.04.2020
4610 Clear 9 1024 46 10000 3.1 30 22:19 19.04.2020
4611 Clear 10 1024 34 10000 2.1 40 21:42 19.04.2020
4612 Clear 11 1023 32 10000 3.1 60 21:24 19.04.2020
4613 Clear 11 1023 32 10000 3.1 60 20:59 19.04.2020
4614 Clear 11 1023 30 10000 3.6 70 20:41 19.04.2020
4615 Clear 12 1023 30 10000 5.7 70 20:20 19.04.2020
4616 Clear 12 1023 30 10000 3.6 70 20:20 19.04.2020
4617 Clear 12 1023 30 10000 5.7 70 19:57 19.04.2020
4618 Clear 12 1023 26 10000 5.1 70 19:39 19.04.2020
4619 Clear 12 1023 26 10000 5.1 70 19:21 19.04.2020
4620 Clear 13 1023 26 10000 5.7 50 18:57 19.04.2020
4621 Clear 13 1023 26 10000 5.7 50 18:39 19.04.2020
4622 Clear 13 1023 26 10000 5.7 70 18:19 19.04.2020
4623 Clear 13 1023 26 10000 5.7 70 17:56 19.04.2020
4624 Clear 13 1023 26 10000 6.2 90 17:38 19.04.2020
4625 Clear 13 1023 24 10000 5.1 70 17:20 19.04.2020
4626 Clear 14 1023 24 10000 5.1 70 16:56 19.04.2020
4627 Clear 14 1023 26 10000 5.7 80 16:36 19.04.2020
4628 Clear 13 1023 24 10000 5.7 80 16:18 19.04.2020
4629 Clear 14 1023 26 10000 4.6 80 15:42 19.04.2020
4630 Clear 13 1023 26 10000 4.6 80 15:21 19.04.2020
4631 Clear 13 1023 28 10000 5.1 40 14:54 19.04.2020
4632 Clear 13 1023 28 10000 5.1 40 14:36 19.04.2020
4633 Clear 13 1023 30 10000 5.1 50 14:18 19.04.2020
4634 Clear 13 1023 29 10000 6.2 30 13:38 19.04.2020
4635 Clear 13 1023 27 10000 5.7 70 13:19 19.04.2020
4636 Clear 12 1023 27 10000 5.7 40 12:49 19.04.2020
4637 Clear 12 1023 27 10000 5.7 40 12:49 19.04.2020
4638 Clear 12 1023 27 10000 5.7 40 12:25 19.04.2020
4639 Clear 11 1023 34 10000 4.6 70 11:56 19.04.2020
4640 Clear 11 1023 34 10000 5.7 60 11:37 19.04.2020
4641 Clear 11 1022 34 10000 5.7 70 11:18 19.04.2020
4642 Clear 10 1022 34 10000 6.2 50 10:55 19.04.2020
4643 Clear 10 1022 34 10000 6.2 50 10:37 19.04.2020
4644 Clear 10 1022 34 10000 5.7 60 10:18 19.04.2020
4645 Clear 10 1022 36 10000 4.6 70 09:44 19.04.2020
4646 Clouds 9 1022 36 10000 4.6 70 09:25 19.04.2020
4647 Clouds 8 1021 45 10000 4.6 80 08:41 19.04.2020
4648 Clouds 8 1021 45 10000 4.6 80 08:41 19.04.2020
4649 Clouds 8 1021 45 10000 4.6 80 08:21 19.04.2020
4650 Clouds 7 1021 48 10000 4.6 70 07:59 19.04.2020
4651 Clouds 7 1021 48 10000 5.1 70 07:41 19.04.2020
4652 Clouds 6 1020 52 10000 3.6 50 07:21 19.04.2020
4653 Clouds 6 1020 52 10000 3.1 60 06:28 19.04.2020
4654 Clouds 7 1019 48 10000 3.1 50 05:47 19.04.2020
4655 Clouds 8 1018 45 10000 2.6 50 04:28 19.04.2020
4656 Clouds 8 1019 42 10000 3.6 50 02:59 19.04.2020
4657 Clouds 8 1019 39 10000 3.1 50 02:21 19.04.2020
4658 Clouds 8 1018 39 10000 3.1 50 01:38 19.04.2020
4659 Clouds 9 1018 36 10000 4.1 50 00:48 19.04.2020
4660 Clear 9 1018 36 10000 3.6 50 00:25 19.04.2020
4661 Clear 9 1018 36 10000 3.1 50 23:56 18.04.2020
4662 Clear 9 1018 39 10000 4.1 40 23:36 18.04.2020
4663 Clear 10 1018 37 10000 4.1 40 23:18 18.04.2020
4664 Clear 10 1018 34 10000 5.1 50 22:41 18.04.2020
4665 Clear 11 1017 32 10000 5.1 40 22:21 18.04.2020
4666 Clear 11 1017 32 10000 5.1 40 21:57 18.04.2020
4667 Clear 12 1017 24 10000 3.1 40 21:38 18.04.2020
4668 Clear 13 1017 24 10000 3.6 40 21:20 18.04.2020
4669 Clear 14 1016 24 10000 3.6 40 20:42 18.04.2020
4670 Clear 15 1016 23 10000 3.6 50 20:22 18.04.2020
4671 Clear 15 1016 23 10000 3.6 50 19:59 18.04.2020
4672 Clear 16 1016 25 10000 3.1 60 19:38 18.04.2020
4673 Clear 16 1016 25 10000 3.1 60 19:20 18.04.2020
4674 Clear 16 1016 23 10000 4.1 100 18:38 18.04.2020
4675 Clear 17 1016 23 10000 3.1 50 18:20 18.04.2020
4676 Clear 17 1016 23 10000 3.1 50 17:56 18.04.2020
4677 Clear 17 1016 20 10000 3.1 40 17:38 18.04.2020
4678 Clear 17 1017 21 10000 2.6 0 17:18 18.04.2020
4679 Clear 17 1017 21 10000 3.1 60 16:42 18.04.2020
4680 Clear 17 1017 21 10000 3.1 60 16:22 18.04.2020
4681 Clear 17 1017 23 10000 4.1 120 15:55 18.04.2020
4682 Clear 18 1017 23 10000 1.5 0 15:37 18.04.2020
4683 Clear 17 1018 26 10000 3.6 100 15:19 18.04.2020
4684 Clear 17 1018 26 10000 2.6 100 14:42 18.04.2020
4685 Clear 17 1018 29 10000 3.1 90 14:19 18.04.2020
4686 Clear 16 1018 26 10000 3.1 70 13:43 18.04.2020
4687 Clear 16 1018 26 10000 3.1 70 13:43 18.04.2020
4688 Clear 16 1018 28 10000 3.1 30 13:21 18.04.2020
4689 Clear 16 1019 30 10000 2.1 0 12:43 18.04.2020
4690 Clear 14 1019 30 10000 2.1 0 12:25 18.04.2020
4691 Clear 14 1019 33 10000 3.1 80 11:59 18.04.2020
4692 Clear 13 1019 35 10000 3.1 90 11:40 18.04.2020
4693 Clear 13 1019 35 10000 3.1 90 11:21 18.04.2020
4694 Clear 13 1019 34 10000 2.6 40 10:56 18.04.2020
4695 Clear 12 1019 34 10000 1 0 10:36 18.04.2020
4696 Clear 12 1019 37 10000 2.1 100 10:18 18.04.2020
4697 Clear 10 1019 39 10000 3.1 120 09:41 18.04.2020
4698 Clear 9 1019 39 10000 3.1 120 09:21 18.04.2020
4699 Clear 8 1019 45 10000 2.6 90 08:43 18.04.2020
4700 Clear 8 1019 45 10000 2.6 90 08:43 18.04.2020
4701 Clear 7 1019 45 10000 2.6 90 08:23 18.04.2020
4702 Clear 6 1019 52 10000 2.1 70 07:51 18.04.2020
4703 Clear 6 1019 52 10000 2.1 70 07:32 18.04.2020
4704 Clear 6 1019 52 10000 2.6 50 06:53 18.04.2020
4705 Clear 7 1018 48 10000 1.5 60 05:50 18.04.2020
4706 Clear 6 1018 48 10000 2.6 70 05:23 18.04.2020
4707 Clear 7 1018 45 10000 1.5 60 04:45 18.04.2020
4708 Clear 7 1018 45 10000 1.5 60 04:24 18.04.2020
4709 Clouds 7 1019 48 10000 2.6 80 02:45 18.04.2020
4710 Clouds 8 1019 48 10000 2.6 80 02:22 18.04.2020
4711 Clouds 8 1019 45 10000 2.6 70 01:51 18.04.2020
4712 Clouds 8 1019 49 10000 2.6 60 01:33 18.04.2020
4713 Clouds 9 1018 49 10000 3.1 50 00:41 18.04.2020
4714 Clouds 9 1018 46 10000 3.6 50 00:20 18.04.2020
4715 Clouds 10 1018 46 10000 3.6 50 23:55 17.04.2020
4716 Clouds 10 1018 46 10000 3.6 50 23:36 17.04.2020
4717 Clouds 11 1018 43 10000 3.6 50 23:18 17.04.2020
4718 Clouds 10 1018 43 10000 3.6 50 22:54 17.04.2020
4719 Clouds 12 1017 40 10000 1.5 60 22:36 17.04.2020
4720 Clouds 13 1017 37 10000 2.1 50 22:18 17.04.2020
4721 Clouds 13 1017 52 10000 2.6 70 21:41 17.04.2020
4722 Clouds 13 1017 46 10000 2.6 70 21:21 17.04.2020
4723 Clouds 13 1017 46 10000 2.6 70 21:21 17.04.2020
4724 Clouds 14 1017 46 10000 3.1 70 20:56 17.04.2020
4725 Clouds 14 1017 46 10000 2.6 80 20:37 17.04.2020
4726 Clouds 15 1016 46 10000 3.1 40 20:18 17.04.2020
4727 Clouds 15 1016 46 10000 3.1 40 19:56 17.04.2020
4728 Clouds 16 1016 46 10000 3.1 340 19:38 17.04.2020
4729 Clouds 17 1016 46 10000 1.5 0 19:20 17.04.2020
4730 Clouds 17 1016 29 10000 1 0 18:44 17.04.2020
4731 Clouds 17 1016 29 10000 1 0 18:23 17.04.2020
4732 Clouds 17 1016 27 10000 1.5 0 17:55 17.04.2020
4733 Clouds 17 1016 27 10000 1.5 0 17:36 17.04.2020
4734 Clouds 17 1016 27 10000 1.5 0 17:18 17.04.2020
4735 Clouds 18 1017 27 10000 1.5 0 16:41 17.04.2020
4736 Clouds 18 1017 27 10000 1.5 0 16:41 17.04.2020
4737 Clouds 17 1017 29 10000 1.5 0 16:22 17.04.2020
4738 Clouds 17 1017 32 10000 2.1 70 15:41 17.04.2020
4739 Clouds 17 1017 34 10000 2.1 70 15:23 17.04.2020
4740 Clouds 17 1017 31 10000 2.1 0 14:57 17.04.2020
4741 Clouds 17 1018 36 10000 2.6 120 14:38 17.04.2020
4742 Clouds 17 1018 36 10000 2.1 0 14:20 17.04.2020
4743 Clouds 16 1018 36 10000 2.1 0 13:55 17.04.2020
4744 Clouds 16 1018 38 10000 2.6 340 13:36 17.04.2020
4745 Clouds 16 1018 38 10000 1.5 0 13:18 17.04.2020
4746 Clouds 15 1018 41 10000 2.6 10 12:43 17.04.2020
4747 Clouds 15 1018 44 10000 1.5 0 12:22 17.04.2020
4748 Clouds 14 1018 50 10000 1.5 0 11:41 17.04.2020
4749 Clouds 14 1018 50 10000 1.5 0 11:19 17.04.2020
4750 Clouds 13 1018 54 10000 2.1 0 10:56 17.04.2020
4751 Clouds 13 1018 54 10000 2.1 0 10:38 17.04.2020
4752 Clouds 13 1018 54 10000 2.1 0 10:18 17.04.2020
4753 Clouds 11 1018 66 10000 1.5 10 09:41 17.04.2020
4754 Clouds 10 1018 70 10000 2.1 40 09:20 17.04.2020
4755 Clouds 10 1018 70 10000 2.1 40 08:58 17.04.2020
4756 Clouds 9 1018 75 10000 2.1 20 08:39 17.04.2020
4757 Clouds 9 1018 75 10000 2.1 20 08:19 17.04.2020
4758 Clouds 7 1018 75 10000 1.5 340 07:44 17.04.2020
4759 Clouds 7 1017 93 10000 0.5 0 07:23 17.04.2020
4760 Clouds 6 1017 93 10000 1 0 06:47 17.04.2020
4761 Clouds 6 1017 86 10000 0.5 0 06:23 17.04.2020
4762 Clouds 7 1017 86 10000 0.5 0 05:27 17.04.2020
4763 Clouds 8 1016 75 10000 1 350 03:20 17.04.2020
4764 Clouds 8 1016 66 10000 1 0 02:33 17.04.2020
4765 Clouds 10 1016 62 10000 1.5 360 01:29 17.04.2020
4766 Clouds 10 1016 62 10000 1.5 20 00:53 17.04.2020
4767 Clouds 10 1016 62 10000 2.1 30 00:19 17.04.2020
4768 Clouds 11 1015 58 10000 2.6 40 23:45 16.04.2020
4769 Clouds 11 1015 62 10000 3.6 50 23:23 16.04.2020
4770 Clouds 12 1015 58 10000 3.1 30 22:58 16.04.2020
4771 Clouds 12 1015 62 10000 2.1 300 22:38 16.04.2020
4772 Clouds 13 1015 62 10000 2.1 300 22:20 16.04.2020
4773 Clouds 13 1015 58 10000 2.1 300 21:56 16.04.2020
4774 Clouds 14 1014 58 10000 2.1 280 21:37 16.04.2020
4775 Clouds 14 1014 58 10000 2.1 280 21:18 16.04.2020
4776 Clouds 15 1014 54 10000 2.1 300 20:40 16.04.2020
4777 Clouds 16 1014 51 10000 2.1 310 20:22 16.04.2020
4778 Clouds 16 1014 51 10000 3.1 290 19:56 16.04.2020
4779 Clouds 17 1014 48 10000 3.6 280 19:38 16.04.2020
4780 Clouds 17 1014 48 10000 3.6 280 19:19 16.04.2020
4781 Clouds 18 1014 45 10000 4.1 300 18:45 16.04.2020
4782 Clouds 18 1014 45 10000 4.1 300 18:26 16.04.2020
4783 Clouds 18 1015 42 10000 3.6 310 17:59 16.04.2020
4784 Clouds 18 1015 42 10000 3.6 310 17:40 16.04.2020
4785 Clouds 18 1015 45 10000 4.1 280 17:21 16.04.2020
4786 Clouds 18 1015 42 10000 3.6 300 16:45 16.04.2020
4787 Clouds 18 1015 42 10000 3.6 300 16:45 16.04.2020
4788 Clouds 19 1015 31 10000 4.6 270 16:26 16.04.2020
4789 Clouds 18 1015 48 10000 4.1 280 15:59 16.04.2020
4790 Clouds 19 1015 48 10000 4.1 280 15:39 16.04.2020
4791 Clouds 18 1016 36 10000 5.7 300 15:19 16.04.2020
4792 Clouds 18 1016 39 10000 4.6 290 14:55 16.04.2020
4793 Clouds 17 1016 41 10000 5.1 280 14:37 16.04.2020
4794 Clouds 18 1016 29 10000 5.7 290 14:18 16.04.2020
4795 Clouds 17 1016 41 10000 4.6 290 13:42 16.04.2020
4796 Clouds 17 1016 41 10000 4.6 290 13:23 16.04.2020
4797 Clouds 16 1016 41 10000 4.6 270 12:58 16.04.2020
4798 Clouds 15 1016 44 10000 4.1 310 12:40 16.04.2020
4799 Clouds 15 1016 44 10000 4.1 310 12:20 16.04.2020
4800 Clouds 15 1017 44 10000 4.6 290 12:00 16.04.2020
4801 Clouds 14 1017 44 10000 4.6 290 11:41 16.04.2020
4802 Clouds 14 1017 47 10000 4.6 290 11:21 16.04.2020
4803 Clouds 13 1017 46 10000 4.1 300 10:56 16.04.2020
4804 Clouds 13 1017 46 10000 4.1 300 10:38 16.04.2020
4805 Clouds 13 1017 50 10000 4.6 280 10:18 16.04.2020
4806 Clouds 12 1017 53 10000 4.6 300 09:55 16.04.2020
4807 Clouds 10 1017 53 10000 4.1 290 09:37 16.04.2020
4808 Clouds 10 1017 53 10000 4.1 290 09:18 16.04.2020
4809 Clouds 9 1017 57 10000 3.6 280 08:41 16.04.2020
4810 Clouds 8 1017 61 10000 3.1 280 08:22 16.04.2020
4811 Clouds 7 1017 70 10000 2.6 250 07:46 16.04.2020
4812 Clouds 6 1017 70 10000 4.1 260 07:26 16.04.2020
4813 Clouds 6 1017 70 10000 2.1 270 06:43 16.04.2020
4814 Clouds 6 1017 76 10000 2.6 280 06:25 16.04.2020
4815 Clouds 5 1018 76 10000 2.1 290 05:34 16.04.2020
4816 Clouds 6 1018 76 10000 3.1 270 03:59 16.04.2020
4817 Clear 7 1018 72 10000 3.1 260 03:23 16.04.2020
4818 Clear 7 1018 70 10000 2.6 260 02:47 16.04.2020
4819 Clear 7 1018 70 10000 2.1 270 02:28 16.04.2020
4820 Clear 8 1018 70 10000 2.6 250 01:19 16.04.2020
4821 Clear 9 1019 65 10000 4.1 250 00:34 16.04.2020
4822 Clear 9 1019 65 10000 4.6 250 23:59 15.04.2020
4823 Clear 9 1019 65 10000 4.6 250 23:41 15.04.2020
4824 Clear 10 1019 57 10000 4.6 260 23:22 15.04.2020
4825 Clear 10 1019 65 10000 3.1 250 22:41 15.04.2020
4826 Clear 10 1019 65 10000 3.1 250 22:22 15.04.2020
4827 Clear 10 1019 65 10000 3.1 250 22:22 15.04.2020
4828 Clear 10 1019 65 10000 3.6 250 21:59 15.04.2020
4829 Clear 11 1019 65 10000 3.6 250 21:41 15.04.2020
4830 Clouds 11 1019 52 10000 3.1 250 21:23 15.04.2020
4831 Clouds 11 1019 52 10000 3.6 260 20:59 15.04.2020
4832 Clouds 12 1019 52 10000 3.6 260 20:40 15.04.2020
4833 Clouds 14 1019 52 10000 3.6 260 20:22 15.04.2020
4834 Clouds 14 1019 52 10000 3.6 280 19:57 15.04.2020
4835 Clouds 15 1019 52 10000 3.6 280 19:39 15.04.2020
4836 Clouds 15 1020 52 10000 5.7 280 19:18 15.04.2020
4837 Clouds 15 1020 36 10000 4.6 290 18:40 15.04.2020
4838 Clouds 15 1020 42 10000 6.2 270 18:22 15.04.2020
4839 Clouds 16 1020 42 10000 6.2 270 17:56 15.04.2020
4840 Clouds 16 1020 42 10000 6.2 270 17:38 15.04.2020
4841 Clouds 15 1020 42 10000 6.2 270 17:20 15.04.2020
4842 Clouds 15 1020 38 10000 6.7 280 16:55 15.04.2020
4843 Clouds 15 1020 38 10000 6.7 280 16:37 15.04.2020
4844 Clouds 15 1020 38 10000 6.7 270 16:18 15.04.2020
4845 Clouds 15 1021 41 10000 6.2 300 15:56 15.04.2020
4846 Clouds 15 1021 41 10000 6.2 300 15:37 15.04.2020
4847 Clouds 15 1021 41 10000 6.2 300 15:37 15.04.2020
4848 Clouds 14 1021 43 10000 6.7 270 15:19 15.04.2020
4849 Clouds 14 1021 43 10000 6.7 270 15:19 15.04.2020
4850 Clouds 14 1021 43 10000 7.2 270 14:55 15.04.2020
4851 Clouds 14 1021 43 10000 7.2 270 14:37 15.04.2020
4852 Clouds 13 1021 50 10000 7.7 270 14:18 15.04.2020
4853 Clouds 13 1021 46 10000 6.7 280 13:55 15.04.2020
4854 Clouds 12 1021 46 10000 6.2 290 13:36 15.04.2020
4855 Clouds 12 1021 46 10000 6.2 290 13:18 15.04.2020
4856 Clouds 12 1021 53 10000 7.2 270 12:41 15.04.2020
4857 Clouds 10 1022 61 10000 7.2 260 12:23 15.04.2020
4858 Clouds 10 1022 61 10000 6.7 280 11:58 15.04.2020
4859 Clouds 9 1022 65 10000 7.7 260 11:39 15.04.2020
4860 Clouds 9 1022 65 10000 7.7 260 11:21 15.04.2020
4861 Clouds 8 1022 65 10000 8.2 270 10:39 15.04.2020
4862 Clouds 8 1022 65 10000 8.2 270 10:21 15.04.2020
4863 Clouds 7 1022 70 10000 8.2 260 09:57 15.04.2020
4864 Clouds 7 1022 70 10000 8.2 260 09:39 15.04.2020
4865 Clouds 6 1022 70 10000 7.2 270 09:21 15.04.2020
4866 Clouds 6 1021 70 10000 6.7 260 08:58 15.04.2020
4867 Clouds 6 1021 70 10000 6.7 260 08:39 15.04.2020
4868 Clouds 5 1021 72 10000 6.7 260 08:19 15.04.2020
4869 Clouds 5 1021 72 10000 6.7 260 08:19 15.04.2020
4870 Clouds 5 1021 72 10000 6.2 270 07:51 15.04.2020
4871 Clouds 5 1021 72 10000 6.2 260 07:31 15.04.2020
4872 Clouds 5 1021 75 10000 6.2 260 06:33 15.04.2020
4873 Clouds 5 1021 75 10000 6.2 260 05:50 15.04.2020
4874 Clouds 5 1021 75 10000 5.7 260 05:18 15.04.2020
4875 Clouds 5 1022 75 10000 5.1 260 04:43 15.04.2020
4876 Clouds 6 1022 72 10000 4.1 270 03:26 15.04.2020
4877 Clouds 5 1022 60 10000 5.1 270 02:53 15.04.2020
4878 Clouds 5 1022 65 10000 4.6 260 01:57 15.04.2020
4879 Clouds 5 1022 60 10000 4.6 270 01:39 15.04.2020
4880 Clouds 5 1022 60 10000 4.6 270 01:18 15.04.2020
4881 Clouds 5 1022 56 10000 4.1 280 00:36 15.04.2020
4882 Clouds 6 1022 56 10000 4.1 280 00:18 15.04.2020
4883 Clouds 6 1022 56 10000 3.6 280 23:54 14.04.2020
4884 Clouds 6 1022 56 10000 3.6 280 23:36 14.04.2020
4885 Clouds 6 1022 56 10000 3.6 280 23:36 14.04.2020
4886 Clouds 6 1022 56 10000 3.6 270 23:18 14.04.2020
4887 Clouds 7 1022 52 10000 4.1 280 22:55 14.04.2020
4888 Clouds 7 1022 52 10000 4.1 280 22:36 14.04.2020
4889 Clouds 7 1022 52 10000 4.6 280 22:18 14.04.2020
4890 Clouds 7 1022 48 10000 3.6 290 21:55 14.04.2020
4891 Clouds 7 1022 48 10000 3.6 290 21:36 14.04.2020
4892 Clouds 8 1022 45 10000 3.6 290 21:18 14.04.2020
4893 Clouds 8 1021 45 10000 4.1 290 20:40 14.04.2020
4894 Clouds 8 1021 45 10000 4.1 290 20:40 14.04.2020
4895 Clouds 9 1021 39 10000 6.2 290 20:22 14.04.2020
4896 Clouds 9 1021 34 10000 5.7 290 19:58 14.04.2020
4897 Clouds 10 1021 34 10000 5.7 290 19:39 14.04.2020
4898 Clouds 10 1021 31 10000 6.2 290 19:20 14.04.2020
4899 Clouds 10 1021 31 10000 5.1 300 18:56 14.04.2020
4900 Clouds 11 1021 29 10000 6.2 290 18:38 14.04.2020
4901 Clouds 11 1021 29 10000 6.2 290 18:19 14.04.2020
4902 Clouds 11 1021 29 10000 6.7 290 17:56 14.04.2020
4903 Clouds 11 1021 29 10000 6.7 290 17:37 14.04.2020
4904 Clouds 11 1021 29 10000 6.2 300 17:19 14.04.2020
4905 Clouds 11 1021 27 10000 4.6 290 16:41 14.04.2020
4906 Clouds 11 1021 27 10000 7.2 280 16:23 14.04.2020
4907 Clouds 11 1022 29 10000 6.7 290 15:58 14.04.2020
4908 Clouds 11 1022 29 10000 6.7 290 15:39 14.04.2020
4909 Clouds 10 1022 29 10000 6.2 290 15:21 14.04.2020
4910 Clouds 10 1022 29 10000 5.7 290 14:58 14.04.2020
4911 Clouds 10 1022 29 10000 5.7 290 14:40 14.04.2020
4912 Clouds 10 1022 29 10000 5.1 310 14:21 14.04.2020
4913 Clouds 9 1022 29 10000 5.7 290 13:56 14.04.2020
4914 Clouds 9 1022 29 10000 5.7 290 13:38 14.04.2020
4915 Clouds 9 1022 33 10000 4.1 320 13:20 14.04.2020
4916 Clouds 9 1022 36 10000 5.7 310 12:41 14.04.2020
4917 Clear 8 1022 39 10000 4.6 300 12:21 14.04.2020
4918 Clear 8 1022 39 10000 4.6 300 12:21 14.04.2020
4919 Clear 8 1022 36 10000 5.7 310 11:55 14.04.2020
4920 Clear 8 1022 36 10000 5.7 310 11:37 14.04.2020
4921 Clouds 8 1021 39 10000 4.6 310 11:18 14.04.2020
4922 Clouds 8 1021 45 10000 5.7 310 10:44 14.04.2020
4923 Clouds 8 1021 52 10000 5.1 310 10:24 14.04.2020
4924 Clear 6 1021 69 10000 4.1 300 09:55 14.04.2020
4925 Clouds 5 1017 81 0 4.26 319 09:37 14.04.2020
4926 Clouds 4 1021 69 10000 4.1 300 09:19 14.04.2020
4927 Clouds 4 1021 74 10000 3.6 320 08:41 14.04.2020
4928 Clouds 3 1020 72 0 4.26 319 08:22 14.04.2020
4929 Clouds 3 1020 72 0 4.26 319 08:22 14.04.2020
4930 Clouds 2 1020 80 10000 4.1 300 07:55 14.04.2020
4931 Clouds 2 1020 80 10000 3.1 300 07:31 14.04.2020
4932 Clouds 3 1020 72 0 4.26 319 06:53 14.04.2020
4933 Clouds 1 1019 80 10000 3.6 300 06:27 14.04.2020
4934 Clouds 2 1018 86 10000 3.1 300 04:43 14.04.2020
4935 Clouds 3 1017 59 10000 3.6 320 03:00 14.04.2020
4936 Clouds 4 1017 55 10000 3.6 310 02:18 14.04.2020
4937 Snow 4 1017 51 10000 5.1 290 01:25 14.04.2020
4938 Snow 5 1017 44 10000 3.6 290 00:42 14.04.2020
4939 Clouds 5 1016 45 10000 3.1 340 00:19 14.04.2020
4940 Clouds 6 1016 45 10000 3.1 340 23:47 13.04.2020
4941 Clouds 6 1016 48 10000 4.6 290 23:27 13.04.2020
4942 Clouds 6 1016 38 10000 4.1 320 22:59 13.04.2020
4943 Clouds 5 1016 38 10000 4.1 320 22:59 13.04.2020
4944 Clouds 5 1016 38 10000 4.1 320 22:41 13.04.2020
4945 Clouds 5 1016 41 10000 1.5 280 22:22 13.04.2020
4946 Clouds 5 1016 33 10000 1.5 320 21:57 13.04.2020
4947 Clouds 6 1016 33 10000 2.1 310 21:38 13.04.2020
4948 Clouds 6 1016 33 10000 2.1 310 21:20 13.04.2020
4949 Clouds 7 1016 30 10000 3.1 320 20:56 13.04.2020
4950 Clouds 7 1016 30 10000 3.1 320 20:38 13.04.2020
4951 Clouds 7 1016 30 10000 3.1 320 20:38 13.04.2020
4952 Clouds 7 1016 30 10000 4.6 320 20:18 13.04.2020
4953 Clouds 8 1016 28 10000 5.7 310 19:54 13.04.2020
4954 Clouds 8 1016 28 10000 5.7 310 19:36 13.04.2020
4955 Clouds 9 1016 24 10000 6.2 300 19:18 13.04.2020
4956 Clouds 9 1016 25 10000 5.1 320 18:54 13.04.2020
4957 Clouds 9 1016 29 10000 5.7 340 18:36 13.04.2020
4958 Clouds 9 1016 29 10000 5.7 340 18:18 13.04.2020
4959 Clouds 9 1016 29 10000 7.2 320 17:54 13.04.2020
4960 Clouds 10 1015 29 10000 7.2 300 17:36 13.04.2020
4961 Clouds 10 1015 29 10000 7.2 300 17:18 13.04.2020
4962 Clouds 10 1015 29 10000 7.2 300 16:55 13.04.2020
4963 Clouds 10 1015 29 10000 7.2 300 16:36 13.04.2020
4964 Clouds 10 1015 31 10000 7.2 300 16:18 13.04.2020
4965 Clouds 10 1015 31 10000 7.2 300 16:18 13.04.2020
4966 Clouds 10 1015 31 10000 6.7 300 15:43 13.04.2020
4967 Clouds 10 1015 34 10000 7.2 290 15:25 13.04.2020
4968 Clouds 10 1015 31 0 6.2 320 14:57 13.04.2020
4969 Clouds 10 1015 31 0 6.2 320 14:39 13.04.2020
4970 Clouds 10 1015 34 10000 6.7 310 14:20 13.04.2020
4971 Clouds 10 1015 34 10000 6.2 330 13:56 13.04.2020
4972 Clouds 10 1015 39 10000 6.7 310 13:38 13.04.2020
4973 Clouds 10 1015 39 10000 6.7 310 13:19 13.04.2020
4974 Clouds 10 1015 42 10000 6.2 310 12:58 13.04.2020
4975 Clouds 9 1015 42 10000 6.2 310 12:39 13.04.2020
4976 Clouds 8 1014 42 10000 6.7 330 12:19 13.04.2020
4977 Clouds 8 1014 42 10000 6.7 330 12:19 13.04.2020
4978 Clouds 8 1014 48 10000 7.2 310 11:57 13.04.2020
4979 Clouds 8 1014 48 10000 7.2 310 11:38 13.04.2020
4980 Clouds 7 1014 52 10000 6.2 310 11:18 13.04.2020
4981 Clouds 7 1014 56 10000 6.7 310 10:54 13.04.2020
4982 Clouds 7 1013 56 10000 6.2 310 10:36 13.04.2020
4983 Clouds 7 1013 56 10000 6.2 310 10:18 13.04.2020
4984 Clouds 7 1013 70 10000 5.7 330 09:43 13.04.2020
4985 Clouds 8 1012 87 10000 4.6 300 09:24 13.04.2020
4986 Clouds 8 1012 87 10000 4.6 300 08:45 13.04.2020
4987 Clouds 8 1011 87 10000 4.1 290 08:26 13.04.2020
4988 Rain 8 1011 81 10000 4.6 310 07:56 13.04.2020
4989 Rain 8 1011 81 10000 4.6 310 07:37 13.04.2020
4990 Rain 9 1011 81 10000 4.6 280 07:18 13.04.2020
4991 Rain 9 1010 87 10000 3.1 340 06:42 13.04.2020
4992 Clouds 11 1009 71 0 3.6 340 05:52 13.04.2020
4993 Rain 11 1009 71 10000 2.6 340 05:20 13.04.2020
4994 Rain 11 1010 62 10000 5.1 290 04:32 13.04.2020
4995 Clouds 10 1009 62 10000 0.5 340 03:56 13.04.2020
4996 Clouds 11 1009 62 10000 1 0 03:34 13.04.2020
4997 Clouds 10 1009 62 10000 0.5 0 02:41 13.04.2020
4998 Clouds 11 1010 58 10000 1.5 300 01:48 13.04.2020
4999 Clouds 12 1010 57 10000 1.5 300 01:28 13.04.2020
5000 Clouds 13 1010 58 10000 1.5 300 00:51 13.04.2020
5001 Clear 12 1010 62 10000 2.1 290 00:30 13.04.2020
5002 Clear 13 1010 62 10000 1 0 23:58 12.04.2020
5003 Clear 13 1010 62 10000 1 0 23:39 12.04.2020
5004 Clear 14 1010 58 10000 1 260 23:21 12.04.2020
5005 Clear 14 1010 50 10000 1 0 22:55 12.04.2020
5006 Clear 14 1010 50 10000 1 0 22:36 12.04.2020
5007 Clear 15 1010 44 10000 0.5 0 22:18 12.04.2020
5008 Clear 16 1010 42 10000 0.5 0 21:38 12.04.2020
5009 Clear 17 1010 42 10000 1 0 21:20 12.04.2020
5010 Rain 18 1010 37 10000 1 280 20:55 12.04.2020
5011 Rain 19 1010 37 10000 1 280 20:37 12.04.2020
5012 Rain 20 1010 32 10000 2.1 310 20:19 12.04.2020
5013 Clear 22 1010 28 10000 3.1 270 19:41 12.04.2020
5014 Clear 22 1010 28 10000 3.1 270 19:20 12.04.2020
5015 Clear 23 1011 27 10000 4.6 260 18:59 12.04.2020
5016 Clear 23 1011 27 0 5.7 280 18:40 12.04.2020
5017 Clear 23 1011 27 0 5.7 280 18:20 12.04.2020
5018 Clear 23 1011 25 10000 7.2 260 17:56 12.04.2020
5019 Clear 24 1011 23 10000 6.7 240 17:38 12.04.2020
5020 Clear 24 1011 23 10000 6.7 240 17:18 12.04.2020
5021 Clear 23 1012 22 10000 4.6 270 16:56 12.04.2020
5022 Clear 24 1012 23 10000 5.7 260 16:36 12.04.2020
5023 Clear 23 1012 23 10000 5.7 260 16:18 12.04.2020
5024 Clear 23 1013 25 10000 4.6 260 15:41 12.04.2020
5025 Clouds 23 1013 25 10000 4.1 210 15:21 12.04.2020
5026 Clouds 23 1013 23 10000 4.1 260 14:40 12.04.2020
5027 Clouds 22 1014 24 10000 3.1 240 14:22 12.04.2020
5028 Clouds 22 1014 26 10000 3.1 250 13:58 12.04.2020
5029 Clouds 22 1014 26 10000 3.1 250 13:40 12.04.2020
5030 Clouds 21 1015 34 10000 2.6 210 13:21 12.04.2020
5031 Clouds 21 1015 34 10000 3.1 190 12:47 12.04.2020
5032 Clouds 18 1016 44 10000 3.1 170 12:22 12.04.2020
5033 Clouds 18 1016 44 10000 2.6 0 11:59 12.04.2020
5034 Clouds 17 1016 44 10000 2.6 170 11:39 12.04.2020
5035 Clouds 16 1016 44 10000 2.6 170 11:20 12.04.2020
5036 Clouds 16 1017 44 10000 2.6 170 10:57 12.04.2020
5037 Clouds 16 1017 44 10000 2.6 170 10:39 12.04.2020
5038 Clouds 16 1017 44 10000 2.6 170 10:39 12.04.2020
5039 Clouds 15 1017 35 10000 2.6 160 10:20 12.04.2020
5040 Clouds 13 1018 37 10000 3.1 180 09:58 12.04.2020
5041 Clouds 12 1018 37 10000 3.1 180 09:39 12.04.2020
5042 Clouds 10 1018 57 10000 1 0 09:19 12.04.2020
5043 Clouds 9 1018 61 10000 2.6 180 08:51 12.04.2020
5044 Clouds 7 1018 61 10000 0.5 0 08:32 12.04.2020
5045 Clouds 7 1018 61 10000 0.5 0 08:32 12.04.2020
5046 Clouds 5 1018 61 10000 0.5 0 07:55 12.04.2020
5047 Clouds 5 1018 61 10000 1 120 07:36 12.04.2020
5048 Clouds 5 1018 61 10000 1 120 07:18 12.04.2020
5049 Clouds 4 1019 69 10000 1 100 06:31 12.04.2020
5050 Clouds 4 1019 69 10000 0.5 0 05:49 12.04.2020
5051 Clouds 4 1020 65 10000 0.5 0 05:27 12.04.2020
5052 Clouds 6 1021 61 10000 1 0 03:32 12.04.2020
5053 Clouds 6 1021 58 10000 1 0 02:51 12.04.2020
5054 Clouds 6 1022 58 10000 1 120 02:30 12.04.2020
5055 Clouds 7 1022 58 10000 1 140 01:34 12.04.2020
5056 Clouds 7 1022 49 10000 2.1 150 00:57 12.04.2020
5057 Clouds 8 1023 52 10000 2.1 140 00:38 12.04.2020
5058 Clouds 8 1023 52 10000 2.1 140 00:19 12.04.2020
5059 Clouds 8 1023 49 10000 0.5 0 23:45 11.04.2020
5060 Clouds 9 1023 49 10000 1 120 23:24 11.04.2020
5061 Clouds 9 1023 49 10000 0.5 90 22:41 11.04.2020
5062 Clouds 9 1024 46 10000 2.07 135 22:22 11.04.2020
5063 Clouds 10 1024 43 10000 1 90 21:57 11.04.2020
5064 Clouds 10 1024 43 10000 1 90 21:37 11.04.2020
5065 Clouds 11 1024 35 10000 1 80 21:19 11.04.2020
5066 Clouds 12 1024 35 10000 1 0 20:58 11.04.2020
5067 Clouds 13 1024 35 10000 1 0 20:39 11.04.2020
5068 Clouds 14 1024 33 10000 1.5 80 20:20 11.04.2020
5069 Clouds 14 1024 30 10000 2.1 90 19:58 11.04.2020
5070 Clouds 15 1024 30 10000 2.6 100 19:39 11.04.2020
5071 Clouds 15 1024 30 10000 2.6 100 19:19 11.04.2020
5072 Clouds 15 1024 26 10000 1 0 18:56 11.04.2020
5073 Clouds 16 1024 26 10000 1 0 18:38 11.04.2020
5074 Clouds 16 1024 26 10000 1 0 18:20 11.04.2020
5075 Clouds 16 1025 26 10000 1.5 180 17:58 11.04.2020
5076 Clouds 16 1025 26 10000 1.5 180 17:40 11.04.2020
5077 Clouds 16 1025 27 10000 1.5 240 17:20 11.04.2020
5078 Clouds 16 1025 26 10000 2.6 0 16:55 11.04.2020
5079 Clouds 16 1025 26 10000 2.6 0 16:37 11.04.2020
5080 Clouds 16 1026 31 10000 2.6 110 16:19 11.04.2020
5081 Clouds 16 1026 31 10000 2.6 110 16:19 11.04.2020
5082 Clouds 16 1026 30 10000 1.5 0 15:39 11.04.2020
5083 Clouds 15 1026 30 10000 1.5 0 15:19 11.04.2020
5084 Clouds 15 1026 30 10000 1.5 0 14:43 11.04.2020
5085 Clouds 15 1027 35 10000 2.1 0 14:25 11.04.2020
5086 Clouds 15 1027 35 10000 2.1 140 13:59 11.04.2020
5087 Clouds 15 1027 35 10000 2.1 140 13:40 11.04.2020
5088 Clouds 14 1027 36 10000 1.5 0 13:22 11.04.2020
5089 Clouds 14 1027 36 10000 1.5 0 13:22 11.04.2020
5090 Clouds 14 1027 36 10000 1.5 0 13:22 11.04.2020
5091 Clouds 14 1027 37 10000 2.1 40 12:43 11.04.2020
5092 Clouds 12 1028 47 10000 2.1 330 12:22 11.04.2020
5093 Clouds 11 1028 50 10000 1.5 0 11:59 11.04.2020
5094 Clouds 12 1028 50 10000 1.5 0 11:40 11.04.2020
5095 Clouds 12 1028 50 10000 1.5 0 11:20 11.04.2020
5096 Clouds 11 1028 53 10000 1.5 0 10:56 11.04.2020
5097 Clouds 10 1028 53 10000 1 0 10:37 11.04.2020
5098 Clouds 10 1028 53 10000 1 0 10:18 11.04.2020
5099 Clouds 9 1028 57 10000 1.5 240 09:55 11.04.2020
5100 Clouds 9 1028 57 10000 1.5 240 09:37 11.04.2020
5101 Clear 7 1028 61 10000 1 0 09:18 11.04.2020
5102 Clear 6 1027 70 10000 0.5 0 08:42 11.04.2020
5103 Clear 5 1027 80 10000 1 220 08:23 11.04.2020
5104 Clear 3 1027 66 10000 1 0 07:43 11.04.2020
5105 Clear 3 1027 66 10000 0.5 0 07:24 11.04.2020
5106 Clear 2 1027 66 10000 0.5 0 06:37 11.04.2020
5107 Clear 2 1027 86 10000 0.5 290 05:58 11.04.2020
5108 Clear 3 1026 86 10000 0.5 210 04:31 11.04.2020
5109 Clouds 5 1026 65 10000 2.1 360 03:30 11.04.2020
5110 Clear 5 1026 66 10000 1.5 360 01:48 11.04.2020
5111 Clear 6 1026 66 10000 1.5 360 01:19 11.04.2020
5112 Clear 7 1026 66 10000 1.5 10 00:42 11.04.2020
5113 Clear 7 1026 66 10000 1.5 10 00:19 11.04.2020
5114 Clear 8 1025 66 10000 2.6 360 23:55 10.04.2020
5115 Clear 8 1025 66 10000 2.6 360 23:36 10.04.2020
5116 Clear 8 1025 66 10000 2.6 10 23:18 10.04.2020
5117 Clear 9 1025 49 10000 3.1 360 22:43 10.04.2020
5118 Clear 9 1025 43 10000 2.6 340 22:21 10.04.2020
5119 Clear 10 1025 40 10000 2.6 360 21:58 10.04.2020
5120 Clouds 10 1025 40 10000 2.6 360 21:39 10.04.2020
5121 Clouds 11 1025 40 10000 2.6 360 21:39 10.04.2020
5122 Clouds 11 1024 43 10000 2.1 330 21:18 10.04.2020
5123 Clouds 12 1024 40 10000 2.6 330 20:41 10.04.2020
5124 Clouds 13 1024 37 10000 2.6 320 20:23 10.04.2020
5125 Clouds 14 1024 51 10000 3.1 340 19:58 10.04.2020
5126 Clouds 14 1024 51 10000 3.1 340 19:40 10.04.2020
5127 Clouds 15 1024 51 10000 3.6 320 19:20 10.04.2020
5128 Clouds 15 1024 38 10000 3.6 300 18:57 10.04.2020
5129 Clouds 15 1024 38 10000 3.6 320 18:39 10.04.2020
5130 Clouds 16 1024 38 10000 3.6 320 18:21 10.04.2020
5131 Clouds 16 1024 38 10000 3.1 280 17:58 10.04.2020
5132 Clouds 16 1024 33 10000 3.1 300 17:39 10.04.2020
5133 Clouds 16 1024 33 10000 3.1 300 17:20 10.04.2020
5134 Clouds 16 1024 38 10000 3.1 290 16:56 10.04.2020
5135 Clouds 16 1024 38 10000 3.1 290 16:38 10.04.2020
5136 Clouds 16 1024 36 10000 2.6 0 16:20 10.04.2020
5137 Clouds 16 1025 38 10000 4.1 300 15:56 10.04.2020
5138 Clouds 16 1025 38 10000 4.1 300 15:37 10.04.2020
5139 Clouds 16 1025 37 10000 5.1 270 15:19 10.04.2020
5140 Clouds 15 1025 33 10000 3.6 320 14:57 10.04.2020
5141 Clouds 15 1026 37 10000 4.1 300 14:38 10.04.2020
5142 Clouds 16 1026 37 10000 3.6 310 14:18 10.04.2020
5143 Clouds 15 1026 37 10000 3.1 280 13:43 10.04.2020
5144 Clouds 15 1026 37 10000 3.6 320 13:22 10.04.2020
5145 Clouds 15 1026 37 10000 3.1 270 12:44 10.04.2020
5146 Clouds 14 1027 43 10000 3.6 280 12:24 10.04.2020
5147 Clouds 13 1027 43 10000 3.1 340 11:58 10.04.2020
5148 Clouds 13 1027 43 10000 3.1 340 11:40 10.04.2020
5149 Clouds 13 1027 40 10000 3.6 280 11:22 10.04.2020
5150 Clouds 12 1027 40 10000 2.1 310 10:56 10.04.2020
5151 Clouds 12 1027 40 10000 2.1 310 10:37 10.04.2020
5152 Clouds 12 1027 43 10000 2.1 290 10:18 10.04.2020
5153 Clouds 11 1027 43 10000 2.1 290 09:42 10.04.2020
5154 Clouds 8 1027 58 10000 1 0 09:20 10.04.2020
5155 Clouds 7 1027 58 10000 0.5 0 08:47 10.04.2020
5156 Clouds 6 1027 70 10000 0.5 0 08:26 10.04.2020
5157 Clouds 4 1027 58 10000 1 220 07:49 10.04.2020
5158 Clouds 4 1027 58 10000 0.5 0 07:30 10.04.2020
5159 Clouds 3 1027 86 10000 1 230 06:59 10.04.2020
5160 Clouds 4 1027 58 10000 1 300 06:30 10.04.2020
5161 Clouds 4 1026 58 10000 1 330 05:59 10.04.2020
5162 Clouds 4 1026 58 10000 0.5 210 05:24 10.04.2020
5163 Clouds 4 1026 58 10000 0.5 0 04:53 10.04.2020
5164 Clouds 6 1026 54 10000 1 270 03:34 10.04.2020
5165 Clouds 6 1026 54 10000 1 0 02:51 10.04.2020
5166 Clouds 6 1026 54 10000 1 360 02:32 10.04.2020
5167 Clouds 7 1026 54 10000 1.5 10 01:46 10.04.2020
5168 Clouds 7 1026 54 10000 2.1 30 01:25 10.04.2020
5169 Clouds 8 1026 54 10000 1.5 360 00:46 10.04.2020
5170 Clouds 9 1026 50 10000 2.1 360 00:20 10.04.2020
5171 Clouds 9 1026 53 10000 2.6 10 23:42 09.04.2020
5172 Clouds 10 1026 53 10000 2.6 340 23:24 09.04.2020
5173 Clouds 11 1025 53 10000 2.6 340 22:57 09.04.2020
5174 Clouds 11 1025 53 10000 2.6 340 22:39 09.04.2020
5175 Clouds 11 1025 58 10000 2.6 360 22:21 09.04.2020
5176 Clouds 12 1025 62 10000 3.1 360 21:38 09.04.2020
5177 Clouds 13 1025 62 10000 2.6 360 21:20 09.04.2020
5178 Clouds 14 1024 62 10000 3.6 340 20:47 09.04.2020
5179 Clouds 14 1024 58 10000 4.1 350 20:23 09.04.2020
5180 -273 0 0 0 0 0 19:59 09.04.2020
5181 Clouds 16 1023 54 10000 3.6 360 19:39 09.04.2020
5182 Clouds 16 1023 54 10000 3.6 360 19:21 09.04.2020
5183 Clouds 16 1023 54 10000 3.6 360 19:21 09.04.2020
5184 Clouds 17 1023 48 10000 3.6 340 18:42 09.04.2020
5185 Clear 17 1023 48 10000 3.6 330 18:21 09.04.2020
5186 Clear 17 1023 42 10000 5.7 340 17:58 09.04.2020
5187 Clear 17 1023 44 10000 6.2 310 17:39 09.04.2020
5188 Clear 18 1023 44 10000 6.2 310 17:19 09.04.2020
5189 Clear 18 1023 42 10000 6.2 320 16:40 09.04.2020
5190 Clear 18 1023 42 10000 6.2 320 16:20 09.04.2020
5191 Clear 19 1023 42 10000 6.2 300 15:57 09.04.2020
5192 Clear 18 1023 42 10000 6.2 300 15:38 09.04.2020
5193 Clear 18 1023 42 10000 6.2 300 15:38 09.04.2020
5194 Clouds 19 1023 42 10000 5.7 310 15:19 09.04.2020
5195 Clouds 18 1023 42 10000 6.2 310 14:56 09.04.2020
5196 Clouds 18 1023 42 10000 6.2 310 14:38 09.04.2020
5197 Clouds 18 1023 42 10000 4.6 300 14:20 09.04.2020
5198 Clouds 17 1023 42 10000 6.7 310 13:42 09.04.2020
5199 Clouds 17 1023 39 10000 4.6 330 13:24 09.04.2020
5200 Clouds 18 1023 41 10000 5.1 300 12:58 09.04.2020
5201 Clouds 16 1023 41 10000 4.1 310 12:38 09.04.2020
5202 Clouds 16 1023 41 10000 4.1 310 12:20 09.04.2020
5203 Clouds 15 1023 44 10000 5.1 300 11:44 09.04.2020
5204 Clouds 15 1023 47 10000 5.1 300 11:20 09.04.2020
5205 Clouds 15 1023 50 10000 4.6 290 10:59 09.04.2020
5206 Clouds 15 1023 50 10000 4.6 290 10:41 09.04.2020
5207 Clouds 15 1023 47 10000 3.6 330 10:22 09.04.2020
5208 Clouds 15 1023 47 10000 3.6 330 10:22 09.04.2020
5209 Clouds 14 1022 54 10000 3.6 320 09:58 09.04.2020
5210 Clear 12 1022 54 10000 2.1 330 09:39 09.04.2020
5211 Clear 12 1022 54 10000 2.1 330 09:21 09.04.2020
5212 Clear 11 1022 62 10000 3.1 330 08:56 09.04.2020
5213 Clear 9 1022 70 10000 1.5 310 08:37 09.04.2020
5214 Clear 9 1022 70 10000 1.5 310 08:18 09.04.2020
5215 Clear 9 1021 80 10000 1 270 07:40 09.04.2020
5216 Clear 9 1021 80 10000 1 270 07:21 09.04.2020
5217 Clear 9 1021 75 10000 1.5 280 06:35 09.04.2020
5218 Clear 9 1021 75 10000 2.1 260 05:49 09.04.2020
5219 Clear 9 1020 75 10000 1 0 05:24 09.04.2020
5220 Clear 10 1021 57 10000 1.98 267 02:36 09.04.2020
5221 Clear 10 1021 61 10000 0.5 330 01:46 09.04.2020
5222 Clear 10 1021 61 10000 0.5 330 01:46 09.04.2020
5223 Clear 10 1021 61 10000 0.5 0 01:27 09.04.2020
5224 Clear 11 1021 53 10000 1.98 267 00:55 09.04.2020
5225 Clear 11 1021 57 10000 0.5 110 00:37 09.04.2020
5226 Clear 11 1021 57 10000 0.5 110 00:18 09.04.2020
5227 Clear 12 1022 50 10000 0.5 0 23:42 08.04.2020
5228 Clear 12 1022 46 10000 0.5 0 23:23 08.04.2020
5229 Clear 13 1022 46 10000 0.5 0 22:54 08.04.2020
5230 Clear 13 1022 46 10000 1 0 22:36 08.04.2020
5231 Clear 13 1022 46 10000 1 0 22:18 08.04.2020
5232 Clear 14 1022 41 10000 0.5 280 21:55 08.04.2020
5233 Clear 14 1022 36 10000 1.95 224 21:37 08.04.2020
5234 Clear 14 1022 36 10000 1.93 214 21:37 08.04.2020
5235 Clear 15 1022 36 10000 2.15 175 21:18 08.04.2020
5236 Clear 17 1022 29 10000 1 0 20:41 08.04.2020
5237 Clear 18 1022 29 10000 1 0 20:21 08.04.2020
5238 Clear 19 1022 26 10000 1.5 190 20:21 08.04.2020
5239 Clear 19 1022 26 10000 1.5 190 19:59 08.04.2020
5240 Clear 20 1022 26 10000 2.6 200 19:40 08.04.2020
5241 Clear 21 1023 39 10000 2.6 230 19:21 08.04.2020
5242 Clear 22 1023 39 10000 2.6 220 18:55 08.04.2020
5243 Clear 22 1023 39 10000 2.6 220 18:37 08.04.2020
5244 Clear 22 1023 26 10000 2.6 190 18:19 08.04.2020
5245 Clear 23 1023 23 10000 1 0 17:42 08.04.2020
5246 Clear 22 1024 28 10000 2.6 170 17:20 08.04.2020
5247 Clear 22 1024 28 10000 2.6 170 16:57 08.04.2020
5248 Clear 22 1024 30 10000 3.6 150 16:39 08.04.2020
5249 Clear 22 1024 30 10000 3.6 150 16:19 08.04.2020
5250 Clear 22 1025 37 10000 4.1 130 15:39 08.04.2020
5251 Clear 22 1026 37 10000 4.6 170 15:21 08.04.2020
5252 Clear 22 1026 37 10000 4.6 170 15:21 08.04.2020
5253 Clear 22 1026 37 10000 4.6 170 14:58 08.04.2020
5254 Clear 22 1026 37 10000 4.6 170 14:58 08.04.2020
5255 Clear 22 1026 37 10000 4.6 170 14:39 08.04.2020
5256 Clear 21 1026 37 10000 3.6 160 14:21 08.04.2020
5257 Clear 21 1027 40 10000 5.1 140 13:44 08.04.2020
5258 Clear 21 1027 40 10000 3.6 150 13:21 08.04.2020
5259 Clear 20 1028 39 10000 3.6 120 12:58 08.04.2020
5260 Clear 20 1028 39 10000 3.1 140 12:39 08.04.2020
5261 Clear 18 1028 39 10000 3.1 140 12:18 08.04.2020
5262 Clear 17 1029 42 10000 3.6 120 11:42 08.04.2020
5263 Clear 16 1029 41 10000 3.6 150 11:23 08.04.2020
5264 Clear 15 1029 44 10000 3.6 130 10:58 08.04.2020
5265 Clear 15 1029 44 10000 4.1 110 10:40 08.04.2020
5266 Clear 15 1029 44 10000 4.1 110 10:21 08.04.2020
5267 Clear 13 1030 47 10000 5.1 130 09:59 08.04.2020
5268 Clear 13 1030 47 10000 5.1 130 09:59 08.04.2020
5269 Clear 13 1030 47 10000 5.1 130 09:41 08.04.2020
5270 Clear 11 1030 50 10000 4.6 110 09:19 08.04.2020
5271 Clear 10 1030 53 10000 2.6 70 08:58 08.04.2020
5272 Clear 9 1030 57 10000 2.1 70 08:39 08.04.2020
5273 Clear 8 1030 57 10000 2.1 70 08:21 08.04.2020
5274 Clear 7 1031 61 10000 2.1 70 07:43 08.04.2020
5275 Clear 7 1031 65 10000 2.1 60 07:22 08.04.2020
5276 Clear 6 1031 61 10000 2.1 50 06:33 08.04.2020
5277 Clear 7 1031 60 10000 2.1 90 05:22 08.04.2020
5278 Clear 8 1032 54 10000 1.5 70 03:20 08.04.2020
5279 Clear 8 1032 55 10000 2.1 70 02:38 08.04.2020
5280 Clear 9 1032 55 10000 2.1 70 02:18 08.04.2020
5281 Clear 9 1032 55 10000 2.6 80 01:28 08.04.2020
5282 Clear 10 1032 50 10000 2.6 80 00:50 08.04.2020
5283 Clear 10 1032 50 10000 2.6 80 00:32 08.04.2020
5284 Clear 11 1032 55 10000 2.1 70 23:58 07.04.2020
5285 Clear 11 1032 55 10000 2.6 50 23:38 07.04.2020
5286 Clear 11 1032 55 10000 2.6 50 23:20 07.04.2020
5287 Clear 12 1032 55 10000 2.6 60 22:56 07.04.2020
5288 Clear 13 1032 55 10000 2.6 50 22:38 07.04.2020
5289 Clear 13 1032 55 10000 2.6 50 22:19 07.04.2020
5290 Clear 13 1032 55 10000 3.1 50 21:55 07.04.2020
5291 Clear 14 1032 54 10000 2.6 40 21:37 07.04.2020
5292 Clear 14 1032 54 10000 2.6 40 21:18 07.04.2020
5293 Clear 15 1032 54 10000 3.1 30 20:55 07.04.2020
5294 Clear 15 1031 33 10000 4.1 20 20:36 07.04.2020
5295 Clear 16 1031 33 10000 4.1 20 20:18 07.04.2020
5296 Clear 17 1031 39 10000 3.1 20 19:55 07.04.2020
5297 Clear 18 1031 37 10000 3.1 340 19:36 07.04.2020
5298 Clear 18 1031 37 10000 3.6 340 19:18 07.04.2020
5299 Clear 19 1031 37 10000 3.1 330 18:41 07.04.2020
5300 Clear 19 1031 37 10000 3.6 350 18:21 07.04.2020
5301 Clear 19 1031 37 10000 3.6 350 18:21 07.04.2020
5302 Clear 20 1031 37 10000 3.6 350 17:57 07.04.2020
5303 Clear 20 1031 37 10000 3.6 340 17:38 07.04.2020
5304 Clear 20 1031 37 10000 3.6 340 17:20 07.04.2020
5305 Clear 20 1031 37 10000 3.6 350 16:44 07.04.2020
5306 Clear 20 1031 37 10000 4.1 350 16:26 07.04.2020
5307 Clear 20 1031 37 10000 4.1 350 15:46 07.04.2020
5308 Clear 20 1031 37 10000 4.1 350 15:46 07.04.2020
5309 Clear 20 1031 40 10000 4.1 20 15:27 07.04.2020
5310 Clear 20 1031 42 10000 4.1 350 14:57 07.04.2020
5311 Clear 20 1031 42 10000 4.1 350 14:38 07.04.2020
5312 Clouds 20 1031 45 10000 4.1 340 14:20 07.04.2020
5313 Clear 19 1031 45 10000 2.6 0 13:43 07.04.2020
5314 Clear 19 1031 48 10000 3.1 360 13:21 07.04.2020
5315 Clear 19 1031 55 10000 3.1 320 12:59 07.04.2020
5316 Clear 18 1031 55 10000 3.1 320 12:40 07.04.2020
5317 Clear 17 1031 59 10000 5.1 280 12:22 07.04.2020
5318 Clear 17 1030 59 10000 4.1 300 11:59 07.04.2020
5319 Clear 17 1030 59 10000 4.1 300 11:41 07.04.2020
5320 Clear 16 1030 62 10000 5.1 300 11:21 07.04.2020
5321 Clear 16 1030 62 10000 4.6 310 10:57 07.04.2020
5322 Clear 16 1029 62 10000 4.1 320 10:37 07.04.2020
5323 Clear 15 1029 62 10000 4.1 320 10:18 07.04.2020
5324 Clear 14 1029 58 10000 4.1 300 09:44 07.04.2020
5325 Clear 12 1029 58 10000 3.6 300 09:18 07.04.2020
5326 Clear 11 1028 57 10000 3.1 290 08:43 07.04.2020
5327 Clear 10 1028 66 10000 2.6 260 08:25 07.04.2020
5328 Clear 8 1027 65 10000 2.1 260 07:59 07.04.2020
5329 Clear 9 1027 65 10000 2.1 260 07:40 07.04.2020
5330 Clear 9 1027 65 10000 2.1 260 07:40 07.04.2020
5331 Clear 8 1026 75 10000 0.5 0 07:21 07.04.2020
5332 Clear 8 1026 70 10000 0.5 310 06:51 07.04.2020
5333 Clear 8 1026 61 10000 0.5 0 06:21 07.04.2020
5334 Clear 8 1025 61 10000 1 0 05:38 07.04.2020
5335 Clear 8 1025 57 10000 1 150 04:56 07.04.2020
5336 Clear 10 1024 57 10000 1.5 120 03:31 07.04.2020
5337 Clear 10 1024 61 10000 0.5 0 02:59 07.04.2020
5338 Clear 10 1024 53 10000 1 100 01:57 07.04.2020
5339 Clear 10 1024 57 10000 1 90 01:29 07.04.2020
5340 Clear 11 1023 50 10000 1 0 00:29 07.04.2020
5341 Clear 12 1023 50 10000 1 0 23:57 06.04.2020
5342 Clear 12 1023 50 10000 1 0 23:38 06.04.2020
5343 Clear 12 1023 50 10000 0.5 140 23:20 06.04.2020
5344 Clear 12 1023 46 10000 1 120 22:41 06.04.2020
5345 Clear 12 1023 43 10000 1.5 110 22:22 06.04.2020
5346 Clear 13 1023 67 10000 1 100 21:58 06.04.2020
5347 Clear 14 1023 70 10000 1 100 21:40 06.04.2020
5348 Clear 14 1023 57 10000 1 100 21:19 06.04.2020
5349 Clear 15 1023 38 10000 1.5 180 20:56 06.04.2020
5350 Clear 15 1023 38 10000 1.5 180 20:38 06.04.2020
5351 Clear 17 1023 27 10000 2.6 190 20:19 06.04.2020
5352 Clear 19 1023 24 10000 4.1 190 19:56 06.04.2020
5353 Clear 20 1022 57 10000 3.6 180 19:37 06.04.2020
5354 Clear 20 1022 57 10000 3.6 180 19:19 06.04.2020
5355 Clear 21 1022 21 10000 5.7 170 18:42 06.04.2020
5356 Clear 21 1023 38 10000 6.7 160 18:23 06.04.2020
5357 Clear 21 1022 38 10000 5.7 170 17:56 06.04.2020
5358 Clear 21 1022 38 10000 5.7 170 17:38 06.04.2020
5359 Clear 21 1022 38 10000 6.2 160 17:18 06.04.2020
5360 Clear 22 1022 21 10000 6.2 180 16:47 06.04.2020
5361 Clear 22 1022 21 10000 5.1 180 16:29 06.04.2020
5362 Clear 20 1023 37 10000 6.7 150 14:46 06.04.2020
5363 Clear 20 1023 37 10000 6.7 150 14:46 06.04.2020
5364 Clear 20 1023 37 10000 6.7 150 14:46 06.04.2020
5365 Clear 20 1023 37 10000 6.7 150 14:46 06.04.2020
5366 Clear 20 1023 38 10000 5.7 150 13:44 06.04.2020
5367 Clear 20 1023 38 10000 6.2 140 13:22 06.04.2020
5368 Clear 20 1023 38 10000 6.2 140 13:22 06.04.2020
5369 Clear 19 1024 27 10000 5.7 150 12:46 06.04.2020
5370 Clear 19 1024 27 10000 5.7 150 12:46 06.04.2020
5371 Clear 19 1024 27 10000 5.7 150 12:46 06.04.2020
5372 Clear 19 1024 27 10000 5.7 150 12:46 06.04.2020
5373 Clear 19 1024 27 10000 5.7 150 12:46 06.04.2020
5374 Clear 17 1024 43 10000 5.1 160 12:19 06.04.2020
5375 Clear 17 1024 43 10000 5.1 160 12:19 06.04.2020
5376 Clear 17 1024 43 10000 5.1 160 12:19 06.04.2020
5377 Clear 16 1024 31 10000 6.2 160 11:40 06.04.2020
5378 Clear 15 1024 35 10000 7.2 160 10:56 06.04.2020
5379 Clear 15 1024 35 10000 7.2 160 10:56 06.04.2020
5380 Clear 15 1024 35 10000 7.2 160 10:56 06.04.2020
5381 Clear 15 1024 35 10000 7.2 160 10:37 06.04.2020
5382 Clear 14 1024 37 10000 4.6 140 10:19 06.04.2020
5383 Clear 14 1024 37 10000 4.6 140 10:19 06.04.2020
5384 Clear 14 1024 37 10000 4.6 140 10:19 06.04.2020
5385 Clear 14 1024 37 10000 4.6 140 10:19 06.04.2020
5386 Clear 14 1024 37 10000 4.6 140 10:19 06.04.2020
5387 Clear 12 1024 40 10000 5.1 140 09:39 06.04.2020
5388 Clear 12 1024 40 10000 5.1 140 09:39 06.04.2020
5389 Clear 12 1024 40 10000 5.1 140 09:39 06.04.2020
5390 Clear 12 1024 40 10000 5.1 140 09:39 06.04.2020
5391 Clear 12 1024 40 10000 5.1 140 09:39 06.04.2020
5392 Clear 10 1024 43 10000 4.1 140 09:19 06.04.2020
5393 Clear 8 1024 45 10000 4.1 130 08:43 06.04.2020
5394 Clear 8 1024 45 10000 4.1 130 08:43 06.04.2020
5395 Clear 8 1024 45 10000 4.1 130 08:43 06.04.2020
5396 Clear 8 1024 45 10000 4.1 130 08:43 06.04.2020
5397 Clear 7 1024 52 10000 4.6 130 07:59 06.04.2020
5398 Clear 7 1024 49 10000 4.6 130 07:59 06.04.2020
5399 Clear 6 1024 52 10000 4.6 120 07:22 06.04.2020
5400 Clear 6 1024 48 10000 4.6 120 06:27 06.04.2020
5401 Clear 6 1024 56 10000 4.1 120 05:47 06.04.2020
5402 Clear 6 1024 56 10000 4.1 120 05:47 06.04.2020
5403 Clear 6 1024 56 10000 4.1 120 05:44 06.04.2020
5404 Clear 7 1025 52 10000 3.6 120 03:56 06.04.2020
5405 Clear 7 1025 45 10000 4.6 130 02:51 06.04.2020
5406 Clear 8 1025 45 10000 4.6 120 01:54 06.04.2020
5407 Clear 9 1025 43 10000 5.1 120 00:54 06.04.2020
5408 Clear 10 1026 43 10000 5.1 120 00:28 06.04.2020
5409 Clear 10 1026 40 10000 5.7 120 23:52 05.04.2020
5410 Clear 10 1026 40 10000 5.7 120 23:33 05.04.2020
5411 Clear 10 1026 40 10000 5.7 120 22:58 05.04.2020
5412 Clear 10 1026 40 10000 5.1 120 22:40 05.04.2020
5413 Clear 11 1026 37 10000 5.1 120 22:22 05.04.2020
5414 Clear 11 1026 37 10000 5.1 120 21:59 05.04.2020
5415 Clear 11 1027 46 10000 3.6 100 21:41 05.04.2020
5416 Clear 11 1027 46 10000 3.6 100 21:41 05.04.2020
5417 Clear 12 1026 35 10000 3.6 100 21:23 05.04.2020
5418 Clear 12 1026 35 10000 3.6 100 21:23 05.04.2020
5419 Clear 13 1026 33 10000 5.7 120 20:22 05.04.2020
5420 Clear 14 1026 33 10000 4.6 130 19:43 05.04.2020
5421 Clear 15 1027 30 10000 6.2 140 19:22 05.04.2020
5422 Clear 15 1027 26 10000 6.2 130 18:48 05.04.2020
5423 Clear 15 1027 26 10000 6.2 130 18:48 05.04.2020
5424 Clear 16 1027 29 10000 5.7 140 18:18 05.04.2020
5425 Clear 16 1027 29 10000 7.2 130 17:46 05.04.2020
5426 Clear 16 1027 29 10000 7.2 130 17:46 05.04.2020
5427 Clear 16 1027 29 10000 7.2 130 17:46 05.04.2020
5428 Clear 16 1027 29 10000 7.2 130 17:46 05.04.2020
5429 Clear 16 1027 29 10000 7.2 130 17:46 05.04.2020
5430 Clear 17 1028 29 10000 5.7 130 17:22 05.04.2020
5431 Clear 16 1028 29 10000 6.2 130 16:47 05.04.2020
5432 Clear 16 1028 29 10000 6.2 150 16:19 05.04.2020
5433 Clear 16 1029 31 10000 5.7 130 15:45 05.04.2020
5434 Clouds 16 1029 31 10000 5.7 140 15:25 05.04.2020
5435 Clouds 16 1029 31 10000 5.7 130 14:48 05.04.2020
5436 Clouds 16 1029 31 10000 5.7 130 14:48 05.04.2020
5437 Clouds 16 1029 31 10000 5.7 130 14:48 05.04.2020
5438 Clouds 16 1029 31 10000 5.7 130 14:48 05.04.2020
5439 Clouds 16 1029 31 10000 5.7 130 14:48 05.04.2020
5440 Clouds 15 1029 33 10000 6.2 140 13:59 05.04.2020
5441 Clouds 15 1030 43 10000 6.2 140 13:40 05.04.2020
5442 Clouds 15 1030 43 10000 6.2 140 13:40 05.04.2020
5443 Clouds 15 1030 43 10000 6.2 140 13:40 05.04.2020
5444 Clouds 13 1031 37 10000 7.2 130 12:20 05.04.2020
5445 Clouds 13 1031 37 10000 7.2 130 12:20 05.04.2020
5446 Clouds 13 1031 37 10000 7.2 130 12:20 05.04.2020
5447 Clouds 13 1031 37 10000 7.2 140 11:39 05.04.2020
5448 Clouds 12 1031 40 10000 6.2 140 11:19 05.04.2020
5449 Clouds 12 1031 40 10000 5.1 120 10:47 05.04.2020
5450 Clouds 11 1031 43 10000 5.1 130 10:23 05.04.2020
5451 Clouds 10 1031 43 10000 4.6 120 09:54 05.04.2020
5452 Clear 7 1031 45 10000 3.6 110 09:27 05.04.2020
5453 Clear 7 1031 45 10000 3.6 110 09:27 05.04.2020
5454 Clear 6 1031 52 10000 3.1 90 08:32 05.04.2020
5455 Clear 3 1030 60 10000 2.1 90 07:06 05.04.2020
5456 Clear 4 1030 56 10000 3.1 130 04:31 05.04.2020
5457 Clear 3 1030 64 10000 1 0 03:28 05.04.2020
5458 Clear 4 1030 69 10000 1 0 02:27 05.04.2020
5459 Clear 4 1030 64 10000 0.5 0 01:44 05.04.2020
5460 Clear 4 1029 69 10000 0.5 0 01:23 05.04.2020
5461 Clear 4 1029 64 10000 0.5 0 00:37 05.04.2020
5462 Clear 5 1029 60 10000 0.5 0 00:19 05.04.2020
5463 Clear 5 1029 56 10000 1.87 137 23:42 04.04.2020
5464 Clear 5 1029 56 10000 0.5 70 23:22 04.04.2020
5465 Clear 5 1028 52 10000 1 60 22:57 04.04.2020
5466 Clear 5 1028 52 10000 1 60 22:57 04.04.2020
5467 Clear 6 1028 52 10000 1 60 22:39 04.04.2020
5468 Clear 6 1028 48 10000 1.5 140 22:20 04.04.2020
5469 Clear 6 1028 48 10000 1.87 137 21:57 04.04.2020
5470 Clear 6 1028 48 10000 1.87 137 21:57 04.04.2020
5471 Clear 6 1028 48 10000 1.87 137 21:39 04.04.2020
5472 Clear 7 1028 45 10000 0.5 0 21:19 04.04.2020
5473 Clear 7 1028 45 10000 0.5 0 20:56 04.04.2020
5474 Clear 8 1028 39 10000 0.71 34 20:37 04.04.2020
5475 Clear 10 1027 34 10000 0.5 0 20:19 04.04.2020
5476 Clear 10 1027 34 10000 0.5 0 19:55 04.04.2020
5477 Clear 11 1027 37 10000 1.5 270 19:36 04.04.2020
5478 Clear 11 1027 37 10000 1.5 270 19:36 04.04.2020
5479 Clear 12 1027 32 10000 2.1 290 19:18 04.04.2020
5480 Clear 12 1026 30 10000 1.5 0 18:55 04.04.2020
5481 Clear 12 1026 30 10000 1.5 0 18:36 04.04.2020
5482 Clear 12 1026 32 10000 1.5 0 18:18 04.04.2020
5483 Clear 13 1026 30 10000 1 0 17:40 04.04.2020
5484 Clear 13 1026 32 10000 1.5 0 17:20 04.04.2020
5485 Clear 13 1026 32 10000 1.5 0 16:55 04.04.2020
5486 Clear 13 1026 32 10000 1.5 190 16:37 04.04.2020
5487 Clear 13 1026 34 10000 3.1 300 16:18 04.04.2020
5488 Clear 12 1026 34 10000 3.6 220 15:40 04.04.2020
5489 Clear 12 1026 37 10000 3.6 0 15:22 04.04.2020
5490 Clear 12 1026 37 10000 3.6 0 14:57 04.04.2020
5491 Clear 11 1026 40 10000 3.1 270 14:39 04.04.2020
5492 Clear 11 1026 37 10000 3.6 310 14:20 04.04.2020
5493 Clear 11 1026 37 10000 2.1 0 13:55 04.04.2020
5494 Clear 11 1026 37 10000 2.1 0 13:37 04.04.2020
5495 Clear 11 1026 37 10000 3.1 260 13:18 04.04.2020
5496 Clear 10 1026 39 10000 3.6 270 12:44 04.04.2020
5497 Clouds 10 1026 39 10000 3.1 300 12:23 04.04.2020
5498 Clouds 10 1026 43 10000 2.1 0 11:58 04.04.2020
5499 Clouds 10 1026 43 10000 2.1 0 11:38 04.04.2020
5500 Clouds 9 1025 42 10000 3.1 280 11:19 04.04.2020
5501 Clouds 9 1025 42 10000 3.1 280 10:55 04.04.2020
5502 Clouds 9 1025 49 10000 2.6 310 10:37 04.04.2020
5503 Clear 8 1025 49 10000 2.6 320 10:18 04.04.2020
5504 Clear 7 1024 56 10000 2.6 300 09:54 04.04.2020
5505 Clear 7 1024 56 10000 2.6 300 09:36 04.04.2020
5506 Clouds 6 1024 60 10000 2.1 280 09:18 04.04.2020
5507 Clouds 5 1024 60 10000 1.5 260 08:41 04.04.2020
5508 Clouds 5 1023 69 10000 1.5 290 08:20 04.04.2020
5509 Clouds 5 1023 65 10000 1.5 280 07:44 04.04.2020
5510 Clouds 4 1022 65 10000 1 0 07:26 04.04.2020
5511 Clouds 4 1022 65 10000 1 0 06:51 04.04.2020
5512 Clouds 5 1022 65 10000 1.5 300 06:19 04.04.2020
5513 Clouds 5 1021 60 10000 1.5 320 05:42 04.04.2020
5514 Clouds 5 1021 60 0 1.5 310 05:24 04.04.2020
5515 Clouds 5 1021 65 10000 1.5 300 04:31 04.04.2020
5516 Clouds 5 1020 60 10000 1.5 280 03:51 04.04.2020
5517 Clouds 5 1020 56 10000 2.1 280 02:52 04.04.2020
5518 Clouds 5 1020 56 10000 2.1 280 02:33 04.04.2020
5519 Clouds 4 1019 65 10000 2.1 270 01:57 04.04.2020
5520 Clouds 5 1019 60 10000 1 0 01:25 04.04.2020
5521 Clouds 4 1019 65 10000 2.1 260 00:50 04.04.2020
5522 Clouds 4 1019 65 10000 2.1 260 00:30 04.04.2020
5523 Clouds 4 1018 65 10000 1 0 00:30 04.04.2020
5524 Clouds 4 1018 64 10000 1 270 23:41 03.04.2020
5525 Clouds 4 1018 64 10000 1 270 23:41 03.04.2020
5526 Clouds 4 1018 64 10000 1 300 23:21 03.04.2020
5527 Clouds 4 1018 64 10000 1 300 22:59 03.04.2020
5528 Clouds 4 1017 64 10000 1 0 22:40 03.04.2020
5529 Clouds 5 1017 60 10000 1 250 22:19 03.04.2020
5530 Clouds 5 1017 60 10000 1 250 21:56 03.04.2020
5531 Clouds 5 1017 60 10000 1 0 21:37 03.04.2020
5532 Rain 6 1017 52 10000 1.5 320 21:19 03.04.2020
5533 Rain 7 1016 52 10000 1.5 330 20:54 03.04.2020
5534 Rain 7 1016 52 10000 1.5 330 20:36 03.04.2020
5535 Rain 7 1016 45 10000 1.5 300 20:18 03.04.2020
5536 Rain 8 1016 45 10000 1.5 300 19:54 03.04.2020
5537 Rain 9 1015 45 10000 3.1 300 19:36 03.04.2020
5538 Rain 9 1015 42 10000 4.6 300 19:18 03.04.2020
5539 Rain 10 1015 43 10000 4.1 300 18:42 03.04.2020
5540 Rain 10 1014 42 10000 5.1 290 18:23 03.04.2020
5541 Rain 10 1014 37 10000 6.7 290 17:58 03.04.2020
5542 Rain 10 1014 37 10000 6.7 290 17:40 03.04.2020
5543 Rain 11 1014 39 10000 6.7 290 17:19 03.04.2020
5544 Rain 10 1014 39 10000 6.7 290 17:19 03.04.2020
5545 Rain 11 1013 34 10000 8.2 270 16:54 03.04.2020
5546 Rain 11 1013 34 10000 8.2 270 16:36 03.04.2020
5547 Rain 11 1013 34 10000 8.7 270 16:18 03.04.2020
5548 Rain 11 1013 34 10000 7.2 280 15:41 03.04.2020
5549 Clouds 11 1013 39 10000 6.7 280 15:22 03.04.2020
5550 Rain 11 987 40 0 6.25 281 14:58 03.04.2020
5551 Clouds 10 1013 42 10000 7.2 300 14:40 03.04.2020
5552 Clouds 10 1013 42 10000 7.2 300 14:21 03.04.2020
5553 Clouds 10 1013 42 10000 7.2 300 13:46 03.04.2020
5554 Clouds 10 1012 49 10000 7.2 270 13:27 03.04.2020
5555 Clouds 10 1012 49 10000 6.7 290 12:57 03.04.2020
5556 Clouds 9 1012 49 10000 6.7 290 12:39 03.04.2020
5557 Clouds 9 1012 49 10000 9.8 280 12:18 03.04.2020
5558 Clouds 9 1012 52 10000 6.2 290 11:55 03.04.2020
5559 Clouds 9 1012 52 10000 6.2 290 11:55 03.04.2020
5560 Clouds 9 1012 52 10000 6.2 290 11:37 03.04.2020
5561 Clouds 8 1011 52 10000 6.2 300 11:18 03.04.2020
5562 Clouds 8 1011 52 10000 6.2 300 11:18 03.04.2020
5563 Clouds 8 1011 52 10000 6.2 300 10:56 03.04.2020
5564 Clouds 8 1011 52 10000 8.2 280 10:37 03.04.2020
5565 Clouds 8 1010 52 10000 9.3 270 10:19 03.04.2020
5566 Clouds 8 1010 56 10000 7.7 280 09:56 03.04.2020
5567 Clouds 7 1010 56 10000 7.7 280 09:37 03.04.2020
5568 Clouds 6 1010 56 10000 6.7 280 09:19 03.04.2020
5569 Clouds 6 1010 60 10000 6.7 280 08:44 03.04.2020
5570 Clouds 6 1009 60 10000 6.2 280 08:25 03.04.2020
5571 Clouds 5 1008 60 10000 6.7 300 07:59 03.04.2020
5572 Clouds 5 1008 60 10000 6.7 300 07:40 03.04.2020
5573 Clouds 5 1008 65 10000 6.2 290 07:22 03.04.2020
5574 Clouds 6 1007 72 10000 7.2 290 06:33 03.04.2020
5575 Clouds 6 1006 70 10000 4.1 280 05:43 03.04.2020
5576 Clouds 6 1006 70 10000 4.1 280 05:21 03.04.2020
5577 Rain 7 1005 70 10000 7.2 280 03:37 03.04.2020
5578 Clouds 7 1005 65 10000 7.7 250 02:47 03.04.2020
5579 Clouds 6 1005 72 10000 7.2 250 01:36 03.04.2020
5580 Clouds 6 1005 72 10000 7.2 250 01:18 03.04.2020
5581 Rain 6 1005 56 10000 7.2 250 00:34 03.04.2020
5582 Clouds 6 1005 56 10000 7.7 240 23:57 02.04.2020
5583 Clouds 6 1005 56 10000 7.7 240 23:39 02.04.2020
5584 Clouds 6 1006 56 10000 6.7 240 23:19 02.04.2020
5585 Clouds 6 1006 56 10000 6.7 240 23:19 02.04.2020
5586 Clouds 6 1006 56 10000 6.7 240 23:19 02.04.2020
5587 Clouds 6 1006 60 10000 6.2 240 22:43 02.04.2020
5588 Clouds 6 1006 60 10000 6.2 240 22:25 02.04.2020
5589 Clouds 6 1006 56 10000 5.1 240 21:59 02.04.2020
5590 Clouds 6 1006 56 10000 5.1 240 21:37 02.04.2020
5591 Clouds 6 1007 56 10000 4.6 260 21:19 02.04.2020
5592 Clouds 7 1007 56 10000 4.6 270 20:55 02.04.2020
5593 Clouds 7 1007 56 10000 4.6 270 20:37 02.04.2020
5594 Clouds 8 1007 52 10000 5.7 280 20:19 02.04.2020
5595 Clouds 8 1007 49 10000 6.7 270 19:42 02.04.2020
5596 Clouds 9 1007 45 10000 8.7 260 19:20 02.04.2020
5597 Clouds 9 1007 45 10000 8.7 260 19:20 02.04.2020
5598 Clouds 9 1007 45 10000 8.7 260 19:20 02.04.2020
5599 Clouds 10 1007 43 10000 8.7 260 18:57 02.04.2020
5600 Clouds 10 1007 43 10000 8.7 260 18:39 02.04.2020
5601 Clouds 10 1007 43 10000 7.2 260 18:20 02.04.2020
5602 Clouds 11 1007 39 10000 7.7 250 17:55 02.04.2020
5603 Clouds 11 1007 39 10000 7.7 250 17:37 02.04.2020
5604 Clouds 11 1008 40 10000 8.7 260 17:18 02.04.2020
5605 Clouds 11 1008 39 10000 8.2 260 16:55 02.04.2020
5606 Clouds 11 1008 39 10000 8.2 260 16:36 02.04.2020
5607 Clouds 11 1008 39 10000 8.2 260 16:36 02.04.2020
5608 Clouds 11 1009 39 10000 7.7 230 16:18 02.04.2020
5609 Clouds 11 1009 39 10000 7.7 230 16:18 02.04.2020
5610 Clouds 10 1009 39 10000 7.7 240 15:44 02.04.2020
5611 Clouds 10 1009 39 10000 7.7 240 15:44 02.04.2020
5612 Clouds 10 1009 39 10000 7.7 240 15:44 02.04.2020
5613 -273 0 0 0 0 0 15:44 02.04.2020
5614 Clouds 10 1009 43 10000 7.2 240 15:21 02.04.2020
5615 Clouds 10 1010 45 10000 7.2 240 14:58 02.04.2020
5616 Clouds 10 1010 45 10000 7.2 240 14:39 02.04.2020
5617 Clouds 9 1010 45 10000 6.7 250 14:19 02.04.2020
5618 Clouds 9 1011 49 10000 5.1 270 13:56 02.04.2020
5619 Clouds 9 1011 49 10000 5.1 270 13:38 02.04.2020
5620 Clouds 9 1011 49 10000 7.7 260 13:19 02.04.2020
5621 Clouds 9 1011 49 10000 7.7 250 12:55 02.04.2020
5622 Clouds 9 1011 49 10000 7.7 250 12:36 02.04.2020
5623 Clouds 9 1011 57 10000 7.2 260 12:18 02.04.2020
5624 Clouds 9 1012 61 10000 6.2 250 11:55 02.04.2020
5625 Clouds 9 1012 61 10000 6.2 250 11:36 02.04.2020
5626 Clouds 8 1012 65 10000 6.2 250 11:18 02.04.2020
5627 Clouds 8 1012 65 10000 6.2 250 10:54 02.04.2020
5628 Clouds 7 1012 70 10000 5.7 250 10:36 02.04.2020
5629 Clouds 7 1012 70 10000 5.7 250 10:18 02.04.2020
5630 Clouds 6 1012 75 10000 5.7 250 09:42 02.04.2020
5631 Clouds 5 1012 75 10000 5.7 260 09:24 02.04.2020
5632 Clouds 5 1012 80 10000 4.6 260 08:58 02.04.2020
5633 Clouds 4 1012 80 10000 4.6 260 08:40 02.04.2020
5634 Clouds 5 1012 75 10000 5.1 240 08:20 02.04.2020
5635 Clouds 4 1012 75 10000 4.6 240 07:43 02.04.2020
5636 Clouds 4 1012 75 10000 4.1 250 07:20 02.04.2020
5637 Clouds 4 1013 75 10000 4.6 240 06:57 02.04.2020
5638 Clouds 4 1013 75 10000 4.1 250 06:21 02.04.2020
5639 Clouds 4 1013 75 10000 3.1 250 05:44 02.04.2020
5640 Clouds 4 1013 75 10000 4.1 260 03:57 02.04.2020
5641 Clouds 4 1014 70 10000 3.6 280 01:34 02.04.2020
5642 Clouds 5 1015 82 10000 4.6 270 00:48 02.04.2020
5643 Clouds 5 1015 73 10000 4.1 260 00:26 02.04.2020
5644 Clouds 5 1015 60 10000 4.6 260 23:54 01.04.2020
5645 Clouds 5 1015 60 10000 4.6 260 23:36 01.04.2020
5646 Clouds 5 1015 60 10000 4.1 260 23:18 01.04.2020
5647 Clouds 5 1015 60 10000 4.6 260 22:40 01.04.2020
5648 Clouds 6 1015 56 10000 4.1 270 22:21 01.04.2020
5649 Clouds 6 1015 56 10000 4.1 270 21:55 01.04.2020
5650 Clouds 6 1016 60 10000 4.1 260 21:37 01.04.2020
5651 Clouds 6 1016 60 10000 4.1 260 21:18 01.04.2020
5652 Clouds 6 1016 56 10000 2.1 290 20:54 01.04.2020
5653 Clouds 6 1016 56 10000 2.1 290 20:54 01.04.2020
5654 Clouds 6 1016 56 10000 2.1 290 20:36 01.04.2020
5655 Clouds 7 1016 52 10000 3.1 280 20:18 01.04.2020
5656 Clouds 7 1016 56 10000 4.6 260 19:42 01.04.2020
5657 Clouds 8 1016 49 10000 5.7 280 19:22 01.04.2020
5658 Clouds 8 1016 49 10000 5.7 280 18:59 01.04.2020
5659 Clouds 9 1016 49 10000 5.1 280 18:40 01.04.2020
5660 Clouds 9 1016 49 10000 5.1 300 18:21 01.04.2020
5661 Clouds 9 1017 52 10000 5.1 300 17:55 01.04.2020
5662 Clouds 9 1017 52 10000 5.1 300 17:36 01.04.2020
5663 Clouds 10 1017 45 10000 5.7 290 17:18 01.04.2020
5664 Clouds 10 1017 39 10000 6.2 300 16:42 01.04.2020
5665 Clouds 10 1017 39 10000 6.7 250 16:24 01.04.2020
5666 Clouds 10 1017 39 10000 6.7 250 15:59 01.04.2020
5667 Clouds 10 1018 42 10000 5.1 290 15:41 01.04.2020
5668 Clouds 10 1018 42 10000 5.7 260 15:22 01.04.2020
5669 Clouds 9 1018 42 10000 5.7 260 14:58 01.04.2020
5670 Clouds 9 1018 42 10000 7.2 260 14:39 01.04.2020
5671 Clouds 9 1019 42 10000 6.2 270 14:20 01.04.2020
5672 Clouds 9 1019 42 10000 6.2 270 13:58 01.04.2020
5673 Clouds 9 1019 42 10000 6.7 260 13:38 01.04.2020
5674 Clouds 9 1020 39 10000 8.2 250 13:19 01.04.2020
5675 Clouds 8 1020 42 10000 8.2 260 12:56 01.04.2020
5676 Clouds 8 1020 42 10000 8.2 260 12:37 01.04.2020
5677 Clouds 7 1021 45 10000 8.2 260 12:18 01.04.2020
5678 Clouds 7 1021 42 10000 7.2 250 11:54 01.04.2020
5679 Clouds 7 1021 42 10000 7.2 250 11:36 01.04.2020
5680 Clouds 6 1021 45 10000 6.2 250 11:18 01.04.2020
5681 Clear 5 1022 48 10000 5.7 260 10:38 01.04.2020
5682 Clear 5 1022 48 10000 5.1 260 10:20 01.04.2020
5683 Clear 4 1022 51 10000 5.1 250 09:58 01.04.2020
5684 Clear 4 1022 51 10000 5.1 250 09:39 01.04.2020
5685 Clear 2 1022 55 10000 5.1 250 09:19 01.04.2020
5686 Clear 1 1022 59 10000 4.1 250 08:44 01.04.2020
5687 Clear 0 1022 83 10000 4.1 250 08:19 01.04.2020
5688 Clear 0 1022 83 10000 4.1 250 07:56 01.04.2020
5689 Clear -2 1022 68 10000 4.1 250 07:38 01.04.2020
5690 Clear -2 1023 73 10000 4.1 260 07:18 01.04.2020
5691 Clear -2 1023 73 10000 4.1 260 06:39 01.04.2020
5692 Clear -2 1023 68 10000 3.6 250 06:20 01.04.2020
5693 Clear -2 1023 73 10000 3.6 250 05:24 01.04.2020
5694 Clear -2 1024 68 10000 3.6 240 03:39 01.04.2020
5695 Clear -2 1025 68 10000 3.6 250 02:59 01.04.2020
5696 Clear -2 1025 68 10000 3.6 250 02:31 01.04.2020
5697 Clear -2 1026 68 10000 2.6 250 01:49 01.04.2020
5698 Clear -1 1026 68 10000 2.6 250 01:25 01.04.2020
5699 Clear -1 1026 73 10000 2.6 240 00:47 01.04.2020
5700 Clear -1 1027 68 10000 2.6 260 00:22 01.04.2020
5701 Clear -1 1027 68 10000 2.6 260 23:57 31.03.2020
5702 Clear -1 1027 63 10000 1 250 23:38 31.03.2020
5703 Clear -1 1027 63 10000 1 230 23:19 31.03.2020
5704 Clear -1 1027 81 10000 1 260 22:40 31.03.2020
5705 Clear -1 1027 81 10000 1 260 22:21 31.03.2020
5706 Clear 0 1028 81 10000 1.5 270 21:58 31.03.2020
5707 Clear 0 1028 81 10000 1.5 270 21:40 31.03.2020
5708 Clouds 1 1028 55 10000 1.5 280 21:21 31.03.2020
5709 Clouds 2 1028 55 10000 1.5 280 20:57 31.03.2020
5710 Clouds 1 1028 55 10000 1.5 280 20:57 31.03.2020
5711 Clouds 2 1028 55 10000 1.5 280 20:57 31.03.2020
5712 Clouds 2 1028 55 10000 1.5 280 20:57 31.03.2020
5713 Clouds 2 1028 47 10000 2.1 300 20:37 31.03.2020
5714 Clouds 3 1028 47 10000 2.1 300 20:19 31.03.2020
5715 Clouds 3 1028 41 10000 3.6 300 19:56 31.03.2020
5716 Clouds 4 1028 41 10000 3.6 300 19:38 31.03.2020
5717 Clouds 4 1028 41 10000 3.1 280 19:19 31.03.2020
5718 Clouds 5 1028 38 10000 3.6 310 18:44 31.03.2020
5719 Clouds 5 1028 41 10000 2.1 290 18:21 31.03.2020
5720 Clouds 5 1029 38 10000 2.6 280 17:57 31.03.2020
5721 Clouds 5 1029 38 10000 2.6 280 17:39 31.03.2020
5722 Clouds 5 1029 41 10000 2.6 340 17:21 31.03.2020
5723 Clouds 5 1029 41 10000 2.6 340 16:56 31.03.2020
5724 Clouds 5 1029 48 10000 3.1 10 16:37 31.03.2020
5725 Clouds 5 1030 41 10000 2.1 310 16:18 31.03.2020
5726 Clouds 5 1030 38 10000 3.1 0 15:56 31.03.2020
5727 Clouds 5 1030 38 10000 3.1 0 15:37 31.03.2020
5728 Clouds 5 1030 44 10000 2.1 0 15:18 31.03.2020
5729 Clouds 5 1030 44 10000 2.1 350 14:43 31.03.2020
5730 Clouds 5 1030 44 10000 3.1 30 14:24 31.03.2020
5731 Clouds 5 1030 44 10000 3.1 30 13:59 31.03.2020
5732 Clouds 5 1031 41 10000 3.1 360 13:41 31.03.2020
5733 Clouds 4 1031 51 10000 3.1 40 13:19 31.03.2020
5734 Clouds 5 1031 48 10000 2.1 0 12:54 31.03.2020
5735 Clouds 4 1031 48 10000 2.1 0 12:36 31.03.2020
5736 Clouds 4 1031 51 10000 3.1 20 12:18 31.03.2020
5737 Clouds 4 1031 51 10000 3.6 350 11:38 31.03.2020
5738 Clouds 4 1031 51 10000 3.6 20 11:19 31.03.2020
5739 Clouds 4 1031 51 10000 3.6 30 10:57 31.03.2020
5740 Clouds 4 1031 51 10000 3.6 30 10:39 31.03.2020
5741 Clouds 3 1031 64 10000 3.1 10 10:21 31.03.2020
5742 Clouds 3 1031 64 10000 3.1 10 10:21 31.03.2020
5743 Clouds 3 1031 69 10000 2.6 30 09:56 31.03.2020
5744 Clouds 3 1031 69 10000 2.6 30 09:37 31.03.2020
5745 Clouds 1 1031 74 10000 2.6 20 09:19 31.03.2020
5746 Clear 1 1030 88 10000 2.1 360 08:55 31.03.2020
5747 Clear 0 1030 88 10000 2.1 360 08:37 31.03.2020
5748 Clear 0 1030 88 10000 2.6 30 08:18 31.03.2020
5749 Clouds -1 1030 86 10000 2.1 30 07:44 31.03.2020
5750 Clouds -1 1030 86 10000 2.1 360 07:25 31.03.2020
5751 Clear -1 1029 86 10000 2.1 20 06:59 31.03.2020
5752 Clear -1 1029 86 10000 2.1 20 06:41 31.03.2020
5753 Clear -1 1029 92 10000 2.6 20 05:53 31.03.2020
5754 Clear -1 1028 92 10000 1.5 360 05:26 31.03.2020
5755 Clouds 0 1028 92 10000 2.1 40 02:57 31.03.2020
5756 Clouds 1 1027 86 10000 2.6 360 01:47 31.03.2020
5757 Clouds 1 1027 93 10000 2.1 350 01:27 31.03.2020
5758 Clouds 1 1027 93 10000 2.1 350 00:43 31.03.2020
5759 Clouds 1 1027 90 10000 2.1 350 00:23 31.03.2020
5760 Clouds 1 1026 90 10000 2.6 340 23:41 30.03.2020
5761 Clouds 2 1026 100 10000 2.1 310 23:20 30.03.2020
5762 Clouds 2 1026 100 10000 2.1 310 23:20 30.03.2020
5763 Clouds 2 1026 100 10000 2.1 310 23:20 30.03.2020
5764 Clouds 2 1026 100 10000 2.1 310 22:58 30.03.2020
5765 Clouds 2 1026 100 10000 2.1 290 22:58 30.03.2020
5766 Clouds 2 1026 100 10000 2.1 290 22:58 30.03.2020
5767 Clouds 2 1026 100 10000 2.1 290 22:39 30.03.2020
5768 Clouds 2 1026 90 10000 2.1 300 22:19 30.03.2020
5769 Clouds 2 1025 90 10000 1.5 290 21:58 30.03.2020
5770 Clouds 2 1025 91 10000 1.5 290 21:38 30.03.2020
5771 Snow 2 1025 88 10000 2.1 260 21:20 30.03.2020
5772 Snow 2 1025 88 10000 2.1 280 20:58 30.03.2020
5773 Snow 2 1025 88 10000 2.1 280 20:39 30.03.2020
5774 Clouds 2 1025 88 10000 1.5 290 20:20 30.03.2020
5775 Clouds 2 1024 88 10000 3.1 280 19:56 30.03.2020
5776 Clouds 2 1024 88 10000 3.1 280 19:38 30.03.2020
5777 Clouds 2 1024 88 10000 2.6 280 19:20 30.03.2020
5778 Clouds 2 1024 88 10000 2.1 290 18:43 30.03.2020
5779 Clouds 2 1024 89 10000 2.6 300 18:25 30.03.2020
5780 Clouds 2 1024 89 10000 3.6 280 17:58 30.03.2020
5781 Clouds 2 1024 89 10000 3.6 280 17:39 30.03.2020
5782 Clouds 2 1024 89 10000 3.6 280 17:39 30.03.2020
5783 Clouds 2 1024 89 10000 4.1 280 17:20 30.03.2020
5784 Clouds 2 1024 89 10000 5.1 270 16:59 30.03.2020
5785 Clouds 2 1024 89 10000 5.1 270 16:40 30.03.2020
5786 -273 0 0 0 0 0 16:20 30.03.2020
5787 Rain 1 1025 89 10000 5.1 250 16:20 30.03.2020
5788 Rain 2 1025 89 10000 5.7 260 15:56 30.03.2020
5789 Rain 2 1025 89 10000 5.7 260 15:38 30.03.2020
5790 Snow 2 1025 67 10000 3.6 250 15:20 30.03.2020
5791 Snow 3 1025 67 900 6.7 260 14:56 30.03.2020
5792 Rain 3 1025 55 10000 7.2 270 14:37 30.03.2020
5793 Rain 3 1025 64 10000 7.2 260 14:18 30.03.2020
5794 Rain 3 1025 64 10000 7.2 260 14:18 30.03.2020
5795 Rain 4 1025 64 10000 7.2 260 13:57 30.03.2020
5796 Snow 4 1025 55 10000 8.2 250 13:38 30.03.2020
5797 Clouds 4 1025 47 10000 8.2 250 13:19 30.03.2020
5798 Clouds 4 1026 47 10000 8.2 240 12:45 30.03.2020
5799 Clouds 4 1026 47 10000 7.2 270 12:21 30.03.2020
5800 Clouds 4 1026 47 10000 7.2 270 12:21 30.03.2020
5801 Clouds 3 1027 51 10000 6.7 280 11:59 30.03.2020
5802 Clouds 3 1027 51 10000 6.7 280 11:59 30.03.2020
5803 Clouds 3 1027 51 10000 6.7 280 11:41 30.03.2020
5804 Clouds 3 1027 51 10000 6.2 280 11:22 30.03.2020
5805 Clouds 3 1027 51 10000 6.2 280 10:55 30.03.2020
5806 Clouds 3 1027 51 10000 5.7 260 10:37 30.03.2020
5807 Clouds 2 1027 55 10000 5.1 260 10:18 30.03.2020
5808 Clouds 1 1027 55 10000 4.6 260 09:40 30.03.2020
5809 Clouds 1 1027 55 10000 4.6 260 09:40 30.03.2020
5810 Clear 1 1027 86 10000 4.1 270 09:20 30.03.2020
5811 Clouds 1 1027 86 10000 4.1 270 09:20 30.03.2020
5812 Clear 0 1027 86 10000 4.1 270 08:57 30.03.2020
5813 Clear -1 1027 63 10000 3.1 270 08:38 30.03.2020
5814 Clear -2 1027 68 10000 2.6 260 08:19 30.03.2020
5815 Clear -3 1027 73 10000 3.1 260 07:43 30.03.2020
5816 Clear -4 1028 79 10000 2.6 270 07:23 30.03.2020
5817 Clear -4 1028 79 10000 2.6 260 06:47 30.03.2020
5818 Clear -3 1028 73 10000 2.1 250 06:25 30.03.2020
5819 Clear -3 1028 73 10000 2.6 250 05:44 30.03.2020
5820 Clear -3 1029 73 10000 1.5 250 04:37 30.03.2020
5821 Clear -3 1029 73 10000 2.1 270 04:18 30.03.2020
5822 Clear -2 1030 58 10000 2.1 310 02:45 30.03.2020
5823 Clear -2 1030 58 10000 1.5 300 01:58 30.03.2020
5824 Clear -1 1030 54 10000 2.1 310 01:18 30.03.2020
5825 Clear -1 1030 54 10000 2.1 320 00:29 30.03.2020
5826 Clouds -1 1030 80 10000 1 0 23:59 29.03.2020
5827 Clouds -1 1030 80 10000 1 0 23:40 29.03.2020
5828 Clouds 0 1030 80 10000 2.1 340 23:21 29.03.2020
5829 Clouds 0 1030 80 10000 2.1 340 22:56 29.03.2020
5830 Clouds 1 1029 47 10000 2.1 350 22:37 29.03.2020
5831 Clouds 1 1029 47 10000 2.6 10 22:18 29.03.2020
5832 Clouds 1 1029 47 10000 3.1 10 21:40 29.03.2020
5833 Clouds 2 1029 51 10000 4.1 360 21:21 29.03.2020
5834 Clouds 2 1028 51 10000 4.6 10 20:56 29.03.2020
5835 Clouds 2 1028 51 10000 4.6 10 20:38 29.03.2020
5836 Clouds 2 1028 59 10000 5.1 360 20:19 29.03.2020
5837 Clouds 3 1027 55 10000 6.2 10 19:59 29.03.2020
5838 Clouds 3 1027 55 10000 6.2 10 19:59 29.03.2020
5839 Clouds 3 1027 55 10000 6.2 10 19:41 29.03.2020
5840 Clouds 3 1027 59 10000 6.2 10 19:23 29.03.2020
5841 Clouds 4 1026 51 10000 7.2 20 18:57 29.03.2020
5842 Clouds 4 1026 51 10000 7.2 20 18:39 29.03.2020
5843 -273 0 0 0 0 0 18:20 29.03.2020
5844 Rain 4 1025 64 10000 6.7 20 17:57 29.03.2020
5845 Rain 4 1025 64 10000 6.7 20 17:39 29.03.2020
5846 Rain 5 1025 69 10000 6.7 360 17:20 29.03.2020
5847 Rain 5 1025 69 10000 6.7 360 16:57 29.03.2020
5848 Clouds 5 1025 65 10000 7.7 20 16:39 29.03.2020
5849 Clouds 5 1025 65 10000 7.7 20 16:39 29.03.2020
5850 Rain 5 1024 60 10000 6.7 30 16:20 29.03.2020
5851 Clouds 4 1024 70 10000 6.7 30 15:56 29.03.2020
5852 Clouds 4 1024 70 10000 6.7 30 15:37 29.03.2020
5853 Rain 4 1024 78 10000 6.2 30 15:19 29.03.2020
5854 Rain 4 1023 80 10000 6.7 30 14:55 29.03.2020
5855 Rain 4 1023 80 10000 6.7 30 14:36 29.03.2020
5856 Rain 4 1022 82 10000 9.8 30 14:18 29.03.2020
5857 Rain 4 1023 80 10000 6.7 30 13:41 29.03.2020
5858 Rain 5 1022 80 10000 7.2 30 13:22 29.03.2020
5859 Rain 5 1021 80 10000 5.7 20 12:58 29.03.2020
5860 Rain 5 1021 80 10000 5.7 20 12:39 29.03.2020
5861 Rain 5 1021 80 10000 4.6 20 12:19 29.03.2020
5862 Rain 5 1020 80 10000 5.7 20 11:58 29.03.2020
5863 Rain 5 1020 80 10000 5.7 20 11:38 29.03.2020
5864 Rain 6 1020 86 10000 3.6 360 11:19 29.03.2020
5865 Clouds 5 1019 75 10000 3.6 20 10:39 29.03.2020
5866 Clouds 5 1019 80 10000 3.6 360 10:20 29.03.2020
5867 Clouds 5 1019 80 10000 3.6 360 09:56 29.03.2020
5868 Clouds 4 1019 86 8000 2.6 320 09:38 29.03.2020
5869 Clouds 4 1018 80 10000 2.6 300 09:18 29.03.2020
5870 Clouds 4 1018 86 10000 2.6 300 08:45 29.03.2020
5871 Clouds 4 1018 87 10000 2.6 300 08:26 29.03.2020
5872 Clouds 3 1017 87 10000 2.6 300 07:47 29.03.2020
5873 Clouds 3 1017 87 10000 3.1 290 07:23 29.03.2020
5874 Clouds 3 1017 87 10000 3.1 290 06:55 29.03.2020
5875 Clouds 3 1017 85 10000 2.6 290 04:57 29.03.2020
5876 Clouds 3 1018 85 10000 4.1 320 03:41 29.03.2020
5877 Clouds 4 1018 71 10000 3.1 310 03:23 29.03.2020
5878 Clouds 4 1018 69 10000 3.1 320 01:50 29.03.2020
5879 Clouds 4 1018 69 10000 3.1 320 01:23 29.03.2020
5880 Clouds 4 1018 64 10000 3.1 310 00:48 29.03.2020
5881 Clouds 5 1018 65 10000 2.6 310 00:29 29.03.2020
5882 Clouds 5 1018 60 10000 2.6 330 23:41 28.03.2020
5883 Clouds 5 1018 60 10000 2.6 330 23:41 28.03.2020
5884 Clouds 6 1018 60 10000 2.6 330 23:23 28.03.2020
5885 Clouds 6 1018 56 10000 2.6 340 22:57 28.03.2020
5886 Clouds 7 1018 56 10000 2.6 340 22:37 28.03.2020
5887 Clouds 7 1018 68 10000 2.6 340 22:18 28.03.2020
5888 Clouds 8 1018 68 10000 3.6 340 21:41 28.03.2020
5889 Clouds 8 1018 68 10000 2.6 330 21:23 28.03.2020
5890 Clouds 8 1018 68 10000 2.6 330 20:58 28.03.2020
5891 Clouds 8 1018 68 10000 3.6 340 20:39 28.03.2020
5892 Clouds 9 1018 53 10000 3.6 340 20:21 28.03.2020
5893 Clouds 10 1018 55 10000 4.1 340 19:56 28.03.2020
5894 Clouds 10 1018 55 10000 4.1 340 19:37 28.03.2020
5895 Clouds 10 1018 55 10000 4.1 340 19:37 28.03.2020
5896 Clouds 11 1017 40 10000 2.6 350 19:19 28.03.2020
5897 Clouds 11 1017 37 10000 3.6 350 18:56 28.03.2020
5898 Clouds 12 1017 37 10000 3.6 350 18:38 28.03.2020
5899 Clouds 13 1017 32 10000 4.1 340 18:19 28.03.2020
5900 Clouds 14 1017 30 10000 4.6 340 17:38 28.03.2020
5901 Clouds 14 1017 30 10000 4.6 340 17:20 28.03.2020
5902 Clouds 15 1017 28 10000 5.1 330 16:42 28.03.2020
5903 Clouds 15 1017 28 10000 4.1 350 16:20 28.03.2020
5904 Clouds 15 1017 28 10000 4.6 340 15:57 28.03.2020
5905 Clouds 15 1017 28 10000 4.6 340 15:39 28.03.2020
5906 Clouds 15 1017 28 10000 4.6 350 15:19 28.03.2020
5907 Clouds 15 1017 30 10000 4.6 330 14:54 28.03.2020
5908 Clouds 15 1017 30 10000 4.6 330 14:36 28.03.2020
5909 Clear 15 1018 30 10000 5.1 330 14:18 28.03.2020
5910 Clear 15 1018 30 10000 4.6 340 13:38 28.03.2020
5911 Clear 15 1018 33 10000 5.1 340 13:20 28.03.2020
5912 Clear 14 1019 49 10000 4.1 340 12:39 28.03.2020
5913 Clear 13 1019 49 10000 4.6 360 12:21 28.03.2020
5914 Clear 12 1019 49 10000 4.1 320 11:42 28.03.2020
5915 Clear 11 1019 60 10000 3.6 330 11:23 28.03.2020
5916 Clear 11 1020 53 10000 3.1 310 10:56 28.03.2020
5917 Clear 10 1020 53 10000 3.1 310 10:38 28.03.2020
5918 Clear 10 1020 57 10000 3.1 330 10:18 28.03.2020
5919 Clear 8 1020 65 10000 2.6 330 09:42 28.03.2020
5920 Clear 7 1020 75 10000 3.1 310 09:23 28.03.2020
5921 Clear 7 1020 75 10000 3.1 310 09:23 28.03.2020
5922 Clear 6 1020 75 10000 2.6 340 08:55 28.03.2020
5923 Clear 5 1020 75 10000 2.6 340 08:37 28.03.2020
5924 Clouds 5 1020 80 7000 2.6 340 08:18 28.03.2020
5925 Mist 3 1020 93 5000 2.1 340 07:41 28.03.2020
5926 Mist 2 1020 100 4500 1.5 330 06:58 28.03.2020
5927 Mist 2 1020 79 5000 1.5 330 06:35 28.03.2020
5928 Clouds 2 1020 79 10000 1.5 330 05:43 28.03.2020
5929 Clouds 3 1020 93 10000 2.1 350 05:21 28.03.2020
5930 Clouds 3 1020 93 10000 2.1 350 04:41 28.03.2020
5931 Clouds 3 1020 78 10000 2.1 360 03:42 28.03.2020
5932 Clear 5 1021 75 10000 2.6 360 02:21 28.03.2020
5933 Clear 4 1021 76 10000 2.1 360 01:30 28.03.2020
5934 Clear 5 1021 65 10000 2.1 360 00:59 28.03.2020
5935 Clear 5 1021 65 10000 1.5 360 00:36 28.03.2020
5936 Clear 6 1021 56 10000 2.1 20 23:57 27.03.2020
5937 Clear 6 1021 56 10000 2.1 20 23:39 27.03.2020
5938 Clear 7 1021 52 10000 3.1 30 23:21 27.03.2020
5939 Clear 7 1021 52 10000 1.5 20 22:56 27.03.2020
5940 Clear 7 1021 52 10000 1.5 20 22:37 27.03.2020
5941 Clear 8 1021 49 10000 3.1 30 22:19 27.03.2020
5942 Clear 9 1021 46 10000 2.6 20 21:45 27.03.2020
5943 Clear 9 1021 46 10000 2.6 30 21:25 27.03.2020
5944 Clear 9 1021 46 10000 2.6 30 20:59 27.03.2020
5945 Clear 10 1021 74 10000 2.6 20 20:41 27.03.2020
5946 Clear 10 1021 64 10000 3.1 20 20:21 27.03.2020
5947 Clear 11 1021 64 10000 3.1 20 19:58 27.03.2020
5948 Clear 12 1021 64 10000 3.1 40 19:40 27.03.2020
5949 Clear 12 1021 64 10000 1.5 70 19:21 27.03.2020
5950 Clear 12 1021 64 10000 1.5 70 18:56 27.03.2020
5951 Clear 13 1021 35 10000 2.6 50 18:38 27.03.2020
5952 Clear 14 1021 64 10000 3.1 60 18:19 27.03.2020
5953 Clear 15 1021 64 10000 3.6 70 17:40 27.03.2020
5954 Clouds 15 1021 47 10000 4.1 80 17:20 27.03.2020
5955 Clouds 16 1021 47 10000 3.1 60 16:54 27.03.2020
5956 Clouds 16 1021 47 10000 3.1 60 16:36 27.03.2020
5957 Clouds 16 1021 31 10000 3.1 70 16:18 27.03.2020
5958 Clouds 16 1021 31 10000 4.1 60 15:41 27.03.2020
5959 Clouds 16 1022 47 10000 4.1 60 15:22 27.03.2020
5960 Clouds 16 1022 31 10000 3.6 60 14:46 27.03.2020
5961 Clouds 16 1022 46 10000 3.6 70 14:25 27.03.2020
5962 Clouds 15 1023 33 10000 3.6 0 13:56 27.03.2020
5963 Clouds 15 1023 33 10000 3.6 0 13:37 27.03.2020
5964 Clouds 15 1023 33 10000 3.6 0 13:37 27.03.2020
5965 Clouds 15 1023 33 10000 3.1 90 13:19 27.03.2020
5966 Clouds 15 1023 33 10000 3.1 80 12:55 27.03.2020
5967 Clouds 15 1023 33 10000 3.1 80 12:37 27.03.2020
5968 Clouds 15 1023 35 10000 4.1 110 12:18 27.03.2020
5969 Clouds 13 1023 37 10000 3.1 90 11:41 27.03.2020
5970 Clear 12 1024 40 10000 3.6 60 11:23 27.03.2020
5971 Clear 12 1024 40 10000 3.1 70 10:55 27.03.2020
5972 Clear 12 1024 40 10000 3.1 70 10:37 27.03.2020
5973 Clear 11 1024 43 10000 3.6 110 10:18 27.03.2020
5974 Clear 10 1024 45 10000 3.1 90 09:56 27.03.2020
5975 Clear 9 1024 45 10000 3.1 90 09:37 27.03.2020
5976 Clear 9 1024 49 10000 3.1 50 09:18 27.03.2020
5977 Clear 8 1024 48 10000 3.1 70 08:56 27.03.2020
5978 Clear 8 1024 48 10000 3.1 70 08:37 27.03.2020
5979 Clouds 5 1024 52 10000 2.6 80 08:19 27.03.2020
5980 Clouds 5 1024 56 10000 2.1 60 07:50 27.03.2020
5981 Clouds 5 1024 52 10000 2.6 60 07:23 27.03.2020
5982 Clouds 4 1024 55 10000 2.1 50 06:51 27.03.2020
5983 Clouds 4 1024 55 10000 2.1 50 06:33 27.03.2020
5984 Clouds 5 1024 52 10000 2.6 60 04:23 27.03.2020
5985 Clouds 6 1025 48 10000 2.6 50 02:32 27.03.2020
5986 Clouds 6 1025 45 10000 3.1 50 01:23 27.03.2020
5987 Clouds 7 1025 45 10000 2.1 60 00:48 27.03.2020
5988 Clouds 7 1025 45 10000 2.6 50 00:24 27.03.2020
5989 Clouds 7 1025 42 10000 3.1 70 23:44 26.03.2020
5990 Clear 8 1026 39 10000 3.6 70 23:22 26.03.2020
5991 Clear 8 1026 39 10000 3.1 50 22:59 26.03.2020
5992 Clear 8 1026 39 10000 3.1 50 22:38 26.03.2020
5993 Clear 8 1026 39 10000 2.6 70 22:20 26.03.2020
5994 Clear 8 1026 39 10000 2.6 70 22:20 26.03.2020
5995 Clear 8 1026 39 10000 2.6 60 21:57 26.03.2020
5996 Clear 8 1026 39 10000 2.6 60 21:38 26.03.2020
5997 Clear 8 1026 42 10000 2.1 70 21:20 26.03.2020
5998 Clear 8 1026 39 10000 2.6 70 20:58 26.03.2020
5999 Clear 8 1026 39 10000 2.6 70 20:38 26.03.2020
6000 Clear 9 1026 36 10000 4.6 90 20:20 26.03.2020
6001 Clear 9 1026 39 10000 3.1 80 19:55 26.03.2020
6002 Clear 9 1026 39 10000 3.1 80 19:37 26.03.2020
6003 Clear 10 1026 34 10000 3.6 70 19:19 26.03.2020
6004 Clear 10 1026 34 10000 4.1 80 18:55 26.03.2020
6005 Clear 10 1026 34 10000 4.1 80 18:36 26.03.2020
6006 Clear 10 1026 34 10000 4.6 70 18:18 26.03.2020
6007 Clear 11 1026 29 10000 5.7 70 17:42 26.03.2020
6008 Clear 11 1026 29 10000 5.7 80 17:19 26.03.2020
6009 Clear 11 1026 32 10000 5.1 80 16:45 26.03.2020
6010 Clear 11 1026 32 10000 5.1 80 16:27 26.03.2020
6011 Clear 11 1026 32 10000 5.1 90 15:59 26.03.2020
6012 Clear 11 1026 29 10000 5.7 100 15:40 26.03.2020
6013 Clear 11 1027 29 10000 4.6 80 15:21 26.03.2020
6014 Clear 11 1027 29 10000 4.6 80 14:58 26.03.2020
6015 Clear 11 1027 29 10000 6.2 90 14:38 26.03.2020
6016 Clear 11 1027 29 10000 4.6 80 14:19 26.03.2020
6017 Clear 10 1028 29 10000 5.7 90 13:43 26.03.2020
6018 Clear 10 1028 29 10000 5.7 90 13:23 26.03.2020
6019 Clear 10 1028 29 10000 3.6 100 12:57 26.03.2020
6020 Clear 10 1028 29 10000 3.6 100 12:38 26.03.2020
6021 Clear 10 1028 34 10000 4.1 70 12:19 26.03.2020
6022 Clear 9 1029 33 10000 4.1 80 11:45 26.03.2020
6023 Clear 7 1029 33 10000 4.6 80 11:22 26.03.2020
6024 Clear 7 1029 33 10000 3.6 60 10:56 26.03.2020
6025 Clear 7 1029 33 10000 3.6 60 10:37 26.03.2020
6026 Clear 6 1029 38 10000 3.6 80 10:19 26.03.2020
6027 Clear 5 1029 38 10000 4.1 110 09:44 26.03.2020
6028 Clear 4 1029 41 10000 4.1 100 09:20 26.03.2020
6029 Clear 4 1029 44 10000 3.6 90 08:55 26.03.2020
6030 Clear 4 1029 44 10000 3.6 90 08:37 26.03.2020
6031 Clear 2 1029 47 10000 3.1 90 08:18 26.03.2020
6032 Clear 1 1029 50 10000 3.1 80 07:44 26.03.2020
6033 Clear 0 1029 87 10000 2.1 60 07:22 26.03.2020
6034 Clear 0 1029 87 10000 2.6 60 06:56 26.03.2020
6035 Clear 0 1029 87 10000 3.1 80 05:59 26.03.2020
6036 Clear 1 1028 47 10000 3.1 70 04:49 26.03.2020
6037 Clear 1 1028 47 10000 3.1 80 03:44 26.03.2020
6038 Clear 1 1029 40 10000 3.1 90 02:55 26.03.2020
6039 Clear 3 1029 37 10000 3.1 90 01:50 26.03.2020
6040 Clear 3 1029 35 10000 4.1 100 00:53 26.03.2020
6041 Clear 3 1029 35 10000 3.1 90 00:22 26.03.2020
6042 Clear 4 1029 35 10000 3.1 80 23:41 25.03.2020
6043 Clear 4 1030 32 10000 2.6 80 23:21 25.03.2020
6044 Clear 4 1030 35 10000 3.1 80 22:42 25.03.2020
6045 Clear 4 1030 35 10000 3.1 90 22:21 25.03.2020
6046 Clear 4 1030 35 10000 3.1 80 21:56 25.03.2020
6047 Clear 5 1030 35 10000 3.1 80 21:38 25.03.2020
6048 Clear 5 1030 33 10000 4.1 90 21:20 25.03.2020
6049 Clear 5 1030 33 10000 3.6 90 20:56 25.03.2020
6050 Clear 5 1030 33 10000 3.6 90 20:37 25.03.2020
6051 Clear 6 1030 28 10000 3.6 90 20:18 25.03.2020
6052 Clear 6 1030 28 10000 4.1 80 19:43 25.03.2020
6053 Clear 6 1030 28 10000 4.1 80 19:43 25.03.2020
6054 Clear 7 1030 28 10000 3.6 80 19:23 25.03.2020
6055 Clear 7 1029 24 10000 4.1 70 18:59 25.03.2020
6056 Clear 8 1029 24 10000 4.1 70 18:40 25.03.2020
6057 Clear 8 1029 24 10000 4.1 80 18:22 25.03.2020
6058 Clear 9 1029 21 10000 5.1 90 17:57 25.03.2020
6059 Clear 9 1029 21 10000 5.1 90 17:39 25.03.2020
6060 Clear 9 1030 19 10000 6.2 100 17:21 25.03.2020
6061 Clear 10 1030 21 10000 5.1 60 16:55 25.03.2020
6062 Clear 10 1030 23 10000 5.7 80 16:36 25.03.2020
6063 Clear 10 1030 23 10000 5.7 80 16:18 25.03.2020
6064 Clear 10 1031 19 10000 6.2 100 15:41 25.03.2020
6065 Clear 10 1031 23 10000 4.6 100 15:20 25.03.2020
6066 Clear 10 1031 21 10000 5.1 80 14:56 25.03.2020
6067 Clear 10 1031 21 10000 5.1 80 14:37 25.03.2020
6068 Clouds 9 1032 23 10000 6.2 90 14:18 25.03.2020
6069 Clouds 9 1032 23 10000 5.1 90 13:42 25.03.2020
6070 Clouds 9 1033 24 10000 5.7 100 13:22 25.03.2020
6071 Clouds 8 1033 28 10000 4.6 110 12:38 25.03.2020
6072 Clouds 8 1033 28 10000 4.1 80 12:20 25.03.2020
6073 Clouds 7 1034 28 10000 5.1 120 11:57 25.03.2020
6074 Clouds 7 1034 28 10000 5.1 120 11:39 25.03.2020
6075 Clear 6 1034 30 10000 5.7 120 11:20 25.03.2020
6076 Clear 5 1034 32 10000 6.2 110 10:57 25.03.2020
6077 Clear 5 1034 32 10000 6.2 110 10:39 25.03.2020
6078 Clear 5 1034 32 10000 7.7 120 10:18 25.03.2020
6079 Clear 4 1034 35 10000 7.2 130 09:43 25.03.2020
6080 Clear 4 1035 35 10000 5.7 130 09:25 25.03.2020
6081 Clear 4 1035 35 10000 5.7 130 08:58 25.03.2020
6082 Clear 3 1035 37 10000 4.1 110 08:58 25.03.2020
6083 Clear 3 1035 37 10000 4.1 110 08:39 25.03.2020
6084 Clear 2 1035 40 10000 4.6 120 08:20 25.03.2020
6085 Clear 1 1035 43 10000 2.6 90 07:44 25.03.2020
6086 Clear 0 1034 83 10000 2.6 90 07:24 25.03.2020
6087 Clear 0 1034 50 10000 3.1 110 06:57 25.03.2020
6088 Clear -1 1034 50 10000 3.1 110 06:37 25.03.2020
6089 Clear 0 1034 50 10000 3.1 100 06:19 25.03.2020
6090 Clear -1 1034 50 10000 3.1 100 05:42 25.03.2020
6091 Clear 0 1034 84 10000 3.1 110 04:41 25.03.2020
6092 Clear 0 1034 84 10000 2.6 90 03:57 25.03.2020
6093 Clear 0 1035 43 10000 3.1 80 03:30 25.03.2020
6094 Clear 1 1034 43 10000 4.1 120 01:40 25.03.2020
6095 Clear 1 1035 40 10000 4.1 120 00:50 25.03.2020
6096 Clear 1 1035 40 10000 4.1 110 00:27 25.03.2020
6097 Clear 1 1035 40 10000 4.1 120 23:55 24.03.2020
6098 Clear 3 1035 37 10000 3.6 120 23:28 24.03.2020
6099 Clear 3 1035 37 10000 3.6 120 22:58 24.03.2020
6100 Clear 3 1035 37 10000 3.6 120 22:38 24.03.2020
6101 Clear 3 1035 37 10000 3.6 120 22:38 24.03.2020
6102 Clear 3 1035 37 10000 4.1 120 22:20 24.03.2020
6103 Clear 3 1035 32 10000 4.1 120 21:58 24.03.2020
6104 Clear 3 1035 32 10000 4.1 120 21:40 24.03.2020
6105 Clear 4 1035 32 10000 4.1 120 21:19 24.03.2020
6106 Clear 4 1035 35 10000 4.1 110 20:59 24.03.2020
6107 Clear 4 1035 35 10000 4.1 110 20:40 24.03.2020
6108 Clear 4 1035 32 10000 2.6 80 20:22 24.03.2020
6109 Clear 5 1035 32 10000 3.1 80 19:48 24.03.2020
6110 Clear 5 1035 30 10000 3.1 70 19:23 24.03.2020
6111 Clear 6 1035 24 10000 4.1 100 18:59 24.03.2020
6112 Clear 6 1035 24 10000 4.1 100 18:40 24.03.2020
6113 Clear 7 1035 24 10000 4.6 100 18:20 24.03.2020
6114 Clear 7 1035 22 10000 3.1 100 17:58 24.03.2020
6115 Clear 7 1035 22 10000 3.1 100 17:40 24.03.2020
6116 Clear 8 1035 22 10000 3.6 120 17:22 24.03.2020
6117 Clear 8 1035 22 10000 4.6 140 16:57 24.03.2020
6118 Clear 8 1035 22 10000 4.6 140 16:38 24.03.2020
6119 Clear 8 1035 22 10000 4.1 90 16:20 24.03.2020
6120 Clear 8 1036 22 10000 3.1 110 15:44 24.03.2020
6121 Clear 8 1036 24 10000 4.1 130 15:25 24.03.2020
6122 Clear 8 1036 24 10000 4.1 130 14:59 24.03.2020
6123 Clear 8 1036 22 10000 4.1 130 14:40 24.03.2020
6124 Clear 7 1036 24 10000 4.6 130 14:18 24.03.2020
6125 Clear 8 1037 22 10000 4.1 140 13:42 24.03.2020
6126 Clear 7 1037 26 10000 4.1 130 13:23 24.03.2020
6127 Clear 7 1037 26 10000 4.1 130 13:23 24.03.2020
6128 Clear 7 1038 26 10000 3.1 130 12:54 24.03.2020
6129 Clear 7 1038 26 10000 3.1 130 12:36 24.03.2020
6130 Clear 7 1038 28 10000 4.6 140 12:18 24.03.2020
6131 Clear 6 1038 28 10000 4.6 110 11:39 24.03.2020
6132 Clear 5 1038 30 10000 5.1 150 11:19 24.03.2020
6133 Clear 4 1039 30 10000 3.6 140 10:43 24.03.2020
6134 Clear 4 1039 30 10000 3.6 140 10:43 24.03.2020
6135 Clear 4 1039 32 10000 5.1 150 10:20 24.03.2020
6136 Clear 4 1039 35 10000 4.6 120 09:59 24.03.2020
6137 Clear 4 1039 35 10000 4.6 120 09:40 24.03.2020
6138 Clear 3 1039 37 10000 3.6 130 09:22 24.03.2020
6139 Clear 2 1039 40 10000 3.1 110 08:39 24.03.2020
6140 Clear 0 1039 43 10000 2.6 100 08:20 24.03.2020
6141 Clear -1 1038 47 10000 2.1 90 07:48 24.03.2020
6142 Clear -2 1038 54 10000 2.1 90 07:25 24.03.2020
6143 Clear -3 1038 63 10000 1.5 90 06:58 24.03.2020
6144 Clear -3 1038 63 10000 1.5 90 06:58 24.03.2020
6145 Clear -3 1038 63 10000 1.5 90 06:32 24.03.2020
6146 Clear -3 1038 63 10000 1 0 05:27 24.03.2020
6147 Clear -3 1038 58 10000 1 0 04:31 24.03.2020
6148 Clear -2 1037 50 10000 1.5 130 03:19 24.03.2020
6149 Clear -2 1038 48 10000 2.6 110 01:50 24.03.2020
6150 Clear -1 1038 47 10000 1.5 110 00:51 24.03.2020
6151 Clear -1 1038 43 10000 2.1 110 00:26 24.03.2020
6152 Clear -1 1038 43 10000 2.1 120 23:49 23.03.2020
6153 Clear -1 1038 43 10000 2.1 110 23:29 23.03.2020
6154 Clear 0 1038 47 10000 1.5 80 22:59 23.03.2020
6155 Clear 0 1038 47 10000 1.5 80 22:40 23.03.2020
6156 Clear 0 1038 43 10000 2.1 70 22:22 23.03.2020
6157 Clear 0 1038 43 10000 1.5 60 21:44 23.03.2020
6158 Clear 1 1038 40 10000 1.5 50 21:21 23.03.2020
6159 Clear 1 1038 40 10000 1.5 50 21:00 23.03.2020
6160 Clear 2 1038 37 10000 1.5 100 20:41 23.03.2020
6161 Clear 2 1038 37 10000 1.5 110 20:23 23.03.2020
6162 Clear 2 1038 37 10000 1.5 110 19:55 23.03.2020
6163 Clear 2 1038 35 10000 2.6 100 19:55 23.03.2020
6164 Clear 3 1038 35 10000 2.6 100 19:55 23.03.2020
6165 Clear 3 1038 35 10000 2.6 100 19:37 23.03.2020
6166 Clear 3 1038 35 10000 2.1 80 19:18 23.03.2020
6167 Clear 4 1037 32 10000 3.6 80 18:43 23.03.2020
6168 Clear 4 1037 30 10000 3.6 80 18:24 23.03.2020
6169 Clear 4 1037 30 10000 3.6 80 18:24 23.03.2020
6170 Clear 5 1037 28 10000 3.1 70 17:59 23.03.2020
6171 Clear 5 1037 28 10000 3.1 70 17:40 23.03.2020
6172 Clear 6 1037 28 10000 3.6 60 17:19 23.03.2020
6173 Clear 6 1037 28 10000 4.1 60 16:43 23.03.2020
6174 Clear 7 1038 26 10000 4.1 80 16:25 23.03.2020
6175 Clear 7 1038 26 10000 4.1 80 16:25 23.03.2020
6176 Clear 6 1038 30 10000 4.1 100 15:54 23.03.2020
6177 Clear 6 1038 30 10000 4.1 100 15:36 23.03.2020
6178 Clear 7 1038 26 10000 4.1 100 15:18 23.03.2020
6179 Clear 6 1039 26 10000 4.1 70 14:37 23.03.2020
6180 Clear 6 1039 26 10000 4.1 70 14:37 23.03.2020
6181 Clear 6 1039 30 10000 4.1 90 14:19 23.03.2020
6182 Clear 6 1039 28 10000 2.6 0 13:57 23.03.2020
6183 Clear 6 1039 28 10000 2.6 0 13:38 23.03.2020
6184 Clear 6 1039 27 10000 4.1 110 13:20 23.03.2020
6185 Clear 6 1040 30 10000 4.1 110 12:43 23.03.2020
6186 Clear 6 1040 30 10000 4.1 100 12:23 23.03.2020
6187 Clear 5 1040 32 10000 4.6 100 11:56 23.03.2020
6188 Clear 5 1040 32 10000 4.6 100 11:37 23.03.2020
6189 Clear 5 1040 29 10000 4.1 100 11:19 23.03.2020
6190 Clear 4 1041 32 10000 3.6 90 10:56 23.03.2020
6191 Clear 4 1041 32 10000 3.6 90 10:36 23.03.2020
6192 Clear 4 1041 37 10000 3.1 110 10:18 23.03.2020
6193 Clear 3 1041 40 10000 1.5 0 09:42 23.03.2020
6194 Clear 2 1041 43 10000 1.5 70 09:20 23.03.2020
6195 Clear 0 1041 47 10000 2.1 80 08:40 23.03.2020
6196 Clear -1 1041 54 10000 2.6 100 08:20 23.03.2020
6197 Clear -1 1041 54 10000 2.1 80 07:58 23.03.2020
6198 Clear -2 1041 54 10000 2.1 80 07:37 23.03.2020
6199 Clear -3 1040 58 10000 2.1 60 07:18 23.03.2020
6200 Clear -4 1040 58 10000 1.5 60 06:48 23.03.2020
6201 Clear -3 1040 58 10000 1.5 60 05:45 23.03.2020
6202 Clear -3 1040 54 10000 1.5 60 04:41 23.03.2020
6203 Clear -2 1040 50 10000 2.1 70 03:23 23.03.2020
6204 Clear -2 1040 50 10000 2.1 60 01:50 23.03.2020
6205 Clear -2 1040 44 10000 2.6 60 00:52 23.03.2020
6206 Clear -2 1040 44 10000 2.6 60 00:33 23.03.2020
6207 Clear -1 1039 44 10000 2.1 70 23:46 22.03.2020
6208 Clear -1 1039 43 10000 1.5 70 23:25 22.03.2020
6209 Clear -1 1039 43 10000 2.1 80 22:45 22.03.2020
6210 Clear -1 1039 40 10000 2.1 80 22:23 22.03.2020
6211 Clear 0 1038 37 10000 2.1 50 21:55 22.03.2020
6212 Clear 0 1038 37 10000 2.1 50 21:37 22.03.2020
6213 Clear 1 1038 40 10000 2.6 80 21:19 22.03.2020
6214 Clear 1 1038 40 10000 1.5 70 20:46 22.03.2020
6215 Clear 1 1038 34 10000 1.5 60 20:25 22.03.2020
6216 Clear 2 1038 34 10000 1.5 60 19:58 22.03.2020
6217 Clear 2 1038 34 10000 2.1 70 19:40 22.03.2020
6218 Clear 3 1037 32 10000 2.6 70 19:20 22.03.2020
6219 Clear 3 1037 29 10000 3.1 70 18:59 22.03.2020
6220 Clear 4 1037 29 10000 3.1 70 18:41 22.03.2020
6221 Clear 4 1037 25 10000 4.6 80 18:22 22.03.2020
6222 Clear 5 1037 25 10000 4.6 80 17:59 22.03.2020
6223 Clear 5 1036 27 10000 3.6 80 17:39 22.03.2020
6224 Clear 5 1036 24 10000 4.6 50 17:21 22.03.2020
6225 Clear 6 1036 26 10000 4.1 80 16:58 22.03.2020
6226 Clear 6 1036 26 10000 4.1 80 16:40 22.03.2020
6227 Clear 6 1036 26 10000 5.1 40 16:21 22.03.2020
6228 Clear 6 1036 26 10000 4.1 50 15:57 22.03.2020
6229 Clear 6 1036 26 10000 4.1 50 15:39 22.03.2020
6230 Clear 6 1037 30 10000 4.1 50 14:47 22.03.2020
6231 Clear 6 1037 33 10000 4.6 50 14:19 22.03.2020
6232 Clear 6 1037 33 10000 5.1 60 13:57 22.03.2020
6233 Clear 6 1037 33 10000 5.1 60 13:39 22.03.2020
6234 Clear 6 1037 38 10000 5.7 90 13:19 22.03.2020
6235 Clouds 6 1037 38 10000 5.1 80 12:44 22.03.2020
6236 Clouds 6 1037 41 10000 5.7 60 12:20 22.03.2020
6237 Clouds 5 1037 44 10000 5.7 70 11:57 22.03.2020
6238 Clouds 6 1037 44 10000 5.7 70 11:39 22.03.2020
6239 Clouds 5 1037 44 10000 5.1 60 11:20 22.03.2020
6240 Clouds 4 1036 48 10000 5.7 80 10:43 22.03.2020
6241 Clouds 4 1036 51 10000 6.2 80 10:24 22.03.2020
6242 Clouds 4 1036 55 10000 5.1 50 09:54 22.03.2020
6243 Clouds 3 1036 55 10000 5.1 50 09:36 22.03.2020
6244 Clouds 3 1036 64 10000 3.6 50 09:18 22.03.2020
6245 Clouds 2 1036 59 10000 2.6 40 08:41 22.03.2020
6246 Clear 1 1036 64 10000 2.6 40 08:21 22.03.2020
6247 Clear 0 1036 57 10000 2.1 20 07:50 22.03.2020
6248 Clear -1 1036 74 10000 1.5 20 07:19 22.03.2020
6249 Clear -2 1035 74 10000 2.1 40 05:56 22.03.2020
6250 Clear -2 1035 74 10000 2.1 40 05:21 22.03.2020
6251 Clear -1 1034 74 10000 2.1 20 02:58 22.03.2020
6252 Clear 0 1034 55 10000 3.6 40 01:22 22.03.2020
6253 Clear 0 1034 55 10000 3.6 40 01:22 22.03.2020
6254 Clear 0 1034 63 10000 2.6 50 00:41 22.03.2020
6255 Clear 0 1034 59 10000 2.6 50 00:23 22.03.2020
6256 Clear 1 1034 64 10000 3.1 50 23:41 21.03.2020
6257 Clear 1 1034 64 10000 3.1 60 23:19 21.03.2020
6258 Clear 1 1033 59 10000 3.6 50 22:39 21.03.2020
6259 Clear 2 1033 59 10000 3.6 40 22:21 21.03.2020
6260 Clear 2 1033 59 10000 3.6 30 21:59 21.03.2020
6261 Clear 2 1033 59 10000 3.6 30 21:41 21.03.2020
6262 Clear 2 1033 55 10000 3.1 30 21:22 21.03.2020
6263 Clear 2 1033 55 10000 3.1 30 21:22 21.03.2020
6264 Clear 3 1032 51 10000 4.1 40 20:56 21.03.2020
6265 Clear 3 1032 51 10000 4.1 40 20:38 21.03.2020
6266 Clear 3 1032 44 10000 4.1 40 20:19 21.03.2020
6267 Clear 4 1032 44 10000 4.1 40 19:43 21.03.2020
6268 Clear 4 1031 41 10000 4.1 40 19:25 21.03.2020
6269 Clear 4 1031 41 10000 4.1 40 19:25 21.03.2020
6270 Clear 4 1031 38 10000 4.6 40 18:55 21.03.2020
6271 Clear 5 1031 38 10000 4.6 40 18:37 21.03.2020
6272 Clear 5 1031 38 10000 4.6 80 18:19 21.03.2020
6273 Clear 6 1031 38 10000 5.1 60 17:55 21.03.2020
6274 Clear 6 1031 36 10000 5.1 40 17:37 21.03.2020
6275 Clear 6 1031 36 10000 5.1 40 17:18 21.03.2020
6276 Clear 6 1031 36 10000 5.1 40 17:18 21.03.2020
6277 Clear 7 1031 36 10000 4.1 60 16:41 21.03.2020
6278 Clear 7 1030 33 10000 5.7 40 16:20 21.03.2020
6279 Clear 7 1030 33 10000 5.7 40 16:20 21.03.2020
6280 Clear 7 1031 36 10000 5.1 50 15:56 21.03.2020
6281 Clear 7 1031 36 10000 5.1 50 15:37 21.03.2020
6282 Clear 7 1031 36 10000 5.7 60 15:19 21.03.2020
6283 Clear 7 1031 38 10000 6.7 30 14:54 21.03.2020
6284 Clear 7 1031 38 10000 6.7 30 14:36 21.03.2020
6285 Clouds 7 1031 42 10000 5.1 70 14:18 21.03.2020
6286 Clouds 7 1031 45 10000 6.7 40 13:57 21.03.2020
6287 Clouds 7 1031 45 10000 6.7 40 13:38 21.03.2020
6288 Clear 7 1031 41 10000 6.2 60 13:19 21.03.2020
6289 Clear 7 1031 45 10000 6.2 40 12:40 21.03.2020
6290 Clouds 7 1031 41 10000 6.2 50 12:20 21.03.2020
6291 Clouds 7 1031 45 10000 6.7 60 11:59 21.03.2020
6292 Clouds 6 1031 45 10000 6.7 60 11:39 21.03.2020
6293 Clouds 6 1031 52 10000 6.2 60 11:19 21.03.2020
6294 Clouds 6 1031 52 10000 6.2 60 11:19 21.03.2020
6295 Clouds 5 1031 60 10000 5.1 50 10:58 21.03.2020
6296 Clouds 5 1031 60 10000 5.1 50 10:39 21.03.2020
6297 Clouds 5 1031 60 10000 6.7 60 10:21 21.03.2020
6298 Clouds 4 1031 64 10000 6.7 50 09:58 21.03.2020
6299 Clouds 4 1031 64 10000 6.7 50 09:39 21.03.2020
6300 Clouds 4 1031 69 10000 5.1 60 09:20 21.03.2020
6301 Clouds 4 1030 69 10000 5.7 50 08:55 21.03.2020
6302 Clouds 4 1030 69 10000 5.7 50 08:37 21.03.2020
6303 Clouds 3 1030 74 10000 5.1 40 08:18 21.03.2020
6304 Clouds 2 1030 74 0 4.1 40 07:37 21.03.2020
6305 Clouds 2 1030 74 10000 2.6 50 07:18 21.03.2020
6306 Clouds 2 1030 74 10000 2.6 50 06:42 21.03.2020
6307 Clouds 2 1029 74 10000 4.1 40 06:23 21.03.2020
6308 Clouds 2 1029 74 10000 3.6 40 05:39 21.03.2020
6309 Clouds 4 1028 80 10000 3.6 40 03:49 21.03.2020
6310 Clouds 4 1028 75 10000 3.1 30 02:37 21.03.2020
6311 Clouds 5 1028 75 10000 3.1 30 01:44 21.03.2020
6312 Clouds 5 1028 80 10000 3.1 30 01:23 21.03.2020
6313 Clouds 5 1027 80 10000 3.1 30 00:39 21.03.2020
6314 Clouds 6 1027 75 10000 4.1 30 00:21 21.03.2020
6315 Clouds 6 1027 75 10000 4.1 30 23:43 20.03.2020
6316 Clouds 6 1027 75 10000 4.1 30 23:22 20.03.2020
6317 Clouds 6 1027 81 10000 3.6 10 22:44 20.03.2020
6318 Clouds 6 1027 75 10000 3.6 360 22:25 20.03.2020
6319 Clouds 6 1027 75 10000 3.6 360 21:58 20.03.2020
6320 Clouds 7 1026 70 10000 3.6 10 21:40 20.03.2020
6321 Clouds 7 1026 70 10000 3.6 10 21:20 20.03.2020
6322 Clouds 7 1026 61 10000 3.6 360 20:59 20.03.2020
6323 Clouds 7 1026 61 10000 3.6 360 20:41 20.03.2020
6324 Clouds 7 1026 65 10000 2.1 360 20:20 20.03.2020
6325 Clouds 7 1026 65 10000 2.6 360 19:48 20.03.2020
6326 Clouds 7 1026 65 10000 2.6 360 19:22 20.03.2020
6327 Clouds 7 1026 65 10000 2.6 360 19:22 20.03.2020
6328 Clouds 8 1025 52 10000 1.5 50 18:59 20.03.2020
6329 Clouds 8 1025 57 10000 3.6 10 18:39 20.03.2020
6330 Clouds 8 1025 57 10000 1.5 20 18:20 20.03.2020
6331 Clouds 9 1025 45 10000 3.1 30 17:56 20.03.2020
6332 Clouds 9 1025 45 10000 3.1 30 17:38 20.03.2020
6333 Rain 9 1025 49 10000 5.1 10 17:19 20.03.2020
6334 Rain 9 1025 49 10000 5.1 10 17:19 20.03.2020
6335 Clouds 10 1025 43 10000 4.1 360 16:43 20.03.2020
6336 Clouds 10 1025 53 10000 3.1 350 16:21 20.03.2020
6337 Clouds 10 1025 57 10000 3.1 360 15:59 20.03.2020
6338 Clouds 10 1025 57 10000 3.1 360 15:41 20.03.2020
6339 Clouds 10 1025 57 10000 3.1 340 15:20 20.03.2020
6340 Clouds 9 1025 61 10000 3.1 360 14:42 20.03.2020
6341 Clouds 9 1025 66 10000 2.1 10 14:21 20.03.2020
6342 Clouds 9 1025 66 10000 2.1 10 13:55 20.03.2020
6343 Clouds 9 1025 66 10000 2.1 10 13:37 20.03.2020
6344 Clouds 9 1025 66 10000 2.6 40 13:19 20.03.2020
6345 Clouds 9 1025 70 10000 2.6 10 12:39 20.03.2020
6346 Clouds 9 1025 66 10000 2.1 0 12:20 20.03.2020
6347 Clouds 9 1025 66 10000 2.1 0 12:20 20.03.2020
6348 Clouds 9 1026 66 10000 2.1 20 11:56 20.03.2020
6349 Clouds 9 1026 65 10000 2.1 40 11:38 20.03.2020
6350 Rain 8 1026 65 10000 2.1 40 11:18 20.03.2020
6351 Clouds 8 1026 70 10000 2.1 30 10:41 20.03.2020
6352 Rain 8 1025 65 10000 1 0 10:21 20.03.2020
6353 Rain 8 1025 65 10000 3.1 40 09:56 20.03.2020
6354 Rain 8 1025 65 10000 3.1 40 09:37 20.03.2020
6355 Clouds 8 1026 65 10000 2.1 30 09:18 20.03.2020
6356 Clouds 8 1026 70 10000 2.6 50 08:42 20.03.2020
6357 Rain 7 1025 70 10000 3.1 80 08:22 20.03.2020
6358 Clouds 7 1025 75 10000 2.1 60 07:51 20.03.2020
6359 Clouds 7 1025 75 10000 2.1 60 07:33 20.03.2020
6360 Clouds 7 1025 81 10000 1.5 60 06:58 20.03.2020
6361 Rain 7 1025 81 10000 1.5 60 06:40 20.03.2020
6362 Clouds 7 1025 87 10000 2.1 40 04:51 20.03.2020
6363 Clouds 7 1025 81 10000 2.1 40 03:22 20.03.2020
6364 Clouds 8 1026 81 10000 1.5 40 01:58 20.03.2020
6365 Clouds 8 1026 81 10000 2.1 50 00:59 20.03.2020
6366 Clouds 8 1025 81 10000 1.5 50 00:31 20.03.2020
6367 Clouds 8 1025 81 10000 1.5 50 23:49 19.03.2020
6368 Clouds 8 1026 81 10000 1.5 30 23:30 19.03.2020
6369 Clouds 8 1026 81 10000 1.5 50 22:57 19.03.2020
6370 Clouds 8 1026 81 10000 1.5 50 22:38 19.03.2020
6371 Clouds 8 1026 76 10000 2.1 30 22:20 19.03.2020
6372 Clouds 8 1026 76 10000 2.1 30 21:56 19.03.2020
6373 Clouds 8 1026 76 10000 1.5 90 21:37 19.03.2020
6374 Clouds 9 1026 76 10000 1.5 60 21:18 19.03.2020
6375 Clouds 9 1026 76 10000 2.1 80 20:42 19.03.2020
6376 Clouds 9 1026 76 10000 2.6 60 20:23 19.03.2020
6377 Clouds 9 1026 81 10000 3.6 40 19:57 19.03.2020
6378 Clouds 9 1026 81 10000 3.6 40 19:38 19.03.2020
6379 Clouds 10 1026 76 10000 3.6 40 19:20 19.03.2020
6380 Clouds 10 1025 76 10000 3.1 10 18:56 19.03.2020
6381 Clouds 10 1025 76 10000 3.1 10 18:38 19.03.2020
6382 Clouds 11 1025 76 10000 3.6 30 18:19 19.03.2020
6383 Clouds 12 1025 76 10000 3.1 30 17:42 19.03.2020
6384 Clouds 12 1025 71 10000 3.1 350 17:20 19.03.2020
6385 Clouds 13 1025 71 10000 3.1 350 16:57 19.03.2020
6386 Clouds 13 1025 71 10000 3.1 350 16:39 19.03.2020
6387 -273 0 0 0 0 0 16:21 19.03.2020
6388 Clouds 13 1025 71 10000 3.6 340 15:42 19.03.2020
6389 Clouds 14 1025 71 10000 3.6 340 15:23 19.03.2020
6390 Clouds 13 1025 67 10000 3.1 360 14:43 19.03.2020
6391 Clouds 13 1025 71 10000 3.1 340 14:22 19.03.2020
6392 Clouds 13 1024 62 10000 4.1 320 13:57 19.03.2020
6393 Clouds 14 1025 71 10000 3.6 350 13:37 19.03.2020
6394 Clouds 14 1025 67 10000 3.1 330 13:18 19.03.2020
6395 Clouds 14 1025 67 10000 3.6 330 12:41 19.03.2020
6396 Clouds 14 1025 71 10000 4.1 310 12:22 19.03.2020
6397 Clouds 14 1025 71 10000 4.1 290 11:58 19.03.2020
6398 Clouds 14 1025 67 10000 3.6 290 11:40 19.03.2020
6399 Clouds 14 1025 67 10000 3.6 290 11:22 19.03.2020
6400 Clouds 13 1025 71 10000 4.1 290 10:42 19.03.2020
6401 Clouds 13 1024 66 10000 3.6 270 10:21 19.03.2020
6402 Clouds 12 1024 66 10000 3.6 270 09:58 19.03.2020
6403 Clouds 12 1024 66 10000 3.1 260 09:38 19.03.2020
6404 Clouds 11 1024 66 10000 3.1 250 09:19 19.03.2020
6405 Clouds 10 1024 71 10000 2.1 240 08:46 19.03.2020
6406 Clouds 10 1024 71 10000 2.1 260 08:22 19.03.2020
6407 Clouds 10 1023 71 10000 3.1 240 07:47 19.03.2020
6408 Clouds 10 1023 71 10000 3.1 240 07:29 19.03.2020
6409 Clouds 10 1023 76 10000 2.6 250 06:51 19.03.2020
6410 Clouds 9 1023 76 10000 2.1 260 05:53 19.03.2020
6411 Clouds 10 1023 76 10000 2.1 250 05:22 19.03.2020
6412 Clouds 10 1023 71 10000 3.1 250 04:41 19.03.2020
6413 Clouds 10 1023 66 10000 3.6 250 03:39 19.03.2020
6414 Clouds 9 1023 71 10000 3.1 240 01:45 19.03.2020
6415 Clouds 9 1023 71 10000 3.1 250 00:38 19.03.2020
6416 Clouds 9 1023 71 10000 3.6 250 00:18 19.03.2020
6417 Clouds 9 1023 71 10000 3.1 250 23:41 18.03.2020
6418 Clouds 9 1023 66 10000 2.1 240 23:21 18.03.2020
6419 Clouds 10 1024 66 10000 2.6 260 22:42 18.03.2020
6420 Clouds 10 1024 66 10000 2.1 200 22:22 18.03.2020
6421 Clouds 10 1024 66 10000 1.5 230 21:55 18.03.2020
6422 Clouds 10 1024 66 10000 1.5 230 21:37 18.03.2020
6423 Clouds 10 1024 66 10000 2.1 230 21:19 18.03.2020
6424 Clouds 10 1024 62 10000 2.6 210 20:55 18.03.2020
6425 Clouds 10 1024 62 10000 2.6 210 20:37 18.03.2020
6426 Clouds 11 1024 62 10000 1.5 230 20:18 18.03.2020
6427 Clouds 12 1024 58 10000 1.5 260 19:40 18.03.2020
6428 Clouds 12 1024 58 10000 2.1 270 19:21 18.03.2020
6429 Clouds 13 1024 50 10000 3.1 280 18:57 18.03.2020
6430 Clouds 14 1024 50 10000 3.1 280 18:38 18.03.2020
6431 Clouds 15 1023 47 10000 4.6 270 18:19 18.03.2020
6432 Clouds 16 1023 38 10000 4.6 250 17:55 18.03.2020
6433 Clouds 16 1023 38 10000 4.6 250 17:37 18.03.2020
6434 Clouds 16 1023 38 10000 6.2 240 17:18 18.03.2020
6435 Clouds 17 1023 38 10000 7.2 250 16:42 18.03.2020
6436 Clouds 17 1023 33 10000 8.2 250 16:20 18.03.2020
6437 Clouds 17 1023 33 10000 8.2 250 16:20 18.03.2020
6438 Clouds 17 1024 33 10000 7.2 240 15:57 18.03.2020
6439 Clouds 18 1024 33 10000 7.2 240 15:38 18.03.2020
6440 Clouds 17 1024 42 10000 7.7 250 15:20 18.03.2020
6441 Clouds 17 1024 29 10000 7.2 260 14:42 18.03.2020
6442 Clouds 17 1024 27 10000 7.7 250 14:21 18.03.2020
6443 Clouds 17 1024 25 10000 6.7 230 13:42 18.03.2020
6444 Clouds 17 1025 23 10000 8.2 230 13:19 18.03.2020
6445 Clouds 17 1025 26 10000 7.7 230 12:55 18.03.2020
6446 Clouds 16 1025 26 10000 7.7 230 12:37 18.03.2020
6447 Clouds 16 1025 26 10000 7.7 230 12:19 18.03.2020
6448 Clouds 16 1025 31 10000 6.7 240 11:38 18.03.2020
6449 Clouds 15 1026 33 10000 7.2 240 11:19 18.03.2020
6450 Clouds 14 1026 57 10000 7.2 240 10:57 18.03.2020
6451 Clouds 14 1026 57 10000 7.2 240 10:37 18.03.2020
6452 Clouds 13 1026 47 10000 5.7 240 10:19 18.03.2020
6453 Clouds 12 1026 47 10000 5.1 230 09:43 18.03.2020
6454 Clouds 11 1026 53 10000 3.6 230 09:24 18.03.2020
6455 Clouds 10 1026 61 10000 2.6 210 08:56 18.03.2020
6456 Clouds 9 1026 61 10000 2.6 210 08:38 18.03.2020
6457 Clouds 9 1026 61 10000 2.6 210 08:38 18.03.2020
6458 Clouds 8 1026 75 10000 2.1 200 08:20 18.03.2020
6459 Clouds 7 1026 81 10000 2.1 210 07:44 18.03.2020
6460 Clouds 7 1026 81 10000 1.5 180 07:25 18.03.2020
6461 Clouds 6 1026 81 10000 1.5 190 06:44 18.03.2020
6462 Clouds 6 1026 81 10000 1 170 06:20 18.03.2020
6463 Clouds 6 1026 75 10000 1.5 170 05:34 18.03.2020
6464 Clouds 6 1027 65 10000 1 170 04:24 18.03.2020
6465 Clouds 7 1027 65 10000 0.5 0 02:44 18.03.2020
6466 Clouds 8 1027 61 10000 1 190 01:48 18.03.2020
6467 Clouds 8 1027 61 10000 1.5 180 01:26 18.03.2020
6468 Clouds 9 1028 61 10000 1 0 00:24 18.03.2020
6469 Clouds 9 1028 57 10000 1.5 260 23:49 17.03.2020
6470 Clouds 9 1028 61 10000 1.5 240 23:27 17.03.2020
6471 Clouds 9 1028 57 10000 1 0 22:59 17.03.2020
6472 Clouds 9 1028 57 10000 1 0 22:40 17.03.2020
6473 Clouds 9 1028 57 10000 1 230 22:22 17.03.2020
6474 Clouds 9 1028 57 10000 1.5 250 21:40 17.03.2020
6475 Clouds 9 1028 61 10000 1 280 21:21 17.03.2020
6476 Clouds 9 1028 57 10000 1 250 20:41 17.03.2020
6477 Clouds 10 1028 57 10000 1 260 20:23 17.03.2020
6478 Clouds 10 1028 53 10000 1.5 290 19:59 17.03.2020
6479 Clouds 10 1028 53 10000 1.5 290 19:40 17.03.2020
6480 Clouds 11 1027 46 10000 2.1 300 19:18 17.03.2020
6481 Clouds 12 1027 51 10000 3.1 300 18:56 17.03.2020
6482 Clouds 12 1027 51 10000 3.1 300 18:38 17.03.2020
6483 Clouds 13 1027 51 10000 3.6 290 18:20 17.03.2020
6484 Clouds 14 1027 38 10000 3.1 280 17:41 17.03.2020
6485 Clouds 14 1026 38 10000 4.1 280 17:41 17.03.2020
6486 Clouds 15 1026 38 10000 4.1 280 17:22 17.03.2020
6487 Clouds 15 1027 41 10000 5.1 250 16:56 17.03.2020
6488 Clouds 15 1027 41 10000 5.1 250 16:38 17.03.2020
6489 Clouds 15 1027 41 10000 4.6 260 16:18 17.03.2020
6490 Clouds 16 1027 41 10000 5.7 280 15:44 17.03.2020
6491 Clouds 16 1027 51 10000 4.6 260 15:22 17.03.2020
6492 Clouds 15 1027 44 10000 5.1 290 14:44 17.03.2020
6493 Clouds 15 1027 50 10000 6.7 260 14:24 17.03.2020
6494 Clouds 15 1027 50 10000 6.7 260 13:57 17.03.2020
6495 Clouds 15 1027 58 10000 3.6 280 13:39 17.03.2020
6496 Clouds 15 1027 62 10000 4.1 300 13:20 17.03.2020
6497 Clouds 14 1027 62 10000 5.7 260 12:43 17.03.2020
6498 Clouds 14 1027 62 10000 4.1 270 12:24 17.03.2020
6499 Clouds 13 1027 66 10000 3.6 290 11:48 17.03.2020
6500 Clouds 12 1027 66 10000 3.6 250 11:29 17.03.2020
6501 Clouds 11 1027 71 10000 2.6 240 10:58 17.03.2020
6502 Clouds 11 1027 71 10000 2.6 240 10:40 17.03.2020
6503 Clouds 10 1027 76 10000 2.6 220 10:22 17.03.2020
6504 Clouds 9 1027 76 10000 2.6 220 09:59 17.03.2020
6505 Clouds 9 1027 76 10000 1.5 210 09:41 17.03.2020
6506 Clouds 8 1026 81 10000 1 0 09:20 17.03.2020
6507 Clouds 8 1026 81 10000 1 0 09:20 17.03.2020
6508 Clouds 7 1026 87 10000 0.5 0 08:50 17.03.2020
6509 Clouds 6 1026 87 10000 1 0 08:24 17.03.2020
6510 Clear 6 1026 87 10000 1 0 07:58 17.03.2020
6511 Clear 5 1026 87 10000 1 150 07:39 17.03.2020
6512 Clear 5 1025 93 10000 1 0 07:19 17.03.2020
6513 Clear 5 1025 93 10000 0.5 0 06:40 17.03.2020
6514 Clear 5 1025 93 10000 0.5 0 06:19 17.03.2020
6515 Clear 5 1025 93 10000 0.5 0 06:19 17.03.2020
6516 Clear 4 1025 100 10000 1 60 04:51 17.03.2020
6517 Clear 5 1025 100 10000 0.5 0 03:26 17.03.2020
6518 Clear 6 1024 100 10000 0.5 0 01:49 17.03.2020
6519 Clear 6 1024 93 10000 1 360 01:29 17.03.2020
6520 Clear 6 1024 93 10000 0.5 0 00:50 17.03.2020
6521 Clear 7 1024 87 10000 0.59 269 23:52 16.03.2020
6522 Clear 8 1024 81 10000 0.5 50 23:34 16.03.2020
6523 Clear 8 1024 76 10000 1 0 22:55 16.03.2020
6524 Clear 8 1024 76 10000 1 0 22:36 16.03.2020
6525 Clear 8 1023 76 10000 1.5 350 22:18 16.03.2020
6526 Clear 8 1023 76 10000 2.1 340 21:41 16.03.2020
6527 Clear 9 1023 81 10000 1 340 21:23 16.03.2020
6528 Clear 8 1023 81 10000 1 340 20:58 16.03.2020
6529 Clear 9 1022 76 10000 1 280 20:38 16.03.2020
6530 Clear 9 1022 76 10000 1 280 20:38 16.03.2020
6531 Clouds 10 1022 71 10000 0.5 0 20:20 16.03.2020
6532 Clouds 10 1021 62 10000 0.5 0 19:44 16.03.2020
6533 Clouds 11 1021 62 10000 1 260 19:23 16.03.2020
6534 Clouds 12 1021 54 10000 1.5 300 18:57 16.03.2020
6535 Clouds 13 1021 54 10000 1.5 300 18:38 16.03.2020
6536 Clouds 14 1020 51 10000 2.6 310 18:18 16.03.2020
6537 Clouds 15 1020 44 10000 3.1 280 17:45 16.03.2020
6538 Clouds 16 1020 44 10000 3.1 290 17:24 16.03.2020
6539 Clouds 16 1019 44 10000 5.7 250 16:54 16.03.2020
6540 Clouds 16 1019 44 10000 5.7 250 16:36 16.03.2020
6541 Clouds 17 1019 42 10000 5.7 250 16:18 16.03.2020
6542 Clouds 17 1019 42 10000 5.1 260 15:42 16.03.2020
6543 Clouds 16 1019 44 10000 5.1 260 15:22 16.03.2020
6544 Clouds 17 1019 39 10000 5.1 280 14:45 16.03.2020
6545 Clouds 16 1019 41 10000 5.7 270 14:20 16.03.2020
6546 Clouds 16 1019 41 10000 4.1 250 13:45 16.03.2020
6547 Clouds 16 1018 38 10000 3.1 250 13:26 16.03.2020
6548 Clouds 15 1018 38 10000 3.1 250 12:57 16.03.2020
6549 Clouds 15 1018 38 10000 3.1 210 12:38 16.03.2020
6550 Clouds 15 1018 41 10000 3.6 240 12:19 16.03.2020
6551 Clouds 14 1018 49 10000 3.6 240 11:42 16.03.2020
6552 Clouds 12 1018 51 10000 2.6 180 11:23 16.03.2020
6553 Clouds 11 1018 43 10000 3.1 170 10:43 16.03.2020
6554 Clouds 10 1018 46 10000 2.6 190 10:24 16.03.2020
6555 Clouds 9 1018 49 10000 3.1 190 09:49 16.03.2020
6556 Clouds 8 1017 48 10000 3.6 180 09:30 16.03.2020
6557 Clouds 7 1017 52 10000 3.6 180 08:59 16.03.2020
6558 Clouds 6 1017 52 10000 3.6 180 08:39 16.03.2020
6559 Clouds 5 1017 52 10000 3.1 190 08:20 16.03.2020
6560 Clouds 3 1017 55 10000 2.6 190 07:41 16.03.2020
6561 Clouds 3 1016 55 10000 2.1 190 07:18 16.03.2020
6562 Clouds 3 1016 51 10000 2.6 180 06:28 16.03.2020
6563 Clouds 3 1016 51 10000 3.1 180 05:55 16.03.2020
6564 Clouds 4 1016 48 10000 2.6 170 04:21 16.03.2020
6565 Clouds 5 1016 48 10000 3.6 170 01:46 16.03.2020
6566 Clouds 5 1016 45 10000 4.1 170 00:45 16.03.2020
6567 Clouds 5 1016 45 10000 3.1 170 00:26 16.03.2020
6568 Clouds 6 1016 45 10000 3.1 170 23:40 15.03.2020
6569 Clouds 6 1016 45 10000 3.6 160 23:19 15.03.2020
6570 Clouds 6 1016 42 10000 4.6 160 22:42 15.03.2020
6571 Clouds 6 1016 42 10000 4.6 160 22:21 15.03.2020
6572 Clouds 7 1016 42 10000 4.1 160 21:39 15.03.2020
6573 Clouds 7 1016 36 10000 4.1 160 21:21 15.03.2020
6574 Clouds 7 1016 36 10000 4.1 160 20:58 15.03.2020
6575 Clouds 7 1016 36 10000 4.1 150 20:40 15.03.2020
6576 Clouds 7 1016 34 10000 5.1 160 20:19 15.03.2020
6577 Clouds 8 1016 34 10000 5.1 160 19:55 15.03.2020
6578 Clouds 8 1017 34 10000 5.1 160 19:37 15.03.2020
6579 Clouds 8 1017 31 10000 4.6 160 19:18 15.03.2020
6580 Clouds 9 1017 27 10000 5.1 160 18:42 15.03.2020
6581 Clouds 9 1017 27 10000 6.2 170 18:24 15.03.2020
6582 Clouds 10 1017 27 10000 6.2 170 17:59 15.03.2020
6583 Clouds 10 1017 23 10000 6.7 170 17:39 15.03.2020
6584 Clouds 11 1017 23 10000 7.7 170 17:20 15.03.2020
6585 Clouds 11 1017 23 10000 7.2 160 16:55 15.03.2020
6586 Clouds 11 1017 23 10000 7.2 160 16:37 15.03.2020
6587 Clouds 12 1018 25 10000 8.2 160 16:18 15.03.2020
6588 Clouds 12 1018 25 10000 8.2 170 15:42 15.03.2020
6589 Clouds 12 1018 25 10000 8.2 170 15:22 15.03.2020
6590 Clouds 12 1019 27 10000 8.7 170 14:47 15.03.2020
6591 Clouds 12 1019 27 10000 8.7 170 14:28 15.03.2020
6592 Clouds 12 1019 37 10000 8.2 170 13:59 15.03.2020
6593 Clouds 12 1019 40 10000 8.2 170 13:40 15.03.2020
6594 Clouds 12 1020 43 10000 8.7 170 13:21 15.03.2020
6595 Clouds 12 1020 43 10000 8.7 170 12:58 15.03.2020
6596 Clouds 12 1021 43 10000 6.7 180 12:38 15.03.2020
6597 Clouds 11 1021 43 10000 8.7 180 12:20 15.03.2020
6598 Clouds 11 1021 43 10000 8.2 180 11:42 15.03.2020
6599 Clouds 9 1021 45 10000 7.7 180 11:22 15.03.2020
6600 Clouds 9 1022 45 10000 6.7 170 10:57 15.03.2020
6601 Clouds 8 1022 45 10000 6.7 170 10:38 15.03.2020
6602 Clouds 8 1022 48 10000 6.7 170 10:20 15.03.2020
6603 Clouds 7 1022 48 10000 6.2 160 09:42 15.03.2020
6604 Clouds 5 1022 51 10000 6.2 170 09:22 15.03.2020
6605 Clouds 5 1022 51 10000 6.2 170 08:58 15.03.2020
6606 Clouds 3 1022 55 10000 6.2 160 08:39 15.03.2020
6607 Clouds 2 1022 59 10000 5.1 160 08:18 15.03.2020
6608 Clouds 1 1022 64 10000 4.6 150 07:44 15.03.2020
6609 Clouds 0 1023 58 10000 4.1 150 06:59 15.03.2020
6610 Clouds 0 1023 58 10000 4.1 150 06:35 15.03.2020
6611 Clouds 0 1023 58 10000 3.6 150 05:46 15.03.2020
6612 Clear 0 1023 59 10000 4.1 150 04:50 15.03.2020
6613 Clear 0 1023 59 10000 4.1 150 04:32 15.03.2020
6614 Clear 0 1024 59 10000 4.1 150 03:59 15.03.2020
6615 Clear 1 1024 55 10000 4.1 150 02:48 15.03.2020
6616 Clear 1 1024 55 10000 4.1 150 01:56 15.03.2020
6617 Clear 1 1025 51 10000 3.1 150 00:57 15.03.2020
6618 Clear 1 1025 51 10000 3.1 150 00:38 15.03.2020
6619 Clear 1 1025 51 10000 3.6 150 00:18 15.03.2020
6620 Clear 1 1025 55 10000 3.1 150 23:38 14.03.2020
6621 Clear 2 1025 59 10000 2.6 130 23:19 14.03.2020
6622 Clear 2 1025 64 10000 3.1 130 22:55 14.03.2020
6623 Clear 2 1025 64 10000 3.1 130 22:37 14.03.2020
6624 Clear 2 1025 51 10000 3.1 120 22:19 14.03.2020
6625 Clear 2 1025 55 10000 2.6 130 21:54 14.03.2020
6626 Clear 2 1025 55 10000 2.6 130 21:36 14.03.2020
6627 Clear 2 1025 51 10000 2.1 150 21:18 14.03.2020
6628 Clear 3 1025 48 10000 3.1 150 20:55 14.03.2020
6629 Clear 3 1025 48 10000 3.1 150 20:36 14.03.2020
6630 Clouds 3 1025 44 10000 3.1 150 20:18 14.03.2020
6631 Clouds 4 1025 48 10000 2.1 140 19:40 14.03.2020
6632 Clouds 4 1025 48 10000 2.1 150 19:20 14.03.2020
6633 Clouds 5 1025 41 10000 2.6 170 18:39 14.03.2020
6634 Clouds 6 1025 45 10000 2.6 190 18:20 14.03.2020
6635 Clouds 7 1024 39 10000 2.1 120 17:42 14.03.2020
6636 Clouds 7 1024 36 10000 2.6 70 17:21 14.03.2020
6637 Clouds 8 1024 33 10000 2.1 180 16:58 14.03.2020
6638 Clouds 8 1024 33 10000 2.1 180 16:38 14.03.2020
6639 Clouds 8 1024 36 10000 1.5 0 16:18 14.03.2020
6640 Clouds 9 1024 36 10000 2.6 130 15:44 14.03.2020
6641 Clouds 8 1025 36 10000 2.6 0 15:22 14.03.2020
6642 Clouds 8 1025 39 10000 1.5 0 14:40 14.03.2020
6643 Clear 8 1025 36 10000 1 0 14:21 14.03.2020
6644 Clear 8 1025 42 10000 2.6 190 13:57 14.03.2020
6645 Clear 8 1025 42 10000 2.6 190 13:38 14.03.2020
6646 Clear 8 1025 39 10000 1 0 13:20 14.03.2020
6647 Clouds 8 1025 39 10000 2.1 180 12:44 14.03.2020
6648 Clouds 7 1025 48 10000 2.6 310 12:26 14.03.2020
6649 Clouds 7 1025 48 10000 1 0 11:47 14.03.2020
6650 Clouds 6 1025 52 10000 1.5 300 11:26 14.03.2020
6651 Clouds 6 1025 52 10000 1.5 0 10:59 14.03.2020
6652 Clouds 6 1025 52 10000 1.5 0 10:40 14.03.2020
6653 Clouds 6 1025 60 10000 1 0 10:22 14.03.2020
6654 Clear 5 1025 69 10000 1 0 09:43 14.03.2020
6655 Rain 4 1024 44 10000 1.5 260 09:24 14.03.2020
6656 Clear 3 1024 80 10000 1 0 08:47 14.03.2020
6657 Clear 1 1023 86 10000 1 0 08:29 14.03.2020
6658 Clear 0 1023 92 10000 1.5 250 07:55 14.03.2020
6659 Clear -1 1023 92 10000 1.5 250 07:37 14.03.2020
6660 Clear -1 1023 100 10000 0.5 300 07:18 14.03.2020
6661 Clear -2 1022 100 10000 1.5 230 06:40 14.03.2020
6662 Clear -2 1022 100 10000 1.5 230 06:40 14.03.2020
6663 Clear -1 1022 92 10000 0.5 280 05:24 14.03.2020
6664 Clear 0 1021 86 10000 0.5 270 03:46 14.03.2020
6665 Clear 1 1021 86 10000 1 300 03:24 14.03.2020
6666 Rain 2 1020 80 10000 2.1 310 02:22 14.03.2020
6667 Clouds 3 1019 74 10000 4.6 290 00:46 14.03.2020
6668 Clouds 4 1018 69 10000 5.1 290 23:50 13.03.2020
6669 Clouds 4 1018 69 10000 5.7 290 23:30 13.03.2020
6670 Clouds 4 1017 69 10000 5.7 290 22:52 13.03.2020
6671 Clouds 5 1016 69 10000 6.2 280 22:26 13.03.2020
6672 Rain 5 1016 65 10000 7.7 290 21:44 13.03.2020
6673 Rain 6 1015 75 10000 5.7 300 21:22 13.03.2020
6674 Clouds 6 1015 75 10000 5.7 290 20:59 13.03.2020
6675 Clouds 6 1015 75 10000 5.7 290 20:41 13.03.2020
6676 Clouds 6 1014 81 10000 5.7 280 20:21 13.03.2020
6677 Clouds 7 1013 81 10000 8.2 280 19:49 13.03.2020
6678 Clouds 7 1013 81 10000 8.2 280 19:30 13.03.2020
6679 Clouds 7 1012 75 10000 10.3 270 18:55 13.03.2020
6680 Clouds 7 1012 75 10000 10.3 270 18:36 13.03.2020
6681 Rain 7 1011 75 10000 9.8 270 18:18 13.03.2020
6682 Rain 8 1011 81 10000 6.7 280 17:41 13.03.2020
6683 Rain 8 1010 70 10000 10.3 260 17:21 13.03.2020
6684 Clouds 8 1010 70 10000 10.3 260 16:56 13.03.2020
6685 Clouds 8 1010 70 10000 10.3 260 16:37 13.03.2020
6686 Clouds 9 1010 66 10000